<?xml version="1.0" encoding="UTF-8" standalone="no" ?>
<gpx xmlns="http://www.topografix.com/GPX/1/1" xmlns:xsi="http://www.w3.org/2001/XMLSchema-instance" xsi:schemaLocation="http://www.topografix.com/GPX/1/1 http://www.topografix.com/GPX/1/1/gpx.xsd" version="1.1" creator="VisuGPX - https://www.visugpx.com">
  <metadata>
    <name>Mon MMB</name>
    <desc><![CDATA[Marathon Mont-Blanc]]></desc>
  </metadata>
  <trk>
    <name><![CDATA[Trail]]></name>
    <cmt><![CDATA[Marathon du Mont-Blanc
718/1717
240V1/518]]></cmt>
    <trkseg>
      <trkpt lat="45.92374" lon="6.8688">
        <ele>1055.1843261719</ele>
        <time>2010-06-27T05:00:07Z</time>
      </trkpt>
      <trkpt lat="45.92369" lon="6.86889">
        <ele>1048.4548339844</ele>
        <time>2010-06-27T05:00:30Z</time>
      </trkpt>
      <trkpt lat="45.92369" lon="6.86897">
        <ele>1047.9743652344</ele>
        <time>2010-06-27T05:00:41Z</time>
      </trkpt>
      <trkpt lat="45.92368" lon="6.86898">
        <ele>1051.8195800781</ele>
        <time>2010-06-27T05:00:46Z</time>
      </trkpt>
      <trkpt lat="45.92366" lon="6.86902">
        <ele>1052.7810058594</ele>
        <time>2010-06-27T05:00:51Z</time>
      </trkpt>
      <trkpt lat="45.92365" lon="6.86907">
        <ele>1053.7424316406</ele>
        <time>2010-06-27T05:00:57Z</time>
      </trkpt>
      <trkpt lat="45.92363" lon="6.86911">
        <ele>1055.6650390625</ele>
        <time>2010-06-27T05:01:01Z</time>
      </trkpt>
      <trkpt lat="45.92361" lon="6.86921">
        <ele>1056.1455078125</ele>
        <time>2010-06-27T05:01:09Z</time>
      </trkpt>
      <trkpt lat="45.92356" lon="6.86929">
        <ele>1054.2231445312</ele>
        <time>2010-06-27T05:01:17Z</time>
      </trkpt>
      <trkpt lat="45.92351" lon="6.86936">
        <ele>1055.1843261719</ele>
        <time>2010-06-27T05:01:22Z</time>
      </trkpt>
      <trkpt lat="45.92349" lon="6.86943">
        <ele>1057.1069335938</ele>
        <time>2010-06-27T05:01:28Z</time>
      </trkpt>
      <trkpt lat="45.9235" lon="6.86948">
        <ele>1057.5876464844</ele>
        <time>2010-06-27T05:01:33Z</time>
      </trkpt>
      <trkpt lat="45.92346" lon="6.86956">
        <ele>1058.068359375</ele>
        <time>2010-06-27T05:01:39Z</time>
      </trkpt>
      <trkpt lat="45.92347" lon="6.86963">
        <ele>1051.8195800781</ele>
        <time>2010-06-27T05:01:43Z</time>
      </trkpt>
      <trkpt lat="45.92356" lon="6.86976">
        <ele>1047.4936523438</ele>
        <time>2010-06-27T05:01:48Z</time>
      </trkpt>
      <trkpt lat="45.92358" lon="6.86979">
        <ele>1047.9743652344</ele>
        <time>2010-06-27T05:01:49Z</time>
      </trkpt>
      <trkpt lat="45.92372" lon="6.86979">
        <ele>1044.1291503906</ele>
        <time>2010-06-27T05:01:55Z</time>
      </trkpt>
      <trkpt lat="45.92381" lon="6.86979">
        <ele>1042.2065429688</ele>
        <time>2010-06-27T05:02:00Z</time>
      </trkpt>
      <trkpt lat="45.92393" lon="6.86978">
        <ele>1041.7258300781</ele>
        <time>2010-06-27T05:02:05Z</time>
      </trkpt>
      <trkpt lat="45.92405" lon="6.8698">
        <ele>1041.2451171875</ele>
        <time>2010-06-27T05:02:11Z</time>
      </trkpt>
      <trkpt lat="45.9241" lon="6.86982">
        <ele>1044.1291503906</ele>
        <time>2010-06-27T05:02:13Z</time>
      </trkpt>
      <trkpt lat="45.92416" lon="6.86983">
        <ele>1047.0129394531</ele>
        <time>2010-06-27T05:02:16Z</time>
      </trkpt>
      <trkpt lat="45.92429" lon="6.86979">
        <ele>1056.1455078125</ele>
        <time>2010-06-27T05:02:21Z</time>
      </trkpt>
      <trkpt lat="45.92442" lon="6.86977">
        <ele>1060.4714355469</ele>
        <time>2010-06-27T05:02:26Z</time>
      </trkpt>
      <trkpt lat="45.92443" lon="6.8698">
        <ele>1062.3940429688</ele>
        <time>2010-06-27T05:02:27Z</time>
      </trkpt>
      <trkpt lat="45.92451" lon="6.86983">
        <ele>1064.3166503906</ele>
        <time>2010-06-27T05:02:31Z</time>
      </trkpt>
      <trkpt lat="45.92466" lon="6.86979">
        <ele>1065.2780761719</ele>
        <time>2010-06-27T05:02:37Z</time>
      </trkpt>
      <trkpt lat="45.92471" lon="6.86981">
        <ele>1066.7199707031</ele>
        <time>2010-06-27T05:02:42Z</time>
      </trkpt>
      <trkpt lat="45.92478" lon="6.86984">
        <ele>1065.7587890625</ele>
        <time>2010-06-27T05:02:47Z</time>
      </trkpt>
      <trkpt lat="45.92494" lon="6.86982">
        <ele>1068.162109375</ele>
        <time>2010-06-27T05:02:52Z</time>
      </trkpt>
      <trkpt lat="45.92497" lon="6.86981">
        <ele>1067.6811523438</ele>
        <time>2010-06-27T05:02:53Z</time>
      </trkpt>
      <trkpt lat="45.92512" lon="6.8698">
        <ele>1067.2006835938</ele>
        <time>2010-06-27T05:03:00Z</time>
      </trkpt>
      <trkpt lat="45.92514" lon="6.86983">
        <ele>1063.8359375</ele>
        <time>2010-06-27T05:03:02Z</time>
      </trkpt>
      <trkpt lat="45.92532" lon="6.86985">
        <ele>1059.9907226562</ele>
        <time>2010-06-27T05:03:06Z</time>
      </trkpt>
      <trkpt lat="45.92538" lon="6.86986">
        <ele>1056.6262207031</ele>
        <time>2010-06-27T05:03:08Z</time>
      </trkpt>
      <trkpt lat="45.92542" lon="6.86986">
        <ele>1056.6262207031</ele>
        <time>2010-06-27T05:03:10Z</time>
      </trkpt>
      <trkpt lat="45.92555" lon="6.8699">
        <ele>1060.4714355469</ele>
        <time>2010-06-27T05:03:15Z</time>
      </trkpt>
      <trkpt lat="45.92571" lon="6.86994">
        <ele>1058.068359375</ele>
        <time>2010-06-27T05:03:21Z</time>
      </trkpt>
      <trkpt lat="45.92583" lon="6.86999">
        <ele>1053.7424316406</ele>
        <time>2010-06-27T05:03:26Z</time>
      </trkpt>
      <trkpt lat="45.92585" lon="6.87">
        <ele>1052.7810058594</ele>
        <time>2010-06-27T05:03:27Z</time>
      </trkpt>
      <trkpt lat="45.92598" lon="6.87003">
        <ele>1049.8969726562</ele>
        <time>2010-06-27T05:03:32Z</time>
      </trkpt>
      <trkpt lat="45.92613" lon="6.87006">
        <ele>1049.4162597656</ele>
        <time>2010-06-27T05:03:37Z</time>
      </trkpt>
      <trkpt lat="45.92618" lon="6.87009">
        <ele>1049.8969726562</ele>
        <time>2010-06-27T05:03:40Z</time>
      </trkpt>
      <trkpt lat="45.92629" lon="6.87011">
        <ele>1050.3776855469</ele>
        <time>2010-06-27T05:03:45Z</time>
      </trkpt>
      <trkpt lat="45.92641" lon="6.87012">
        <ele>1051.8195800781</ele>
        <time>2010-06-27T05:03:50Z</time>
      </trkpt>
      <trkpt lat="45.92652" lon="6.87015">
        <ele>1051.3388671875</ele>
        <time>2010-06-27T05:03:55Z</time>
      </trkpt>
      <trkpt lat="45.92662" lon="6.87017">
        <ele>1048.935546875</ele>
        <time>2010-06-27T05:03:59Z</time>
      </trkpt>
      <trkpt lat="45.92668" lon="6.87018">
        <ele>1047.9743652344</ele>
        <time>2010-06-27T05:04:02Z</time>
      </trkpt>
      <trkpt lat="45.9267" lon="6.87019">
        <ele>1047.9743652344</ele>
        <time>2010-06-27T05:04:03Z</time>
      </trkpt>
      <trkpt lat="45.92686" lon="6.8702">
        <ele>1048.935546875</ele>
        <time>2010-06-27T05:04:09Z</time>
      </trkpt>
      <trkpt lat="45.92701" lon="6.87018">
        <ele>1055.1843261719</ele>
        <time>2010-06-27T05:04:15Z</time>
      </trkpt>
      <trkpt lat="45.92713" lon="6.87019">
        <ele>1055.1843261719</ele>
        <time>2010-06-27T05:04:20Z</time>
      </trkpt>
      <trkpt lat="45.92725" lon="6.87021">
        <ele>1053.7424316406</ele>
        <time>2010-06-27T05:04:25Z</time>
      </trkpt>
      <trkpt lat="45.92736" lon="6.87021">
        <ele>1052.7810058594</ele>
        <time>2010-06-27T05:04:30Z</time>
      </trkpt>
      <trkpt lat="45.9274" lon="6.8702">
        <ele>1052.7810058594</ele>
        <time>2010-06-27T05:04:32Z</time>
      </trkpt>
      <trkpt lat="45.92758" lon="6.87022">
        <ele>1053.26171875</ele>
        <time>2010-06-27T05:04:39Z</time>
      </trkpt>
      <trkpt lat="45.92771" lon="6.87023">
        <ele>1053.26171875</ele>
        <time>2010-06-27T05:04:44Z</time>
      </trkpt>
      <trkpt lat="45.92784" lon="6.87026">
        <ele>1052.3002929688</ele>
        <time>2010-06-27T05:04:49Z</time>
      </trkpt>
      <trkpt lat="45.92793" lon="6.87029">
        <ele>1054.7036132812</ele>
        <time>2010-06-27T05:04:53Z</time>
      </trkpt>
      <trkpt lat="45.92805" lon="6.87029">
        <ele>1059.9907226562</ele>
        <time>2010-06-27T05:04:58Z</time>
      </trkpt>
      <trkpt lat="45.92816" lon="6.87029">
        <ele>1064.7973632812</ele>
        <time>2010-06-27T05:05:02Z</time>
      </trkpt>
      <trkpt lat="45.9282" lon="6.87032">
        <ele>1063.8359375</ele>
        <time>2010-06-27T05:05:04Z</time>
      </trkpt>
      <trkpt lat="45.92825" lon="6.87056">
        <ele>1060.4714355469</ele>
        <time>2010-06-27T05:05:10Z</time>
      </trkpt>
      <trkpt lat="45.9282" lon="6.87074">
        <ele>1055.6650390625</ele>
        <time>2010-06-27T05:05:15Z</time>
      </trkpt>
      <trkpt lat="45.92817" lon="6.87081">
        <ele>1053.7424316406</ele>
        <time>2010-06-27T05:05:17Z</time>
      </trkpt>
      <trkpt lat="45.92809" lon="6.87096">
        <ele>1051.3388671875</ele>
        <time>2010-06-27T05:05:22Z</time>
      </trkpt>
      <trkpt lat="45.92803" lon="6.87111">
        <ele>1048.4548339844</ele>
        <time>2010-06-27T05:05:26Z</time>
      </trkpt>
      <trkpt lat="45.92797" lon="6.87124">
        <ele>1045.0903320312</ele>
        <time>2010-06-27T05:05:30Z</time>
      </trkpt>
      <trkpt lat="45.92787" lon="6.87145">
        <ele>1043.1677246094</ele>
        <time>2010-06-27T05:05:36Z</time>
      </trkpt>
      <trkpt lat="45.92788" lon="6.87148">
        <ele>1043.1677246094</ele>
        <time>2010-06-27T05:05:37Z</time>
      </trkpt>
      <trkpt lat="45.92783" lon="6.87167">
        <ele>1043.1677246094</ele>
        <time>2010-06-27T05:05:42Z</time>
      </trkpt>
      <trkpt lat="45.92778" lon="6.87185">
        <ele>1042.6872558594</ele>
        <time>2010-06-27T05:05:47Z</time>
      </trkpt>
      <trkpt lat="45.92777" lon="6.87196">
        <ele>1042.6872558594</ele>
        <time>2010-06-27T05:05:50Z</time>
      </trkpt>
      <trkpt lat="45.92775" lon="6.87217">
        <ele>1042.2065429688</ele>
        <time>2010-06-27T05:05:55Z</time>
      </trkpt>
      <trkpt lat="45.92776" lon="6.87237">
        <ele>1041.2451171875</ele>
        <time>2010-06-27T05:06:00Z</time>
      </trkpt>
      <trkpt lat="45.9278" lon="6.87245">
        <ele>1042.2065429688</ele>
        <time>2010-06-27T05:06:02Z</time>
      </trkpt>
      <trkpt lat="45.92784" lon="6.8726">
        <ele>1042.6872558594</ele>
        <time>2010-06-27T05:06:06Z</time>
      </trkpt>
      <trkpt lat="45.92788" lon="6.87276">
        <ele>1044.1291503906</ele>
        <time>2010-06-27T05:06:11Z</time>
      </trkpt>
      <trkpt lat="45.92789" lon="6.87282">
        <ele>1044.1291503906</ele>
        <time>2010-06-27T05:06:13Z</time>
      </trkpt>
      <trkpt lat="45.9279" lon="6.873">
        <ele>1045.0903320312</ele>
        <time>2010-06-27T05:06:18Z</time>
      </trkpt>
      <trkpt lat="45.92787" lon="6.87318">
        <ele>1045.0903320312</ele>
        <time>2010-06-27T05:06:23Z</time>
      </trkpt>
      <trkpt lat="45.92778" lon="6.8733">
        <ele>1046.0517578125</ele>
        <time>2010-06-27T05:06:28Z</time>
      </trkpt>
      <trkpt lat="45.92773" lon="6.87335">
        <ele>1045.0903320312</ele>
        <time>2010-06-27T05:06:31Z</time>
      </trkpt>
      <trkpt lat="45.92764" lon="6.87344">
        <ele>1045.5710449219</ele>
        <time>2010-06-27T05:06:35Z</time>
      </trkpt>
      <trkpt lat="45.92762" lon="6.87345">
        <ele>1045.5710449219</ele>
        <time>2010-06-27T05:06:36Z</time>
      </trkpt>
      <trkpt lat="45.92758" lon="6.87348">
        <ele>1046.5324707031</ele>
        <time>2010-06-27T05:06:38Z</time>
      </trkpt>
      <trkpt lat="45.92752" lon="6.8736">
        <ele>1047.4936523438</ele>
        <time>2010-06-27T05:06:42Z</time>
      </trkpt>
      <trkpt lat="45.92747" lon="6.8738">
        <ele>1049.4162597656</ele>
        <time>2010-06-27T05:06:48Z</time>
      </trkpt>
      <trkpt lat="45.9275" lon="6.87394">
        <ele>1050.8581542969</ele>
        <time>2010-06-27T05:06:52Z</time>
      </trkpt>
      <trkpt lat="45.92751" lon="6.87402">
        <ele>1049.8969726562</ele>
        <time>2010-06-27T05:06:54Z</time>
      </trkpt>
      <trkpt lat="45.92749" lon="6.87423">
        <ele>1049.4162597656</ele>
        <time>2010-06-27T05:07:00Z</time>
      </trkpt>
      <trkpt lat="45.92747" lon="6.87434">
        <ele>1048.935546875</ele>
        <time>2010-06-27T05:07:03Z</time>
      </trkpt>
      <trkpt lat="45.92746" lon="6.87447">
        <ele>1051.3388671875</ele>
        <time>2010-06-27T05:07:07Z</time>
      </trkpt>
      <trkpt lat="45.92746" lon="6.87454">
        <ele>1052.3002929688</ele>
        <time>2010-06-27T05:07:09Z</time>
      </trkpt>
      <trkpt lat="45.92746" lon="6.87471">
        <ele>1051.3388671875</ele>
        <time>2010-06-27T05:07:14Z</time>
      </trkpt>
      <trkpt lat="45.92746" lon="6.87481">
        <ele>1047.9743652344</ele>
        <time>2010-06-27T05:07:18Z</time>
      </trkpt>
      <trkpt lat="45.92749" lon="6.87487">
        <ele>1045.0903320312</ele>
        <time>2010-06-27T05:07:25Z</time>
      </trkpt>
      <trkpt lat="45.92755" lon="6.87493">
        <ele>1046.5324707031</ele>
        <time>2010-06-27T05:07:30Z</time>
      </trkpt>
      <trkpt lat="45.92763" lon="6.87505">
        <ele>1046.0517578125</ele>
        <time>2010-06-27T05:07:34Z</time>
      </trkpt>
      <trkpt lat="45.92775" lon="6.87519">
        <ele>1046.5324707031</ele>
        <time>2010-06-27T05:07:40Z</time>
      </trkpt>
      <trkpt lat="45.9278" lon="6.87526">
        <ele>1045.0903320312</ele>
        <time>2010-06-27T05:07:43Z</time>
      </trkpt>
      <trkpt lat="45.92783" lon="6.87532">
        <ele>1043.1677246094</ele>
        <time>2010-06-27T05:07:46Z</time>
      </trkpt>
      <trkpt lat="45.92791" lon="6.87541">
        <ele>1042.6872558594</ele>
        <time>2010-06-27T05:07:50Z</time>
      </trkpt>
      <trkpt lat="45.92802" lon="6.87551">
        <ele>1045.0903320312</ele>
        <time>2010-06-27T05:07:55Z</time>
      </trkpt>
      <trkpt lat="45.92814" lon="6.8756">
        <ele>1047.0129394531</ele>
        <time>2010-06-27T05:08:00Z</time>
      </trkpt>
      <trkpt lat="45.92822" lon="6.87568">
        <ele>1047.9743652344</ele>
        <time>2010-06-27T05:08:03Z</time>
      </trkpt>
      <trkpt lat="45.92828" lon="6.87578">
        <ele>1047.0129394531</ele>
        <time>2010-06-27T05:08:07Z</time>
      </trkpt>
      <trkpt lat="45.9283" lon="6.8758">
        <ele>1047.4936523438</ele>
        <time>2010-06-27T05:08:08Z</time>
      </trkpt>
      <trkpt lat="45.92842" lon="6.87593">
        <ele>1047.9743652344</ele>
        <time>2010-06-27T05:08:14Z</time>
      </trkpt>
      <trkpt lat="45.92846" lon="6.87598">
        <ele>1048.4548339844</ele>
        <time>2010-06-27T05:08:18Z</time>
      </trkpt>
      <trkpt lat="45.9285" lon="6.87605">
        <ele>1048.4548339844</ele>
        <time>2010-06-27T05:08:21Z</time>
      </trkpt>
      <trkpt lat="45.92862" lon="6.87621">
        <ele>1047.4936523438</ele>
        <time>2010-06-27T05:08:26Z</time>
      </trkpt>
      <trkpt lat="45.92869" lon="6.87634">
        <ele>1047.4936523438</ele>
        <time>2010-06-27T05:08:30Z</time>
      </trkpt>
      <trkpt lat="45.9288" lon="6.8765">
        <ele>1047.4936523438</ele>
        <time>2010-06-27T05:08:35Z</time>
      </trkpt>
      <trkpt lat="45.92883" lon="6.87655">
        <ele>1047.9743652344</ele>
        <time>2010-06-27T05:08:37Z</time>
      </trkpt>
      <trkpt lat="45.92891" lon="6.87666">
        <ele>1047.0129394531</ele>
        <time>2010-06-27T05:08:41Z</time>
      </trkpt>
      <trkpt lat="45.92904" lon="6.87678">
        <ele>1048.935546875</ele>
        <time>2010-06-27T05:08:46Z</time>
      </trkpt>
      <trkpt lat="45.92912" lon="6.87689">
        <ele>1049.4162597656</ele>
        <time>2010-06-27T05:08:50Z</time>
      </trkpt>
      <trkpt lat="45.9292" lon="6.87703">
        <ele>1048.935546875</ele>
        <time>2010-06-27T05:08:55Z</time>
      </trkpt>
      <trkpt lat="45.92931" lon="6.87719">
        <ele>1048.935546875</ele>
        <time>2010-06-27T05:09:01Z</time>
      </trkpt>
      <trkpt lat="45.92939" lon="6.87729">
        <ele>1049.8969726562</ele>
        <time>2010-06-27T05:09:05Z</time>
      </trkpt>
      <trkpt lat="45.92947" lon="6.87741">
        <ele>1051.3388671875</ele>
        <time>2010-06-27T05:09:09Z</time>
      </trkpt>
      <trkpt lat="45.92958" lon="6.87755">
        <ele>1050.8581542969</ele>
        <time>2010-06-27T05:09:14Z</time>
      </trkpt>
      <trkpt lat="45.92963" lon="6.87763">
        <ele>1049.8969726562</ele>
        <time>2010-06-27T05:09:17Z</time>
      </trkpt>
      <trkpt lat="45.92968" lon="6.87775">
        <ele>1047.9743652344</ele>
        <time>2010-06-27T05:09:22Z</time>
      </trkpt>
      <trkpt lat="45.9297" lon="6.8778">
        <ele>1047.9743652344</ele>
        <time>2010-06-27T05:09:24Z</time>
      </trkpt>
      <trkpt lat="45.9298" lon="6.87789">
        <ele>1048.4548339844</ele>
        <time>2010-06-27T05:09:29Z</time>
      </trkpt>
      <trkpt lat="45.92988" lon="6.87793">
        <ele>1048.935546875</ele>
        <time>2010-06-27T05:09:32Z</time>
      </trkpt>
      <trkpt lat="45.93" lon="6.87799">
        <ele>1049.4162597656</ele>
        <time>2010-06-27T05:09:37Z</time>
      </trkpt>
      <trkpt lat="45.9301" lon="6.87805">
        <ele>1050.8581542969</ele>
        <time>2010-06-27T05:09:41Z</time>
      </trkpt>
      <trkpt lat="45.93022" lon="6.87814">
        <ele>1056.1455078125</ele>
        <time>2010-06-27T05:09:47Z</time>
      </trkpt>
      <trkpt lat="45.93027" lon="6.87822">
        <ele>1056.1455078125</ele>
        <time>2010-06-27T05:09:50Z</time>
      </trkpt>
      <trkpt lat="45.93031" lon="6.87837">
        <ele>1054.2231445312</ele>
        <time>2010-06-27T05:09:54Z</time>
      </trkpt>
      <trkpt lat="45.93035" lon="6.87855">
        <ele>1054.7036132812</ele>
        <time>2010-06-27T05:10:00Z</time>
      </trkpt>
      <trkpt lat="45.9304" lon="6.87868">
        <ele>1054.2231445312</ele>
        <time>2010-06-27T05:10:04Z</time>
      </trkpt>
      <trkpt lat="45.9304" lon="6.8787">
        <ele>1054.2231445312</ele>
        <time>2010-06-27T05:10:05Z</time>
      </trkpt>
      <trkpt lat="45.93049" lon="6.87889">
        <ele>1053.26171875</ele>
        <time>2010-06-27T05:10:11Z</time>
      </trkpt>
      <trkpt lat="45.93052" lon="6.87903">
        <ele>1051.8195800781</ele>
        <time>2010-06-27T05:10:15Z</time>
      </trkpt>
      <trkpt lat="45.9305" lon="6.87919">
        <ele>1052.3002929688</ele>
        <time>2010-06-27T05:10:20Z</time>
      </trkpt>
      <trkpt lat="45.93053" lon="6.87932">
        <ele>1050.8581542969</ele>
        <time>2010-06-27T05:10:24Z</time>
      </trkpt>
      <trkpt lat="45.93058" lon="6.87949">
        <ele>1051.8195800781</ele>
        <time>2010-06-27T05:10:29Z</time>
      </trkpt>
      <trkpt lat="45.93059" lon="6.87956">
        <ele>1051.8195800781</ele>
        <time>2010-06-27T05:10:31Z</time>
      </trkpt>
      <trkpt lat="45.93061" lon="6.87964">
        <ele>1053.26171875</ele>
        <time>2010-06-27T05:10:34Z</time>
      </trkpt>
      <trkpt lat="45.93068" lon="6.87979">
        <ele>1051.8195800781</ele>
        <time>2010-06-27T05:10:39Z</time>
      </trkpt>
      <trkpt lat="45.93073" lon="6.87991">
        <ele>1050.8581542969</ele>
        <time>2010-06-27T05:10:43Z</time>
      </trkpt>
      <trkpt lat="45.93079" lon="6.88009">
        <ele>1051.3388671875</ele>
        <time>2010-06-27T05:10:49Z</time>
      </trkpt>
      <trkpt lat="45.93082" lon="6.88017">
        <ele>1051.8195800781</ele>
        <time>2010-06-27T05:10:52Z</time>
      </trkpt>
      <trkpt lat="45.9309" lon="6.88029">
        <ele>1052.7810058594</ele>
        <time>2010-06-27T05:10:57Z</time>
      </trkpt>
      <trkpt lat="45.93098" lon="6.88043">
        <ele>1052.7810058594</ele>
        <time>2010-06-27T05:11:01Z</time>
      </trkpt>
      <trkpt lat="45.931" lon="6.88051">
        <ele>1052.7810058594</ele>
        <time>2010-06-27T05:11:04Z</time>
      </trkpt>
      <trkpt lat="45.93106" lon="6.88066">
        <ele>1052.7810058594</ele>
        <time>2010-06-27T05:11:09Z</time>
      </trkpt>
      <trkpt lat="45.93113" lon="6.88081">
        <ele>1053.7424316406</ele>
        <time>2010-06-27T05:11:14Z</time>
      </trkpt>
      <trkpt lat="45.93117" lon="6.88092">
        <ele>1053.26171875</ele>
        <time>2010-06-27T05:11:18Z</time>
      </trkpt>
      <trkpt lat="45.93122" lon="6.88105">
        <ele>1053.26171875</ele>
        <time>2010-06-27T05:11:22Z</time>
      </trkpt>
      <trkpt lat="45.93123" lon="6.88108">
        <ele>1052.7810058594</ele>
        <time>2010-06-27T05:11:23Z</time>
      </trkpt>
      <trkpt lat="45.93128" lon="6.88123">
        <ele>1051.8195800781</ele>
        <time>2010-06-27T05:11:28Z</time>
      </trkpt>
      <trkpt lat="45.93131" lon="6.88132">
        <ele>1051.3388671875</ele>
        <time>2010-06-27T05:11:31Z</time>
      </trkpt>
      <trkpt lat="45.93138" lon="6.88147">
        <ele>1049.8969726562</ele>
        <time>2010-06-27T05:11:35Z</time>
      </trkpt>
      <trkpt lat="45.93142" lon="6.88157">
        <ele>1049.4162597656</ele>
        <time>2010-06-27T05:11:38Z</time>
      </trkpt>
      <trkpt lat="45.93143" lon="6.88163">
        <ele>1048.935546875</ele>
        <time>2010-06-27T05:11:40Z</time>
      </trkpt>
      <trkpt lat="45.93147" lon="6.88178">
        <ele>1048.935546875</ele>
        <time>2010-06-27T05:11:45Z</time>
      </trkpt>
      <trkpt lat="45.9315" lon="6.88199">
        <ele>1047.9743652344</ele>
        <time>2010-06-27T05:11:51Z</time>
      </trkpt>
      <trkpt lat="45.9315" lon="6.88216">
        <ele>1045.5710449219</ele>
        <time>2010-06-27T05:11:56Z</time>
      </trkpt>
      <trkpt lat="45.93153" lon="6.88237">
        <ele>1045.0903320312</ele>
        <time>2010-06-27T05:12:03Z</time>
      </trkpt>
      <trkpt lat="45.93155" lon="6.8825">
        <ele>1043.6484375</ele>
        <time>2010-06-27T05:12:07Z</time>
      </trkpt>
      <trkpt lat="45.93159" lon="6.88262">
        <ele>1045.0903320312</ele>
        <time>2010-06-27T05:12:11Z</time>
      </trkpt>
      <trkpt lat="45.93164" lon="6.88268">
        <ele>1047.0129394531</ele>
        <time>2010-06-27T05:12:13Z</time>
      </trkpt>
      <trkpt lat="45.93173" lon="6.88281">
        <ele>1049.8969726562</ele>
        <time>2010-06-27T05:12:18Z</time>
      </trkpt>
      <trkpt lat="45.93181" lon="6.88294">
        <ele>1051.8195800781</ele>
        <time>2010-06-27T05:12:23Z</time>
      </trkpt>
      <trkpt lat="45.93188" lon="6.88304">
        <ele>1051.8195800781</ele>
        <time>2010-06-27T05:12:27Z</time>
      </trkpt>
      <trkpt lat="45.93198" lon="6.88314">
        <ele>1052.3002929688</ele>
        <time>2010-06-27T05:12:31Z</time>
      </trkpt>
      <trkpt lat="45.93207" lon="6.88325">
        <ele>1052.3002929688</ele>
        <time>2010-06-27T05:12:36Z</time>
      </trkpt>
      <trkpt lat="45.93219" lon="6.8834">
        <ele>1052.3002929688</ele>
        <time>2010-06-27T05:12:41Z</time>
      </trkpt>
      <trkpt lat="45.93221" lon="6.88346">
        <ele>1052.3002929688</ele>
        <time>2010-06-27T05:12:43Z</time>
      </trkpt>
      <trkpt lat="45.93224" lon="6.88359">
        <ele>1051.8195800781</ele>
        <time>2010-06-27T05:12:47Z</time>
      </trkpt>
      <trkpt lat="45.93224" lon="6.88362">
        <ele>1050.8581542969</ele>
        <time>2010-06-27T05:12:48Z</time>
      </trkpt>
      <trkpt lat="45.93224" lon="6.8838">
        <ele>1050.3776855469</ele>
        <time>2010-06-27T05:12:53Z</time>
      </trkpt>
      <trkpt lat="45.93221" lon="6.88398">
        <ele>1049.8969726562</ele>
        <time>2010-06-27T05:12:58Z</time>
      </trkpt>
      <trkpt lat="45.93222" lon="6.88417">
        <ele>1050.8581542969</ele>
        <time>2010-06-27T05:13:03Z</time>
      </trkpt>
      <trkpt lat="45.93223" lon="6.8842">
        <ele>1050.8581542969</ele>
        <time>2010-06-27T05:13:04Z</time>
      </trkpt>
      <trkpt lat="45.93222" lon="6.88435">
        <ele>1048.935546875</ele>
        <time>2010-06-27T05:13:09Z</time>
      </trkpt>
      <trkpt lat="45.93224" lon="6.88441">
        <ele>1049.4162597656</ele>
        <time>2010-06-27T05:13:11Z</time>
      </trkpt>
      <trkpt lat="45.9323" lon="6.88457">
        <ele>1053.7424316406</ele>
        <time>2010-06-27T05:13:16Z</time>
      </trkpt>
      <trkpt lat="45.93232" lon="6.88461">
        <ele>1054.2231445312</ele>
        <time>2010-06-27T05:13:17Z</time>
      </trkpt>
      <trkpt lat="45.93239" lon="6.88478">
        <ele>1057.5876464844</ele>
        <time>2010-06-27T05:13:23Z</time>
      </trkpt>
      <trkpt lat="45.93251" lon="6.88489">
        <ele>1059.0295410156</ele>
        <time>2010-06-27T05:13:27Z</time>
      </trkpt>
      <trkpt lat="45.93261" lon="6.88498">
        <ele>1061.4328613281</ele>
        <time>2010-06-27T05:13:32Z</time>
      </trkpt>
      <trkpt lat="45.93267" lon="6.88507">
        <ele>1061.4328613281</ele>
        <time>2010-06-27T05:13:37Z</time>
      </trkpt>
      <trkpt lat="45.93273" lon="6.8852">
        <ele>1061.9135742188</ele>
        <time>2010-06-27T05:13:41Z</time>
      </trkpt>
      <trkpt lat="45.93278" lon="6.88534">
        <ele>1059.5102539062</ele>
        <time>2010-06-27T05:13:45Z</time>
      </trkpt>
      <trkpt lat="45.93285" lon="6.88544">
        <ele>1059.0295410156</ele>
        <time>2010-06-27T05:13:49Z</time>
      </trkpt>
      <trkpt lat="45.93292" lon="6.88554">
        <ele>1058.548828125</ele>
        <time>2010-06-27T05:13:53Z</time>
      </trkpt>
      <trkpt lat="45.93299" lon="6.88571">
        <ele>1058.548828125</ele>
        <time>2010-06-27T05:13:58Z</time>
      </trkpt>
      <trkpt lat="45.93307" lon="6.88584">
        <ele>1058.068359375</ele>
        <time>2010-06-27T05:14:02Z</time>
      </trkpt>
      <trkpt lat="45.93311" lon="6.8859">
        <ele>1057.1069335938</ele>
        <time>2010-06-27T05:14:04Z</time>
      </trkpt>
      <trkpt lat="45.93316" lon="6.88604">
        <ele>1056.1455078125</ele>
        <time>2010-06-27T05:14:09Z</time>
      </trkpt>
      <trkpt lat="45.93319" lon="6.88617">
        <ele>1057.5876464844</ele>
        <time>2010-06-27T05:14:13Z</time>
      </trkpt>
      <trkpt lat="45.93324" lon="6.88626">
        <ele>1059.5102539062</ele>
        <time>2010-06-27T05:14:16Z</time>
      </trkpt>
      <trkpt lat="45.93325" lon="6.8863">
        <ele>1059.9907226562</ele>
        <time>2010-06-27T05:14:17Z</time>
      </trkpt>
      <trkpt lat="45.93335" lon="6.8865">
        <ele>1060.9521484375</ele>
        <time>2010-06-27T05:14:23Z</time>
      </trkpt>
      <trkpt lat="45.93339" lon="6.88661">
        <ele>1061.4328613281</ele>
        <time>2010-06-27T05:14:26Z</time>
      </trkpt>
      <trkpt lat="45.93345" lon="6.88674">
        <ele>1062.8747558594</ele>
        <time>2010-06-27T05:14:30Z</time>
      </trkpt>
      <trkpt lat="45.93352" lon="6.88687">
        <ele>1062.8747558594</ele>
        <time>2010-06-27T05:14:34Z</time>
      </trkpt>
      <trkpt lat="45.93353" lon="6.8869">
        <ele>1062.3940429688</ele>
        <time>2010-06-27T05:14:35Z</time>
      </trkpt>
      <trkpt lat="45.93362" lon="6.88705">
        <ele>1062.8747558594</ele>
        <time>2010-06-27T05:14:40Z</time>
      </trkpt>
      <trkpt lat="45.93369" lon="6.88722">
        <ele>1063.35546875</ele>
        <time>2010-06-27T05:14:46Z</time>
      </trkpt>
      <trkpt lat="45.93372" lon="6.88736">
        <ele>1062.8747558594</ele>
        <time>2010-06-27T05:14:50Z</time>
      </trkpt>
      <trkpt lat="45.93376" lon="6.88746">
        <ele>1063.35546875</ele>
        <time>2010-06-27T05:14:53Z</time>
      </trkpt>
      <trkpt lat="45.9338" lon="6.88758">
        <ele>1063.35546875</ele>
        <time>2010-06-27T05:14:57Z</time>
      </trkpt>
      <trkpt lat="45.93384" lon="6.88768">
        <ele>1062.8747558594</ele>
        <time>2010-06-27T05:15:00Z</time>
      </trkpt>
      <trkpt lat="45.93388" lon="6.88783">
        <ele>1061.4328613281</ele>
        <time>2010-06-27T05:15:05Z</time>
      </trkpt>
      <trkpt lat="45.93393" lon="6.88793">
        <ele>1060.4714355469</ele>
        <time>2010-06-27T05:15:09Z</time>
      </trkpt>
      <trkpt lat="45.93396" lon="6.88799">
        <ele>1060.9521484375</ele>
        <time>2010-06-27T05:15:11Z</time>
      </trkpt>
      <trkpt lat="45.93403" lon="6.88809">
        <ele>1060.4714355469</ele>
        <time>2010-06-27T05:15:15Z</time>
      </trkpt>
      <trkpt lat="45.93408" lon="6.88817">
        <ele>1060.9521484375</ele>
        <time>2010-06-27T05:15:19Z</time>
      </trkpt>
      <trkpt lat="45.9341" lon="6.8882">
        <ele>1061.4328613281</ele>
        <time>2010-06-27T05:15:20Z</time>
      </trkpt>
      <trkpt lat="45.93415" lon="6.8883">
        <ele>1059.9907226562</ele>
        <time>2010-06-27T05:15:24Z</time>
      </trkpt>
      <trkpt lat="45.93416" lon="6.88834">
        <ele>1059.9907226562</ele>
        <time>2010-06-27T05:15:26Z</time>
      </trkpt>
      <trkpt lat="45.93425" lon="6.88842">
        <ele>1061.4328613281</ele>
        <time>2010-06-27T05:15:30Z</time>
      </trkpt>
      <trkpt lat="45.93439" lon="6.88851">
        <ele>1064.3166503906</ele>
        <time>2010-06-27T05:15:36Z</time>
      </trkpt>
      <trkpt lat="45.93454" lon="6.88865">
        <ele>1065.7587890625</ele>
        <time>2010-06-27T05:15:42Z</time>
      </trkpt>
      <trkpt lat="45.93461" lon="6.88884">
        <ele>1064.3166503906</ele>
        <time>2010-06-27T05:15:47Z</time>
      </trkpt>
      <trkpt lat="45.93463" lon="6.88889">
        <ele>1064.3166503906</ele>
        <time>2010-06-27T05:15:48Z</time>
      </trkpt>
      <trkpt lat="45.93463" lon="6.88903">
        <ele>1063.8359375</ele>
        <time>2010-06-27T05:15:52Z</time>
      </trkpt>
      <trkpt lat="45.93463" lon="6.88906">
        <ele>1064.7973632812</ele>
        <time>2010-06-27T05:15:53Z</time>
      </trkpt>
      <trkpt lat="45.9346" lon="6.88924">
        <ele>1064.3166503906</ele>
        <time>2010-06-27T05:15:58Z</time>
      </trkpt>
      <trkpt lat="45.93457" lon="6.88938">
        <ele>1063.8359375</ele>
        <time>2010-06-27T05:16:01Z</time>
      </trkpt>
      <trkpt lat="45.93456" lon="6.88959">
        <ele>1060.4714355469</ele>
        <time>2010-06-27T05:16:07Z</time>
      </trkpt>
      <trkpt lat="45.93456" lon="6.88975">
        <ele>1059.9907226562</ele>
        <time>2010-06-27T05:16:12Z</time>
      </trkpt>
      <trkpt lat="45.93459" lon="6.88989">
        <ele>1059.9907226562</ele>
        <time>2010-06-27T05:16:16Z</time>
      </trkpt>
      <trkpt lat="45.9346" lon="6.88996">
        <ele>1059.5102539062</ele>
        <time>2010-06-27T05:16:18Z</time>
      </trkpt>
      <trkpt lat="45.93465" lon="6.89012">
        <ele>1061.4328613281</ele>
        <time>2010-06-27T05:16:23Z</time>
      </trkpt>
      <trkpt lat="45.93472" lon="6.89024">
        <ele>1064.3166503906</ele>
        <time>2010-06-27T05:16:27Z</time>
      </trkpt>
      <trkpt lat="45.93481" lon="6.89038">
        <ele>1066.7199707031</ele>
        <time>2010-06-27T05:16:32Z</time>
      </trkpt>
      <trkpt lat="45.93482" lon="6.8904">
        <ele>1067.2006835938</ele>
        <time>2010-06-27T05:16:33Z</time>
      </trkpt>
      <trkpt lat="45.93489" lon="6.89045">
        <ele>1067.6811523438</ele>
        <time>2010-06-27T05:16:38Z</time>
      </trkpt>
      <trkpt lat="45.93497" lon="6.89049">
        <ele>1068.6428222656</ele>
        <time>2010-06-27T05:16:41Z</time>
      </trkpt>
      <trkpt lat="45.9351" lon="6.89051">
        <ele>1071.5266113281</ele>
        <time>2010-06-27T05:16:46Z</time>
      </trkpt>
      <trkpt lat="45.93518" lon="6.89052">
        <ele>1072.4880371094</ele>
        <time>2010-06-27T05:16:49Z</time>
      </trkpt>
      <trkpt lat="45.9353" lon="6.89053">
        <ele>1074.4106445312</ele>
        <time>2010-06-27T05:16:53Z</time>
      </trkpt>
      <trkpt lat="45.9354" lon="6.8905">
        <ele>1074.4106445312</ele>
        <time>2010-06-27T05:16:57Z</time>
      </trkpt>
      <trkpt lat="45.93543" lon="6.89049">
        <ele>1075.3718261719</ele>
        <time>2010-06-27T05:16:58Z</time>
      </trkpt>
      <trkpt lat="45.9356" lon="6.89047">
        <ele>1076.3332519531</ele>
        <time>2010-06-27T05:17:05Z</time>
      </trkpt>
      <trkpt lat="45.93568" lon="6.89046">
        <ele>1076.8139648438</ele>
        <time>2010-06-27T05:17:08Z</time>
      </trkpt>
      <trkpt lat="45.93576" lon="6.89055">
        <ele>1076.8139648438</ele>
        <time>2010-06-27T05:17:12Z</time>
      </trkpt>
      <trkpt lat="45.93578" lon="6.89067">
        <ele>1075.8525390625</ele>
        <time>2010-06-27T05:17:17Z</time>
      </trkpt>
      <trkpt lat="45.93578" lon="6.89069">
        <ele>1074.8913574219</ele>
        <time>2010-06-27T05:17:19Z</time>
      </trkpt>
      <trkpt lat="45.93583" lon="6.89085">
        <ele>1072.4880371094</ele>
        <time>2010-06-27T05:17:23Z</time>
      </trkpt>
      <trkpt lat="45.93592" lon="6.89103">
        <ele>1071.5266113281</ele>
        <time>2010-06-27T05:17:28Z</time>
      </trkpt>
      <trkpt lat="45.93603" lon="6.8912">
        <ele>1071.5266113281</ele>
        <time>2010-06-27T05:17:33Z</time>
      </trkpt>
      <trkpt lat="45.9361" lon="6.89134">
        <ele>1071.0461425781</ele>
        <time>2010-06-27T05:17:37Z</time>
      </trkpt>
      <trkpt lat="45.93615" lon="6.89148">
        <ele>1069.1235351562</ele>
        <time>2010-06-27T05:17:41Z</time>
      </trkpt>
      <trkpt lat="45.93616" lon="6.89155">
        <ele>1068.162109375</ele>
        <time>2010-06-27T05:17:43Z</time>
      </trkpt>
      <trkpt lat="45.93623" lon="6.89171">
        <ele>1067.6811523438</ele>
        <time>2010-06-27T05:17:49Z</time>
      </trkpt>
      <trkpt lat="45.93627" lon="6.89184">
        <ele>1067.2006835938</ele>
        <time>2010-06-27T05:17:53Z</time>
      </trkpt>
      <trkpt lat="45.93637" lon="6.89202">
        <ele>1065.2780761719</ele>
        <time>2010-06-27T05:18:00Z</time>
      </trkpt>
      <trkpt lat="45.93645" lon="6.89213">
        <ele>1065.2780761719</ele>
        <time>2010-06-27T05:18:04Z</time>
      </trkpt>
      <trkpt lat="45.93651" lon="6.89222">
        <ele>1064.3166503906</ele>
        <time>2010-06-27T05:18:08Z</time>
      </trkpt>
      <trkpt lat="45.93657" lon="6.89231">
        <ele>1064.3166503906</ele>
        <time>2010-06-27T05:18:12Z</time>
      </trkpt>
      <trkpt lat="45.93668" lon="6.89244">
        <ele>1065.7587890625</ele>
        <time>2010-06-27T05:18:16Z</time>
      </trkpt>
      <trkpt lat="45.93679" lon="6.89256">
        <ele>1067.2006835938</ele>
        <time>2010-06-27T05:18:21Z</time>
      </trkpt>
      <trkpt lat="45.93683" lon="6.89265">
        <ele>1068.6428222656</ele>
        <time>2010-06-27T05:18:24Z</time>
      </trkpt>
      <trkpt lat="45.93689" lon="6.89281">
        <ele>1070.0847167969</ele>
        <time>2010-06-27T05:18:29Z</time>
      </trkpt>
      <trkpt lat="45.93694" lon="6.89294">
        <ele>1072.96875</ele>
        <time>2010-06-27T05:18:33Z</time>
      </trkpt>
      <trkpt lat="45.93699" lon="6.89304">
        <ele>1074.8913574219</ele>
        <time>2010-06-27T05:18:36Z</time>
      </trkpt>
      <trkpt lat="45.93703" lon="6.89314">
        <ele>1075.8525390625</ele>
        <time>2010-06-27T05:18:39Z</time>
      </trkpt>
      <trkpt lat="45.93713" lon="6.89331">
        <ele>1075.8525390625</ele>
        <time>2010-06-27T05:18:44Z</time>
      </trkpt>
      <trkpt lat="45.93715" lon="6.89336">
        <ele>1075.3718261719</ele>
        <time>2010-06-27T05:18:46Z</time>
      </trkpt>
      <trkpt lat="45.93719" lon="6.89349">
        <ele>1074.4106445312</ele>
        <time>2010-06-27T05:18:50Z</time>
      </trkpt>
      <trkpt lat="45.9372" lon="6.89359">
        <ele>1074.4106445312</ele>
        <time>2010-06-27T05:18:53Z</time>
      </trkpt>
      <trkpt lat="45.93721" lon="6.89362">
        <ele>1074.4106445312</ele>
        <time>2010-06-27T05:18:54Z</time>
      </trkpt>
      <trkpt lat="45.93729" lon="6.8938">
        <ele>1072.4880371094</ele>
        <time>2010-06-27T05:19:00Z</time>
      </trkpt>
      <trkpt lat="45.93735" lon="6.89391">
        <ele>1072.4880371094</ele>
        <time>2010-06-27T05:19:04Z</time>
      </trkpt>
      <trkpt lat="45.93742" lon="6.89404">
        <ele>1072.96875</ele>
        <time>2010-06-27T05:19:09Z</time>
      </trkpt>
      <trkpt lat="45.93749" lon="6.89413">
        <ele>1074.4106445312</ele>
        <time>2010-06-27T05:19:13Z</time>
      </trkpt>
      <trkpt lat="45.93757" lon="6.89424">
        <ele>1075.3718261719</ele>
        <time>2010-06-27T05:19:17Z</time>
      </trkpt>
      <trkpt lat="45.93763" lon="6.89439">
        <ele>1076.3332519531</ele>
        <time>2010-06-27T05:19:23Z</time>
      </trkpt>
      <trkpt lat="45.93771" lon="6.89455">
        <ele>1074.8913574219</ele>
        <time>2010-06-27T05:19:28Z</time>
      </trkpt>
      <trkpt lat="45.93776" lon="6.89466">
        <ele>1075.3718261719</ele>
        <time>2010-06-27T05:19:32Z</time>
      </trkpt>
      <trkpt lat="45.93784" lon="6.89479">
        <ele>1074.8913574219</ele>
        <time>2010-06-27T05:19:37Z</time>
      </trkpt>
      <trkpt lat="45.93787" lon="6.89485">
        <ele>1074.8913574219</ele>
        <time>2010-06-27T05:19:39Z</time>
      </trkpt>
      <trkpt lat="45.93793" lon="6.89501">
        <ele>1076.3332519531</ele>
        <time>2010-06-27T05:19:44Z</time>
      </trkpt>
      <trkpt lat="45.938" lon="6.89517">
        <ele>1076.8139648438</ele>
        <time>2010-06-27T05:19:49Z</time>
      </trkpt>
      <trkpt lat="45.93806" lon="6.89527">
        <ele>1076.3332519531</ele>
        <time>2010-06-27T05:19:53Z</time>
      </trkpt>
      <trkpt lat="45.93809" lon="6.89531">
        <ele>1076.8139648438</ele>
        <time>2010-06-27T05:19:55Z</time>
      </trkpt>
      <trkpt lat="45.93816" lon="6.89541">
        <ele>1077.7751464844</ele>
        <time>2010-06-27T05:20:00Z</time>
      </trkpt>
      <trkpt lat="45.93817" lon="6.89543">
        <ele>1077.7751464844</ele>
        <time>2010-06-27T05:20:01Z</time>
      </trkpt>
      <trkpt lat="45.93825" lon="6.89556">
        <ele>1079.2170410156</ele>
        <time>2010-06-27T05:20:06Z</time>
      </trkpt>
      <trkpt lat="45.93835" lon="6.89579">
        <ele>1080.6591796875</ele>
        <time>2010-06-27T05:20:13Z</time>
      </trkpt>
      <trkpt lat="45.93845" lon="6.89593">
        <ele>1081.1398925781</ele>
        <time>2010-06-27T05:20:18Z</time>
      </trkpt>
      <trkpt lat="45.93852" lon="6.89608">
        <ele>1082.1010742188</ele>
        <time>2010-06-27T05:20:23Z</time>
      </trkpt>
      <trkpt lat="45.93856" lon="6.89614">
        <ele>1081.6203613281</ele>
        <time>2010-06-27T05:20:25Z</time>
      </trkpt>
      <trkpt lat="45.93862" lon="6.89625">
        <ele>1082.1010742188</ele>
        <time>2010-06-27T05:20:29Z</time>
      </trkpt>
      <trkpt lat="45.93864" lon="6.89636">
        <ele>1082.1010742188</ele>
        <time>2010-06-27T05:20:32Z</time>
      </trkpt>
      <trkpt lat="45.93865" lon="6.89638">
        <ele>1082.1010742188</ele>
        <time>2010-06-27T05:20:35Z</time>
      </trkpt>
      <trkpt lat="45.93873" lon="6.89644">
        <ele>1082.5817871094</ele>
        <time>2010-06-27T05:20:39Z</time>
      </trkpt>
      <trkpt lat="45.9388" lon="6.89654">
        <ele>1083.0622558594</ele>
        <time>2010-06-27T05:20:43Z</time>
      </trkpt>
      <trkpt lat="45.93885" lon="6.89661">
        <ele>1083.0622558594</ele>
        <time>2010-06-27T05:20:48Z</time>
      </trkpt>
      <trkpt lat="45.93891" lon="6.89666">
        <ele>1083.54296875</ele>
        <time>2010-06-27T05:20:51Z</time>
      </trkpt>
      <trkpt lat="45.93906" lon="6.8967">
        <ele>1084.5046386719</ele>
        <time>2010-06-27T05:20:56Z</time>
      </trkpt>
      <trkpt lat="45.93911" lon="6.89675">
        <ele>1084.5046386719</ele>
        <time>2010-06-27T05:21:00Z</time>
      </trkpt>
      <trkpt lat="45.93917" lon="6.89681">
        <ele>1085.4658203125</ele>
        <time>2010-06-27T05:21:04Z</time>
      </trkpt>
      <trkpt lat="45.9393" lon="6.89688">
        <ele>1085.9465332031</ele>
        <time>2010-06-27T05:21:09Z</time>
      </trkpt>
      <trkpt lat="45.93943" lon="6.89684">
        <ele>1087.3884277344</ele>
        <time>2010-06-27T05:21:14Z</time>
      </trkpt>
      <trkpt lat="45.93957" lon="6.89675">
        <ele>1087.3884277344</ele>
        <time>2010-06-27T05:21:19Z</time>
      </trkpt>
      <trkpt lat="45.93968" lon="6.89671">
        <ele>1086.4272460938</ele>
        <time>2010-06-27T05:21:24Z</time>
      </trkpt>
      <trkpt lat="45.93972" lon="6.89668">
        <ele>1086.9077148438</ele>
        <time>2010-06-27T05:21:26Z</time>
      </trkpt>
      <trkpt lat="45.93985" lon="6.89667">
        <ele>1086.4272460938</ele>
        <time>2010-06-27T05:21:31Z</time>
      </trkpt>
      <trkpt lat="45.93991" lon="6.89664">
        <ele>1084.9853515625</ele>
        <time>2010-06-27T05:21:35Z</time>
      </trkpt>
      <trkpt lat="45.94004" lon="6.89659">
        <ele>1083.54296875</ele>
        <time>2010-06-27T05:21:41Z</time>
      </trkpt>
      <trkpt lat="45.94008" lon="6.8966">
        <ele>1084.0239257812</ele>
        <time>2010-06-27T05:21:43Z</time>
      </trkpt>
      <trkpt lat="45.94017" lon="6.89666">
        <ele>1084.5046386719</ele>
        <time>2010-06-27T05:21:47Z</time>
      </trkpt>
      <trkpt lat="45.94032" lon="6.89673">
        <ele>1086.9077148438</ele>
        <time>2010-06-27T05:21:53Z</time>
      </trkpt>
      <trkpt lat="45.94044" lon="6.89679">
        <ele>1089.3110351562</ele>
        <time>2010-06-27T05:21:58Z</time>
      </trkpt>
      <trkpt lat="45.94052" lon="6.89686">
        <ele>1092.1950683594</ele>
        <time>2010-06-27T05:22:02Z</time>
      </trkpt>
      <trkpt lat="45.94067" lon="6.89697">
        <ele>1098.443359375</ele>
        <time>2010-06-27T05:22:08Z</time>
      </trkpt>
      <trkpt lat="45.94076" lon="6.89707">
        <ele>1106.6147460938</ele>
        <time>2010-06-27T05:22:13Z</time>
      </trkpt>
      <trkpt lat="45.94081" lon="6.89716">
        <ele>1107.576171875</ele>
        <time>2010-06-27T05:22:17Z</time>
      </trkpt>
      <trkpt lat="45.94082" lon="6.89721">
        <ele>1108.0568847656</ele>
        <time>2010-06-27T05:22:19Z</time>
      </trkpt>
      <trkpt lat="45.94085" lon="6.89733">
        <ele>1106.1340332031</ele>
        <time>2010-06-27T05:22:24Z</time>
      </trkpt>
      <trkpt lat="45.94088" lon="6.89744">
        <ele>1101.3276367188</ele>
        <time>2010-06-27T05:22:27Z</time>
      </trkpt>
      <trkpt lat="45.94092" lon="6.89764">
        <ele>1097.0014648438</ele>
        <time>2010-06-27T05:22:32Z</time>
      </trkpt>
      <trkpt lat="45.94095" lon="6.8977">
        <ele>1096.0402832031</ele>
        <time>2010-06-27T05:22:34Z</time>
      </trkpt>
      <trkpt lat="45.94098" lon="6.89785">
        <ele>1095.0788574219</ele>
        <time>2010-06-27T05:22:38Z</time>
      </trkpt>
      <trkpt lat="45.94103" lon="6.89805">
        <ele>1097.0014648438</ele>
        <time>2010-06-27T05:22:44Z</time>
      </trkpt>
      <trkpt lat="45.94106" lon="6.89822">
        <ele>1100.3664550781</ele>
        <time>2010-06-27T05:22:49Z</time>
      </trkpt>
      <trkpt lat="45.94104" lon="6.89842">
        <ele>1100.3664550781</ele>
        <time>2010-06-27T05:22:54Z</time>
      </trkpt>
      <trkpt lat="45.94106" lon="6.89849">
        <ele>1099.8854980469</ele>
        <time>2010-06-27T05:22:56Z</time>
      </trkpt>
      <trkpt lat="45.94119" lon="6.89857">
        <ele>1097.962890625</ele>
        <time>2010-06-27T05:23:01Z</time>
      </trkpt>
      <trkpt lat="45.94125" lon="6.89862">
        <ele>1097.4821777344</ele>
        <time>2010-06-27T05:23:04Z</time>
      </trkpt>
      <trkpt lat="45.94138" lon="6.8987">
        <ele>1096.0402832031</ele>
        <time>2010-06-27T05:23:10Z</time>
      </trkpt>
      <trkpt lat="45.94139" lon="6.89871">
        <ele>1097.0014648438</ele>
        <time>2010-06-27T05:23:11Z</time>
      </trkpt>
      <trkpt lat="45.94149" lon="6.89877">
        <ele>1100.3664550781</ele>
        <time>2010-06-27T05:23:17Z</time>
      </trkpt>
      <trkpt lat="45.94152" lon="6.89879">
        <ele>1100.8469238281</ele>
        <time>2010-06-27T05:23:18Z</time>
      </trkpt>
      <trkpt lat="45.94161" lon="6.8989">
        <ele>1099.8854980469</ele>
        <time>2010-06-27T05:23:23Z</time>
      </trkpt>
      <trkpt lat="45.94167" lon="6.899">
        <ele>1098.9240722656</ele>
        <time>2010-06-27T05:23:27Z</time>
      </trkpt>
      <trkpt lat="45.94177" lon="6.8991">
        <ele>1098.443359375</ele>
        <time>2010-06-27T05:23:31Z</time>
      </trkpt>
      <trkpt lat="45.94185" lon="6.89915">
        <ele>1097.4821777344</ele>
        <time>2010-06-27T05:23:35Z</time>
      </trkpt>
      <trkpt lat="45.94199" lon="6.89921">
        <ele>1097.4821777344</ele>
        <time>2010-06-27T05:23:41Z</time>
      </trkpt>
      <trkpt lat="45.9421" lon="6.89929">
        <ele>1100.3664550781</ele>
        <time>2010-06-27T05:23:45Z</time>
      </trkpt>
      <trkpt lat="45.94223" lon="6.89936">
        <ele>1103.7309570312</ele>
        <time>2010-06-27T05:23:49Z</time>
      </trkpt>
      <trkpt lat="45.94233" lon="6.89941">
        <ele>1109.9792480469</ele>
        <time>2010-06-27T05:23:54Z</time>
      </trkpt>
      <trkpt lat="45.94239" lon="6.89942">
        <ele>1112.3825683594</ele>
        <time>2010-06-27T05:23:57Z</time>
      </trkpt>
      <trkpt lat="45.94244" lon="6.89941">
        <ele>1113.8244628906</ele>
        <time>2010-06-27T05:24:02Z</time>
      </trkpt>
      <trkpt lat="45.94254" lon="6.8994">
        <ele>1110.9406738281</ele>
        <time>2010-06-27T05:24:07Z</time>
      </trkpt>
      <trkpt lat="45.94266" lon="6.89939">
        <ele>1109.9792480469</ele>
        <time>2010-06-27T05:24:13Z</time>
      </trkpt>
      <trkpt lat="45.94275" lon="6.89942">
        <ele>1110.9406738281</ele>
        <time>2010-06-27T05:24:17Z</time>
      </trkpt>
      <trkpt lat="45.9428" lon="6.89947">
        <ele>1111.9020996094</ele>
        <time>2010-06-27T05:24:20Z</time>
      </trkpt>
      <trkpt lat="45.94292" lon="6.89961">
        <ele>1114.7858886719</ele>
        <time>2010-06-27T05:24:26Z</time>
      </trkpt>
      <trkpt lat="45.94294" lon="6.89963">
        <ele>1115.7473144531</ele>
        <time>2010-06-27T05:24:27Z</time>
      </trkpt>
      <trkpt lat="45.94303" lon="6.8997">
        <ele>1115.7473144531</ele>
        <time>2010-06-27T05:24:33Z</time>
      </trkpt>
      <trkpt lat="45.94316" lon="6.89979">
        <ele>1120.5539550781</ele>
        <time>2010-06-27T05:24:39Z</time>
      </trkpt>
      <trkpt lat="45.94322" lon="6.89984">
        <ele>1121.9958496094</ele>
        <time>2010-06-27T05:24:43Z</time>
      </trkpt>
      <trkpt lat="45.94332" lon="6.90002">
        <ele>1126.3217773438</ele>
        <time>2010-06-27T05:24:50Z</time>
      </trkpt>
      <trkpt lat="45.94337" lon="6.90017">
        <ele>1123.9184570312</ele>
        <time>2010-06-27T05:24:55Z</time>
      </trkpt>
      <trkpt lat="45.94341" lon="6.90028">
        <ele>1124.3991699219</ele>
        <time>2010-06-27T05:24:58Z</time>
      </trkpt>
      <trkpt lat="45.94347" lon="6.90042">
        <ele>1123.4379882812</ele>
        <time>2010-06-27T05:25:02Z</time>
      </trkpt>
      <trkpt lat="45.94344" lon="6.90057">
        <ele>1123.9184570312</ele>
        <time>2010-06-27T05:25:09Z</time>
      </trkpt>
      <trkpt lat="45.9435" lon="6.90069">
        <ele>1127.763671875</ele>
        <time>2010-06-27T05:25:14Z</time>
      </trkpt>
      <trkpt lat="45.94354" lon="6.90077">
        <ele>1124.8798828125</ele>
        <time>2010-06-27T05:25:19Z</time>
      </trkpt>
      <trkpt lat="45.94355" lon="6.90079">
        <ele>1123.9184570312</ele>
        <time>2010-06-27T05:25:20Z</time>
      </trkpt>
      <trkpt lat="45.94359" lon="6.90081">
        <ele>1121.9958496094</ele>
        <time>2010-06-27T05:25:23Z</time>
      </trkpt>
      <trkpt lat="45.94371" lon="6.90083">
        <ele>1121.0346679688</ele>
        <time>2010-06-27T05:25:28Z</time>
      </trkpt>
      <trkpt lat="45.94383" lon="6.90087">
        <ele>1122.9572753906</ele>
        <time>2010-06-27T05:25:32Z</time>
      </trkpt>
      <trkpt lat="45.94393" lon="6.90088">
        <ele>1122.9572753906</ele>
        <time>2010-06-27T05:25:36Z</time>
      </trkpt>
      <trkpt lat="45.94404" lon="6.90091">
        <ele>1120.0732421875</ele>
        <time>2010-06-27T05:25:41Z</time>
      </trkpt>
      <trkpt lat="45.94413" lon="6.90094">
        <ele>1120.5539550781</ele>
        <time>2010-06-27T05:25:45Z</time>
      </trkpt>
      <trkpt lat="45.94424" lon="6.90095">
        <ele>1124.8798828125</ele>
        <time>2010-06-27T05:25:50Z</time>
      </trkpt>
      <trkpt lat="45.94437" lon="6.90101">
        <ele>1122.4765625</ele>
        <time>2010-06-27T05:25:56Z</time>
      </trkpt>
      <trkpt lat="45.94439" lon="6.90102">
        <ele>1122.4765625</ele>
        <time>2010-06-27T05:25:57Z</time>
      </trkpt>
      <trkpt lat="45.94446" lon="6.901">
        <ele>1120.5539550781</ele>
        <time>2010-06-27T05:26:01Z</time>
      </trkpt>
      <trkpt lat="45.94454" lon="6.90101">
        <ele>1121.5151367188</ele>
        <time>2010-06-27T05:26:05Z</time>
      </trkpt>
      <trkpt lat="45.9446" lon="6.90103">
        <ele>1122.9572753906</ele>
        <time>2010-06-27T05:26:08Z</time>
      </trkpt>
      <trkpt lat="45.94469" lon="6.90112">
        <ele>1128.7250976562</ele>
        <time>2010-06-27T05:26:14Z</time>
      </trkpt>
      <trkpt lat="45.9448" lon="6.90123">
        <ele>1133.0510253906</ele>
        <time>2010-06-27T05:26:20Z</time>
      </trkpt>
      <trkpt lat="45.94488" lon="6.90135">
        <ele>1134.0124511719</ele>
        <time>2010-06-27T05:26:26Z</time>
      </trkpt>
      <trkpt lat="45.94493" lon="6.9015">
        <ele>1132.5705566406</ele>
        <time>2010-06-27T05:26:32Z</time>
      </trkpt>
      <trkpt lat="45.94495" lon="6.90156">
        <ele>1131.6088867188</ele>
        <time>2010-06-27T05:26:34Z</time>
      </trkpt>
      <trkpt lat="45.94503" lon="6.90171">
        <ele>1131.1284179688</ele>
        <time>2010-06-27T05:26:40Z</time>
      </trkpt>
      <trkpt lat="45.94506" lon="6.9018">
        <ele>1130.1669921875</ele>
        <time>2010-06-27T05:26:43Z</time>
      </trkpt>
      <trkpt lat="45.94522" lon="6.90189">
        <ele>1130.1669921875</ele>
        <time>2010-06-27T05:26:49Z</time>
      </trkpt>
      <trkpt lat="45.9453" lon="6.90192">
        <ele>1132.08984375</ele>
        <time>2010-06-27T05:26:53Z</time>
      </trkpt>
      <trkpt lat="45.94542" lon="6.90196">
        <ele>1135.4543457031</ele>
        <time>2010-06-27T05:26:59Z</time>
      </trkpt>
      <trkpt lat="45.94553" lon="6.90202">
        <ele>1140.2609863281</ele>
        <time>2010-06-27T05:27:03Z</time>
      </trkpt>
      <trkpt lat="45.94556" lon="6.90204">
        <ele>1140.2609863281</ele>
        <time>2010-06-27T05:27:04Z</time>
      </trkpt>
      <trkpt lat="45.94569" lon="6.90217">
        <ele>1146.5095214844</ele>
        <time>2010-06-27T05:27:10Z</time>
      </trkpt>
      <trkpt lat="45.94578" lon="6.90223">
        <ele>1147.9514160156</ele>
        <time>2010-06-27T05:27:14Z</time>
      </trkpt>
      <trkpt lat="45.94587" lon="6.90228">
        <ele>1146.5095214844</ele>
        <time>2010-06-27T05:27:18Z</time>
      </trkpt>
      <trkpt lat="45.94597" lon="6.90236">
        <ele>1146.0288085938</ele>
        <time>2010-06-27T05:27:22Z</time>
      </trkpt>
      <trkpt lat="45.94606" lon="6.90242">
        <ele>1146.0288085938</ele>
        <time>2010-06-27T05:27:26Z</time>
      </trkpt>
      <trkpt lat="45.94619" lon="6.90254">
        <ele>1148.9128417969</ele>
        <time>2010-06-27T05:27:32Z</time>
      </trkpt>
      <trkpt lat="45.94622" lon="6.90255">
        <ele>1148.4321289062</ele>
        <time>2010-06-27T05:27:34Z</time>
      </trkpt>
      <trkpt lat="45.94633" lon="6.90265">
        <ele>1147.470703125</ele>
        <time>2010-06-27T05:27:39Z</time>
      </trkpt>
      <trkpt lat="45.94641" lon="6.9027">
        <ele>1150.8354492188</ele>
        <time>2010-06-27T05:27:42Z</time>
      </trkpt>
      <trkpt lat="45.94646" lon="6.90273">
        <ele>1152.7580566406</ele>
        <time>2010-06-27T05:27:45Z</time>
      </trkpt>
      <trkpt lat="45.94659" lon="6.90282">
        <ele>1156.1225585938</ele>
        <time>2010-06-27T05:27:51Z</time>
      </trkpt>
      <trkpt lat="45.94667" lon="6.90289">
        <ele>1159.0065917969</ele>
        <time>2010-06-27T05:27:56Z</time>
      </trkpt>
      <trkpt lat="45.94675" lon="6.90295">
        <ele>1162.37109375</ele>
        <time>2010-06-27T05:28:00Z</time>
      </trkpt>
      <trkpt lat="45.94678" lon="6.90297">
        <ele>1160.9291992188</ele>
        <time>2010-06-27T05:28:02Z</time>
      </trkpt>
      <trkpt lat="45.94687" lon="6.90308">
        <ele>1159.4873046875</ele>
        <time>2010-06-27T05:28:09Z</time>
      </trkpt>
      <trkpt lat="45.9469" lon="6.90313">
        <ele>1156.6032714844</ele>
        <time>2010-06-27T05:28:12Z</time>
      </trkpt>
      <trkpt lat="45.94693" lon="6.90323">
        <ele>1152.27734375</ele>
        <time>2010-06-27T05:28:17Z</time>
      </trkpt>
      <trkpt lat="45.94697" lon="6.90335">
        <ele>1150.3549804688</ele>
        <time>2010-06-27T05:28:23Z</time>
      </trkpt>
      <trkpt lat="45.94697" lon="6.90337">
        <ele>1151.3161621094</ele>
        <time>2010-06-27T05:28:24Z</time>
      </trkpt>
      <trkpt lat="45.94707" lon="6.90356">
        <ele>1149.3935546875</ele>
        <time>2010-06-27T05:28:30Z</time>
      </trkpt>
      <trkpt lat="45.94712" lon="6.90365">
        <ele>1149.8742675781</ele>
        <time>2010-06-27T05:28:33Z</time>
      </trkpt>
      <trkpt lat="45.94714" lon="6.90379">
        <ele>1149.3935546875</ele>
        <time>2010-06-27T05:28:39Z</time>
      </trkpt>
      <trkpt lat="45.94722" lon="6.90389">
        <ele>1149.8742675781</ele>
        <time>2010-06-27T05:28:43Z</time>
      </trkpt>
      <trkpt lat="45.94726" lon="6.90398">
        <ele>1148.9128417969</ele>
        <time>2010-06-27T05:28:47Z</time>
      </trkpt>
      <trkpt lat="45.94729" lon="6.90411">
        <ele>1147.9514160156</ele>
        <time>2010-06-27T05:28:51Z</time>
      </trkpt>
      <trkpt lat="45.94735" lon="6.90421">
        <ele>1148.4321289062</ele>
        <time>2010-06-27T05:28:55Z</time>
      </trkpt>
      <trkpt lat="45.94739" lon="6.90433">
        <ele>1148.9128417969</ele>
        <time>2010-06-27T05:28:59Z</time>
      </trkpt>
      <trkpt lat="45.94741" lon="6.90438">
        <ele>1148.9128417969</ele>
        <time>2010-06-27T05:29:01Z</time>
      </trkpt>
      <trkpt lat="45.94746" lon="6.9045">
        <ele>1150.3549804688</ele>
        <time>2010-06-27T05:29:06Z</time>
      </trkpt>
      <trkpt lat="45.9475" lon="6.90464">
        <ele>1153.2387695312</ele>
        <time>2010-06-27T05:29:10Z</time>
      </trkpt>
      <trkpt lat="45.94748" lon="6.90476">
        <ele>1158.0454101562</ele>
        <time>2010-06-27T05:29:14Z</time>
      </trkpt>
      <trkpt lat="45.94748" lon="6.90482">
        <ele>1159.0065917969</ele>
        <time>2010-06-27T05:29:16Z</time>
      </trkpt>
      <trkpt lat="45.94748" lon="6.90493">
        <ele>1164.7746582031</ele>
        <time>2010-06-27T05:29:22Z</time>
      </trkpt>
      <trkpt lat="45.94748" lon="6.90493">
        <ele>1164.2939453125</ele>
        <time>2010-06-27T05:29:23Z</time>
      </trkpt>
      <trkpt lat="45.94753" lon="6.90496">
        <ele>1166.2165527344</ele>
        <time>2010-06-27T05:29:28Z</time>
      </trkpt>
      <trkpt lat="45.9476" lon="6.90485">
        <ele>1165.2553710938</ele>
        <time>2010-06-27T05:29:32Z</time>
      </trkpt>
      <trkpt lat="45.9477" lon="6.90471">
        <ele>1164.2939453125</ele>
        <time>2010-06-27T05:29:38Z</time>
      </trkpt>
      <trkpt lat="45.94776" lon="6.90462">
        <ele>1165.7360839844</ele>
        <time>2010-06-27T05:29:42Z</time>
      </trkpt>
      <trkpt lat="45.94781" lon="6.90452">
        <ele>1166.697265625</ele>
        <time>2010-06-27T05:29:49Z</time>
      </trkpt>
      <trkpt lat="45.94781" lon="6.90446">
        <ele>1167.6584472656</ele>
        <time>2010-06-27T05:29:53Z</time>
      </trkpt>
      <trkpt lat="45.94781" lon="6.90439">
        <ele>1168.6198730469</ele>
        <time>2010-06-27T05:29:57Z</time>
      </trkpt>
      <trkpt lat="45.94783" lon="6.90429">
        <ele>1170.5424804688</ele>
        <time>2010-06-27T05:30:02Z</time>
      </trkpt>
      <trkpt lat="45.94785" lon="6.90421">
        <ele>1170.5424804688</ele>
        <time>2010-06-27T05:30:06Z</time>
      </trkpt>
      <trkpt lat="45.94783" lon="6.90413">
        <ele>1172.4650878906</ele>
        <time>2010-06-27T05:30:10Z</time>
      </trkpt>
      <trkpt lat="45.9478" lon="6.90403">
        <ele>1176.3103027344</ele>
        <time>2010-06-27T05:30:15Z</time>
      </trkpt>
      <trkpt lat="45.9478" lon="6.90401">
        <ele>1175.8295898438</ele>
        <time>2010-06-27T05:30:16Z</time>
      </trkpt>
      <trkpt lat="45.94777" lon="6.90388">
        <ele>1174.8684082031</ele>
        <time>2010-06-27T05:30:23Z</time>
      </trkpt>
      <trkpt lat="45.94775" lon="6.9038">
        <ele>1175.3488769531</ele>
        <time>2010-06-27T05:30:28Z</time>
      </trkpt>
      <trkpt lat="45.94772" lon="6.90367">
        <ele>1176.791015625</ele>
        <time>2010-06-27T05:30:35Z</time>
      </trkpt>
      <trkpt lat="45.9477" lon="6.90351">
        <ele>1179.1940917969</ele>
        <time>2010-06-27T05:30:43Z</time>
      </trkpt>
      <trkpt lat="45.9477" lon="6.90343">
        <ele>1179.6748046875</ele>
        <time>2010-06-27T05:30:48Z</time>
      </trkpt>
      <trkpt lat="45.94775" lon="6.90336">
        <ele>1180.6364746094</ele>
        <time>2010-06-27T05:30:52Z</time>
      </trkpt>
      <trkpt lat="45.94785" lon="6.90323">
        <ele>1184.4816894531</ele>
        <time>2010-06-27T05:30:57Z</time>
      </trkpt>
      <trkpt lat="45.94787" lon="6.90323">
        <ele>1184.4816894531</ele>
        <time>2010-06-27T05:30:58Z</time>
      </trkpt>
      <trkpt lat="45.948" lon="6.90335">
        <ele>1182.5590820312</ele>
        <time>2010-06-27T05:31:03Z</time>
      </trkpt>
      <trkpt lat="45.94812" lon="6.90345">
        <ele>1180.6364746094</ele>
        <time>2010-06-27T05:31:08Z</time>
      </trkpt>
      <trkpt lat="45.94823" lon="6.9035">
        <ele>1180.6364746094</ele>
        <time>2010-06-27T05:31:13Z</time>
      </trkpt>
      <trkpt lat="45.94828" lon="6.90361">
        <ele>1177.2717285156</ele>
        <time>2010-06-27T05:31:17Z</time>
      </trkpt>
      <trkpt lat="45.94836" lon="6.9038">
        <ele>1176.3103027344</ele>
        <time>2010-06-27T05:31:24Z</time>
      </trkpt>
      <trkpt lat="45.94841" lon="6.9039">
        <ele>1177.7521972656</ele>
        <time>2010-06-27T05:31:28Z</time>
      </trkpt>
      <trkpt lat="45.94845" lon="6.90401">
        <ele>1179.1940917969</ele>
        <time>2010-06-27T05:31:33Z</time>
      </trkpt>
      <trkpt lat="45.94851" lon="6.90412">
        <ele>1179.6748046875</ele>
        <time>2010-06-27T05:31:39Z</time>
      </trkpt>
      <trkpt lat="45.94855" lon="6.90421">
        <ele>1178.7136230469</ele>
        <time>2010-06-27T05:31:44Z</time>
      </trkpt>
      <trkpt lat="45.9486" lon="6.9043">
        <ele>1181.1171875</ele>
        <time>2010-06-27T05:31:50Z</time>
      </trkpt>
      <trkpt lat="45.94861" lon="6.90432">
        <ele>1181.1171875</ele>
        <time>2010-06-27T05:31:51Z</time>
      </trkpt>
      <trkpt lat="45.94866" lon="6.90445">
        <ele>1180.1557617188</ele>
        <time>2010-06-27T05:31:58Z</time>
      </trkpt>
      <trkpt lat="45.94869" lon="6.90453">
        <ele>1179.6748046875</ele>
        <time>2010-06-27T05:32:02Z</time>
      </trkpt>
      <trkpt lat="45.94871" lon="6.9046">
        <ele>1181.1171875</ele>
        <time>2010-06-27T05:32:06Z</time>
      </trkpt>
      <trkpt lat="45.94872" lon="6.9047">
        <ele>1184.0009765625</ele>
        <time>2010-06-27T05:32:11Z</time>
      </trkpt>
      <trkpt lat="45.94872" lon="6.90474">
        <ele>1185.9235839844</ele>
        <time>2010-06-27T05:32:13Z</time>
      </trkpt>
      <trkpt lat="45.94871" lon="6.90485">
        <ele>1193.1333007812</ele>
        <time>2010-06-27T05:32:19Z</time>
      </trkpt>
      <trkpt lat="45.94872" lon="6.90494">
        <ele>1199.3820800781</ele>
        <time>2010-06-27T05:32:25Z</time>
      </trkpt>
      <trkpt lat="45.94869" lon="6.90504">
        <ele>1203.7080078125</ele>
        <time>2010-06-27T05:32:31Z</time>
      </trkpt>
      <trkpt lat="45.94871" lon="6.90518">
        <ele>1208.0339355469</ele>
        <time>2010-06-27T05:32:36Z</time>
      </trkpt>
      <trkpt lat="45.94874" lon="6.90524">
        <ele>1210.4370117188</ele>
        <time>2010-06-27T05:32:38Z</time>
      </trkpt>
      <trkpt lat="45.9488" lon="6.90527">
        <ele>1209.4758300781</ele>
        <time>2010-06-27T05:32:43Z</time>
      </trkpt>
      <trkpt lat="45.94891" lon="6.90525">
        <ele>1206.591796875</ele>
        <time>2010-06-27T05:32:49Z</time>
      </trkpt>
      <trkpt lat="45.94892" lon="6.90524">
        <ele>1207.0725097656</ele>
        <time>2010-06-27T05:32:50Z</time>
      </trkpt>
      <trkpt lat="45.94905" lon="6.90531">
        <ele>1204.1887207031</ele>
        <time>2010-06-27T05:32:56Z</time>
      </trkpt>
      <trkpt lat="45.94914" lon="6.90543">
        <ele>1202.2658691406</ele>
        <time>2010-06-27T05:33:01Z</time>
      </trkpt>
      <trkpt lat="45.94922" lon="6.90549">
        <ele>1199.8627929688</ele>
        <time>2010-06-27T05:33:05Z</time>
      </trkpt>
      <trkpt lat="45.94924" lon="6.9055">
        <ele>1199.3820800781</ele>
        <time>2010-06-27T05:33:06Z</time>
      </trkpt>
      <trkpt lat="45.94927" lon="6.90553">
        <ele>1199.3820800781</ele>
        <time>2010-06-27T05:33:09Z</time>
      </trkpt>
      <trkpt lat="45.94935" lon="6.90561">
        <ele>1198.9013671875</ele>
        <time>2010-06-27T05:33:14Z</time>
      </trkpt>
      <trkpt lat="45.94938" lon="6.90563">
        <ele>1199.3820800781</ele>
        <time>2010-06-27T05:33:16Z</time>
      </trkpt>
      <trkpt lat="45.94944" lon="6.90561">
        <ele>1200.3435058594</ele>
        <time>2010-06-27T05:33:20Z</time>
      </trkpt>
      <trkpt lat="45.94952" lon="6.9056">
        <ele>1200.8239746094</ele>
        <time>2010-06-27T05:33:25Z</time>
      </trkpt>
      <trkpt lat="45.94962" lon="6.90567">
        <ele>1200.3435058594</ele>
        <time>2010-06-27T05:33:30Z</time>
      </trkpt>
      <trkpt lat="45.94963" lon="6.90571">
        <ele>1201.7854003906</ele>
        <time>2010-06-27T05:33:34Z</time>
      </trkpt>
      <trkpt lat="45.94967" lon="6.90579">
        <ele>1203.2272949219</ele>
        <time>2010-06-27T05:33:39Z</time>
      </trkpt>
      <trkpt lat="45.94967" lon="6.9059">
        <ele>1204.6691894531</ele>
        <time>2010-06-27T05:33:45Z</time>
      </trkpt>
      <trkpt lat="45.9497" lon="6.90598">
        <ele>1205.1499023438</ele>
        <time>2010-06-27T05:33:50Z</time>
      </trkpt>
      <trkpt lat="45.94975" lon="6.90608">
        <ele>1207.5532226562</ele>
        <time>2010-06-27T05:33:56Z</time>
      </trkpt>
      <trkpt lat="45.94977" lon="6.90613">
        <ele>1210.9177246094</ele>
        <time>2010-06-27T05:34:00Z</time>
      </trkpt>
      <trkpt lat="45.94978" lon="6.90614">
        <ele>1212.8405761719</ele>
        <time>2010-06-27T05:34:01Z</time>
      </trkpt>
      <trkpt lat="45.94982" lon="6.90621">
        <ele>1215.2438964844</ele>
        <time>2010-06-27T05:34:06Z</time>
      </trkpt>
      <trkpt lat="45.94982" lon="6.90624">
        <ele>1215.724609375</ele>
        <time>2010-06-27T05:34:08Z</time>
      </trkpt>
      <trkpt lat="45.94983" lon="6.90634">
        <ele>1217.1665039062</ele>
        <time>2010-06-27T05:34:13Z</time>
      </trkpt>
      <trkpt lat="45.9498" lon="6.90643">
        <ele>1221.01171875</ele>
        <time>2010-06-27T05:34:17Z</time>
      </trkpt>
      <trkpt lat="45.94976" lon="6.90653">
        <ele>1225.3374023438</ele>
        <time>2010-06-27T05:34:21Z</time>
      </trkpt>
      <trkpt lat="45.94975" lon="6.90655">
        <ele>1226.298828125</ele>
        <time>2010-06-27T05:34:22Z</time>
      </trkpt>
      <trkpt lat="45.94979" lon="6.90665">
        <ele>1222.9343261719</ele>
        <time>2010-06-27T05:34:29Z</time>
      </trkpt>
      <trkpt lat="45.94982" lon="6.90669">
        <ele>1223.4150390625</ele>
        <time>2010-06-27T05:34:32Z</time>
      </trkpt>
      <trkpt lat="45.9499" lon="6.90675">
        <ele>1221.9729003906</ele>
        <time>2010-06-27T05:34:38Z</time>
      </trkpt>
      <trkpt lat="45.94997" lon="6.90678">
        <ele>1221.4921875</ele>
        <time>2010-06-27T05:34:45Z</time>
      </trkpt>
      <trkpt lat="45.95" lon="6.90686">
        <ele>1222.4536132812</ele>
        <time>2010-06-27T05:34:49Z</time>
      </trkpt>
      <trkpt lat="45.95001" lon="6.90692">
        <ele>1225.8181152344</ele>
        <time>2010-06-27T05:34:53Z</time>
      </trkpt>
      <trkpt lat="45.95002" lon="6.90695">
        <ele>1226.298828125</ele>
        <time>2010-06-27T05:34:55Z</time>
      </trkpt>
      <trkpt lat="45.95001" lon="6.90697">
        <ele>1227.2602539062</ele>
        <time>2010-06-27T05:34:57Z</time>
      </trkpt>
      <trkpt lat="45.95001" lon="6.90703">
        <ele>1227.7407226562</ele>
        <time>2010-06-27T05:35:01Z</time>
      </trkpt>
      <trkpt lat="45.94994" lon="6.9071">
        <ele>1226.7795410156</ele>
        <time>2010-06-27T05:35:08Z</time>
      </trkpt>
      <trkpt lat="45.94986" lon="6.90719">
        <ele>1230.625</ele>
        <time>2010-06-27T05:35:14Z</time>
      </trkpt>
      <trkpt lat="45.94983" lon="6.90724">
        <ele>1233.9895019531</ele>
        <time>2010-06-27T05:35:18Z</time>
      </trkpt>
      <trkpt lat="45.94983" lon="6.90731">
        <ele>1238.3154296875</ele>
        <time>2010-06-27T05:35:23Z</time>
      </trkpt>
      <trkpt lat="45.94988" lon="6.90735">
        <ele>1243.1218261719</ele>
        <time>2010-06-27T05:35:28Z</time>
      </trkpt>
      <trkpt lat="45.94992" lon="6.90734">
        <ele>1246.0061035156</ele>
        <time>2010-06-27T05:35:31Z</time>
      </trkpt>
      <trkpt lat="45.94998" lon="6.90729">
        <ele>1249.3706054688</ele>
        <time>2010-06-27T05:35:36Z</time>
      </trkpt>
      <trkpt lat="45.95002" lon="6.90725">
        <ele>1246.4868164062</ele>
        <time>2010-06-27T05:35:41Z</time>
      </trkpt>
      <trkpt lat="45.95004" lon="6.90715">
        <ele>1252.2543945312</ele>
        <time>2010-06-27T05:35:48Z</time>
      </trkpt>
      <trkpt lat="45.95007" lon="6.90707">
        <ele>1255.1384277344</ele>
        <time>2010-06-27T05:35:52Z</time>
      </trkpt>
      <trkpt lat="45.9501" lon="6.907">
        <ele>1258.0224609375</ele>
        <time>2010-06-27T05:35:56Z</time>
      </trkpt>
      <trkpt lat="45.95012" lon="6.90698">
        <ele>1256.5803222656</ele>
        <time>2010-06-27T05:35:57Z</time>
      </trkpt>
      <trkpt lat="45.95019" lon="6.90687">
        <ele>1251.7739257812</ele>
        <time>2010-06-27T05:36:04Z</time>
      </trkpt>
      <trkpt lat="45.95024" lon="6.90678">
        <ele>1247.4479980469</ele>
        <time>2010-06-27T05:36:10Z</time>
      </trkpt>
      <trkpt lat="45.95028" lon="6.9067">
        <ele>1245.0446777344</ele>
        <time>2010-06-27T05:36:15Z</time>
      </trkpt>
      <trkpt lat="45.95031" lon="6.90662">
        <ele>1244.0834960938</ele>
        <time>2010-06-27T05:36:20Z</time>
      </trkpt>
      <trkpt lat="45.95033" lon="6.90658">
        <ele>1245.0446777344</ele>
        <time>2010-06-27T05:36:22Z</time>
      </trkpt>
      <trkpt lat="45.95038" lon="6.90638">
        <ele>1244.5639648438</ele>
        <time>2010-06-27T05:36:28Z</time>
      </trkpt>
      <trkpt lat="45.95044" lon="6.90627">
        <ele>1242.6413574219</ele>
        <time>2010-06-27T05:36:32Z</time>
      </trkpt>
      <trkpt lat="45.95048" lon="6.90611">
        <ele>1245.525390625</ele>
        <time>2010-06-27T05:36:37Z</time>
      </trkpt>
      <trkpt lat="45.95056" lon="6.90592">
        <ele>1248.8898925781</ele>
        <time>2010-06-27T05:36:42Z</time>
      </trkpt>
      <trkpt lat="45.95065" lon="6.90575">
        <ele>1252.2543945312</ele>
        <time>2010-06-27T05:36:48Z</time>
      </trkpt>
      <trkpt lat="45.95073" lon="6.90565">
        <ele>1252.7351074219</ele>
        <time>2010-06-27T05:36:53Z</time>
      </trkpt>
      <trkpt lat="45.95079" lon="6.90555">
        <ele>1251.2932128906</ele>
        <time>2010-06-27T05:36:57Z</time>
      </trkpt>
      <trkpt lat="45.95081" lon="6.90553">
        <ele>1251.7739257812</ele>
        <time>2010-06-27T05:36:58Z</time>
      </trkpt>
      <trkpt lat="45.9509" lon="6.90537">
        <ele>1247.4479980469</ele>
        <time>2010-06-27T05:37:04Z</time>
      </trkpt>
      <trkpt lat="45.95097" lon="6.90529">
        <ele>1244.5639648438</ele>
        <time>2010-06-27T05:37:08Z</time>
      </trkpt>
      <trkpt lat="45.95107" lon="6.90525">
        <ele>1241.6799316406</ele>
        <time>2010-06-27T05:37:13Z</time>
      </trkpt>
      <trkpt lat="45.95123" lon="6.90518">
        <ele>1244.0834960938</ele>
        <time>2010-06-27T05:37:19Z</time>
      </trkpt>
      <trkpt lat="45.95134" lon="6.90512">
        <ele>1245.0446777344</ele>
        <time>2010-06-27T05:37:23Z</time>
      </trkpt>
      <trkpt lat="45.95146" lon="6.90505">
        <ele>1245.0446777344</ele>
        <time>2010-06-27T05:37:27Z</time>
      </trkpt>
      <trkpt lat="45.95148" lon="6.90503">
        <ele>1245.0446777344</ele>
        <time>2010-06-27T05:37:28Z</time>
      </trkpt>
      <trkpt lat="45.95156" lon="6.90499">
        <ele>1250.33203125</ele>
        <time>2010-06-27T05:37:32Z</time>
      </trkpt>
      <trkpt lat="45.95169" lon="6.90498">
        <ele>1253.6965332031</ele>
        <time>2010-06-27T05:37:37Z</time>
      </trkpt>
      <trkpt lat="45.95177" lon="6.90496">
        <ele>1255.619140625</ele>
        <time>2010-06-27T05:37:41Z</time>
      </trkpt>
      <trkpt lat="45.95187" lon="6.90495">
        <ele>1254.6577148438</ele>
        <time>2010-06-27T05:37:45Z</time>
      </trkpt>
      <trkpt lat="45.95197" lon="6.90496">
        <ele>1252.2543945312</ele>
        <time>2010-06-27T05:37:50Z</time>
      </trkpt>
      <trkpt lat="45.95199" lon="6.90497">
        <ele>1252.7351074219</ele>
        <time>2010-06-27T05:37:51Z</time>
      </trkpt>
      <trkpt lat="45.95209" lon="6.90495">
        <ele>1252.2543945312</ele>
        <time>2010-06-27T05:37:57Z</time>
      </trkpt>
      <trkpt lat="45.95218" lon="6.90493">
        <ele>1250.8125</ele>
        <time>2010-06-27T05:38:02Z</time>
      </trkpt>
      <trkpt lat="45.9523" lon="6.90485">
        <ele>1254.6577148438</ele>
        <time>2010-06-27T05:38:09Z</time>
      </trkpt>
      <trkpt lat="45.95236" lon="6.90481">
        <ele>1258.9836425781</ele>
        <time>2010-06-27T05:38:14Z</time>
      </trkpt>
      <trkpt lat="45.9524" lon="6.90482">
        <ele>1258.9836425781</ele>
        <time>2010-06-27T05:38:18Z</time>
      </trkpt>
      <trkpt lat="45.95245" lon="6.90483">
        <ele>1259.4643554688</ele>
        <time>2010-06-27T05:38:22Z</time>
      </trkpt>
      <trkpt lat="45.95251" lon="6.90483">
        <ele>1261.3872070312</ele>
        <time>2010-06-27T05:38:27Z</time>
      </trkpt>
      <trkpt lat="45.95257" lon="6.90485">
        <ele>1260.9064941406</ele>
        <time>2010-06-27T05:38:32Z</time>
      </trkpt>
      <trkpt lat="45.95269" lon="6.90482">
        <ele>1261.3872070312</ele>
        <time>2010-06-27T05:38:37Z</time>
      </trkpt>
      <trkpt lat="45.95271" lon="6.90482">
        <ele>1260.9064941406</ele>
        <time>2010-06-27T05:38:38Z</time>
      </trkpt>
      <trkpt lat="45.95285" lon="6.9048">
        <ele>1258.0224609375</ele>
        <time>2010-06-27T05:38:44Z</time>
      </trkpt>
      <trkpt lat="45.95295" lon="6.90479">
        <ele>1257.5417480469</ele>
        <time>2010-06-27T05:38:48Z</time>
      </trkpt>
      <trkpt lat="45.95306" lon="6.9048">
        <ele>1254.6577148438</ele>
        <time>2010-06-27T05:38:52Z</time>
      </trkpt>
      <trkpt lat="45.95309" lon="6.90481">
        <ele>1255.1384277344</ele>
        <time>2010-06-27T05:38:53Z</time>
      </trkpt>
      <trkpt lat="45.95314" lon="6.90481">
        <ele>1254.6577148438</ele>
        <time>2010-06-27T05:38:55Z</time>
      </trkpt>
      <trkpt lat="45.95327" lon="6.90489">
        <ele>1252.7351074219</ele>
        <time>2010-06-27T05:39:00Z</time>
      </trkpt>
      <trkpt lat="45.95333" lon="6.90492">
        <ele>1250.8125</ele>
        <time>2010-06-27T05:39:03Z</time>
      </trkpt>
      <trkpt lat="45.95343" lon="6.90495">
        <ele>1248.4091796875</ele>
        <time>2010-06-27T05:39:09Z</time>
      </trkpt>
      <trkpt lat="45.95354" lon="6.90499">
        <ele>1248.8898925781</ele>
        <time>2010-06-27T05:39:14Z</time>
      </trkpt>
      <trkpt lat="45.9536" lon="6.90502">
        <ele>1248.4091796875</ele>
        <time>2010-06-27T05:39:19Z</time>
      </trkpt>
      <trkpt lat="45.95366" lon="6.90505">
        <ele>1249.8513183594</ele>
        <time>2010-06-27T05:39:24Z</time>
      </trkpt>
      <trkpt lat="45.9537" lon="6.90507">
        <ele>1250.8125</ele>
        <time>2010-06-27T05:39:27Z</time>
      </trkpt>
      <trkpt lat="45.95382" lon="6.9052">
        <ele>1254.1772460938</ele>
        <time>2010-06-27T05:39:32Z</time>
      </trkpt>
      <trkpt lat="45.95395" lon="6.90529">
        <ele>1252.2543945312</ele>
        <time>2010-06-27T05:39:37Z</time>
      </trkpt>
      <trkpt lat="45.95403" lon="6.90533">
        <ele>1250.8125</ele>
        <time>2010-06-27T05:39:40Z</time>
      </trkpt>
      <trkpt lat="45.95424" lon="6.90542">
        <ele>1247.4479980469</ele>
        <time>2010-06-27T05:39:47Z</time>
      </trkpt>
      <trkpt lat="45.95434" lon="6.90546">
        <ele>1246.0061035156</ele>
        <time>2010-06-27T05:39:51Z</time>
      </trkpt>
      <trkpt lat="45.95444" lon="6.90548">
        <ele>1244.5639648438</ele>
        <time>2010-06-27T05:39:55Z</time>
      </trkpt>
      <trkpt lat="45.95456" lon="6.90546">
        <ele>1242.6413574219</ele>
        <time>2010-06-27T05:39:59Z</time>
      </trkpt>
      <trkpt lat="45.95459" lon="6.90545">
        <ele>1242.1606445312</ele>
        <time>2010-06-27T05:40:00Z</time>
      </trkpt>
      <trkpt lat="45.9547" lon="6.90541">
        <ele>1241.6799316406</ele>
        <time>2010-06-27T05:40:05Z</time>
      </trkpt>
      <trkpt lat="45.9549" lon="6.90544">
        <ele>1235.912109375</ele>
        <time>2010-06-27T05:40:11Z</time>
      </trkpt>
      <trkpt lat="45.95502" lon="6.90549">
        <ele>1233.0280761719</ele>
        <time>2010-06-27T05:40:16Z</time>
      </trkpt>
      <trkpt lat="45.95514" lon="6.90558">
        <ele>1231.1057128906</ele>
        <time>2010-06-27T05:40:20Z</time>
      </trkpt>
      <trkpt lat="45.95522" lon="6.90567">
        <ele>1229.1828613281</ele>
        <time>2010-06-27T05:40:24Z</time>
      </trkpt>
      <trkpt lat="45.95536" lon="6.90572">
        <ele>1227.7407226562</ele>
        <time>2010-06-27T05:40:29Z</time>
      </trkpt>
      <trkpt lat="45.95547" lon="6.90574">
        <ele>1227.2602539062</ele>
        <time>2010-06-27T05:40:33Z</time>
      </trkpt>
      <trkpt lat="45.95551" lon="6.90573">
        <ele>1229.6635742188</ele>
        <time>2010-06-27T05:40:37Z</time>
      </trkpt>
      <trkpt lat="45.95555" lon="6.90573">
        <ele>1230.1442871094</ele>
        <time>2010-06-27T05:40:42Z</time>
      </trkpt>
      <trkpt lat="45.9556" lon="6.90573">
        <ele>1231.1057128906</ele>
        <time>2010-06-27T05:40:49Z</time>
      </trkpt>
      <trkpt lat="45.95572" lon="6.90569">
        <ele>1235.4313964844</ele>
        <time>2010-06-27T05:41:11Z</time>
      </trkpt>
      <trkpt lat="45.95575" lon="6.90569">
        <ele>1235.4313964844</ele>
        <time>2010-06-27T05:41:15Z</time>
      </trkpt>
      <trkpt lat="45.95584" lon="6.90567">
        <ele>1234.9509277344</ele>
        <time>2010-06-27T05:41:25Z</time>
      </trkpt>
      <trkpt lat="45.95594" lon="6.90563">
        <ele>1231.1057128906</ele>
        <time>2010-06-27T05:41:29Z</time>
      </trkpt>
      <trkpt lat="45.9561" lon="6.90562">
        <ele>1224.8569335938</ele>
        <time>2010-06-27T05:41:34Z</time>
      </trkpt>
      <trkpt lat="45.95613" lon="6.90563">
        <ele>1223.4150390625</ele>
        <time>2010-06-27T05:41:35Z</time>
      </trkpt>
      <trkpt lat="45.95623" lon="6.90575">
        <ele>1218.6083984375</ele>
        <time>2010-06-27T05:41:39Z</time>
      </trkpt>
      <trkpt lat="45.95624" lon="6.90577">
        <ele>1216.205078125</ele>
        <time>2010-06-27T05:41:43Z</time>
      </trkpt>
      <trkpt lat="45.95626" lon="6.90582">
        <ele>1216.205078125</ele>
        <time>2010-06-27T05:41:55Z</time>
      </trkpt>
      <trkpt lat="45.95629" lon="6.90584">
        <ele>1215.724609375</ele>
        <time>2010-06-27T05:42:01Z</time>
      </trkpt>
      <trkpt lat="45.95641" lon="6.90591">
        <ele>1211.3984375</ele>
        <time>2010-06-27T05:42:21Z</time>
      </trkpt>
      <trkpt lat="45.95646" lon="6.90592">
        <ele>1210.9177246094</ele>
        <time>2010-06-27T05:42:27Z</time>
      </trkpt>
      <trkpt lat="45.95663" lon="6.9059">
        <ele>1212.3598632812</ele>
        <time>2010-06-27T05:43:06Z</time>
      </trkpt>
      <trkpt lat="45.95666" lon="6.9059">
        <ele>1212.3598632812</ele>
        <time>2010-06-27T05:43:08Z</time>
      </trkpt>
      <trkpt lat="45.95679" lon="6.90596">
        <ele>1209.4758300781</ele>
        <time>2010-06-27T05:43:12Z</time>
      </trkpt>
      <trkpt lat="45.95689" lon="6.90598">
        <ele>1211.8791503906</ele>
        <time>2010-06-27T05:43:16Z</time>
      </trkpt>
      <trkpt lat="45.95699" lon="6.90601">
        <ele>1219.0891113281</ele>
        <time>2010-06-27T05:43:21Z</time>
      </trkpt>
      <trkpt lat="45.95698" lon="6.90614">
        <ele>1213.3212890625</ele>
        <time>2010-06-27T05:43:24Z</time>
      </trkpt>
      <trkpt lat="45.95702" lon="6.90621">
        <ele>1212.3598632812</ele>
        <time>2010-06-27T05:43:26Z</time>
      </trkpt>
      <trkpt lat="45.95709" lon="6.90625">
        <ele>1208.5144042969</ele>
        <time>2010-06-27T05:43:28Z</time>
      </trkpt>
      <trkpt lat="45.95727" lon="6.9063">
        <ele>1207.0725097656</ele>
        <time>2010-06-27T05:43:34Z</time>
      </trkpt>
      <trkpt lat="45.95738" lon="6.90651">
        <ele>1206.591796875</ele>
        <time>2010-06-27T05:43:39Z</time>
      </trkpt>
      <trkpt lat="45.95742" lon="6.90665">
        <ele>1205.1499023438</ele>
        <time>2010-06-27T05:43:42Z</time>
      </trkpt>
      <trkpt lat="45.95744" lon="6.90682">
        <ele>1204.6691894531</ele>
        <time>2010-06-27T05:43:46Z</time>
      </trkpt>
      <trkpt lat="45.95751" lon="6.90702">
        <ele>1206.1110839844</ele>
        <time>2010-06-27T05:43:51Z</time>
      </trkpt>
      <trkpt lat="45.95754" lon="6.90714">
        <ele>1206.1110839844</ele>
        <time>2010-06-27T05:43:54Z</time>
      </trkpt>
      <trkpt lat="45.95756" lon="6.9072">
        <ele>1206.591796875</ele>
        <time>2010-06-27T05:43:56Z</time>
      </trkpt>
      <trkpt lat="45.9576" lon="6.90731">
        <ele>1205.6306152344</ele>
        <time>2010-06-27T05:44:00Z</time>
      </trkpt>
      <trkpt lat="45.95762" lon="6.9074">
        <ele>1205.1499023438</ele>
        <time>2010-06-27T05:44:03Z</time>
      </trkpt>
      <trkpt lat="45.95766" lon="6.9075">
        <ele>1205.6306152344</ele>
        <time>2010-06-27T05:44:06Z</time>
      </trkpt>
      <trkpt lat="45.95776" lon="6.90771">
        <ele>1206.1110839844</ele>
        <time>2010-06-27T05:44:12Z</time>
      </trkpt>
      <trkpt lat="45.95777" lon="6.90774">
        <ele>1206.591796875</ele>
        <time>2010-06-27T05:44:13Z</time>
      </trkpt>
      <trkpt lat="45.95786" lon="6.90786">
        <ele>1208.5144042969</ele>
        <time>2010-06-27T05:44:17Z</time>
      </trkpt>
      <trkpt lat="45.95787" lon="6.90789">
        <ele>1208.9951171875</ele>
        <time>2010-06-27T05:44:18Z</time>
      </trkpt>
      <trkpt lat="45.95795" lon="6.90801">
        <ele>1211.3984375</ele>
        <time>2010-06-27T05:44:22Z</time>
      </trkpt>
      <trkpt lat="45.95801" lon="6.90815">
        <ele>1214.7631835938</ele>
        <time>2010-06-27T05:44:26Z</time>
      </trkpt>
      <trkpt lat="45.95803" lon="6.90818">
        <ele>1215.2438964844</ele>
        <time>2010-06-27T05:44:27Z</time>
      </trkpt>
      <trkpt lat="45.9581" lon="6.90829">
        <ele>1216.205078125</ele>
        <time>2010-06-27T05:44:31Z</time>
      </trkpt>
      <trkpt lat="45.95813" lon="6.90839">
        <ele>1216.205078125</ele>
        <time>2010-06-27T05:44:35Z</time>
      </trkpt>
      <trkpt lat="45.95818" lon="6.90849">
        <ele>1215.2438964844</ele>
        <time>2010-06-27T05:44:39Z</time>
      </trkpt>
      <trkpt lat="45.95825" lon="6.90858">
        <ele>1214.2824707031</ele>
        <time>2010-06-27T05:44:42Z</time>
      </trkpt>
      <trkpt lat="45.95832" lon="6.9087">
        <ele>1214.2824707031</ele>
        <time>2010-06-27T05:44:46Z</time>
      </trkpt>
      <trkpt lat="45.95832" lon="6.90872">
        <ele>1213.3212890625</ele>
        <time>2010-06-27T05:44:49Z</time>
      </trkpt>
      <trkpt lat="45.9583" lon="6.90873">
        <ele>1212.8405761719</ele>
        <time>2010-06-27T05:44:53Z</time>
      </trkpt>
      <trkpt lat="45.9584" lon="6.90885">
        <ele>1211.8791503906</ele>
        <time>2010-06-27T05:44:59Z</time>
      </trkpt>
      <trkpt lat="45.95848" lon="6.90895">
        <ele>1211.3984375</ele>
        <time>2010-06-27T05:45:03Z</time>
      </trkpt>
      <trkpt lat="45.95856" lon="6.90904">
        <ele>1210.9177246094</ele>
        <time>2010-06-27T05:45:07Z</time>
      </trkpt>
      <trkpt lat="45.95866" lon="6.90915">
        <ele>1209.9562988281</ele>
        <time>2010-06-27T05:45:12Z</time>
      </trkpt>
      <trkpt lat="45.95876" lon="6.90927">
        <ele>1209.9562988281</ele>
        <time>2010-06-27T05:45:17Z</time>
      </trkpt>
      <trkpt lat="45.95881" lon="6.90934">
        <ele>1209.4758300781</ele>
        <time>2010-06-27T05:45:20Z</time>
      </trkpt>
      <trkpt lat="45.95887" lon="6.9094">
        <ele>1209.4758300781</ele>
        <time>2010-06-27T05:45:23Z</time>
      </trkpt>
      <trkpt lat="45.95892" lon="6.90947">
        <ele>1209.9562988281</ele>
        <time>2010-06-27T05:45:26Z</time>
      </trkpt>
      <trkpt lat="45.95902" lon="6.90959">
        <ele>1211.8791503906</ele>
        <time>2010-06-27T05:45:32Z</time>
      </trkpt>
      <trkpt lat="45.95913" lon="6.90972">
        <ele>1212.8405761719</ele>
        <time>2010-06-27T05:45:37Z</time>
      </trkpt>
      <trkpt lat="45.95919" lon="6.90979">
        <ele>1212.8405761719</ele>
        <time>2010-06-27T05:45:40Z</time>
      </trkpt>
      <trkpt lat="45.95933" lon="6.9099">
        <ele>1211.8791503906</ele>
        <time>2010-06-27T05:45:46Z</time>
      </trkpt>
      <trkpt lat="45.95948" lon="6.90998">
        <ele>1212.3598632812</ele>
        <time>2010-06-27T05:45:51Z</time>
      </trkpt>
      <trkpt lat="45.95955" lon="6.91005">
        <ele>1213.3212890625</ele>
        <time>2010-06-27T05:45:55Z</time>
      </trkpt>
      <trkpt lat="45.95958" lon="6.91009">
        <ele>1214.2824707031</ele>
        <time>2010-06-27T05:45:57Z</time>
      </trkpt>
      <trkpt lat="45.95969" lon="6.91016">
        <ele>1217.1665039062</ele>
        <time>2010-06-27T05:46:02Z</time>
      </trkpt>
      <trkpt lat="45.95973" lon="6.91018">
        <ele>1218.1276855469</ele>
        <time>2010-06-27T05:46:07Z</time>
      </trkpt>
      <trkpt lat="45.95977" lon="6.91023">
        <ele>1220.5310058594</ele>
        <time>2010-06-27T05:46:12Z</time>
      </trkpt>
      <trkpt lat="45.95981" lon="6.91025">
        <ele>1221.4921875</ele>
        <time>2010-06-27T05:46:14Z</time>
      </trkpt>
      <trkpt lat="45.95986" lon="6.91033">
        <ele>1222.4536132812</ele>
        <time>2010-06-27T05:46:18Z</time>
      </trkpt>
      <trkpt lat="45.95988" lon="6.91036">
        <ele>1223.4150390625</ele>
        <time>2010-06-27T05:46:20Z</time>
      </trkpt>
      <trkpt lat="45.95993" lon="6.91043">
        <ele>1226.298828125</ele>
        <time>2010-06-27T05:46:26Z</time>
      </trkpt>
      <trkpt lat="45.96001" lon="6.91053">
        <ele>1227.7407226562</ele>
        <time>2010-06-27T05:46:30Z</time>
      </trkpt>
      <trkpt lat="45.96006" lon="6.91066">
        <ele>1230.1442871094</ele>
        <time>2010-06-27T05:46:34Z</time>
      </trkpt>
      <trkpt lat="45.9601" lon="6.91077">
        <ele>1234.4702148438</ele>
        <time>2010-06-27T05:46:39Z</time>
      </trkpt>
      <trkpt lat="45.96013" lon="6.91084">
        <ele>1236.3928222656</ele>
        <time>2010-06-27T05:46:45Z</time>
      </trkpt>
      <trkpt lat="45.96015" lon="6.91086">
        <ele>1238.7961425781</ele>
        <time>2010-06-27T05:46:48Z</time>
      </trkpt>
      <trkpt lat="45.96021" lon="6.91092">
        <ele>1239.7573242188</ele>
        <time>2010-06-27T05:46:53Z</time>
      </trkpt>
      <trkpt lat="45.96028" lon="6.91105">
        <ele>1242.1606445312</ele>
        <time>2010-06-27T05:47:01Z</time>
      </trkpt>
      <trkpt lat="45.96035" lon="6.91112">
        <ele>1243.6025390625</ele>
        <time>2010-06-27T05:47:07Z</time>
      </trkpt>
      <trkpt lat="45.9604" lon="6.91116">
        <ele>1244.0834960938</ele>
        <time>2010-06-27T05:47:12Z</time>
      </trkpt>
      <trkpt lat="45.96047" lon="6.91124">
        <ele>1245.525390625</ele>
        <time>2010-06-27T05:47:19Z</time>
      </trkpt>
      <trkpt lat="45.96057" lon="6.91134">
        <ele>1246.0061035156</ele>
        <time>2010-06-27T05:47:23Z</time>
      </trkpt>
      <trkpt lat="45.96064" lon="6.9114">
        <ele>1246.0061035156</ele>
        <time>2010-06-27T05:47:26Z</time>
      </trkpt>
      <trkpt lat="45.96074" lon="6.91151">
        <ele>1246.4868164062</ele>
        <time>2010-06-27T05:47:31Z</time>
      </trkpt>
      <trkpt lat="45.96085" lon="6.91164">
        <ele>1245.525390625</ele>
        <time>2010-06-27T05:47:36Z</time>
      </trkpt>
      <trkpt lat="45.96093" lon="6.91173">
        <ele>1246.0061035156</ele>
        <time>2010-06-27T05:47:41Z</time>
      </trkpt>
      <trkpt lat="45.96108" lon="6.91184">
        <ele>1245.525390625</ele>
        <time>2010-06-27T05:47:48Z</time>
      </trkpt>
      <trkpt lat="45.96116" lon="6.91194">
        <ele>1246.9672851562</ele>
        <time>2010-06-27T05:47:53Z</time>
      </trkpt>
      <trkpt lat="45.96125" lon="6.91203">
        <ele>1246.4868164062</ele>
        <time>2010-06-27T05:47:57Z</time>
      </trkpt>
      <trkpt lat="45.96136" lon="6.91212">
        <ele>1245.525390625</ele>
        <time>2010-06-27T05:48:02Z</time>
      </trkpt>
      <trkpt lat="45.96146" lon="6.91218">
        <ele>1245.525390625</ele>
        <time>2010-06-27T05:48:06Z</time>
      </trkpt>
      <trkpt lat="45.96154" lon="6.91223">
        <ele>1245.525390625</ele>
        <time>2010-06-27T05:48:10Z</time>
      </trkpt>
      <trkpt lat="45.96162" lon="6.91229">
        <ele>1246.0061035156</ele>
        <time>2010-06-27T05:48:14Z</time>
      </trkpt>
      <trkpt lat="45.9617" lon="6.91235">
        <ele>1246.9672851562</ele>
        <time>2010-06-27T05:48:18Z</time>
      </trkpt>
      <trkpt lat="45.96178" lon="6.9124">
        <ele>1248.4091796875</ele>
        <time>2010-06-27T05:48:23Z</time>
      </trkpt>
      <trkpt lat="45.96189" lon="6.91244">
        <ele>1250.33203125</ele>
        <time>2010-06-27T05:48:28Z</time>
      </trkpt>
      <trkpt lat="45.96199" lon="6.91245">
        <ele>1252.7351074219</ele>
        <time>2010-06-27T05:48:33Z</time>
      </trkpt>
      <trkpt lat="45.96202" lon="6.91245">
        <ele>1254.1772460938</ele>
        <time>2010-06-27T05:48:35Z</time>
      </trkpt>
      <trkpt lat="45.96208" lon="6.91246">
        <ele>1258.0224609375</ele>
        <time>2010-06-27T05:48:39Z</time>
      </trkpt>
      <trkpt lat="45.96216" lon="6.9125">
        <ele>1261.3872070312</ele>
        <time>2010-06-27T05:48:44Z</time>
      </trkpt>
      <trkpt lat="45.96217" lon="6.91252">
        <ele>1261.8679199219</ele>
        <time>2010-06-27T05:48:45Z</time>
      </trkpt>
      <trkpt lat="45.96218" lon="6.91256">
        <ele>1263.7902832031</ele>
        <time>2010-06-27T05:48:47Z</time>
      </trkpt>
      <trkpt lat="45.96221" lon="6.91259">
        <ele>1264.2709960938</ele>
        <time>2010-06-27T05:48:49Z</time>
      </trkpt>
      <trkpt lat="45.96227" lon="6.91266">
        <ele>1266.1936035156</ele>
        <time>2010-06-27T05:48:54Z</time>
      </trkpt>
      <trkpt lat="45.96228" lon="6.91268">
        <ele>1267.1550292969</ele>
        <time>2010-06-27T05:48:55Z</time>
      </trkpt>
      <trkpt lat="45.96238" lon="6.91275">
        <ele>1271.4807128906</ele>
        <time>2010-06-27T05:49:01Z</time>
      </trkpt>
      <trkpt lat="45.96243" lon="6.9128">
        <ele>1271.9614257812</ele>
        <time>2010-06-27T05:49:06Z</time>
      </trkpt>
      <trkpt lat="45.9625" lon="6.91287">
        <ele>1272.9228515625</ele>
        <time>2010-06-27T05:49:11Z</time>
      </trkpt>
      <trkpt lat="45.96255" lon="6.91291">
        <ele>1273.4035644531</ele>
        <time>2010-06-27T05:49:15Z</time>
      </trkpt>
      <trkpt lat="45.96259" lon="6.91294">
        <ele>1276.7683105469</ele>
        <time>2010-06-27T05:49:19Z</time>
      </trkpt>
      <trkpt lat="45.96263" lon="6.91298">
        <ele>1275.806640625</ele>
        <time>2010-06-27T05:49:22Z</time>
      </trkpt>
      <trkpt lat="45.96265" lon="6.91302">
        <ele>1274.8454589844</ele>
        <time>2010-06-27T05:49:24Z</time>
      </trkpt>
      <trkpt lat="45.96274" lon="6.91314">
        <ele>1271.4807128906</ele>
        <time>2010-06-27T05:49:30Z</time>
      </trkpt>
      <trkpt lat="45.96278" lon="6.91318">
        <ele>1270.0388183594</ele>
        <time>2010-06-27T05:49:32Z</time>
      </trkpt>
      <trkpt lat="45.96288" lon="6.91329">
        <ele>1268.5969238281</ele>
        <time>2010-06-27T05:49:38Z</time>
      </trkpt>
      <trkpt lat="45.96292" lon="6.91335">
        <ele>1267.1550292969</ele>
        <time>2010-06-27T05:49:41Z</time>
      </trkpt>
      <trkpt lat="45.963" lon="6.91343">
        <ele>1270.0388183594</ele>
        <time>2010-06-27T05:49:47Z</time>
      </trkpt>
      <trkpt lat="45.96304" lon="6.91349">
        <ele>1272.4421386719</ele>
        <time>2010-06-27T05:49:50Z</time>
      </trkpt>
      <trkpt lat="45.96319" lon="6.91359">
        <ele>1277.2490234375</ele>
        <time>2010-06-27T05:49:56Z</time>
      </trkpt>
      <trkpt lat="45.96324" lon="6.91366">
        <ele>1277.7294921875</ele>
        <time>2010-06-27T05:50:01Z</time>
      </trkpt>
      <trkpt lat="45.96331" lon="6.91376">
        <ele>1279.1713867188</ele>
        <time>2010-06-27T05:50:07Z</time>
      </trkpt>
      <trkpt lat="45.96339" lon="6.91382">
        <ele>1281.0942382812</ele>
        <time>2010-06-27T05:50:13Z</time>
      </trkpt>
      <trkpt lat="45.96344" lon="6.91389">
        <ele>1283.4973144531</ele>
        <time>2010-06-27T05:50:17Z</time>
      </trkpt>
      <trkpt lat="45.9635" lon="6.91396">
        <ele>1285.9006347656</ele>
        <time>2010-06-27T05:50:22Z</time>
      </trkpt>
      <trkpt lat="45.96351" lon="6.91399">
        <ele>1289.2651367188</ele>
        <time>2010-06-27T05:50:24Z</time>
      </trkpt>
      <trkpt lat="45.96352" lon="6.91411">
        <ele>1292.6301269531</ele>
        <time>2010-06-27T05:50:31Z</time>
      </trkpt>
      <trkpt lat="45.96356" lon="6.91422">
        <ele>1286.8618164062</ele>
        <time>2010-06-27T05:50:37Z</time>
      </trkpt>
      <trkpt lat="45.96363" lon="6.91434">
        <ele>1282.0554199219</ele>
        <time>2010-06-27T05:50:43Z</time>
      </trkpt>
      <trkpt lat="45.96365" lon="6.9144">
        <ele>1285.419921875</ele>
        <time>2010-06-27T05:50:48Z</time>
      </trkpt>
      <trkpt lat="45.96367" lon="6.91445">
        <ele>1286.8618164062</ele>
        <time>2010-06-27T05:50:51Z</time>
      </trkpt>
      <trkpt lat="45.9637" lon="6.91456">
        <ele>1288.3039550781</ele>
        <time>2010-06-27T05:50:56Z</time>
      </trkpt>
      <trkpt lat="45.96379" lon="6.91463">
        <ele>1301.2817382812</ele>
        <time>2010-06-27T05:51:03Z</time>
      </trkpt>
      <trkpt lat="45.96381" lon="6.91463">
        <ele>1301.7624511719</ele>
        <time>2010-06-27T05:51:04Z</time>
      </trkpt>
      <trkpt lat="45.96384" lon="6.91474">
        <ele>1308.0112304688</ele>
        <time>2010-06-27T05:51:09Z</time>
      </trkpt>
      <trkpt lat="45.96386" lon="6.91479">
        <ele>1306.0881347656</ele>
        <time>2010-06-27T05:51:11Z</time>
      </trkpt>
      <trkpt lat="45.96391" lon="6.91491">
        <ele>1299.3591308594</ele>
        <time>2010-06-27T05:51:16Z</time>
      </trkpt>
      <trkpt lat="45.96405" lon="6.91502">
        <ele>1299.3591308594</ele>
        <time>2010-06-27T05:51:21Z</time>
      </trkpt>
      <trkpt lat="45.96415" lon="6.9151">
        <ele>1299.3591308594</ele>
        <time>2010-06-27T05:51:25Z</time>
      </trkpt>
      <trkpt lat="45.96423" lon="6.91519">
        <ele>1299.83984375</ele>
        <time>2010-06-27T05:51:29Z</time>
      </trkpt>
      <trkpt lat="45.96431" lon="6.91527">
        <ele>1300.8010253906</ele>
        <time>2010-06-27T05:51:33Z</time>
      </trkpt>
      <trkpt lat="45.96437" lon="6.91531">
        <ele>1306.5688476562</ele>
        <time>2010-06-27T05:51:38Z</time>
      </trkpt>
      <trkpt lat="45.96442" lon="6.91537">
        <ele>1314.740234375</ele>
        <time>2010-06-27T05:51:44Z</time>
      </trkpt>
      <trkpt lat="45.96444" lon="6.9154">
        <ele>1316.6628417969</ele>
        <time>2010-06-27T05:51:47Z</time>
      </trkpt>
      <trkpt lat="45.96445" lon="6.91548">
        <ele>1310.8950195312</ele>
        <time>2010-06-27T05:51:51Z</time>
      </trkpt>
      <trkpt lat="45.96448" lon="6.91559">
        <ele>1302.2429199219</ele>
        <time>2010-06-27T05:51:56Z</time>
      </trkpt>
      <trkpt lat="45.9645" lon="6.91564">
        <ele>1296.9558105469</ele>
        <time>2010-06-27T05:52:00Z</time>
      </trkpt>
      <trkpt lat="45.96449" lon="6.91574">
        <ele>1295.9946289062</ele>
        <time>2010-06-27T05:52:06Z</time>
      </trkpt>
      <trkpt lat="45.96448" lon="6.91579">
        <ele>1298.8784179688</ele>
        <time>2010-06-27T05:52:09Z</time>
      </trkpt>
      <trkpt lat="45.96452" lon="6.91581">
        <ele>1294.5524902344</ele>
        <time>2010-06-27T05:52:11Z</time>
      </trkpt>
      <trkpt lat="45.96455" lon="6.91585">
        <ele>1296.9558105469</ele>
        <time>2010-06-27T05:52:14Z</time>
      </trkpt>
      <trkpt lat="45.96468" lon="6.91588">
        <ele>1304.1657714844</ele>
        <time>2010-06-27T05:52:20Z</time>
      </trkpt>
      <trkpt lat="45.96481" lon="6.91592">
        <ele>1309.453125</ele>
        <time>2010-06-27T05:52:25Z</time>
      </trkpt>
      <trkpt lat="45.96494" lon="6.91602">
        <ele>1319.0661621094</ele>
        <time>2010-06-27T05:52:30Z</time>
      </trkpt>
      <trkpt lat="45.96501" lon="6.91615">
        <ele>1322.9113769531</ele>
        <time>2010-06-27T05:52:37Z</time>
      </trkpt>
      <trkpt lat="45.96507" lon="6.91622">
        <ele>1322.9113769531</ele>
        <time>2010-06-27T05:52:41Z</time>
      </trkpt>
      <trkpt lat="45.9651" lon="6.9163">
        <ele>1320.9887695312</ele>
        <time>2010-06-27T05:52:44Z</time>
      </trkpt>
      <trkpt lat="45.96513" lon="6.91638">
        <ele>1318.1047363281</ele>
        <time>2010-06-27T05:52:48Z</time>
      </trkpt>
      <trkpt lat="45.96523" lon="6.91642">
        <ele>1316.6628417969</ele>
        <time>2010-06-27T05:52:52Z</time>
      </trkpt>
      <trkpt lat="45.96535" lon="6.91652">
        <ele>1317.1435546875</ele>
        <time>2010-06-27T05:52:56Z</time>
      </trkpt>
      <trkpt lat="45.96542" lon="6.91662">
        <ele>1316.6628417969</ele>
        <time>2010-06-27T05:53:00Z</time>
      </trkpt>
      <trkpt lat="45.96553" lon="6.91665">
        <ele>1317.1435546875</ele>
        <time>2010-06-27T05:53:05Z</time>
      </trkpt>
      <trkpt lat="45.96558" lon="6.91672">
        <ele>1315.2209472656</ele>
        <time>2010-06-27T05:53:08Z</time>
      </trkpt>
      <trkpt lat="45.9657" lon="6.91685">
        <ele>1314.2595214844</ele>
        <time>2010-06-27T05:53:14Z</time>
      </trkpt>
      <trkpt lat="45.96574" lon="6.91689">
        <ele>1315.7016601562</ele>
        <time>2010-06-27T05:53:18Z</time>
      </trkpt>
      <trkpt lat="45.96587" lon="6.91703">
        <ele>1313.7788085938</ele>
        <time>2010-06-27T05:53:23Z</time>
      </trkpt>
      <trkpt lat="45.96596" lon="6.91705">
        <ele>1316.6628417969</ele>
        <time>2010-06-27T05:53:26Z</time>
      </trkpt>
      <trkpt lat="45.96597" lon="6.91722">
        <ele>1312.8176269531</ele>
        <time>2010-06-27T05:53:31Z</time>
      </trkpt>
      <trkpt lat="45.96609" lon="6.91729">
        <ele>1315.2209472656</ele>
        <time>2010-06-27T05:53:37Z</time>
      </trkpt>
      <trkpt lat="45.96621" lon="6.91739">
        <ele>1319.0661621094</ele>
        <time>2010-06-27T05:53:41Z</time>
      </trkpt>
      <trkpt lat="45.96637" lon="6.9175">
        <ele>1323.8725585938</ele>
        <time>2010-06-27T05:53:46Z</time>
      </trkpt>
      <trkpt lat="45.96648" lon="6.91765">
        <ele>1319.546875</ele>
        <time>2010-06-27T05:53:51Z</time>
      </trkpt>
      <trkpt lat="45.96654" lon="6.91774">
        <ele>1318.5854492188</ele>
        <time>2010-06-27T05:53:55Z</time>
      </trkpt>
      <trkpt lat="45.96655" lon="6.91777">
        <ele>1319.0661621094</ele>
        <time>2010-06-27T05:53:56Z</time>
      </trkpt>
      <trkpt lat="45.96663" lon="6.91784">
        <ele>1323.3920898438</ele>
        <time>2010-06-27T05:54:01Z</time>
      </trkpt>
      <trkpt lat="45.96672" lon="6.91801">
        <ele>1327.7180175781</ele>
        <time>2010-06-27T05:54:07Z</time>
      </trkpt>
      <trkpt lat="45.96673" lon="6.91806">
        <ele>1325.7954101562</ele>
        <time>2010-06-27T05:54:11Z</time>
      </trkpt>
      <trkpt lat="45.96674" lon="6.91804">
        <ele>1324.353515625</ele>
        <time>2010-06-27T05:54:14Z</time>
      </trkpt>
      <trkpt lat="45.96675" lon="6.91801">
        <ele>1322.4306640625</ele>
        <time>2010-06-27T05:54:16Z</time>
      </trkpt>
      <trkpt lat="45.96684" lon="6.91807">
        <ele>1310.8950195312</ele>
        <time>2010-06-27T05:54:22Z</time>
      </trkpt>
      <trkpt lat="45.96686" lon="6.91809">
        <ele>1308.9724121094</ele>
        <time>2010-06-27T05:54:23Z</time>
      </trkpt>
      <trkpt lat="45.96693" lon="6.91825">
        <ele>1299.3591308594</ele>
        <time>2010-06-27T05:54:28Z</time>
      </trkpt>
      <trkpt lat="45.96694" lon="6.91827">
        <ele>1298.8784179688</ele>
        <time>2010-06-27T05:54:29Z</time>
      </trkpt>
      <trkpt lat="45.96699" lon="6.91844">
        <ele>1300.3205566406</ele>
        <time>2010-06-27T05:54:34Z</time>
      </trkpt>
      <trkpt lat="45.96705" lon="6.91849">
        <ele>1301.7624511719</ele>
        <time>2010-06-27T05:54:37Z</time>
      </trkpt>
      <trkpt lat="45.96716" lon="6.91856">
        <ele>1301.2817382812</ele>
        <time>2010-06-27T05:54:41Z</time>
      </trkpt>
      <trkpt lat="45.96738" lon="6.91858">
        <ele>1310.8950195312</ele>
        <time>2010-06-27T05:54:45Z</time>
      </trkpt>
      <trkpt lat="45.96745" lon="6.91866">
        <ele>1312.3369140625</ele>
        <time>2010-06-27T05:54:49Z</time>
      </trkpt>
      <trkpt lat="45.96754" lon="6.91872">
        <ele>1318.1047363281</ele>
        <time>2010-06-27T05:54:53Z</time>
      </trkpt>
      <trkpt lat="45.96756" lon="6.91873">
        <ele>1319.546875</ele>
        <time>2010-06-27T05:54:54Z</time>
      </trkpt>
      <trkpt lat="45.9676" lon="6.91885">
        <ele>1314.740234375</ele>
        <time>2010-06-27T05:54:59Z</time>
      </trkpt>
      <trkpt lat="45.96766" lon="6.91896">
        <ele>1311.8564453125</ele>
        <time>2010-06-27T05:55:03Z</time>
      </trkpt>
      <trkpt lat="45.96775" lon="6.91911">
        <ele>1306.0881347656</ele>
        <time>2010-06-27T05:55:08Z</time>
      </trkpt>
      <trkpt lat="45.96778" lon="6.91913">
        <ele>1306.0881347656</ele>
        <time>2010-06-27T05:55:09Z</time>
      </trkpt>
      <trkpt lat="45.96801" lon="6.9192">
        <ele>1308.9724121094</ele>
        <time>2010-06-27T05:55:15Z</time>
      </trkpt>
      <trkpt lat="45.96813" lon="6.91938">
        <ele>1309.453125</ele>
        <time>2010-06-27T05:55:20Z</time>
      </trkpt>
      <trkpt lat="45.96814" lon="6.91942">
        <ele>1307.5302734375</ele>
        <time>2010-06-27T05:55:21Z</time>
      </trkpt>
      <trkpt lat="45.96832" lon="6.91953">
        <ele>1305.126953125</ele>
        <time>2010-06-27T05:55:27Z</time>
      </trkpt>
      <trkpt lat="45.96844" lon="6.91961">
        <ele>1302.2429199219</ele>
        <time>2010-06-27T05:55:32Z</time>
      </trkpt>
      <trkpt lat="45.96854" lon="6.91965">
        <ele>1305.6076660156</ele>
        <time>2010-06-27T05:55:36Z</time>
      </trkpt>
      <trkpt lat="45.96857" lon="6.91972">
        <ele>1305.126953125</ele>
        <time>2010-06-27T05:55:40Z</time>
      </trkpt>
      <trkpt lat="45.96868" lon="6.91978">
        <ele>1308.9724121094</ele>
        <time>2010-06-27T05:55:44Z</time>
      </trkpt>
      <trkpt lat="45.96873" lon="6.91984">
        <ele>1309.93359375</ele>
        <time>2010-06-27T05:55:46Z</time>
      </trkpt>
      <trkpt lat="45.96889" lon="6.91996">
        <ele>1308.9724121094</ele>
        <time>2010-06-27T05:55:51Z</time>
      </trkpt>
      <trkpt lat="45.96905" lon="6.92012">
        <ele>1308.9724121094</ele>
        <time>2010-06-27T05:55:56Z</time>
      </trkpt>
      <trkpt lat="45.96915" lon="6.92029">
        <ele>1309.453125</ele>
        <time>2010-06-27T05:56:01Z</time>
      </trkpt>
      <trkpt lat="45.96913" lon="6.92042">
        <ele>1303.6850585938</ele>
        <time>2010-06-27T05:56:05Z</time>
      </trkpt>
      <trkpt lat="45.96914" lon="6.92051">
        <ele>1298.8784179688</ele>
        <time>2010-06-27T05:56:08Z</time>
      </trkpt>
      <trkpt lat="45.96929" lon="6.92063">
        <ele>1289.7458496094</ele>
        <time>2010-06-27T05:56:13Z</time>
      </trkpt>
      <trkpt lat="45.96941" lon="6.92072">
        <ele>1284.4587402344</ele>
        <time>2010-06-27T05:56:16Z</time>
      </trkpt>
      <trkpt lat="45.96945" lon="6.92074">
        <ele>1283.4973144531</ele>
        <time>2010-06-27T05:56:17Z</time>
      </trkpt>
      <trkpt lat="45.96967" lon="6.92088">
        <ele>1282.0554199219</ele>
        <time>2010-06-27T05:56:23Z</time>
      </trkpt>
      <trkpt lat="45.96981" lon="6.92103">
        <ele>1283.9780273438</ele>
        <time>2010-06-27T05:56:29Z</time>
      </trkpt>
      <trkpt lat="45.96986" lon="6.92105">
        <ele>1285.9006347656</ele>
        <time>2010-06-27T05:56:33Z</time>
      </trkpt>
      <trkpt lat="45.96987" lon="6.92106">
        <ele>1285.9006347656</ele>
        <time>2010-06-27T05:56:34Z</time>
      </trkpt>
      <trkpt lat="45.96988" lon="6.9211">
        <ele>1285.419921875</ele>
        <time>2010-06-27T05:56:37Z</time>
      </trkpt>
      <trkpt lat="45.97002" lon="6.92123">
        <ele>1282.5361328125</ele>
        <time>2010-06-27T05:56:42Z</time>
      </trkpt>
      <trkpt lat="45.97014" lon="6.92127">
        <ele>1283.4973144531</ele>
        <time>2010-06-27T05:56:46Z</time>
      </trkpt>
      <trkpt lat="45.97021" lon="6.92131">
        <ele>1280.1328125</ele>
        <time>2010-06-27T05:56:50Z</time>
      </trkpt>
      <trkpt lat="45.9703" lon="6.92142">
        <ele>1277.7294921875</ele>
        <time>2010-06-27T05:56:55Z</time>
      </trkpt>
      <trkpt lat="45.97038" lon="6.92152">
        <ele>1282.0554199219</ele>
        <time>2010-06-27T05:56:59Z</time>
      </trkpt>
      <trkpt lat="45.97041" lon="6.92157">
        <ele>1280.6135253906</ele>
        <time>2010-06-27T05:57:01Z</time>
      </trkpt>
      <trkpt lat="45.97053" lon="6.92174">
        <ele>1280.1328125</ele>
        <time>2010-06-27T05:57:06Z</time>
      </trkpt>
      <trkpt lat="45.97054" lon="6.92177">
        <ele>1279.1713867188</ele>
        <time>2010-06-27T05:57:07Z</time>
      </trkpt>
      <trkpt lat="45.97057" lon="6.92192">
        <ele>1269.0776367188</ele>
        <time>2010-06-27T05:57:13Z</time>
      </trkpt>
      <trkpt lat="45.97058" lon="6.922">
        <ele>1270.51953125</ele>
        <time>2010-06-27T05:57:17Z</time>
      </trkpt>
      <trkpt lat="45.97061" lon="6.92207">
        <ele>1273.4035644531</ele>
        <time>2010-06-27T05:57:22Z</time>
      </trkpt>
      <trkpt lat="45.97063" lon="6.92218">
        <ele>1275.3259277344</ele>
        <time>2010-06-27T05:57:30Z</time>
      </trkpt>
      <trkpt lat="45.97068" lon="6.92222">
        <ele>1272.9228515625</ele>
        <time>2010-06-27T05:57:33Z</time>
      </trkpt>
      <trkpt lat="45.97069" lon="6.92232">
        <ele>1275.3259277344</ele>
        <time>2010-06-27T05:57:38Z</time>
      </trkpt>
      <trkpt lat="45.97074" lon="6.9224">
        <ele>1273.8840332031</ele>
        <time>2010-06-27T05:57:42Z</time>
      </trkpt>
      <trkpt lat="45.97075" lon="6.92241">
        <ele>1273.4035644531</ele>
        <time>2010-06-27T05:57:43Z</time>
      </trkpt>
      <trkpt lat="45.97076" lon="6.92253">
        <ele>1274.3647460938</ele>
        <time>2010-06-27T05:57:48Z</time>
      </trkpt>
      <trkpt lat="45.97079" lon="6.92263">
        <ele>1280.6135253906</ele>
        <time>2010-06-27T05:57:53Z</time>
      </trkpt>
      <trkpt lat="45.97084" lon="6.92271">
        <ele>1288.3039550781</ele>
        <time>2010-06-27T05:57:58Z</time>
      </trkpt>
      <trkpt lat="45.97087" lon="6.92277">
        <ele>1291.1877441406</ele>
        <time>2010-06-27T05:58:02Z</time>
      </trkpt>
      <trkpt lat="45.97096" lon="6.92283">
        <ele>1304.1657714844</ele>
        <time>2010-06-27T05:58:08Z</time>
      </trkpt>
      <trkpt lat="45.97108" lon="6.92289">
        <ele>1318.1047363281</ele>
        <time>2010-06-27T05:58:14Z</time>
      </trkpt>
      <trkpt lat="45.97114" lon="6.92293">
        <ele>1319.546875</ele>
        <time>2010-06-27T05:58:19Z</time>
      </trkpt>
      <trkpt lat="45.97114" lon="6.92297">
        <ele>1314.740234375</ele>
        <time>2010-06-27T05:58:22Z</time>
      </trkpt>
      <trkpt lat="45.9712" lon="6.92305">
        <ele>1308.9724121094</ele>
        <time>2010-06-27T05:58:26Z</time>
      </trkpt>
      <trkpt lat="45.97128" lon="6.9232">
        <ele>1298.8784179688</ele>
        <time>2010-06-27T05:58:30Z</time>
      </trkpt>
      <trkpt lat="45.97136" lon="6.92331">
        <ele>1295.5139160156</ele>
        <time>2010-06-27T05:58:36Z</time>
      </trkpt>
      <trkpt lat="45.97144" lon="6.92335">
        <ele>1295.5139160156</ele>
        <time>2010-06-27T05:58:41Z</time>
      </trkpt>
      <trkpt lat="45.9715" lon="6.92345">
        <ele>1290.70703125</ele>
        <time>2010-06-27T05:58:47Z</time>
      </trkpt>
      <trkpt lat="45.97156" lon="6.92359">
        <ele>1287.3425292969</ele>
        <time>2010-06-27T05:58:53Z</time>
      </trkpt>
      <trkpt lat="45.9716" lon="6.92365">
        <ele>1283.4973144531</ele>
        <time>2010-06-27T05:58:57Z</time>
      </trkpt>
      <trkpt lat="45.97161" lon="6.92368">
        <ele>1283.4973144531</ele>
        <time>2010-06-27T05:58:59Z</time>
      </trkpt>
      <trkpt lat="45.97171" lon="6.92377">
        <ele>1283.4973144531</ele>
        <time>2010-06-27T05:59:04Z</time>
      </trkpt>
      <trkpt lat="45.97175" lon="6.92382">
        <ele>1282.5361328125</ele>
        <time>2010-06-27T05:59:06Z</time>
      </trkpt>
      <trkpt lat="45.97185" lon="6.92392">
        <ele>1282.0554199219</ele>
        <time>2010-06-27T05:59:11Z</time>
      </trkpt>
      <trkpt lat="45.97195" lon="6.924">
        <ele>1284.4587402344</ele>
        <time>2010-06-27T05:59:15Z</time>
      </trkpt>
      <trkpt lat="45.97211" lon="6.92409">
        <ele>1292.6301269531</ele>
        <time>2010-06-27T05:59:20Z</time>
      </trkpt>
      <trkpt lat="45.97219" lon="6.92421">
        <ele>1291.1877441406</ele>
        <time>2010-06-27T05:59:24Z</time>
      </trkpt>
      <trkpt lat="45.97225" lon="6.92436">
        <ele>1295.033203125</ele>
        <time>2010-06-27T05:59:29Z</time>
      </trkpt>
      <trkpt lat="45.97227" lon="6.92447">
        <ele>1292.1494140625</ele>
        <time>2010-06-27T05:59:33Z</time>
      </trkpt>
      <trkpt lat="45.97227" lon="6.92449">
        <ele>1291.1877441406</ele>
        <time>2010-06-27T05:59:34Z</time>
      </trkpt>
      <trkpt lat="45.97237" lon="6.92453">
        <ele>1287.8232421875</ele>
        <time>2010-06-27T05:59:38Z</time>
      </trkpt>
      <trkpt lat="45.97248" lon="6.92457">
        <ele>1285.419921875</ele>
        <time>2010-06-27T05:59:42Z</time>
      </trkpt>
      <trkpt lat="45.97262" lon="6.92472">
        <ele>1281.5747070312</ele>
        <time>2010-06-27T05:59:47Z</time>
      </trkpt>
      <trkpt lat="45.97276" lon="6.92482">
        <ele>1279.1713867188</ele>
        <time>2010-06-27T05:59:51Z</time>
      </trkpt>
      <trkpt lat="45.97279" lon="6.92485">
        <ele>1278.2102050781</ele>
        <time>2010-06-27T05:59:52Z</time>
      </trkpt>
      <trkpt lat="45.97285" lon="6.92502">
        <ele>1272.4421386719</ele>
        <time>2010-06-27T05:59:58Z</time>
      </trkpt>
      <trkpt lat="45.97288" lon="6.92511">
        <ele>1268.5969238281</ele>
        <time>2010-06-27T06:00:01Z</time>
      </trkpt>
      <trkpt lat="45.97293" lon="6.92516">
        <ele>1267.6354980469</ele>
        <time>2010-06-27T06:00:03Z</time>
      </trkpt>
      <trkpt lat="45.97308" lon="6.92525">
        <ele>1265.232421875</ele>
        <time>2010-06-27T06:00:08Z</time>
      </trkpt>
      <trkpt lat="45.97312" lon="6.92529">
        <ele>1265.232421875</ele>
        <time>2010-06-27T06:00:10Z</time>
      </trkpt>
      <trkpt lat="45.97312" lon="6.92535">
        <ele>1261.8679199219</ele>
        <time>2010-06-27T06:00:13Z</time>
      </trkpt>
      <trkpt lat="45.97316" lon="6.92538">
        <ele>1259.4643554688</ele>
        <time>2010-06-27T06:00:16Z</time>
      </trkpt>
      <trkpt lat="45.97318" lon="6.92547">
        <ele>1257.0610351562</ele>
        <time>2010-06-27T06:00:20Z</time>
      </trkpt>
      <trkpt lat="45.97316" lon="6.92558">
        <ele>1255.619140625</ele>
        <time>2010-06-27T06:00:26Z</time>
      </trkpt>
      <trkpt lat="45.97323" lon="6.92563">
        <ele>1262.8291015625</ele>
        <time>2010-06-27T06:00:30Z</time>
      </trkpt>
      <trkpt lat="45.97328" lon="6.92571">
        <ele>1266.6743164062</ele>
        <time>2010-06-27T06:00:34Z</time>
      </trkpt>
      <trkpt lat="45.9733" lon="6.92577">
        <ele>1269.0776367188</ele>
        <time>2010-06-27T06:00:37Z</time>
      </trkpt>
      <trkpt lat="45.97338" lon="6.9259">
        <ele>1283.0166015625</ele>
        <time>2010-06-27T06:00:44Z</time>
      </trkpt>
      <trkpt lat="45.97341" lon="6.92606">
        <ele>1295.033203125</ele>
        <time>2010-06-27T06:00:51Z</time>
      </trkpt>
      <trkpt lat="45.97344" lon="6.92611">
        <ele>1299.83984375</ele>
        <time>2010-06-27T06:00:54Z</time>
      </trkpt>
      <trkpt lat="45.97355" lon="6.92617">
        <ele>1308.9724121094</ele>
        <time>2010-06-27T06:01:01Z</time>
      </trkpt>
      <trkpt lat="45.97358" lon="6.92626">
        <ele>1306.5688476562</ele>
        <time>2010-06-27T06:01:08Z</time>
      </trkpt>
      <trkpt lat="45.9736" lon="6.92632">
        <ele>1306.5688476562</ele>
        <time>2010-06-27T06:01:12Z</time>
      </trkpt>
      <trkpt lat="45.97366" lon="6.92636">
        <ele>1304.1657714844</ele>
        <time>2010-06-27T06:01:18Z</time>
      </trkpt>
      <trkpt lat="45.97369" lon="6.92641">
        <ele>1300.3205566406</ele>
        <time>2010-06-27T06:01:24Z</time>
      </trkpt>
      <trkpt lat="45.97368" lon="6.92649">
        <ele>1295.9946289062</ele>
        <time>2010-06-27T06:01:29Z</time>
      </trkpt>
      <trkpt lat="45.97369" lon="6.92655">
        <ele>1292.6301269531</ele>
        <time>2010-06-27T06:01:34Z</time>
      </trkpt>
      <trkpt lat="45.97368" lon="6.92657">
        <ele>1292.1494140625</ele>
        <time>2010-06-27T06:01:35Z</time>
      </trkpt>
      <trkpt lat="45.97369" lon="6.92666">
        <ele>1292.6301269531</ele>
        <time>2010-06-27T06:01:40Z</time>
      </trkpt>
      <trkpt lat="45.97367" lon="6.92681">
        <ele>1292.1494140625</ele>
        <time>2010-06-27T06:01:47Z</time>
      </trkpt>
      <trkpt lat="45.97368" lon="6.92692">
        <ele>1291.6684570312</ele>
        <time>2010-06-27T06:01:53Z</time>
      </trkpt>
      <trkpt lat="45.9737" lon="6.927">
        <ele>1295.033203125</ele>
        <time>2010-06-27T06:01:59Z</time>
      </trkpt>
      <trkpt lat="45.97372" lon="6.92704">
        <ele>1297.4365234375</ele>
        <time>2010-06-27T06:02:03Z</time>
      </trkpt>
      <trkpt lat="45.97373" lon="6.9271">
        <ele>1297.9172363281</ele>
        <time>2010-06-27T06:02:07Z</time>
      </trkpt>
      <trkpt lat="45.97373" lon="6.92718">
        <ele>1300.3205566406</ele>
        <time>2010-06-27T06:02:11Z</time>
      </trkpt>
      <trkpt lat="45.97376" lon="6.92722">
        <ele>1303.6850585938</ele>
        <time>2010-06-27T06:02:15Z</time>
      </trkpt>
      <trkpt lat="45.97378" lon="6.92729">
        <ele>1305.126953125</ele>
        <time>2010-06-27T06:02:19Z</time>
      </trkpt>
      <trkpt lat="45.97381" lon="6.92734">
        <ele>1305.126953125</ele>
        <time>2010-06-27T06:02:23Z</time>
      </trkpt>
      <trkpt lat="45.97382" lon="6.92735">
        <ele>1304.6462402344</ele>
        <time>2010-06-27T06:02:24Z</time>
      </trkpt>
      <trkpt lat="45.97388" lon="6.92742">
        <ele>1303.2043457031</ele>
        <time>2010-06-27T06:02:31Z</time>
      </trkpt>
      <trkpt lat="45.97394" lon="6.92747">
        <ele>1303.6850585938</ele>
        <time>2010-06-27T06:02:36Z</time>
      </trkpt>
      <trkpt lat="45.97398" lon="6.92751">
        <ele>1302.7236328125</ele>
        <time>2010-06-27T06:02:39Z</time>
      </trkpt>
      <trkpt lat="45.9741" lon="6.92756">
        <ele>1299.3591308594</ele>
        <time>2010-06-27T06:02:44Z</time>
      </trkpt>
      <trkpt lat="45.97424" lon="6.92761">
        <ele>1295.9946289062</ele>
        <time>2010-06-27T06:02:49Z</time>
      </trkpt>
      <trkpt lat="45.97441" lon="6.92767">
        <ele>1292.6301269531</ele>
        <time>2010-06-27T06:02:54Z</time>
      </trkpt>
      <trkpt lat="45.97459" lon="6.92774">
        <ele>1286.8618164062</ele>
        <time>2010-06-27T06:02:59Z</time>
      </trkpt>
      <trkpt lat="45.97473" lon="6.92774">
        <ele>1282.5361328125</ele>
        <time>2010-06-27T06:03:03Z</time>
      </trkpt>
      <trkpt lat="45.97479" lon="6.92775">
        <ele>1280.1328125</ele>
        <time>2010-06-27T06:03:05Z</time>
      </trkpt>
      <trkpt lat="45.97499" lon="6.9278">
        <ele>1282.5361328125</ele>
        <time>2010-06-27T06:03:11Z</time>
      </trkpt>
      <trkpt lat="45.97509" lon="6.92788">
        <ele>1281.5747070312</ele>
        <time>2010-06-27T06:03:17Z</time>
      </trkpt>
      <trkpt lat="45.97517" lon="6.92795">
        <ele>1279.6520996094</ele>
        <time>2010-06-27T06:03:21Z</time>
      </trkpt>
      <trkpt lat="45.97527" lon="6.92811">
        <ele>1272.4421386719</ele>
        <time>2010-06-27T06:03:27Z</time>
      </trkpt>
      <trkpt lat="45.97536" lon="6.92818">
        <ele>1267.1550292969</ele>
        <time>2010-06-27T06:03:31Z</time>
      </trkpt>
      <trkpt lat="45.97551" lon="6.92819">
        <ele>1261.8679199219</ele>
        <time>2010-06-27T06:03:36Z</time>
      </trkpt>
      <trkpt lat="45.97558" lon="6.92819">
        <ele>1258.5029296875</ele>
        <time>2010-06-27T06:03:39Z</time>
      </trkpt>
      <trkpt lat="45.97564" lon="6.9282">
        <ele>1252.7351074219</ele>
        <time>2010-06-27T06:03:42Z</time>
      </trkpt>
      <trkpt lat="45.97571" lon="6.92826">
        <ele>1248.8898925781</ele>
        <time>2010-06-27T06:03:46Z</time>
      </trkpt>
      <trkpt lat="45.97587" lon="6.92833">
        <ele>1249.3706054688</ele>
        <time>2010-06-27T06:03:51Z</time>
      </trkpt>
      <trkpt lat="45.97598" lon="6.92844">
        <ele>1249.8513183594</ele>
        <time>2010-06-27T06:03:55Z</time>
      </trkpt>
      <trkpt lat="45.97615" lon="6.92855">
        <ele>1258.0224609375</ele>
        <time>2010-06-27T06:04:00Z</time>
      </trkpt>
      <trkpt lat="45.97623" lon="6.92857">
        <ele>1262.3483886719</ele>
        <time>2010-06-27T06:04:04Z</time>
      </trkpt>
      <trkpt lat="45.97629" lon="6.92858">
        <ele>1263.7902832031</ele>
        <time>2010-06-27T06:04:08Z</time>
      </trkpt>
      <trkpt lat="45.97636" lon="6.92866">
        <ele>1267.1550292969</ele>
        <time>2010-06-27T06:04:13Z</time>
      </trkpt>
      <trkpt lat="45.97647" lon="6.92858">
        <ele>1268.5969238281</ele>
        <time>2010-06-27T06:04:19Z</time>
      </trkpt>
      <trkpt lat="45.97648" lon="6.92857">
        <ele>1269.5583496094</ele>
        <time>2010-06-27T06:04:21Z</time>
      </trkpt>
      <trkpt lat="45.97657" lon="6.92852">
        <ele>1270.51953125</ele>
        <time>2010-06-27T06:04:25Z</time>
      </trkpt>
      <trkpt lat="45.97669" lon="6.92855">
        <ele>1273.8840332031</ele>
        <time>2010-06-27T06:04:30Z</time>
      </trkpt>
      <trkpt lat="45.97675" lon="6.92854">
        <ele>1273.4035644531</ele>
        <time>2010-06-27T06:04:32Z</time>
      </trkpt>
      <trkpt lat="45.97681" lon="6.92851">
        <ele>1275.3259277344</ele>
        <time>2010-06-27T06:04:34Z</time>
      </trkpt>
      <trkpt lat="45.97689" lon="6.92855">
        <ele>1276.2875976562</ele>
        <time>2010-06-27T06:04:38Z</time>
      </trkpt>
      <trkpt lat="45.97702" lon="6.92862">
        <ele>1272.4421386719</ele>
        <time>2010-06-27T06:04:42Z</time>
      </trkpt>
      <trkpt lat="45.97712" lon="6.92873">
        <ele>1268.5969238281</ele>
        <time>2010-06-27T06:04:47Z</time>
      </trkpt>
      <trkpt lat="45.9772" lon="6.9289">
        <ele>1267.6354980469</ele>
        <time>2010-06-27T06:04:53Z</time>
      </trkpt>
      <trkpt lat="45.97722" lon="6.92892">
        <ele>1269.0776367188</ele>
        <time>2010-06-27T06:04:54Z</time>
      </trkpt>
      <trkpt lat="45.97733" lon="6.92905">
        <ele>1273.4035644531</ele>
        <time>2010-06-27T06:04:59Z</time>
      </trkpt>
      <trkpt lat="45.97744" lon="6.92922">
        <ele>1275.3259277344</ele>
        <time>2010-06-27T06:05:05Z</time>
      </trkpt>
      <trkpt lat="45.97751" lon="6.92934">
        <ele>1275.806640625</ele>
        <time>2010-06-27T06:05:09Z</time>
      </trkpt>
      <trkpt lat="45.97758" lon="6.92948">
        <ele>1278.2102050781</ele>
        <time>2010-06-27T06:05:14Z</time>
      </trkpt>
      <trkpt lat="45.97761" lon="6.92954">
        <ele>1280.1328125</ele>
        <time>2010-06-27T06:05:16Z</time>
      </trkpt>
      <trkpt lat="45.97764" lon="6.92966">
        <ele>1283.0166015625</ele>
        <time>2010-06-27T06:05:20Z</time>
      </trkpt>
      <trkpt lat="45.97773" lon="6.92978">
        <ele>1280.6135253906</ele>
        <time>2010-06-27T06:05:25Z</time>
      </trkpt>
      <trkpt lat="45.97782" lon="6.92989">
        <ele>1282.0554199219</ele>
        <time>2010-06-27T06:05:30Z</time>
      </trkpt>
      <trkpt lat="45.97791" lon="6.92998">
        <ele>1282.0554199219</ele>
        <time>2010-06-27T06:05:35Z</time>
      </trkpt>
      <trkpt lat="45.97796" lon="6.93">
        <ele>1282.5361328125</ele>
        <time>2010-06-27T06:05:37Z</time>
      </trkpt>
      <trkpt lat="45.97809" lon="6.93011">
        <ele>1283.9780273438</ele>
        <time>2010-06-27T06:05:43Z</time>
      </trkpt>
      <trkpt lat="45.97817" lon="6.9302">
        <ele>1286.3813476562</ele>
        <time>2010-06-27T06:05:48Z</time>
      </trkpt>
      <trkpt lat="45.9782" lon="6.93023">
        <ele>1285.9006347656</ele>
        <time>2010-06-27T06:05:49Z</time>
      </trkpt>
      <trkpt lat="45.97837" lon="6.93026">
        <ele>1286.8618164062</ele>
        <time>2010-06-27T06:05:54Z</time>
      </trkpt>
      <trkpt lat="45.97849" lon="6.93033">
        <ele>1285.9006347656</ele>
        <time>2010-06-27T06:05:58Z</time>
      </trkpt>
      <trkpt lat="45.97862" lon="6.93039">
        <ele>1285.419921875</ele>
        <time>2010-06-27T06:06:02Z</time>
      </trkpt>
      <trkpt lat="45.97865" lon="6.93041">
        <ele>1284.939453125</ele>
        <time>2010-06-27T06:06:03Z</time>
      </trkpt>
      <trkpt lat="45.9787" lon="6.93054">
        <ele>1284.939453125</ele>
        <time>2010-06-27T06:06:08Z</time>
      </trkpt>
      <trkpt lat="45.9787" lon="6.93058">
        <ele>1285.419921875</ele>
        <time>2010-06-27T06:06:09Z</time>
      </trkpt>
      <trkpt lat="45.97873" lon="6.93077">
        <ele>1283.4973144531</ele>
        <time>2010-06-27T06:06:15Z</time>
      </trkpt>
      <trkpt lat="45.97873" lon="6.93083">
        <ele>1282.5361328125</ele>
        <time>2010-06-27T06:06:17Z</time>
      </trkpt>
      <trkpt lat="45.97879" lon="6.93102">
        <ele>1281.5747070312</ele>
        <time>2010-06-27T06:06:22Z</time>
      </trkpt>
      <trkpt lat="45.97886" lon="6.93119">
        <ele>1282.0554199219</ele>
        <time>2010-06-27T06:06:27Z</time>
      </trkpt>
      <trkpt lat="45.97891" lon="6.93132">
        <ele>1282.5361328125</ele>
        <time>2010-06-27T06:06:31Z</time>
      </trkpt>
      <trkpt lat="45.97901" lon="6.93142">
        <ele>1282.5361328125</ele>
        <time>2010-06-27T06:06:36Z</time>
      </trkpt>
      <trkpt lat="45.97914" lon="6.9315">
        <ele>1282.5361328125</ele>
        <time>2010-06-27T06:06:41Z</time>
      </trkpt>
      <trkpt lat="45.97929" lon="6.93157">
        <ele>1286.3813476562</ele>
        <time>2010-06-27T06:06:46Z</time>
      </trkpt>
      <trkpt lat="45.9794" lon="6.93169">
        <ele>1286.8618164062</ele>
        <time>2010-06-27T06:06:51Z</time>
      </trkpt>
      <trkpt lat="45.97945" lon="6.93178">
        <ele>1286.8618164062</ele>
        <time>2010-06-27T06:06:54Z</time>
      </trkpt>
      <trkpt lat="45.97949" lon="6.93194">
        <ele>1284.939453125</ele>
        <time>2010-06-27T06:06:59Z</time>
      </trkpt>
      <trkpt lat="45.97949" lon="6.93198">
        <ele>1285.419921875</ele>
        <time>2010-06-27T06:07:00Z</time>
      </trkpt>
      <trkpt lat="45.97949" lon="6.93205">
        <ele>1284.4587402344</ele>
        <time>2010-06-27T06:07:02Z</time>
      </trkpt>
      <trkpt lat="45.97958" lon="6.93222">
        <ele>1286.8618164062</ele>
        <time>2010-06-27T06:07:08Z</time>
      </trkpt>
      <trkpt lat="45.97963" lon="6.93233">
        <ele>1288.7846679688</ele>
        <time>2010-06-27T06:07:12Z</time>
      </trkpt>
      <trkpt lat="45.97964" lon="6.93236">
        <ele>1289.2651367188</ele>
        <time>2010-06-27T06:07:13Z</time>
      </trkpt>
      <trkpt lat="45.97968" lon="6.93249">
        <ele>1291.1877441406</ele>
        <time>2010-06-27T06:07:18Z</time>
      </trkpt>
      <trkpt lat="45.9797" lon="6.93253">
        <ele>1291.6684570312</ele>
        <time>2010-06-27T06:07:20Z</time>
      </trkpt>
      <trkpt lat="45.97981" lon="6.93256">
        <ele>1291.1877441406</ele>
        <time>2010-06-27T06:07:26Z</time>
      </trkpt>
      <trkpt lat="45.97997" lon="6.93252">
        <ele>1288.7846679688</ele>
        <time>2010-06-27T06:07:32Z</time>
      </trkpt>
      <trkpt lat="45.98011" lon="6.93251">
        <ele>1288.3039550781</ele>
        <time>2010-06-27T06:07:37Z</time>
      </trkpt>
      <trkpt lat="45.98015" lon="6.9325">
        <ele>1287.8232421875</ele>
        <time>2010-06-27T06:07:38Z</time>
      </trkpt>
      <trkpt lat="45.98028" lon="6.93249">
        <ele>1288.7846679688</ele>
        <time>2010-06-27T06:07:43Z</time>
      </trkpt>
      <trkpt lat="45.98042" lon="6.93255">
        <ele>1288.7846679688</ele>
        <time>2010-06-27T06:07:48Z</time>
      </trkpt>
      <trkpt lat="45.98055" lon="6.9326">
        <ele>1289.7458496094</ele>
        <time>2010-06-27T06:07:52Z</time>
      </trkpt>
      <trkpt lat="45.98068" lon="6.93268">
        <ele>1289.2651367188</ele>
        <time>2010-06-27T06:07:58Z</time>
      </trkpt>
      <trkpt lat="45.98088" lon="6.93271">
        <ele>1291.6684570312</ele>
        <time>2010-06-27T06:08:03Z</time>
      </trkpt>
      <trkpt lat="45.98096" lon="6.93273">
        <ele>1290.2265625</ele>
        <time>2010-06-27T06:08:07Z</time>
      </trkpt>
      <trkpt lat="45.98101" lon="6.93275">
        <ele>1288.7846679688</ele>
        <time>2010-06-27T06:08:09Z</time>
      </trkpt>
      <trkpt lat="45.9811" lon="6.93281">
        <ele>1287.3425292969</ele>
        <time>2010-06-27T06:08:13Z</time>
      </trkpt>
      <trkpt lat="45.98127" lon="6.93285">
        <ele>1286.8618164062</ele>
        <time>2010-06-27T06:08:18Z</time>
      </trkpt>
      <trkpt lat="45.98139" lon="6.93285">
        <ele>1285.419921875</ele>
        <time>2010-06-27T06:08:21Z</time>
      </trkpt>
      <trkpt lat="45.9815" lon="6.93288">
        <ele>1284.939453125</ele>
        <time>2010-06-27T06:08:25Z</time>
      </trkpt>
      <trkpt lat="45.98165" lon="6.9328">
        <ele>1282.5361328125</ele>
        <time>2010-06-27T06:08:31Z</time>
      </trkpt>
      <trkpt lat="45.98167" lon="6.93279">
        <ele>1282.5361328125</ele>
        <time>2010-06-27T06:08:32Z</time>
      </trkpt>
      <trkpt lat="45.98182" lon="6.93269">
        <ele>1278.2102050781</ele>
        <time>2010-06-27T06:08:37Z</time>
      </trkpt>
      <trkpt lat="45.98185" lon="6.93265">
        <ele>1276.7683105469</ele>
        <time>2010-06-27T06:08:39Z</time>
      </trkpt>
      <trkpt lat="45.98193" lon="6.93251">
        <ele>1276.7683105469</ele>
        <time>2010-06-27T06:08:44Z</time>
      </trkpt>
      <trkpt lat="45.98199" lon="6.93243">
        <ele>1279.1713867188</ele>
        <time>2010-06-27T06:08:48Z</time>
      </trkpt>
      <trkpt lat="45.98215" lon="6.93243">
        <ele>1279.1713867188</ele>
        <time>2010-06-27T06:08:53Z</time>
      </trkpt>
      <trkpt lat="45.98227" lon="6.93245">
        <ele>1280.6135253906</ele>
        <time>2010-06-27T06:08:58Z</time>
      </trkpt>
      <trkpt lat="45.98236" lon="6.93254">
        <ele>1280.1328125</ele>
        <time>2010-06-27T06:09:03Z</time>
      </trkpt>
      <trkpt lat="45.98239" lon="6.93255">
        <ele>1279.6520996094</ele>
        <time>2010-06-27T06:09:04Z</time>
      </trkpt>
      <trkpt lat="45.98254" lon="6.93262">
        <ele>1280.1328125</ele>
        <time>2010-06-27T06:09:09Z</time>
      </trkpt>
      <trkpt lat="45.98265" lon="6.93267">
        <ele>1277.7294921875</ele>
        <time>2010-06-27T06:09:14Z</time>
      </trkpt>
      <trkpt lat="45.98268" lon="6.93268">
        <ele>1278.2102050781</ele>
        <time>2010-06-27T06:09:15Z</time>
      </trkpt>
      <trkpt lat="45.98274" lon="6.93276">
        <ele>1278.6909179688</ele>
        <time>2010-06-27T06:09:18Z</time>
      </trkpt>
      <trkpt lat="45.98287" lon="6.93284">
        <ele>1278.2102050781</ele>
        <time>2010-06-27T06:09:24Z</time>
      </trkpt>
      <trkpt lat="45.983" lon="6.93291">
        <ele>1279.1713867188</ele>
        <time>2010-06-27T06:09:28Z</time>
      </trkpt>
      <trkpt lat="45.98312" lon="6.93301">
        <ele>1280.1328125</ele>
        <time>2010-06-27T06:09:32Z</time>
      </trkpt>
      <trkpt lat="45.98325" lon="6.93314">
        <ele>1284.939453125</ele>
        <time>2010-06-27T06:09:37Z</time>
      </trkpt>
      <trkpt lat="45.98333" lon="6.93322">
        <ele>1285.419921875</ele>
        <time>2010-06-27T06:09:41Z</time>
      </trkpt>
      <trkpt lat="45.98335" lon="6.93326">
        <ele>1286.8618164062</ele>
        <time>2010-06-27T06:09:43Z</time>
      </trkpt>
      <trkpt lat="45.98348" lon="6.93333">
        <ele>1286.3813476562</ele>
        <time>2010-06-27T06:09:48Z</time>
      </trkpt>
      <trkpt lat="45.98352" lon="6.93335">
        <ele>1286.3813476562</ele>
        <time>2010-06-27T06:09:49Z</time>
      </trkpt>
      <trkpt lat="45.98362" lon="6.93338">
        <ele>1282.5361328125</ele>
        <time>2010-06-27T06:09:52Z</time>
      </trkpt>
      <trkpt lat="45.98375" lon="6.93331">
        <ele>1278.2102050781</ele>
        <time>2010-06-27T06:09:56Z</time>
      </trkpt>
      <trkpt lat="45.98383" lon="6.93319">
        <ele>1272.4421386719</ele>
        <time>2010-06-27T06:10:00Z</time>
      </trkpt>
      <trkpt lat="45.98392" lon="6.93294">
        <ele>1269.0776367188</ele>
        <time>2010-06-27T06:10:06Z</time>
      </trkpt>
      <trkpt lat="45.98399" lon="6.93272">
        <ele>1267.1550292969</ele>
        <time>2010-06-27T06:10:12Z</time>
      </trkpt>
      <trkpt lat="45.98407" lon="6.93251">
        <ele>1267.1550292969</ele>
        <time>2010-06-27T06:10:18Z</time>
      </trkpt>
      <trkpt lat="45.98413" lon="6.93236">
        <ele>1267.6354980469</ele>
        <time>2010-06-27T06:10:22Z</time>
      </trkpt>
      <trkpt lat="45.98416" lon="6.93215">
        <ele>1267.6354980469</ele>
        <time>2010-06-27T06:10:27Z</time>
      </trkpt>
      <trkpt lat="45.98421" lon="6.93202">
        <ele>1268.5969238281</ele>
        <time>2010-06-27T06:10:31Z</time>
      </trkpt>
      <trkpt lat="45.98426" lon="6.93178">
        <ele>1268.1162109375</ele>
        <time>2010-06-27T06:10:37Z</time>
      </trkpt>
      <trkpt lat="45.9843" lon="6.93164">
        <ele>1267.1550292969</ele>
        <time>2010-06-27T06:10:41Z</time>
      </trkpt>
      <trkpt lat="45.98431" lon="6.93147">
        <ele>1267.1550292969</ele>
        <time>2010-06-27T06:10:45Z</time>
      </trkpt>
      <trkpt lat="45.98434" lon="6.93128">
        <ele>1267.6354980469</ele>
        <time>2010-06-27T06:10:50Z</time>
      </trkpt>
      <trkpt lat="45.98434" lon="6.93114">
        <ele>1268.1162109375</ele>
        <time>2010-06-27T06:10:54Z</time>
      </trkpt>
      <trkpt lat="45.98433" lon="6.93093">
        <ele>1269.5583496094</ele>
        <time>2010-06-27T06:10:59Z</time>
      </trkpt>
      <trkpt lat="45.98433" lon="6.93079">
        <ele>1269.5583496094</ele>
        <time>2010-06-27T06:11:03Z</time>
      </trkpt>
      <trkpt lat="45.98429" lon="6.9306">
        <ele>1270.0388183594</ele>
        <time>2010-06-27T06:11:08Z</time>
      </trkpt>
      <trkpt lat="45.98426" lon="6.93047">
        <ele>1270.0388183594</ele>
        <time>2010-06-27T06:11:12Z</time>
      </trkpt>
      <trkpt lat="45.98424" lon="6.93035">
        <ele>1271.9614257812</ele>
        <time>2010-06-27T06:11:19Z</time>
      </trkpt>
      <trkpt lat="45.98423" lon="6.93031">
        <ele>1273.8840332031</ele>
        <time>2010-06-27T06:11:23Z</time>
      </trkpt>
      <trkpt lat="45.98426" lon="6.93031">
        <ele>1274.8454589844</ele>
        <time>2010-06-27T06:11:27Z</time>
      </trkpt>
      <trkpt lat="45.98427" lon="6.93028">
        <ele>1276.7683105469</ele>
        <time>2010-06-27T06:11:30Z</time>
      </trkpt>
      <trkpt lat="45.98427" lon="6.93017">
        <ele>1277.2490234375</ele>
        <time>2010-06-27T06:11:34Z</time>
      </trkpt>
      <trkpt lat="45.98429" lon="6.93013">
        <ele>1276.7683105469</ele>
        <time>2010-06-27T06:11:40Z</time>
      </trkpt>
      <trkpt lat="45.98429" lon="6.93007">
        <ele>1274.8454589844</ele>
        <time>2010-06-27T06:11:50Z</time>
      </trkpt>
      <trkpt lat="45.98427" lon="6.92999">
        <ele>1275.3259277344</ele>
        <time>2010-06-27T06:11:55Z</time>
      </trkpt>
      <trkpt lat="45.98426" lon="6.92991">
        <ele>1275.3259277344</ele>
        <time>2010-06-27T06:11:59Z</time>
      </trkpt>
      <trkpt lat="45.98422" lon="6.92977">
        <ele>1273.8840332031</ele>
        <time>2010-06-27T06:12:07Z</time>
      </trkpt>
      <trkpt lat="45.98414" lon="6.92965">
        <ele>1278.2102050781</ele>
        <time>2010-06-27T06:12:15Z</time>
      </trkpt>
      <trkpt lat="45.98413" lon="6.92958">
        <ele>1277.2490234375</ele>
        <time>2010-06-27T06:12:17Z</time>
      </trkpt>
      <trkpt lat="45.98421" lon="6.92945">
        <ele>1272.4421386719</ele>
        <time>2010-06-27T06:12:22Z</time>
      </trkpt>
      <trkpt lat="45.98422" lon="6.92941">
        <ele>1269.5583496094</ele>
        <time>2010-06-27T06:12:25Z</time>
      </trkpt>
      <trkpt lat="45.98422" lon="6.92938">
        <ele>1266.1936035156</ele>
        <time>2010-06-27T06:12:31Z</time>
      </trkpt>
      <trkpt lat="45.98421" lon="6.92936">
        <ele>1266.1936035156</ele>
        <time>2010-06-27T06:12:33Z</time>
      </trkpt>
      <trkpt lat="45.98429" lon="6.92924">
        <ele>1269.5583496094</ele>
        <time>2010-06-27T06:12:38Z</time>
      </trkpt>
      <trkpt lat="45.98439" lon="6.92915">
        <ele>1272.9228515625</ele>
        <time>2010-06-27T06:12:42Z</time>
      </trkpt>
      <trkpt lat="45.98454" lon="6.92906">
        <ele>1274.3647460938</ele>
        <time>2010-06-27T06:12:48Z</time>
      </trkpt>
      <trkpt lat="45.98476" lon="6.929">
        <ele>1279.6520996094</ele>
        <time>2010-06-27T06:12:55Z</time>
      </trkpt>
      <trkpt lat="45.98495" lon="6.92898">
        <ele>1290.2265625</ele>
        <time>2010-06-27T06:13:00Z</time>
      </trkpt>
      <trkpt lat="45.98504" lon="6.92908">
        <ele>1287.3425292969</ele>
        <time>2010-06-27T06:13:05Z</time>
      </trkpt>
      <trkpt lat="45.98512" lon="6.9292">
        <ele>1285.419921875</ele>
        <time>2010-06-27T06:13:10Z</time>
      </trkpt>
      <trkpt lat="45.98521" lon="6.92928">
        <ele>1285.419921875</ele>
        <time>2010-06-27T06:13:14Z</time>
      </trkpt>
      <trkpt lat="45.98532" lon="6.92936">
        <ele>1288.3039550781</ele>
        <time>2010-06-27T06:13:19Z</time>
      </trkpt>
      <trkpt lat="45.98541" lon="6.92942">
        <ele>1290.70703125</ele>
        <time>2010-06-27T06:13:23Z</time>
      </trkpt>
      <trkpt lat="45.9855" lon="6.92949">
        <ele>1289.2651367188</ele>
        <time>2010-06-27T06:13:27Z</time>
      </trkpt>
      <trkpt lat="45.98561" lon="6.92953">
        <ele>1289.2651367188</ele>
        <time>2010-06-27T06:13:31Z</time>
      </trkpt>
      <trkpt lat="45.98571" lon="6.92954">
        <ele>1285.9006347656</ele>
        <time>2010-06-27T06:13:36Z</time>
      </trkpt>
      <trkpt lat="45.98581" lon="6.92955">
        <ele>1284.939453125</ele>
        <time>2010-06-27T06:13:41Z</time>
      </trkpt>
      <trkpt lat="45.98598" lon="6.92957">
        <ele>1288.7846679688</ele>
        <time>2010-06-27T06:13:48Z</time>
      </trkpt>
      <trkpt lat="45.98606" lon="6.9296">
        <ele>1288.3039550781</ele>
        <time>2010-06-27T06:13:53Z</time>
      </trkpt>
      <trkpt lat="45.98619" lon="6.92964">
        <ele>1288.7846679688</ele>
        <time>2010-06-27T06:13:59Z</time>
      </trkpt>
      <trkpt lat="45.98627" lon="6.92966">
        <ele>1289.2651367188</ele>
        <time>2010-06-27T06:14:03Z</time>
      </trkpt>
      <trkpt lat="45.9864" lon="6.92966">
        <ele>1288.7846679688</ele>
        <time>2010-06-27T06:14:08Z</time>
      </trkpt>
      <trkpt lat="45.98654" lon="6.92967">
        <ele>1289.2651367188</ele>
        <time>2010-06-27T06:14:14Z</time>
      </trkpt>
      <trkpt lat="45.98664" lon="6.92971">
        <ele>1288.7846679688</ele>
        <time>2010-06-27T06:14:19Z</time>
      </trkpt>
      <trkpt lat="45.98681" lon="6.92974">
        <ele>1289.2651367188</ele>
        <time>2010-06-27T06:14:26Z</time>
      </trkpt>
      <trkpt lat="45.98694" lon="6.92976">
        <ele>1290.70703125</ele>
        <time>2010-06-27T06:14:31Z</time>
      </trkpt>
      <trkpt lat="45.98703" lon="6.92976">
        <ele>1290.70703125</ele>
        <time>2010-06-27T06:14:35Z</time>
      </trkpt>
      <trkpt lat="45.98715" lon="6.92974">
        <ele>1293.5913085938</ele>
        <time>2010-06-27T06:14:41Z</time>
      </trkpt>
      <trkpt lat="45.98724" lon="6.92967">
        <ele>1293.1105957031</ele>
        <time>2010-06-27T06:14:45Z</time>
      </trkpt>
      <trkpt lat="45.98735" lon="6.9296">
        <ele>1290.2265625</ele>
        <time>2010-06-27T06:14:50Z</time>
      </trkpt>
      <trkpt lat="45.98746" lon="6.92954">
        <ele>1290.70703125</ele>
        <time>2010-06-27T06:14:55Z</time>
      </trkpt>
      <trkpt lat="45.98749" lon="6.92953">
        <ele>1290.70703125</ele>
        <time>2010-06-27T06:14:56Z</time>
      </trkpt>
      <trkpt lat="45.98761" lon="6.92948">
        <ele>1294.5524902344</ele>
        <time>2010-06-27T06:15:02Z</time>
      </trkpt>
      <trkpt lat="45.98776" lon="6.92944">
        <ele>1299.3591308594</ele>
        <time>2010-06-27T06:15:08Z</time>
      </trkpt>
      <trkpt lat="45.98778" lon="6.92943">
        <ele>1300.3205566406</ele>
        <time>2010-06-27T06:15:11Z</time>
      </trkpt>
      <trkpt lat="45.98792" lon="6.92941">
        <ele>1299.83984375</ele>
        <time>2010-06-27T06:15:16Z</time>
      </trkpt>
      <trkpt lat="45.98806" lon="6.9294">
        <ele>1300.8010253906</ele>
        <time>2010-06-27T06:15:22Z</time>
      </trkpt>
      <trkpt lat="45.98822" lon="6.92933">
        <ele>1305.126953125</ele>
        <time>2010-06-27T06:15:28Z</time>
      </trkpt>
      <trkpt lat="45.98831" lon="6.92929">
        <ele>1306.0881347656</ele>
        <time>2010-06-27T06:15:32Z</time>
      </trkpt>
      <trkpt lat="45.98835" lon="6.92929">
        <ele>1308.0112304688</ele>
        <time>2010-06-27T06:15:34Z</time>
      </trkpt>
      <trkpt lat="45.9884" lon="6.92931">
        <ele>1317.1435546875</ele>
        <time>2010-06-27T06:15:39Z</time>
      </trkpt>
      <trkpt lat="45.98839" lon="6.92937">
        <ele>1320.02734375</ele>
        <time>2010-06-27T06:15:43Z</time>
      </trkpt>
      <trkpt lat="45.98833" lon="6.92946">
        <ele>1316.6628417969</ele>
        <time>2010-06-27T06:15:48Z</time>
      </trkpt>
      <trkpt lat="45.98831" lon="6.92948">
        <ele>1314.740234375</ele>
        <time>2010-06-27T06:15:49Z</time>
      </trkpt>
      <trkpt lat="45.98823" lon="6.92959">
        <ele>1308.4916992188</ele>
        <time>2010-06-27T06:15:54Z</time>
      </trkpt>
      <trkpt lat="45.98822" lon="6.92963">
        <ele>1306.0881347656</ele>
        <time>2010-06-27T06:15:56Z</time>
      </trkpt>
      <trkpt lat="45.98817" lon="6.92973">
        <ele>1301.7624511719</ele>
        <time>2010-06-27T06:16:02Z</time>
      </trkpt>
      <trkpt lat="45.98814" lon="6.92983">
        <ele>1295.9946289062</ele>
        <time>2010-06-27T06:16:06Z</time>
      </trkpt>
      <trkpt lat="45.98811" lon="6.92997">
        <ele>1293.5913085938</ele>
        <time>2010-06-27T06:16:11Z</time>
      </trkpt>
      <trkpt lat="45.98805" lon="6.93014">
        <ele>1295.033203125</ele>
        <time>2010-06-27T06:16:17Z</time>
      </trkpt>
      <trkpt lat="45.98795" lon="6.93033">
        <ele>1297.9172363281</ele>
        <time>2010-06-27T06:16:22Z</time>
      </trkpt>
      <trkpt lat="45.98792" lon="6.93038">
        <ele>1299.3591308594</ele>
        <time>2010-06-27T06:16:24Z</time>
      </trkpt>
      <trkpt lat="45.98787" lon="6.93055">
        <ele>1308.0112304688</ele>
        <time>2010-06-27T06:16:30Z</time>
      </trkpt>
      <trkpt lat="45.98788" lon="6.93059">
        <ele>1313.7788085938</ele>
        <time>2010-06-27T06:16:36Z</time>
      </trkpt>
      <trkpt lat="45.98794" lon="6.93064">
        <ele>1315.7016601562</ele>
        <time>2010-06-27T06:16:44Z</time>
      </trkpt>
      <trkpt lat="45.98794" lon="6.93065">
        <ele>1317.6240234375</ele>
        <time>2010-06-27T06:16:45Z</time>
      </trkpt>
      <trkpt lat="45.98797" lon="6.93062">
        <ele>1317.1435546875</ele>
        <time>2010-06-27T06:16:50Z</time>
      </trkpt>
      <trkpt lat="45.98799" lon="6.93058">
        <ele>1318.1047363281</ele>
        <time>2010-06-27T06:16:54Z</time>
      </trkpt>
      <trkpt lat="45.98803" lon="6.93052">
        <ele>1320.02734375</ele>
        <time>2010-06-27T06:17:00Z</time>
      </trkpt>
      <trkpt lat="45.98803" lon="6.9305">
        <ele>1319.0661621094</ele>
        <time>2010-06-27T06:17:02Z</time>
      </trkpt>
      <trkpt lat="45.98803" lon="6.9304">
        <ele>1318.1047363281</ele>
        <time>2010-06-27T06:17:06Z</time>
      </trkpt>
      <trkpt lat="45.98808" lon="6.93036">
        <ele>1319.546875</ele>
        <time>2010-06-27T06:17:11Z</time>
      </trkpt>
      <trkpt lat="45.98811" lon="6.93035">
        <ele>1320.02734375</ele>
        <time>2010-06-27T06:17:14Z</time>
      </trkpt>
      <trkpt lat="45.98811" lon="6.93028">
        <ele>1320.5080566406</ele>
        <time>2010-06-27T06:17:18Z</time>
      </trkpt>
      <trkpt lat="45.98811" lon="6.93023">
        <ele>1318.5854492188</ele>
        <time>2010-06-27T06:17:20Z</time>
      </trkpt>
      <trkpt lat="45.98817" lon="6.93025">
        <ele>1320.5080566406</ele>
        <time>2010-06-27T06:17:27Z</time>
      </trkpt>
      <trkpt lat="45.98821" lon="6.93024">
        <ele>1322.9113769531</ele>
        <time>2010-06-27T06:17:32Z</time>
      </trkpt>
      <trkpt lat="45.98822" lon="6.93024">
        <ele>1322.9113769531</ele>
        <time>2010-06-27T06:17:33Z</time>
      </trkpt>
      <trkpt lat="45.98828" lon="6.93026">
        <ele>1323.8725585938</ele>
        <time>2010-06-27T06:17:38Z</time>
      </trkpt>
      <trkpt lat="45.98828" lon="6.93033">
        <ele>1323.8725585938</ele>
        <time>2010-06-27T06:17:42Z</time>
      </trkpt>
      <trkpt lat="45.98829" lon="6.93035">
        <ele>1324.353515625</ele>
        <time>2010-06-27T06:17:44Z</time>
      </trkpt>
      <trkpt lat="45.98831" lon="6.93045">
        <ele>1331.0827636719</ele>
        <time>2010-06-27T06:17:52Z</time>
      </trkpt>
      <trkpt lat="45.9883" lon="6.93048">
        <ele>1331.5632324219</ele>
        <time>2010-06-27T06:17:54Z</time>
      </trkpt>
      <trkpt lat="45.98828" lon="6.93058">
        <ele>1331.0827636719</ele>
        <time>2010-06-27T06:18:00Z</time>
      </trkpt>
      <trkpt lat="45.98828" lon="6.9306">
        <ele>1330.6020507812</ele>
        <time>2010-06-27T06:18:01Z</time>
      </trkpt>
      <trkpt lat="45.98828" lon="6.9307">
        <ele>1333.4858398438</ele>
        <time>2010-06-27T06:18:05Z</time>
      </trkpt>
      <trkpt lat="45.98827" lon="6.93077">
        <ele>1335.4084472656</ele>
        <time>2010-06-27T06:18:08Z</time>
      </trkpt>
      <trkpt lat="45.98825" lon="6.93089">
        <ele>1339.734375</ele>
        <time>2010-06-27T06:18:15Z</time>
      </trkpt>
      <trkpt lat="45.98825" lon="6.93094">
        <ele>1349.34765625</ele>
        <time>2010-06-27T06:18:20Z</time>
      </trkpt>
      <trkpt lat="45.98819" lon="6.93104">
        <ele>1357.0383300781</ele>
        <time>2010-06-27T06:18:26Z</time>
      </trkpt>
      <trkpt lat="45.98818" lon="6.93105">
        <ele>1357.9997558594</ele>
        <time>2010-06-27T06:18:27Z</time>
      </trkpt>
      <trkpt lat="45.9881" lon="6.93117">
        <ele>1370.9772949219</ele>
        <time>2010-06-27T06:18:33Z</time>
      </trkpt>
      <trkpt lat="45.98808" lon="6.9312">
        <ele>1372.9001464844</ele>
        <time>2010-06-27T06:18:35Z</time>
      </trkpt>
      <trkpt lat="45.98807" lon="6.93124">
        <ele>1370.0158691406</ele>
        <time>2010-06-27T06:18:39Z</time>
      </trkpt>
      <trkpt lat="45.98806" lon="6.93127">
        <ele>1368.0932617188</ele>
        <time>2010-06-27T06:18:42Z</time>
      </trkpt>
      <trkpt lat="45.98803" lon="6.93137">
        <ele>1368.5739746094</ele>
        <time>2010-06-27T06:18:46Z</time>
      </trkpt>
      <trkpt lat="45.98801" lon="6.93148">
        <ele>1374.3420410156</ele>
        <time>2010-06-27T06:18:50Z</time>
      </trkpt>
      <trkpt lat="45.98803" lon="6.93157">
        <ele>1372.9001464844</ele>
        <time>2010-06-27T06:18:55Z</time>
      </trkpt>
      <trkpt lat="45.98806" lon="6.93164">
        <ele>1367.6125488281</ele>
        <time>2010-06-27T06:19:00Z</time>
      </trkpt>
      <trkpt lat="45.9881" lon="6.93168">
        <ele>1363.7673339844</ele>
        <time>2010-06-27T06:19:06Z</time>
      </trkpt>
      <trkpt lat="45.98815" lon="6.93161">
        <ele>1353.1928710938</ele>
        <time>2010-06-27T06:19:11Z</time>
      </trkpt>
      <trkpt lat="45.98821" lon="6.93158">
        <ele>1350.7895507812</ele>
        <time>2010-06-27T06:19:16Z</time>
      </trkpt>
      <trkpt lat="45.98825" lon="6.93151">
        <ele>1348.3862304688</ele>
        <time>2010-06-27T06:19:21Z</time>
      </trkpt>
      <trkpt lat="45.98827" lon="6.93146">
        <ele>1350.7895507812</ele>
        <time>2010-06-27T06:19:26Z</time>
      </trkpt>
      <trkpt lat="45.9883" lon="6.93139">
        <ele>1352.2314453125</ele>
        <time>2010-06-27T06:19:33Z</time>
      </trkpt>
      <trkpt lat="45.98835" lon="6.93134">
        <ele>1354.154296875</ele>
        <time>2010-06-27T06:19:39Z</time>
      </trkpt>
      <trkpt lat="45.9884" lon="6.93126">
        <ele>1355.5961914062</ele>
        <time>2010-06-27T06:19:45Z</time>
      </trkpt>
      <trkpt lat="45.98842" lon="6.9312">
        <ele>1357.0383300781</ele>
        <time>2010-06-27T06:19:50Z</time>
      </trkpt>
      <trkpt lat="45.98844" lon="6.93117">
        <ele>1356.5576171875</ele>
        <time>2010-06-27T06:19:53Z</time>
      </trkpt>
      <trkpt lat="45.98851" lon="6.93113">
        <ele>1356.5576171875</ele>
        <time>2010-06-27T06:19:58Z</time>
      </trkpt>
      <trkpt lat="45.98853" lon="6.93107">
        <ele>1359.9221191406</ele>
        <time>2010-06-27T06:20:03Z</time>
      </trkpt>
      <trkpt lat="45.98854" lon="6.93106">
        <ele>1359.9221191406</ele>
        <time>2010-06-27T06:20:04Z</time>
      </trkpt>
      <trkpt lat="45.98856" lon="6.93103">
        <ele>1358.9609375</ele>
        <time>2010-06-27T06:20:06Z</time>
      </trkpt>
      <trkpt lat="45.98861" lon="6.93095">
        <ele>1360.4028320312</ele>
        <time>2010-06-27T06:20:13Z</time>
      </trkpt>
      <trkpt lat="45.98863" lon="6.93093">
        <ele>1360.8835449219</ele>
        <time>2010-06-27T06:20:16Z</time>
      </trkpt>
      <trkpt lat="45.98867" lon="6.93085">
        <ele>1360.4028320312</ele>
        <time>2010-06-27T06:20:23Z</time>
      </trkpt>
      <trkpt lat="45.9887" lon="6.93079">
        <ele>1360.4028320312</ele>
        <time>2010-06-27T06:20:28Z</time>
      </trkpt>
      <trkpt lat="45.98874" lon="6.93074">
        <ele>1360.4028320312</ele>
        <time>2010-06-27T06:20:32Z</time>
      </trkpt>
      <trkpt lat="45.98875" lon="6.93068">
        <ele>1362.3254394531</ele>
        <time>2010-06-27T06:20:36Z</time>
      </trkpt>
      <trkpt lat="45.98881" lon="6.93074">
        <ele>1367.1320800781</ele>
        <time>2010-06-27T06:20:42Z</time>
      </trkpt>
      <trkpt lat="45.98887" lon="6.93086">
        <ele>1374.8227539062</ele>
        <time>2010-06-27T06:20:49Z</time>
      </trkpt>
      <trkpt lat="45.98887" lon="6.93099">
        <ele>1381.0712890625</ele>
        <time>2010-06-27T06:20:56Z</time>
      </trkpt>
      <trkpt lat="45.98886" lon="6.93102">
        <ele>1383.955078125</ele>
        <time>2010-06-27T06:20:57Z</time>
      </trkpt>
      <trkpt lat="45.9889" lon="6.93103">
        <ele>1385.8776855469</ele>
        <time>2010-06-27T06:21:01Z</time>
      </trkpt>
      <trkpt lat="45.98896" lon="6.93097">
        <ele>1382.5131835938</ele>
        <time>2010-06-27T06:21:06Z</time>
      </trkpt>
      <trkpt lat="45.98905" lon="6.93088">
        <ele>1378.66796875</ele>
        <time>2010-06-27T06:21:14Z</time>
      </trkpt>
      <trkpt lat="45.98907" lon="6.9308">
        <ele>1374.3420410156</ele>
        <time>2010-06-27T06:21:20Z</time>
      </trkpt>
      <trkpt lat="45.98909" lon="6.93077">
        <ele>1375.3032226562</ele>
        <time>2010-06-27T06:21:22Z</time>
      </trkpt>
      <trkpt lat="45.98912" lon="6.93073">
        <ele>1379.1484375</ele>
        <time>2010-06-27T06:21:28Z</time>
      </trkpt>
      <trkpt lat="45.98914" lon="6.93083">
        <ele>1382.9936523438</ele>
        <time>2010-06-27T06:21:34Z</time>
      </trkpt>
      <trkpt lat="45.98917" lon="6.9309">
        <ele>1383.955078125</ele>
        <time>2010-06-27T06:21:39Z</time>
      </trkpt>
      <trkpt lat="45.98919" lon="6.93099">
        <ele>1383.4743652344</ele>
        <time>2010-06-27T06:21:46Z</time>
      </trkpt>
      <trkpt lat="45.98914" lon="6.93114">
        <ele>1387.8002929688</ele>
        <time>2010-06-27T06:21:52Z</time>
      </trkpt>
      <trkpt lat="45.98909" lon="6.93133">
        <ele>1393.568359375</ele>
        <time>2010-06-27T06:21:56Z</time>
      </trkpt>
      <trkpt lat="45.98904" lon="6.93146">
        <ele>1402.7006835938</ele>
        <time>2010-06-27T06:22:00Z</time>
      </trkpt>
      <trkpt lat="45.98899" lon="6.93156">
        <ele>1406.0654296875</ele>
        <time>2010-06-27T06:22:05Z</time>
      </trkpt>
      <trkpt lat="45.98896" lon="6.93161">
        <ele>1401.2587890625</ele>
        <time>2010-06-27T06:22:10Z</time>
      </trkpt>
      <trkpt lat="45.98894" lon="6.93165">
        <ele>1392.6071777344</ele>
        <time>2010-06-27T06:22:15Z</time>
      </trkpt>
      <trkpt lat="45.98893" lon="6.93166">
        <ele>1391.6457519531</ele>
        <time>2010-06-27T06:22:16Z</time>
      </trkpt>
      <trkpt lat="45.98888" lon="6.93172">
        <ele>1388.7619628906</ele>
        <time>2010-06-27T06:22:20Z</time>
      </trkpt>
      <trkpt lat="45.98885" lon="6.93185">
        <ele>1387.8002929688</ele>
        <time>2010-06-27T06:22:26Z</time>
      </trkpt>
      <trkpt lat="45.98884" lon="6.93187">
        <ele>1388.28125</ele>
        <time>2010-06-27T06:22:28Z</time>
      </trkpt>
      <trkpt lat="45.98887" lon="6.93193">
        <ele>1385.3969726562</ele>
        <time>2010-06-27T06:22:34Z</time>
      </trkpt>
      <trkpt lat="45.98889" lon="6.93198">
        <ele>1385.8776855469</ele>
        <time>2010-06-27T06:22:39Z</time>
      </trkpt>
      <trkpt lat="45.98894" lon="6.93202">
        <ele>1387.8002929688</ele>
        <time>2010-06-27T06:22:44Z</time>
      </trkpt>
      <trkpt lat="45.98897" lon="6.93203">
        <ele>1389.2424316406</ele>
        <time>2010-06-27T06:22:46Z</time>
      </trkpt>
      <trkpt lat="45.98899" lon="6.9321">
        <ele>1391.6457519531</ele>
        <time>2010-06-27T06:22:50Z</time>
      </trkpt>
      <trkpt lat="45.98907" lon="6.93223">
        <ele>1393.0876464844</ele>
        <time>2010-06-27T06:22:54Z</time>
      </trkpt>
      <trkpt lat="45.98923" lon="6.9323">
        <ele>1394.0490722656</ele>
        <time>2010-06-27T06:23:01Z</time>
      </trkpt>
      <trkpt lat="45.9893" lon="6.93239">
        <ele>1393.568359375</ele>
        <time>2010-06-27T06:23:05Z</time>
      </trkpt>
      <trkpt lat="45.98936" lon="6.93248">
        <ele>1394.5295410156</ele>
        <time>2010-06-27T06:23:08Z</time>
      </trkpt>
      <trkpt lat="45.98944" lon="6.93269">
        <ele>1393.568359375</ele>
        <time>2010-06-27T06:23:14Z</time>
      </trkpt>
      <trkpt lat="45.98949" lon="6.93287">
        <ele>1393.0876464844</ele>
        <time>2010-06-27T06:23:19Z</time>
      </trkpt>
      <trkpt lat="45.98956" lon="6.93307">
        <ele>1393.568359375</ele>
        <time>2010-06-27T06:23:25Z</time>
      </trkpt>
      <trkpt lat="45.98964" lon="6.9332">
        <ele>1394.5295410156</ele>
        <time>2010-06-27T06:23:30Z</time>
      </trkpt>
      <trkpt lat="45.98976" lon="6.93329">
        <ele>1395.4909667969</ele>
        <time>2010-06-27T06:23:35Z</time>
      </trkpt>
      <trkpt lat="45.98981" lon="6.93331">
        <ele>1395.9716796875</ele>
        <time>2010-06-27T06:23:38Z</time>
      </trkpt>
      <trkpt lat="45.98987" lon="6.93338">
        <ele>1397.4135742188</ele>
        <time>2010-06-27T06:23:44Z</time>
      </trkpt>
      <trkpt lat="45.98993" lon="6.93348">
        <ele>1398.85546875</ele>
        <time>2010-06-27T06:23:49Z</time>
      </trkpt>
      <trkpt lat="45.99004" lon="6.93361">
        <ele>1403.1813964844</ele>
        <time>2010-06-27T06:23:56Z</time>
      </trkpt>
      <trkpt lat="45.99011" lon="6.93369">
        <ele>1403.662109375</ele>
        <time>2010-06-27T06:24:00Z</time>
      </trkpt>
      <trkpt lat="45.99017" lon="6.9338">
        <ele>1406.5461425781</ele>
        <time>2010-06-27T06:24:05Z</time>
      </trkpt>
      <trkpt lat="45.99025" lon="6.93388">
        <ele>1408.46875</ele>
        <time>2010-06-27T06:24:09Z</time>
      </trkpt>
      <trkpt lat="45.99033" lon="6.93398">
        <ele>1410.3913574219</ele>
        <time>2010-06-27T06:24:13Z</time>
      </trkpt>
      <trkpt lat="45.9904" lon="6.93406">
        <ele>1412.3139648438</ele>
        <time>2010-06-27T06:24:17Z</time>
      </trkpt>
      <trkpt lat="45.99051" lon="6.93417">
        <ele>1412.7946777344</ele>
        <time>2010-06-27T06:24:23Z</time>
      </trkpt>
      <trkpt lat="45.9906" lon="6.93422">
        <ele>1413.275390625</ele>
        <time>2010-06-27T06:24:28Z</time>
      </trkpt>
      <trkpt lat="45.99069" lon="6.93428">
        <ele>1413.755859375</ele>
        <time>2010-06-27T06:24:32Z</time>
      </trkpt>
      <trkpt lat="45.99083" lon="6.93439">
        <ele>1413.755859375</ele>
        <time>2010-06-27T06:24:38Z</time>
      </trkpt>
      <trkpt lat="45.99088" lon="6.93446">
        <ele>1413.275390625</ele>
        <time>2010-06-27T06:24:41Z</time>
      </trkpt>
      <trkpt lat="45.99094" lon="6.93454">
        <ele>1415.1979980469</ele>
        <time>2010-06-27T06:24:45Z</time>
      </trkpt>
      <trkpt lat="45.99102" lon="6.93464">
        <ele>1414.2365722656</ele>
        <time>2010-06-27T06:24:50Z</time>
      </trkpt>
      <trkpt lat="45.99106" lon="6.93471">
        <ele>1413.755859375</ele>
        <time>2010-06-27T06:24:55Z</time>
      </trkpt>
      <trkpt lat="45.99114" lon="6.9348">
        <ele>1416.6398925781</ele>
        <time>2010-06-27T06:25:02Z</time>
      </trkpt>
      <trkpt lat="45.99122" lon="6.93491">
        <ele>1417.6010742188</ele>
        <time>2010-06-27T06:25:10Z</time>
      </trkpt>
      <trkpt lat="45.9913" lon="6.93501">
        <ele>1419.0432128906</ele>
        <time>2010-06-27T06:25:18Z</time>
      </trkpt>
      <trkpt lat="45.99139" lon="6.93509">
        <ele>1420.4853515625</ele>
        <time>2010-06-27T06:25:26Z</time>
      </trkpt>
      <trkpt lat="45.99153" lon="6.93512">
        <ele>1422.888671875</ele>
        <time>2010-06-27T06:25:36Z</time>
      </trkpt>
      <trkpt lat="45.99162" lon="6.9351">
        <ele>1424.3305664062</ele>
        <time>2010-06-27T06:25:43Z</time>
      </trkpt>
      <trkpt lat="45.99171" lon="6.93507">
        <ele>1425.2917480469</ele>
        <time>2010-06-27T06:25:50Z</time>
      </trkpt>
      <trkpt lat="45.99181" lon="6.93504">
        <ele>1424.8112792969</ele>
        <time>2010-06-27T06:25:57Z</time>
      </trkpt>
      <trkpt lat="45.99188" lon="6.93508">
        <ele>1425.7724609375</ele>
        <time>2010-06-27T06:26:03Z</time>
      </trkpt>
      <trkpt lat="45.99189" lon="6.93509">
        <ele>1425.7724609375</ele>
        <time>2010-06-27T06:26:04Z</time>
      </trkpt>
      <trkpt lat="45.992" lon="6.93512">
        <ele>1427.6950683594</ele>
        <time>2010-06-27T06:26:12Z</time>
      </trkpt>
      <trkpt lat="45.99205" lon="6.93512">
        <ele>1428.17578125</ele>
        <time>2010-06-27T06:26:16Z</time>
      </trkpt>
      <trkpt lat="45.99212" lon="6.93512">
        <ele>1428.6564941406</ele>
        <time>2010-06-27T06:26:22Z</time>
      </trkpt>
      <trkpt lat="45.99222" lon="6.93512">
        <ele>1431.5402832031</ele>
        <time>2010-06-27T06:26:29Z</time>
      </trkpt>
      <trkpt lat="45.99224" lon="6.93513">
        <ele>1431.5402832031</ele>
        <time>2010-06-27T06:26:31Z</time>
      </trkpt>
      <trkpt lat="45.99226" lon="6.93515">
        <ele>1431.0598144531</ele>
        <time>2010-06-27T06:26:33Z</time>
      </trkpt>
      <trkpt lat="45.99232" lon="6.93522">
        <ele>1433.462890625</ele>
        <time>2010-06-27T06:26:38Z</time>
      </trkpt>
      <trkpt lat="45.99238" lon="6.9353">
        <ele>1436.3471679688</ele>
        <time>2010-06-27T06:26:45Z</time>
      </trkpt>
      <trkpt lat="45.99242" lon="6.93534">
        <ele>1437.7890625</ele>
        <time>2010-06-27T06:26:49Z</time>
      </trkpt>
      <trkpt lat="45.99248" lon="6.93538">
        <ele>1439.7116699219</ele>
        <time>2010-06-27T06:26:54Z</time>
      </trkpt>
      <trkpt lat="45.99251" lon="6.9354">
        <ele>1441.1535644531</ele>
        <time>2010-06-27T06:26:56Z</time>
      </trkpt>
      <trkpt lat="45.99258" lon="6.9355">
        <ele>1442.1149902344</ele>
        <time>2010-06-27T06:27:04Z</time>
      </trkpt>
      <trkpt lat="45.99261" lon="6.93552">
        <ele>1441.1535644531</ele>
        <time>2010-06-27T06:27:08Z</time>
      </trkpt>
      <trkpt lat="45.9927" lon="6.93551">
        <ele>1442.595703125</ele>
        <time>2010-06-27T06:27:16Z</time>
      </trkpt>
      <trkpt lat="45.99278" lon="6.93553">
        <ele>1443.5568847656</ele>
        <time>2010-06-27T06:27:19Z</time>
      </trkpt>
      <trkpt lat="45.99289" lon="6.93556">
        <ele>1447.8828125</ele>
        <time>2010-06-27T06:27:24Z</time>
      </trkpt>
      <trkpt lat="45.99301" lon="6.93557">
        <ele>1451.7280273438</ele>
        <time>2010-06-27T06:27:29Z</time>
      </trkpt>
      <trkpt lat="45.99312" lon="6.93564">
        <ele>1454.1315917969</ele>
        <time>2010-06-27T06:27:33Z</time>
      </trkpt>
      <trkpt lat="45.99323" lon="6.93567">
        <ele>1459.8991699219</ele>
        <time>2010-06-27T06:27:37Z</time>
      </trkpt>
      <trkpt lat="45.99332" lon="6.93571">
        <ele>1459.8991699219</ele>
        <time>2010-06-27T06:27:41Z</time>
      </trkpt>
      <trkpt lat="45.99339" lon="6.93576">
        <ele>1457.49609375</ele>
        <time>2010-06-27T06:27:45Z</time>
      </trkpt>
      <trkpt lat="45.99352" lon="6.93579">
        <ele>1452.689453125</ele>
        <time>2010-06-27T06:27:50Z</time>
      </trkpt>
      <trkpt lat="45.99363" lon="6.9359">
        <ele>1445.4794921875</ele>
        <time>2010-06-27T06:27:55Z</time>
      </trkpt>
      <trkpt lat="45.99375" lon="6.93604">
        <ele>1439.7116699219</ele>
        <time>2010-06-27T06:28:00Z</time>
      </trkpt>
      <trkpt lat="45.99386" lon="6.93608">
        <ele>1442.1149902344</ele>
        <time>2010-06-27T06:28:04Z</time>
      </trkpt>
      <trkpt lat="45.99395" lon="6.93614">
        <ele>1441.1535644531</ele>
        <time>2010-06-27T06:28:08Z</time>
      </trkpt>
      <trkpt lat="45.99404" lon="6.93623">
        <ele>1444.0375976562</ele>
        <time>2010-06-27T06:28:12Z</time>
      </trkpt>
      <trkpt lat="45.99417" lon="6.93631">
        <ele>1447.8828125</ele>
        <time>2010-06-27T06:28:17Z</time>
      </trkpt>
      <trkpt lat="45.99433" lon="6.93641">
        <ele>1451.7280273438</ele>
        <time>2010-06-27T06:28:22Z</time>
      </trkpt>
      <trkpt lat="45.99444" lon="6.93648">
        <ele>1453.6508789062</ele>
        <time>2010-06-27T06:28:27Z</time>
      </trkpt>
      <trkpt lat="45.99453" lon="6.93661">
        <ele>1449.8054199219</ele>
        <time>2010-06-27T06:28:33Z</time>
      </trkpt>
      <trkpt lat="45.99465" lon="6.9367">
        <ele>1447.4020996094</ele>
        <time>2010-06-27T06:28:38Z</time>
      </trkpt>
      <trkpt lat="45.99474" lon="6.93674">
        <ele>1444.9987792969</ele>
        <time>2010-06-27T06:28:42Z</time>
      </trkpt>
      <trkpt lat="45.99486" lon="6.9368">
        <ele>1443.5568847656</ele>
        <time>2010-06-27T06:28:46Z</time>
      </trkpt>
      <trkpt lat="45.99493" lon="6.93685">
        <ele>1442.595703125</ele>
        <time>2010-06-27T06:28:49Z</time>
      </trkpt>
      <trkpt lat="45.99504" lon="6.93695">
        <ele>1440.1923828125</ele>
        <time>2010-06-27T06:28:54Z</time>
      </trkpt>
      <trkpt lat="45.9952" lon="6.93705">
        <ele>1438.7504882812</ele>
        <time>2010-06-27T06:29:00Z</time>
      </trkpt>
      <trkpt lat="45.99522" lon="6.93707">
        <ele>1437.7890625</ele>
        <time>2010-06-27T06:29:01Z</time>
      </trkpt>
      <trkpt lat="45.99534" lon="6.93715">
        <ele>1433.462890625</ele>
        <time>2010-06-27T06:29:07Z</time>
      </trkpt>
      <trkpt lat="45.99544" lon="6.93719">
        <ele>1434.9050292969</ele>
        <time>2010-06-27T06:29:11Z</time>
      </trkpt>
      <trkpt lat="45.99554" lon="6.93727">
        <ele>1434.4243164062</ele>
        <time>2010-06-27T06:29:15Z</time>
      </trkpt>
      <trkpt lat="45.99564" lon="6.93731">
        <ele>1432.9821777344</ele>
        <time>2010-06-27T06:29:19Z</time>
      </trkpt>
      <trkpt lat="45.99572" lon="6.93732">
        <ele>1430.5791015625</ele>
        <time>2010-06-27T06:29:23Z</time>
      </trkpt>
      <trkpt lat="45.99577" lon="6.93731">
        <ele>1429.6176757812</ele>
        <time>2010-06-27T06:29:25Z</time>
      </trkpt>
      <trkpt lat="45.99585" lon="6.9374">
        <ele>1426.2531738281</ele>
        <time>2010-06-27T06:29:29Z</time>
      </trkpt>
      <trkpt lat="45.996" lon="6.93764">
        <ele>1416.1591796875</ele>
        <time>2010-06-27T06:29:37Z</time>
      </trkpt>
      <trkpt lat="45.99613" lon="6.93769">
        <ele>1412.7946777344</ele>
        <time>2010-06-27T06:29:42Z</time>
      </trkpt>
      <trkpt lat="45.99617" lon="6.93771">
        <ele>1410.3913574219</ele>
        <time>2010-06-27T06:29:45Z</time>
      </trkpt>
      <trkpt lat="45.99619" lon="6.93772">
        <ele>1410.3913574219</ele>
        <time>2010-06-27T06:29:46Z</time>
      </trkpt>
      <trkpt lat="45.9962" lon="6.93776">
        <ele>1408.9494628906</ele>
        <time>2010-06-27T06:29:48Z</time>
      </trkpt>
      <trkpt lat="45.99635" lon="6.93779">
        <ele>1408.46875</ele>
        <time>2010-06-27T06:29:54Z</time>
      </trkpt>
      <trkpt lat="45.99649" lon="6.93784">
        <ele>1412.7946777344</ele>
        <time>2010-06-27T06:29:59Z</time>
      </trkpt>
      <trkpt lat="45.99659" lon="6.9379">
        <ele>1414.2365722656</ele>
        <time>2010-06-27T06:30:03Z</time>
      </trkpt>
      <trkpt lat="45.99679" lon="6.93792">
        <ele>1424.8112792969</ele>
        <time>2010-06-27T06:30:09Z</time>
      </trkpt>
      <trkpt lat="45.99681" lon="6.93793">
        <ele>1422.888671875</ele>
        <time>2010-06-27T06:30:10Z</time>
      </trkpt>
      <trkpt lat="45.99677" lon="6.93785">
        <ele>1415.1979980469</ele>
        <time>2010-06-27T06:30:14Z</time>
      </trkpt>
      <trkpt lat="45.99662" lon="6.93777">
        <ele>1406.0654296875</ele>
        <time>2010-06-27T06:30:19Z</time>
      </trkpt>
      <trkpt lat="45.99657" lon="6.93772">
        <ele>1404.1430664062</ele>
        <time>2010-06-27T06:30:22Z</time>
      </trkpt>
      <trkpt lat="45.99649" lon="6.93764">
        <ele>1399.8168945312</ele>
        <time>2010-06-27T06:30:26Z</time>
      </trkpt>
      <trkpt lat="45.99637" lon="6.93754">
        <ele>1395.0102539062</ele>
        <time>2010-06-27T06:30:31Z</time>
      </trkpt>
      <trkpt lat="45.99629" lon="6.93748">
        <ele>1394.0490722656</ele>
        <time>2010-06-27T06:30:35Z</time>
      </trkpt>
      <trkpt lat="45.9962" lon="6.93739">
        <ele>1392.6071777344</ele>
        <time>2010-06-27T06:30:39Z</time>
      </trkpt>
      <trkpt lat="45.99613" lon="6.93722">
        <ele>1391.6457519531</ele>
        <time>2010-06-27T06:30:44Z</time>
      </trkpt>
      <trkpt lat="45.99607" lon="6.93704">
        <ele>1390.2038574219</ele>
        <time>2010-06-27T06:30:49Z</time>
      </trkpt>
      <trkpt lat="45.99603" lon="6.9369">
        <ele>1389.7231445312</ele>
        <time>2010-06-27T06:30:53Z</time>
      </trkpt>
      <trkpt lat="45.99594" lon="6.93675">
        <ele>1387.8002929688</ele>
        <time>2010-06-27T06:30:58Z</time>
      </trkpt>
      <trkpt lat="45.99585" lon="6.93663">
        <ele>1386.3583984375</ele>
        <time>2010-06-27T06:31:02Z</time>
      </trkpt>
      <trkpt lat="45.99569" lon="6.93648">
        <ele>1383.4743652344</ele>
        <time>2010-06-27T06:31:08Z</time>
      </trkpt>
      <trkpt lat="45.99559" lon="6.93633">
        <ele>1382.5131835938</ele>
        <time>2010-06-27T06:31:13Z</time>
      </trkpt>
      <trkpt lat="45.9955" lon="6.93621">
        <ele>1385.3969726562</ele>
        <time>2010-06-27T06:31:17Z</time>
      </trkpt>
      <trkpt lat="45.99539" lon="6.93608">
        <ele>1387.3195800781</ele>
        <time>2010-06-27T06:31:22Z</time>
      </trkpt>
      <trkpt lat="45.99531" lon="6.93594">
        <ele>1385.8776855469</ele>
        <time>2010-06-27T06:31:26Z</time>
      </trkpt>
      <trkpt lat="45.99522" lon="6.93583">
        <ele>1386.3583984375</ele>
        <time>2010-06-27T06:31:30Z</time>
      </trkpt>
      <trkpt lat="45.99515" lon="6.93572">
        <ele>1384.4357910156</ele>
        <time>2010-06-27T06:31:34Z</time>
      </trkpt>
      <trkpt lat="45.99506" lon="6.93557">
        <ele>1381.5517578125</ele>
        <time>2010-06-27T06:31:39Z</time>
      </trkpt>
      <trkpt lat="45.99498" lon="6.93542">
        <ele>1380.5905761719</ele>
        <time>2010-06-27T06:31:43Z</time>
      </trkpt>
      <trkpt lat="45.99493" lon="6.93524">
        <ele>1378.1872558594</ele>
        <time>2010-06-27T06:31:47Z</time>
      </trkpt>
      <trkpt lat="45.99496" lon="6.93511">
        <ele>1374.8227539062</ele>
        <time>2010-06-27T06:31:51Z</time>
      </trkpt>
      <trkpt lat="45.99502" lon="6.93504">
        <ele>1373.380859375</ele>
        <time>2010-06-27T06:31:54Z</time>
      </trkpt>
      <trkpt lat="45.99512" lon="6.93493">
        <ele>1371.9384765625</ele>
        <time>2010-06-27T06:31:59Z</time>
      </trkpt>
      <trkpt lat="45.99522" lon="6.93488">
        <ele>1371.9384765625</ele>
        <time>2010-06-27T06:32:03Z</time>
      </trkpt>
      <trkpt lat="45.99532" lon="6.93484">
        <ele>1372.9001464844</ele>
        <time>2010-06-27T06:32:07Z</time>
      </trkpt>
      <trkpt lat="45.99546" lon="6.93479">
        <ele>1374.3420410156</ele>
        <time>2010-06-27T06:32:12Z</time>
      </trkpt>
      <trkpt lat="45.99551" lon="6.93478">
        <ele>1375.3032226562</ele>
        <time>2010-06-27T06:32:14Z</time>
      </trkpt>
      <trkpt lat="45.99567" lon="6.93473">
        <ele>1376.2646484375</ele>
        <time>2010-06-27T06:32:20Z</time>
      </trkpt>
      <trkpt lat="45.9957" lon="6.93471">
        <ele>1376.2646484375</ele>
        <time>2010-06-27T06:32:21Z</time>
      </trkpt>
      <trkpt lat="45.99585" lon="6.93465">
        <ele>1375.3032226562</ele>
        <time>2010-06-27T06:32:27Z</time>
      </trkpt>
      <trkpt lat="45.99597" lon="6.93466">
        <ele>1375.3032226562</ele>
        <time>2010-06-27T06:32:32Z</time>
      </trkpt>
      <trkpt lat="45.99612" lon="6.9347">
        <ele>1373.861328125</ele>
        <time>2010-06-27T06:32:38Z</time>
      </trkpt>
      <trkpt lat="45.99622" lon="6.93472">
        <ele>1374.8227539062</ele>
        <time>2010-06-27T06:32:42Z</time>
      </trkpt>
      <trkpt lat="45.99641" lon="6.93468">
        <ele>1376.7453613281</ele>
        <time>2010-06-27T06:32:49Z</time>
      </trkpt>
      <trkpt lat="45.99656" lon="6.93457">
        <ele>1376.7453613281</ele>
        <time>2010-06-27T06:32:55Z</time>
      </trkpt>
      <trkpt lat="45.99664" lon="6.93451">
        <ele>1376.2646484375</ele>
        <time>2010-06-27T06:32:58Z</time>
      </trkpt>
      <trkpt lat="45.99672" lon="6.93443">
        <ele>1375.3032226562</ele>
        <time>2010-06-27T06:33:02Z</time>
      </trkpt>
      <trkpt lat="45.99678" lon="6.93437">
        <ele>1375.3032226562</ele>
        <time>2010-06-27T06:33:05Z</time>
      </trkpt>
      <trkpt lat="45.99687" lon="6.93429">
        <ele>1373.380859375</ele>
        <time>2010-06-27T06:33:09Z</time>
      </trkpt>
      <trkpt lat="45.99694" lon="6.93423">
        <ele>1372.9001464844</ele>
        <time>2010-06-27T06:33:12Z</time>
      </trkpt>
      <trkpt lat="45.99705" lon="6.93407">
        <ele>1373.861328125</ele>
        <time>2010-06-27T06:33:18Z</time>
      </trkpt>
      <trkpt lat="45.99711" lon="6.93393">
        <ele>1373.861328125</ele>
        <time>2010-06-27T06:33:22Z</time>
      </trkpt>
      <trkpt lat="45.99724" lon="6.93384">
        <ele>1375.3032226562</ele>
        <time>2010-06-27T06:33:28Z</time>
      </trkpt>
      <trkpt lat="45.99734" lon="6.93381">
        <ele>1382.9936523438</ele>
        <time>2010-06-27T06:33:33Z</time>
      </trkpt>
      <trkpt lat="45.99745" lon="6.93376">
        <ele>1386.3583984375</ele>
        <time>2010-06-27T06:33:38Z</time>
      </trkpt>
      <trkpt lat="45.99748" lon="6.93372">
        <ele>1392.6071777344</ele>
        <time>2010-06-27T06:33:42Z</time>
      </trkpt>
      <trkpt lat="45.9975" lon="6.93366">
        <ele>1401.7395019531</ele>
        <time>2010-06-27T06:33:47Z</time>
      </trkpt>
      <trkpt lat="45.99754" lon="6.9336">
        <ele>1404.6235351562</ele>
        <time>2010-06-27T06:33:54Z</time>
      </trkpt>
      <trkpt lat="45.99754" lon="6.93356">
        <ele>1403.662109375</ele>
        <time>2010-06-27T06:33:58Z</time>
      </trkpt>
      <trkpt lat="45.99747" lon="6.93337">
        <ele>1395.4909667969</ele>
        <time>2010-06-27T06:34:05Z</time>
      </trkpt>
      <trkpt lat="45.99742" lon="6.93319">
        <ele>1387.3195800781</ele>
        <time>2010-06-27T06:34:10Z</time>
      </trkpt>
      <trkpt lat="45.99739" lon="6.93302">
        <ele>1380.1098632812</ele>
        <time>2010-06-27T06:34:15Z</time>
      </trkpt>
      <trkpt lat="45.99738" lon="6.93297">
        <ele>1379.1484375</ele>
        <time>2010-06-27T06:34:17Z</time>
      </trkpt>
      <trkpt lat="45.99734" lon="6.9328">
        <ele>1374.8227539062</ele>
        <time>2010-06-27T06:34:24Z</time>
      </trkpt>
      <trkpt lat="45.99731" lon="6.93269">
        <ele>1373.861328125</ele>
        <time>2010-06-27T06:34:29Z</time>
      </trkpt>
      <trkpt lat="45.99731" lon="6.9326">
        <ele>1373.380859375</ele>
        <time>2010-06-27T06:34:32Z</time>
      </trkpt>
      <trkpt lat="45.99731" lon="6.93258">
        <ele>1372.4194335938</ele>
        <time>2010-06-27T06:34:33Z</time>
      </trkpt>
      <trkpt lat="45.99731" lon="6.93254">
        <ele>1371.4577636719</ele>
        <time>2010-06-27T06:34:35Z</time>
      </trkpt>
      <trkpt lat="45.99725" lon="6.93243">
        <ele>1371.9384765625</ele>
        <time>2010-06-27T06:34:39Z</time>
      </trkpt>
      <trkpt lat="45.9972" lon="6.93232">
        <ele>1373.861328125</ele>
        <time>2010-06-27T06:34:43Z</time>
      </trkpt>
      <trkpt lat="45.99712" lon="6.9322">
        <ele>1377.2260742188</ele>
        <time>2010-06-27T06:34:48Z</time>
      </trkpt>
      <trkpt lat="45.99707" lon="6.93213">
        <ele>1380.5905761719</ele>
        <time>2010-06-27T06:34:52Z</time>
      </trkpt>
      <trkpt lat="45.99705" lon="6.9321">
        <ele>1383.4743652344</ele>
        <time>2010-06-27T06:34:54Z</time>
      </trkpt>
      <trkpt lat="45.99698" lon="6.93202">
        <ele>1383.955078125</ele>
        <time>2010-06-27T06:34:59Z</time>
      </trkpt>
      <trkpt lat="45.99689" lon="6.93197">
        <ele>1388.28125</ele>
        <time>2010-06-27T06:35:03Z</time>
      </trkpt>
      <trkpt lat="45.9968" lon="6.93184">
        <ele>1390.2038574219</ele>
        <time>2010-06-27T06:35:08Z</time>
      </trkpt>
      <trkpt lat="45.99675" lon="6.93169">
        <ele>1385.8776855469</ele>
        <time>2010-06-27T06:35:13Z</time>
      </trkpt>
      <trkpt lat="45.99674" lon="6.93157">
        <ele>1379.1484375</ele>
        <time>2010-06-27T06:35:16Z</time>
      </trkpt>
      <trkpt lat="45.99669" lon="6.93141">
        <ele>1373.861328125</ele>
        <time>2010-06-27T06:35:22Z</time>
      </trkpt>
      <trkpt lat="45.99664" lon="6.93133">
        <ele>1373.380859375</ele>
        <time>2010-06-27T06:35:26Z</time>
      </trkpt>
      <trkpt lat="45.9966" lon="6.93124">
        <ele>1377.7065429688</ele>
        <time>2010-06-27T06:35:31Z</time>
      </trkpt>
      <trkpt lat="45.99654" lon="6.93116">
        <ele>1380.5905761719</ele>
        <time>2010-06-27T06:35:36Z</time>
      </trkpt>
      <trkpt lat="45.99651" lon="6.93106">
        <ele>1379.1484375</ele>
        <time>2010-06-27T06:35:40Z</time>
      </trkpt>
      <trkpt lat="45.9965" lon="6.93103">
        <ele>1379.6291503906</ele>
        <time>2010-06-27T06:35:41Z</time>
      </trkpt>
      <trkpt lat="45.99646" lon="6.9309">
        <ele>1381.0712890625</ele>
        <time>2010-06-27T06:35:47Z</time>
      </trkpt>
      <trkpt lat="45.9964" lon="6.9308">
        <ele>1382.5131835938</ele>
        <time>2010-06-27T06:35:52Z</time>
      </trkpt>
      <trkpt lat="45.99633" lon="6.93068">
        <ele>1384.4357910156</ele>
        <time>2010-06-27T06:35:57Z</time>
      </trkpt>
      <trkpt lat="45.99628" lon="6.93061">
        <ele>1387.8002929688</ele>
        <time>2010-06-27T06:36:01Z</time>
      </trkpt>
      <trkpt lat="45.99618" lon="6.93059">
        <ele>1406.0654296875</ele>
        <time>2010-06-27T06:36:07Z</time>
      </trkpt>
      <trkpt lat="45.99613" lon="6.93051">
        <ele>1410.8720703125</ele>
        <time>2010-06-27T06:36:12Z</time>
      </trkpt>
      <trkpt lat="45.99609" lon="6.9304">
        <ele>1411.8334960938</ele>
        <time>2010-06-27T06:36:17Z</time>
      </trkpt>
      <trkpt lat="45.99606" lon="6.93022">
        <ele>1407.0268554688</ele>
        <time>2010-06-27T06:36:27Z</time>
      </trkpt>
      <trkpt lat="45.99603" lon="6.9301">
        <ele>1403.662109375</ele>
        <time>2010-06-27T06:36:33Z</time>
      </trkpt>
      <trkpt lat="45.99597" lon="6.93002">
        <ele>1407.98828125</ele>
        <time>2010-06-27T06:36:40Z</time>
      </trkpt>
      <trkpt lat="45.99593" lon="6.92995">
        <ele>1409.9106445312</ele>
        <time>2010-06-27T06:36:46Z</time>
      </trkpt>
      <trkpt lat="45.9959" lon="6.92988">
        <ele>1407.98828125</ele>
        <time>2010-06-27T06:36:50Z</time>
      </trkpt>
      <trkpt lat="45.99583" lon="6.92973">
        <ele>1408.46875</ele>
        <time>2010-06-27T06:36:56Z</time>
      </trkpt>
      <trkpt lat="45.99575" lon="6.92956">
        <ele>1408.9494628906</ele>
        <time>2010-06-27T06:37:02Z</time>
      </trkpt>
      <trkpt lat="45.9957" lon="6.92943">
        <ele>1409.9106445312</ele>
        <time>2010-06-27T06:37:06Z</time>
      </trkpt>
      <trkpt lat="45.99567" lon="6.92928">
        <ele>1409.4301757812</ele>
        <time>2010-06-27T06:37:10Z</time>
      </trkpt>
      <trkpt lat="45.99566" lon="6.92916">
        <ele>1409.4301757812</ele>
        <time>2010-06-27T06:37:14Z</time>
      </trkpt>
      <trkpt lat="45.99566" lon="6.92915">
        <ele>1409.9106445312</ele>
        <time>2010-06-27T06:37:15Z</time>
      </trkpt>
      <trkpt lat="45.99565" lon="6.92906">
        <ele>1408.9494628906</ele>
        <time>2010-06-27T06:37:20Z</time>
      </trkpt>
      <trkpt lat="45.99569" lon="6.92897">
        <ele>1408.9494628906</ele>
        <time>2010-06-27T06:37:24Z</time>
      </trkpt>
      <trkpt lat="45.99583" lon="6.92878">
        <ele>1408.46875</ele>
        <time>2010-06-27T06:37:31Z</time>
      </trkpt>
      <trkpt lat="45.99591" lon="6.92861">
        <ele>1407.98828125</ele>
        <time>2010-06-27T06:37:35Z</time>
      </trkpt>
      <trkpt lat="45.99593" lon="6.92858">
        <ele>1407.5075683594</ele>
        <time>2010-06-27T06:37:36Z</time>
      </trkpt>
      <trkpt lat="45.99602" lon="6.92841">
        <ele>1409.4301757812</ele>
        <time>2010-06-27T06:37:42Z</time>
      </trkpt>
      <trkpt lat="45.99609" lon="6.92827">
        <ele>1408.9494628906</ele>
        <time>2010-06-27T06:37:47Z</time>
      </trkpt>
      <trkpt lat="45.9961" lon="6.92825">
        <ele>1408.46875</ele>
        <time>2010-06-27T06:37:48Z</time>
      </trkpt>
      <trkpt lat="45.99612" lon="6.92814">
        <ele>1407.5075683594</ele>
        <time>2010-06-27T06:37:51Z</time>
      </trkpt>
      <trkpt lat="45.99623" lon="6.9281">
        <ele>1407.0268554688</ele>
        <time>2010-06-27T06:37:56Z</time>
      </trkpt>
      <trkpt lat="45.99628" lon="6.92812">
        <ele>1407.5075683594</ele>
        <time>2010-06-27T06:38:00Z</time>
      </trkpt>
      <trkpt lat="45.99633" lon="6.92807">
        <ele>1407.0268554688</ele>
        <time>2010-06-27T06:38:03Z</time>
      </trkpt>
      <trkpt lat="45.99638" lon="6.92803">
        <ele>1407.0268554688</ele>
        <time>2010-06-27T06:38:05Z</time>
      </trkpt>
      <trkpt lat="45.99649" lon="6.92789">
        <ele>1406.0654296875</ele>
        <time>2010-06-27T06:38:10Z</time>
      </trkpt>
      <trkpt lat="45.99651" lon="6.92776">
        <ele>1404.1430664062</ele>
        <time>2010-06-27T06:38:14Z</time>
      </trkpt>
      <trkpt lat="45.99654" lon="6.92768">
        <ele>1403.662109375</ele>
        <time>2010-06-27T06:38:18Z</time>
      </trkpt>
      <trkpt lat="45.99657" lon="6.92761">
        <ele>1403.662109375</ele>
        <time>2010-06-27T06:38:24Z</time>
      </trkpt>
      <trkpt lat="45.9966" lon="6.92749">
        <ele>1407.0268554688</ele>
        <time>2010-06-27T06:38:30Z</time>
      </trkpt>
      <trkpt lat="45.99662" lon="6.9274">
        <ele>1409.4301757812</ele>
        <time>2010-06-27T06:38:35Z</time>
      </trkpt>
      <trkpt lat="45.99667" lon="6.92728">
        <ele>1413.755859375</ele>
        <time>2010-06-27T06:38:43Z</time>
      </trkpt>
      <trkpt lat="45.99667" lon="6.92726">
        <ele>1414.2365722656</ele>
        <time>2010-06-27T06:38:44Z</time>
      </trkpt>
      <trkpt lat="45.99665" lon="6.92711">
        <ele>1418.0817871094</ele>
        <time>2010-06-27T06:38:52Z</time>
      </trkpt>
      <trkpt lat="45.99667" lon="6.92698">
        <ele>1420.9660644531</ele>
        <time>2010-06-27T06:38:59Z</time>
      </trkpt>
      <trkpt lat="45.99662" lon="6.92686">
        <ele>1424.3305664062</ele>
        <time>2010-06-27T06:39:07Z</time>
      </trkpt>
      <trkpt lat="45.99665" lon="6.92679">
        <ele>1425.7724609375</ele>
        <time>2010-06-27T06:39:12Z</time>
      </trkpt>
      <trkpt lat="45.99667" lon="6.92674">
        <ele>1426.7338867188</ele>
        <time>2010-06-27T06:39:15Z</time>
      </trkpt>
      <trkpt lat="45.99674" lon="6.92662">
        <ele>1428.17578125</ele>
        <time>2010-06-27T06:39:20Z</time>
      </trkpt>
      <trkpt lat="45.99686" lon="6.9265">
        <ele>1427.6950683594</ele>
        <time>2010-06-27T06:39:26Z</time>
      </trkpt>
      <trkpt lat="45.99688" lon="6.92648">
        <ele>1427.2145996094</ele>
        <time>2010-06-27T06:39:27Z</time>
      </trkpt>
      <trkpt lat="45.99697" lon="6.92645">
        <ele>1427.2145996094</ele>
        <time>2010-06-27T06:39:31Z</time>
      </trkpt>
      <trkpt lat="45.99711" lon="6.92637">
        <ele>1428.17578125</ele>
        <time>2010-06-27T06:39:38Z</time>
      </trkpt>
      <trkpt lat="45.99723" lon="6.92629">
        <ele>1430.5791015625</ele>
        <time>2010-06-27T06:39:44Z</time>
      </trkpt>
      <trkpt lat="45.99733" lon="6.92623">
        <ele>1433.462890625</ele>
        <time>2010-06-27T06:39:49Z</time>
      </trkpt>
      <trkpt lat="45.99741" lon="6.92615">
        <ele>1434.4243164062</ele>
        <time>2010-06-27T06:39:53Z</time>
      </trkpt>
      <trkpt lat="45.99742" lon="6.92612">
        <ele>1435.3854980469</ele>
        <time>2010-06-27T06:39:54Z</time>
      </trkpt>
      <trkpt lat="45.99751" lon="6.92607">
        <ele>1436.8276367188</ele>
        <time>2010-06-27T06:39:58Z</time>
      </trkpt>
      <trkpt lat="45.99756" lon="6.92598">
        <ele>1437.7890625</ele>
        <time>2010-06-27T06:40:02Z</time>
      </trkpt>
      <trkpt lat="45.99766" lon="6.92586">
        <ele>1436.8276367188</ele>
        <time>2010-06-27T06:40:08Z</time>
      </trkpt>
      <trkpt lat="45.9977" lon="6.92578">
        <ele>1437.7890625</ele>
        <time>2010-06-27T06:40:14Z</time>
      </trkpt>
      <trkpt lat="45.99777" lon="6.9257">
        <ele>1441.1535644531</ele>
        <time>2010-06-27T06:40:20Z</time>
      </trkpt>
      <trkpt lat="45.99783" lon="6.92561">
        <ele>1443.076171875</ele>
        <time>2010-06-27T06:40:25Z</time>
      </trkpt>
      <trkpt lat="45.99789" lon="6.92553">
        <ele>1443.5568847656</ele>
        <time>2010-06-27T06:40:30Z</time>
      </trkpt>
      <trkpt lat="45.99795" lon="6.92548">
        <ele>1442.595703125</ele>
        <time>2010-06-27T06:40:33Z</time>
      </trkpt>
      <trkpt lat="45.99802" lon="6.92536">
        <ele>1442.1149902344</ele>
        <time>2010-06-27T06:40:40Z</time>
      </trkpt>
      <trkpt lat="45.99808" lon="6.92527">
        <ele>1442.595703125</ele>
        <time>2010-06-27T06:40:44Z</time>
      </trkpt>
      <trkpt lat="45.99813" lon="6.92513">
        <ele>1443.076171875</ele>
        <time>2010-06-27T06:40:49Z</time>
      </trkpt>
      <trkpt lat="45.99819" lon="6.92503">
        <ele>1444.5180664062</ele>
        <time>2010-06-27T06:40:58Z</time>
      </trkpt>
      <trkpt lat="45.99823" lon="6.92496">
        <ele>1444.5180664062</ele>
        <time>2010-06-27T06:41:07Z</time>
      </trkpt>
      <trkpt lat="45.99829" lon="6.92485">
        <ele>1444.5180664062</ele>
        <time>2010-06-27T06:41:13Z</time>
      </trkpt>
      <trkpt lat="45.9983" lon="6.92481">
        <ele>1445.4794921875</ele>
        <time>2010-06-27T06:41:15Z</time>
      </trkpt>
      <trkpt lat="45.99834" lon="6.92474">
        <ele>1444.5180664062</ele>
        <time>2010-06-27T06:41:19Z</time>
      </trkpt>
      <trkpt lat="45.9984" lon="6.92456">
        <ele>1443.5568847656</ele>
        <time>2010-06-27T06:41:25Z</time>
      </trkpt>
      <trkpt lat="45.99849" lon="6.92445">
        <ele>1443.076171875</ele>
        <time>2010-06-27T06:41:29Z</time>
      </trkpt>
      <trkpt lat="45.9986" lon="6.92439">
        <ele>1443.5568847656</ele>
        <time>2010-06-27T06:41:34Z</time>
      </trkpt>
      <trkpt lat="45.99869" lon="6.92438">
        <ele>1444.0375976562</ele>
        <time>2010-06-27T06:41:37Z</time>
      </trkpt>
      <trkpt lat="45.99874" lon="6.92435">
        <ele>1444.9987792969</ele>
        <time>2010-06-27T06:41:39Z</time>
      </trkpt>
      <trkpt lat="45.99887" lon="6.9243">
        <ele>1446.9213867188</ele>
        <time>2010-06-27T06:41:44Z</time>
      </trkpt>
      <trkpt lat="45.999" lon="6.92426">
        <ele>1450.7666015625</ele>
        <time>2010-06-27T06:41:49Z</time>
      </trkpt>
      <trkpt lat="45.99916" lon="6.92425">
        <ele>1454.1315917969</ele>
        <time>2010-06-27T06:41:55Z</time>
      </trkpt>
      <trkpt lat="45.99925" lon="6.92423">
        <ele>1455.5734863281</ele>
        <time>2010-06-27T06:41:59Z</time>
      </trkpt>
      <trkpt lat="45.9993" lon="6.92418">
        <ele>1456.0539550781</ele>
        <time>2010-06-27T06:42:04Z</time>
      </trkpt>
      <trkpt lat="45.99939" lon="6.92412">
        <ele>1457.9768066406</ele>
        <time>2010-06-27T06:42:09Z</time>
      </trkpt>
      <trkpt lat="45.99949" lon="6.92408">
        <ele>1458.9379882812</ele>
        <time>2010-06-27T06:42:14Z</time>
      </trkpt>
      <trkpt lat="45.99961" lon="6.92407">
        <ele>1460.8605957031</ele>
        <time>2010-06-27T06:42:19Z</time>
      </trkpt>
      <trkpt lat="45.99972" lon="6.9241">
        <ele>1459.8991699219</ele>
        <time>2010-06-27T06:42:24Z</time>
      </trkpt>
      <trkpt lat="45.99984" lon="6.92412">
        <ele>1458.9379882812</ele>
        <time>2010-06-27T06:42:29Z</time>
      </trkpt>
      <trkpt lat="45.99995" lon="6.92413">
        <ele>1459.8991699219</ele>
        <time>2010-06-27T06:42:34Z</time>
      </trkpt>
      <trkpt lat="46.00005" lon="6.92414">
        <ele>1460.8605957031</ele>
        <time>2010-06-27T06:42:39Z</time>
      </trkpt>
      <trkpt lat="46.00014" lon="6.92418">
        <ele>1460.3798828125</ele>
        <time>2010-06-27T06:42:43Z</time>
      </trkpt>
      <trkpt lat="46.00016" lon="6.92418">
        <ele>1461.3413085938</ele>
        <time>2010-06-27T06:42:44Z</time>
      </trkpt>
      <trkpt lat="46.00027" lon="6.92416">
        <ele>1462.3024902344</ele>
        <time>2010-06-27T06:42:49Z</time>
      </trkpt>
      <trkpt lat="46.00035" lon="6.92415">
        <ele>1462.3024902344</ele>
        <time>2010-06-27T06:42:53Z</time>
      </trkpt>
      <trkpt lat="46.00039" lon="6.92415">
        <ele>1462.3024902344</ele>
        <time>2010-06-27T06:42:55Z</time>
      </trkpt>
      <trkpt lat="46.00047" lon="6.92414">
        <ele>1464.2250976562</ele>
        <time>2010-06-27T06:43:00Z</time>
      </trkpt>
      <trkpt lat="46.00058" lon="6.92411">
        <ele>1467.1091308594</ele>
        <time>2010-06-27T06:43:08Z</time>
      </trkpt>
      <trkpt lat="46.00064" lon="6.92409">
        <ele>1468.0705566406</ele>
        <time>2010-06-27T06:43:13Z</time>
      </trkpt>
      <trkpt lat="46.00065" lon="6.92408">
        <ele>1468.5512695312</ele>
        <time>2010-06-27T06:43:18Z</time>
      </trkpt>
      <trkpt lat="46.00071" lon="6.92408">
        <ele>1469.9931640625</ele>
        <time>2010-06-27T06:43:23Z</time>
      </trkpt>
      <trkpt lat="46.00077" lon="6.92408">
        <ele>1470.4738769531</ele>
        <time>2010-06-27T06:43:27Z</time>
      </trkpt>
      <trkpt lat="46.00083" lon="6.92406">
        <ele>1470.4738769531</ele>
        <time>2010-06-27T06:43:33Z</time>
      </trkpt>
      <trkpt lat="46.00094" lon="6.92403">
        <ele>1469.0319824219</ele>
        <time>2010-06-27T06:43:38Z</time>
      </trkpt>
      <trkpt lat="46.00108" lon="6.924">
        <ele>1467.5895996094</ele>
        <time>2010-06-27T06:43:43Z</time>
      </trkpt>
      <trkpt lat="46.00119" lon="6.92397">
        <ele>1466.6284179688</ele>
        <time>2010-06-27T06:43:47Z</time>
      </trkpt>
      <trkpt lat="46.00136" lon="6.92393">
        <ele>1466.1477050781</ele>
        <time>2010-06-27T06:43:53Z</time>
      </trkpt>
      <trkpt lat="46.0015" lon="6.92389">
        <ele>1464.7058105469</ele>
        <time>2010-06-27T06:43:58Z</time>
      </trkpt>
      <trkpt lat="46.00161" lon="6.92386">
        <ele>1465.1865234375</ele>
        <time>2010-06-27T06:44:03Z</time>
      </trkpt>
      <trkpt lat="46.00172" lon="6.92384">
        <ele>1466.6284179688</ele>
        <time>2010-06-27T06:44:07Z</time>
      </trkpt>
      <trkpt lat="46.00183" lon="6.9238">
        <ele>1466.6284179688</ele>
        <time>2010-06-27T06:44:12Z</time>
      </trkpt>
      <trkpt lat="46.00192" lon="6.92377">
        <ele>1466.6284179688</ele>
        <time>2010-06-27T06:44:17Z</time>
      </trkpt>
      <trkpt lat="46.00208" lon="6.92373">
        <ele>1468.0705566406</ele>
        <time>2010-06-27T06:44:24Z</time>
      </trkpt>
      <trkpt lat="46.00222" lon="6.92369">
        <ele>1470.4738769531</ele>
        <time>2010-06-27T06:44:31Z</time>
      </trkpt>
      <trkpt lat="46.00229" lon="6.92369">
        <ele>1470.9545898438</ele>
        <time>2010-06-27T06:44:35Z</time>
      </trkpt>
      <trkpt lat="46.00237" lon="6.92368">
        <ele>1472.396484375</ele>
        <time>2010-06-27T06:44:40Z</time>
      </trkpt>
      <trkpt lat="46.00247" lon="6.92366">
        <ele>1474.7998046875</ele>
        <time>2010-06-27T06:44:48Z</time>
      </trkpt>
      <trkpt lat="46.00258" lon="6.92366">
        <ele>1476.2416992188</ele>
        <time>2010-06-27T06:44:53Z</time>
      </trkpt>
      <trkpt lat="46.0027" lon="6.92368">
        <ele>1476.2416992188</ele>
        <time>2010-06-27T06:44:58Z</time>
      </trkpt>
      <trkpt lat="46.00284" lon="6.92371">
        <ele>1478.1643066406</ele>
        <time>2010-06-27T06:45:04Z</time>
      </trkpt>
      <trkpt lat="46.00298" lon="6.92371">
        <ele>1480.5676269531</ele>
        <time>2010-06-27T06:45:09Z</time>
      </trkpt>
      <trkpt lat="46.00311" lon="6.92371">
        <ele>1480.0869140625</ele>
        <time>2010-06-27T06:45:15Z</time>
      </trkpt>
      <trkpt lat="46.00322" lon="6.92368">
        <ele>1481.0483398438</ele>
        <time>2010-06-27T06:45:20Z</time>
      </trkpt>
      <trkpt lat="46.00333" lon="6.92366">
        <ele>1481.5288085938</ele>
        <time>2010-06-27T06:45:25Z</time>
      </trkpt>
      <trkpt lat="46.00339" lon="6.92364">
        <ele>1481.0483398438</ele>
        <time>2010-06-27T06:45:28Z</time>
      </trkpt>
      <trkpt lat="46.00352" lon="6.92365">
        <ele>1481.0483398438</ele>
        <time>2010-06-27T06:45:33Z</time>
      </trkpt>
      <trkpt lat="46.00362" lon="6.92364">
        <ele>1482.490234375</ele>
        <time>2010-06-27T06:45:37Z</time>
      </trkpt>
      <trkpt lat="46.00373" lon="6.92365">
        <ele>1483.9321289062</ele>
        <time>2010-06-27T06:45:42Z</time>
      </trkpt>
      <trkpt lat="46.00385" lon="6.92366">
        <ele>1486.8161621094</ele>
        <time>2010-06-27T06:45:47Z</time>
      </trkpt>
      <trkpt lat="46.00388" lon="6.92367">
        <ele>1486.3356933594</ele>
        <time>2010-06-27T06:45:48Z</time>
      </trkpt>
      <trkpt lat="46.00403" lon="6.92375">
        <ele>1486.8161621094</ele>
        <time>2010-06-27T06:45:54Z</time>
      </trkpt>
      <trkpt lat="46.00414" lon="6.92382">
        <ele>1487.296875</ele>
        <time>2010-06-27T06:45:58Z</time>
      </trkpt>
      <trkpt lat="46.00426" lon="6.92392">
        <ele>1486.8161621094</ele>
        <time>2010-06-27T06:46:03Z</time>
      </trkpt>
      <trkpt lat="46.00438" lon="6.92404">
        <ele>1484.8937988281</ele>
        <time>2010-06-27T06:46:08Z</time>
      </trkpt>
      <trkpt lat="46.00445" lon="6.92411">
        <ele>1483.9321289062</ele>
        <time>2010-06-27T06:46:11Z</time>
      </trkpt>
      <trkpt lat="46.00459" lon="6.92419">
        <ele>1482.970703125</ele>
        <time>2010-06-27T06:46:16Z</time>
      </trkpt>
      <trkpt lat="46.0047" lon="6.92425">
        <ele>1481.0483398438</ele>
        <time>2010-06-27T06:46:20Z</time>
      </trkpt>
      <trkpt lat="46.0049" lon="6.92435">
        <ele>1481.0483398438</ele>
        <time>2010-06-27T06:46:27Z</time>
      </trkpt>
      <trkpt lat="46.00504" lon="6.92443">
        <ele>1480.0869140625</ele>
        <time>2010-06-27T06:46:32Z</time>
      </trkpt>
      <trkpt lat="46.00515" lon="6.92449">
        <ele>1477.68359375</ele>
        <time>2010-06-27T06:46:36Z</time>
      </trkpt>
      <trkpt lat="46.00531" lon="6.92456">
        <ele>1474.3190917969</ele>
        <time>2010-06-27T06:46:42Z</time>
      </trkpt>
      <trkpt lat="46.00546" lon="6.92453">
        <ele>1471.4350585938</ele>
        <time>2010-06-27T06:46:47Z</time>
      </trkpt>
      <trkpt lat="46.00556" lon="6.92444">
        <ele>1468.0705566406</ele>
        <time>2010-06-27T06:46:51Z</time>
      </trkpt>
      <trkpt lat="46.00561" lon="6.92436">
        <ele>1464.2250976562</ele>
        <time>2010-06-27T06:46:54Z</time>
      </trkpt>
      <trkpt lat="46.00568" lon="6.92418">
        <ele>1457.9768066406</ele>
        <time>2010-06-27T06:46:59Z</time>
      </trkpt>
      <trkpt lat="46.00574" lon="6.92394">
        <ele>1452.2087402344</ele>
        <time>2010-06-27T06:47:05Z</time>
      </trkpt>
      <trkpt lat="46.00581" lon="6.92379">
        <ele>1448.36328125</ele>
        <time>2010-06-27T06:47:09Z</time>
      </trkpt>
      <trkpt lat="46.00587" lon="6.92365">
        <ele>1446.4409179688</ele>
        <time>2010-06-27T06:47:13Z</time>
      </trkpt>
      <trkpt lat="46.00594" lon="6.92353">
        <ele>1443.5568847656</ele>
        <time>2010-06-27T06:47:17Z</time>
      </trkpt>
      <trkpt lat="46.00603" lon="6.92343">
        <ele>1442.1149902344</ele>
        <time>2010-06-27T06:47:21Z</time>
      </trkpt>
      <trkpt lat="46.00619" lon="6.92333">
        <ele>1441.6342773438</ele>
        <time>2010-06-27T06:47:27Z</time>
      </trkpt>
      <trkpt lat="46.00635" lon="6.92327">
        <ele>1443.076171875</ele>
        <time>2010-06-27T06:47:33Z</time>
      </trkpt>
      <trkpt lat="46.00642" lon="6.92327">
        <ele>1444.5180664062</ele>
        <time>2010-06-27T06:47:37Z</time>
      </trkpt>
      <trkpt lat="46.00648" lon="6.92328">
        <ele>1445.4794921875</ele>
        <time>2010-06-27T06:47:41Z</time>
      </trkpt>
      <trkpt lat="46.00657" lon="6.92332">
        <ele>1444.9987792969</ele>
        <time>2010-06-27T06:47:46Z</time>
      </trkpt>
      <trkpt lat="46.00664" lon="6.92336">
        <ele>1444.0375976562</ele>
        <time>2010-06-27T06:47:50Z</time>
      </trkpt>
      <trkpt lat="46.00674" lon="6.9234">
        <ele>1444.5180664062</ele>
        <time>2010-06-27T06:47:55Z</time>
      </trkpt>
      <trkpt lat="46.00682" lon="6.92341">
        <ele>1444.5180664062</ele>
        <time>2010-06-27T06:47:59Z</time>
      </trkpt>
      <trkpt lat="46.00692" lon="6.92341">
        <ele>1444.5180664062</ele>
        <time>2010-06-27T06:48:03Z</time>
      </trkpt>
      <trkpt lat="46.00703" lon="6.92342">
        <ele>1445.9602050781</ele>
        <time>2010-06-27T06:48:07Z</time>
      </trkpt>
      <trkpt lat="46.00711" lon="6.92345">
        <ele>1446.9213867188</ele>
        <time>2010-06-27T06:48:11Z</time>
      </trkpt>
      <trkpt lat="46.00714" lon="6.92346">
        <ele>1446.4409179688</ele>
        <time>2010-06-27T06:48:12Z</time>
      </trkpt>
      <trkpt lat="46.00729" lon="6.92357">
        <ele>1446.4409179688</ele>
        <time>2010-06-27T06:48:18Z</time>
      </trkpt>
      <trkpt lat="46.00739" lon="6.92367">
        <ele>1440.6728515625</ele>
        <time>2010-06-27T06:48:22Z</time>
      </trkpt>
      <trkpt lat="46.00748" lon="6.92375">
        <ele>1438.7504882812</ele>
        <time>2010-06-27T06:48:26Z</time>
      </trkpt>
      <trkpt lat="46.00757" lon="6.9238">
        <ele>1436.8276367188</ele>
        <time>2010-06-27T06:48:29Z</time>
      </trkpt>
      <trkpt lat="46.00773" lon="6.92389">
        <ele>1434.4243164062</ele>
        <time>2010-06-27T06:48:35Z</time>
      </trkpt>
      <trkpt lat="46.0078" lon="6.92395">
        <ele>1432.9821777344</ele>
        <time>2010-06-27T06:48:38Z</time>
      </trkpt>
      <trkpt lat="46.00794" lon="6.924">
        <ele>1432.0209960938</ele>
        <time>2010-06-27T06:48:43Z</time>
      </trkpt>
      <trkpt lat="46.00808" lon="6.92406">
        <ele>1432.0209960938</ele>
        <time>2010-06-27T06:48:48Z</time>
      </trkpt>
      <trkpt lat="46.00824" lon="6.92413">
        <ele>1432.5017089844</ele>
        <time>2010-06-27T06:48:54Z</time>
      </trkpt>
      <trkpt lat="46.00837" lon="6.92418">
        <ele>1432.9821777344</ele>
        <time>2010-06-27T06:48:59Z</time>
      </trkpt>
      <trkpt lat="46.00848" lon="6.92424">
        <ele>1432.9821777344</ele>
        <time>2010-06-27T06:49:03Z</time>
      </trkpt>
      <trkpt lat="46.00859" lon="6.92435">
        <ele>1434.4243164062</ele>
        <time>2010-06-27T06:49:08Z</time>
      </trkpt>
      <trkpt lat="46.00869" lon="6.9244">
        <ele>1434.4243164062</ele>
        <time>2010-06-27T06:49:12Z</time>
      </trkpt>
      <trkpt lat="46.00873" lon="6.92441">
        <ele>1434.9050292969</ele>
        <time>2010-06-27T06:49:13Z</time>
      </trkpt>
      <trkpt lat="46.00888" lon="6.92443">
        <ele>1433.9436035156</ele>
        <time>2010-06-27T06:49:18Z</time>
      </trkpt>
      <trkpt lat="46.00899" lon="6.92443">
        <ele>1432.9821777344</ele>
        <time>2010-06-27T06:49:22Z</time>
      </trkpt>
      <trkpt lat="46.00909" lon="6.92441">
        <ele>1432.9821777344</ele>
        <time>2010-06-27T06:49:26Z</time>
      </trkpt>
      <trkpt lat="46.00923" lon="6.92439">
        <ele>1432.5017089844</ele>
        <time>2010-06-27T06:49:31Z</time>
      </trkpt>
      <trkpt lat="46.00935" lon="6.92436">
        <ele>1432.0209960938</ele>
        <time>2010-06-27T06:49:35Z</time>
      </trkpt>
      <trkpt lat="46.00951" lon="6.92432">
        <ele>1431.5402832031</ele>
        <time>2010-06-27T06:49:41Z</time>
      </trkpt>
      <trkpt lat="46.00965" lon="6.92425">
        <ele>1431.0598144531</ele>
        <time>2010-06-27T06:49:46Z</time>
      </trkpt>
      <trkpt lat="46.00976" lon="6.92421">
        <ele>1430.5791015625</ele>
        <time>2010-06-27T06:49:50Z</time>
      </trkpt>
      <trkpt lat="46.0099" lon="6.92421">
        <ele>1426.7338867188</ele>
        <time>2010-06-27T06:49:55Z</time>
      </trkpt>
      <trkpt lat="46.01003" lon="6.92422">
        <ele>1423.3693847656</ele>
        <time>2010-06-27T06:50:00Z</time>
      </trkpt>
      <trkpt lat="46.01016" lon="6.92418">
        <ele>1420.9660644531</ele>
        <time>2010-06-27T06:50:05Z</time>
      </trkpt>
      <trkpt lat="46.01033" lon="6.92419">
        <ele>1420.4853515625</ele>
        <time>2010-06-27T06:50:11Z</time>
      </trkpt>
      <trkpt lat="46.01035" lon="6.92419">
        <ele>1419.5239257812</ele>
        <time>2010-06-27T06:50:12Z</time>
      </trkpt>
      <trkpt lat="46.01049" lon="6.92425">
        <ele>1418.0817871094</ele>
        <time>2010-06-27T06:50:17Z</time>
      </trkpt>
      <trkpt lat="46.0106" lon="6.92432">
        <ele>1415.1979980469</ele>
        <time>2010-06-27T06:50:21Z</time>
      </trkpt>
      <trkpt lat="46.0107" lon="6.92438">
        <ele>1413.755859375</ele>
        <time>2010-06-27T06:50:25Z</time>
      </trkpt>
      <trkpt lat="46.01083" lon="6.92445">
        <ele>1412.7946777344</ele>
        <time>2010-06-27T06:50:30Z</time>
      </trkpt>
      <trkpt lat="46.01093" lon="6.92446">
        <ele>1412.3139648438</ele>
        <time>2010-06-27T06:50:34Z</time>
      </trkpt>
      <trkpt lat="46.01107" lon="6.92445">
        <ele>1411.8334960938</ele>
        <time>2010-06-27T06:50:39Z</time>
      </trkpt>
      <trkpt lat="46.0112" lon="6.92439">
        <ele>1412.3139648438</ele>
        <time>2010-06-27T06:50:43Z</time>
      </trkpt>
      <trkpt lat="46.01133" lon="6.92429">
        <ele>1413.275390625</ele>
        <time>2010-06-27T06:50:48Z</time>
      </trkpt>
      <trkpt lat="46.01149" lon="6.92426">
        <ele>1412.3139648438</ele>
        <time>2010-06-27T06:50:53Z</time>
      </trkpt>
      <trkpt lat="46.01167" lon="6.92425">
        <ele>1409.4301757812</ele>
        <time>2010-06-27T06:50:59Z</time>
      </trkpt>
      <trkpt lat="46.01181" lon="6.92424">
        <ele>1407.98828125</ele>
        <time>2010-06-27T06:51:04Z</time>
      </trkpt>
      <trkpt lat="46.01195" lon="6.92419">
        <ele>1407.0268554688</ele>
        <time>2010-06-27T06:51:09Z</time>
      </trkpt>
      <trkpt lat="46.01206" lon="6.9241">
        <ele>1406.5461425781</ele>
        <time>2010-06-27T06:51:13Z</time>
      </trkpt>
      <trkpt lat="46.01213" lon="6.924">
        <ele>1405.5849609375</ele>
        <time>2010-06-27T06:51:16Z</time>
      </trkpt>
      <trkpt lat="46.01222" lon="6.92389">
        <ele>1405.5849609375</ele>
        <time>2010-06-27T06:51:20Z</time>
      </trkpt>
      <trkpt lat="46.01227" lon="6.92384">
        <ele>1407.0268554688</ele>
        <time>2010-06-27T06:51:22Z</time>
      </trkpt>
      <trkpt lat="46.01238" lon="6.92371">
        <ele>1405.5849609375</ele>
        <time>2010-06-27T06:51:27Z</time>
      </trkpt>
      <trkpt lat="46.01243" lon="6.92366">
        <ele>1405.5849609375</ele>
        <time>2010-06-27T06:51:29Z</time>
      </trkpt>
      <trkpt lat="46.01253" lon="6.92353">
        <ele>1402.2199707031</ele>
        <time>2010-06-27T06:51:34Z</time>
      </trkpt>
      <trkpt lat="46.01261" lon="6.9234">
        <ele>1400.2976074219</ele>
        <time>2010-06-27T06:51:40Z</time>
      </trkpt>
      <trkpt lat="46.01264" lon="6.92336">
        <ele>1399.3361816406</ele>
        <time>2010-06-27T06:51:44Z</time>
      </trkpt>
      <trkpt lat="46.01272" lon="6.92322">
        <ele>1396.9328613281</ele>
        <time>2010-06-27T06:51:48Z</time>
      </trkpt>
      <trkpt lat="46.01278" lon="6.9231">
        <ele>1392.6071777344</ele>
        <time>2010-06-27T06:51:52Z</time>
      </trkpt>
      <trkpt lat="46.01281" lon="6.92304">
        <ele>1390.2038574219</ele>
        <time>2010-06-27T06:51:54Z</time>
      </trkpt>
      <trkpt lat="46.01284" lon="6.92299">
        <ele>1388.7619628906</ele>
        <time>2010-06-27T06:51:56Z</time>
      </trkpt>
      <trkpt lat="46.01296" lon="6.92291">
        <ele>1386.8388671875</ele>
        <time>2010-06-27T06:52:02Z</time>
      </trkpt>
      <trkpt lat="46.01304" lon="6.92284">
        <ele>1386.8388671875</ele>
        <time>2010-06-27T06:52:06Z</time>
      </trkpt>
      <trkpt lat="46.01307" lon="6.92282">
        <ele>1386.3583984375</ele>
        <time>2010-06-27T06:52:07Z</time>
      </trkpt>
      <trkpt lat="46.01324" lon="6.92271">
        <ele>1384.9165039062</ele>
        <time>2010-06-27T06:52:14Z</time>
      </trkpt>
      <trkpt lat="46.01332" lon="6.92266">
        <ele>1382.9936523438</ele>
        <time>2010-06-27T06:52:19Z</time>
      </trkpt>
      <trkpt lat="46.01343" lon="6.9226">
        <ele>1382.5131835938</ele>
        <time>2010-06-27T06:52:23Z</time>
      </trkpt>
      <trkpt lat="46.0136" lon="6.92249">
        <ele>1381.5517578125</ele>
        <time>2010-06-27T06:52:29Z</time>
      </trkpt>
      <trkpt lat="46.01368" lon="6.92243">
        <ele>1382.9936523438</ele>
        <time>2010-06-27T06:52:33Z</time>
      </trkpt>
      <trkpt lat="46.01379" lon="6.92233">
        <ele>1384.4357910156</ele>
        <time>2010-06-27T06:52:38Z</time>
      </trkpt>
      <trkpt lat="46.01387" lon="6.92227">
        <ele>1382.9936523438</ele>
        <time>2010-06-27T06:52:42Z</time>
      </trkpt>
      <trkpt lat="46.01395" lon="6.9222">
        <ele>1381.5517578125</ele>
        <time>2010-06-27T06:52:46Z</time>
      </trkpt>
      <trkpt lat="46.01399" lon="6.92216">
        <ele>1380.5905761719</ele>
        <time>2010-06-27T06:52:48Z</time>
      </trkpt>
      <trkpt lat="46.01403" lon="6.92212">
        <ele>1379.1484375</ele>
        <time>2010-06-27T06:52:50Z</time>
      </trkpt>
      <trkpt lat="46.01413" lon="6.92201">
        <ele>1375.7839355469</ele>
        <time>2010-06-27T06:52:56Z</time>
      </trkpt>
      <trkpt lat="46.01426" lon="6.92199">
        <ele>1375.7839355469</ele>
        <time>2010-06-27T06:53:02Z</time>
      </trkpt>
      <trkpt lat="46.01438" lon="6.92198">
        <ele>1375.3032226562</ele>
        <time>2010-06-27T06:53:07Z</time>
      </trkpt>
      <trkpt lat="46.01447" lon="6.92198">
        <ele>1376.7453613281</ele>
        <time>2010-06-27T06:53:11Z</time>
      </trkpt>
      <trkpt lat="46.01461" lon="6.92198">
        <ele>1381.0712890625</ele>
        <time>2010-06-27T06:53:17Z</time>
      </trkpt>
      <trkpt lat="46.01471" lon="6.92198">
        <ele>1383.4743652344</ele>
        <time>2010-06-27T06:53:22Z</time>
      </trkpt>
      <trkpt lat="46.0148" lon="6.92195">
        <ele>1385.8776855469</ele>
        <time>2010-06-27T06:53:27Z</time>
      </trkpt>
      <trkpt lat="46.01491" lon="6.92189">
        <ele>1388.28125</ele>
        <time>2010-06-27T06:53:31Z</time>
      </trkpt>
      <trkpt lat="46.01504" lon="6.92186">
        <ele>1390.2038574219</ele>
        <time>2010-06-27T06:53:35Z</time>
      </trkpt>
      <trkpt lat="46.01518" lon="6.92177">
        <ele>1388.28125</ele>
        <time>2010-06-27T06:53:41Z</time>
      </trkpt>
      <trkpt lat="46.01525" lon="6.92167">
        <ele>1385.3969726562</ele>
        <time>2010-06-27T06:53:45Z</time>
      </trkpt>
      <trkpt lat="46.01527" lon="6.9216">
        <ele>1385.8776855469</ele>
        <time>2010-06-27T06:53:47Z</time>
      </trkpt>
      <trkpt lat="46.01537" lon="6.92145">
        <ele>1384.9165039062</ele>
        <time>2010-06-27T06:53:53Z</time>
      </trkpt>
      <trkpt lat="46.01548" lon="6.92134">
        <ele>1384.9165039062</ele>
        <time>2010-06-27T06:53:58Z</time>
      </trkpt>
      <trkpt lat="46.01555" lon="6.9213">
        <ele>1383.955078125</ele>
        <time>2010-06-27T06:54:01Z</time>
      </trkpt>
      <trkpt lat="46.01563" lon="6.92122">
        <ele>1385.3969726562</ele>
        <time>2010-06-27T06:54:05Z</time>
      </trkpt>
      <trkpt lat="46.01573" lon="6.92109">
        <ele>1384.4357910156</ele>
        <time>2010-06-27T06:54:10Z</time>
      </trkpt>
      <trkpt lat="46.01585" lon="6.92095">
        <ele>1383.4743652344</ele>
        <time>2010-06-27T06:54:16Z</time>
      </trkpt>
      <trkpt lat="46.01596" lon="6.92086">
        <ele>1380.1098632812</ele>
        <time>2010-06-27T06:54:21Z</time>
      </trkpt>
      <trkpt lat="46.01608" lon="6.92078">
        <ele>1380.5905761719</ele>
        <time>2010-06-27T06:54:26Z</time>
      </trkpt>
      <trkpt lat="46.01622" lon="6.92072">
        <ele>1378.1872558594</ele>
        <time>2010-06-27T06:54:31Z</time>
      </trkpt>
      <trkpt lat="46.01638" lon="6.92067">
        <ele>1374.3420410156</ele>
        <time>2010-06-27T06:54:37Z</time>
      </trkpt>
      <trkpt lat="46.01648" lon="6.92062">
        <ele>1373.861328125</ele>
        <time>2010-06-27T06:54:41Z</time>
      </trkpt>
      <trkpt lat="46.01659" lon="6.92059">
        <ele>1375.7839355469</ele>
        <time>2010-06-27T06:54:45Z</time>
      </trkpt>
      <trkpt lat="46.01662" lon="6.9206">
        <ele>1374.3420410156</ele>
        <time>2010-06-27T06:54:46Z</time>
      </trkpt>
      <trkpt lat="46.01675" lon="6.9207">
        <ele>1369.5354003906</ele>
        <time>2010-06-27T06:54:51Z</time>
      </trkpt>
      <trkpt lat="46.01683" lon="6.92076">
        <ele>1368.0932617188</ele>
        <time>2010-06-27T06:54:55Z</time>
      </trkpt>
      <trkpt lat="46.01692" lon="6.92084">
        <ele>1366.1706542969</ele>
        <time>2010-06-27T06:54:59Z</time>
      </trkpt>
      <trkpt lat="46.017" lon="6.92086">
        <ele>1365.6901855469</ele>
        <time>2010-06-27T06:55:03Z</time>
      </trkpt>
      <trkpt lat="46.01709" lon="6.92088">
        <ele>1363.7673339844</ele>
        <time>2010-06-27T06:55:07Z</time>
      </trkpt>
      <trkpt lat="46.01712" lon="6.92088">
        <ele>1364.248046875</ele>
        <time>2010-06-27T06:55:08Z</time>
      </trkpt>
      <trkpt lat="46.01727" lon="6.92084">
        <ele>1369.5354003906</ele>
        <time>2010-06-27T06:55:13Z</time>
      </trkpt>
      <trkpt lat="46.01732" lon="6.92084">
        <ele>1372.9001464844</ele>
        <time>2010-06-27T06:55:15Z</time>
      </trkpt>
      <trkpt lat="46.01743" lon="6.92088">
        <ele>1376.2646484375</ele>
        <time>2010-06-27T06:55:20Z</time>
      </trkpt>
      <trkpt lat="46.01764" lon="6.92086">
        <ele>1381.0712890625</ele>
        <time>2010-06-27T06:55:27Z</time>
      </trkpt>
      <trkpt lat="46.01781" lon="6.92085">
        <ele>1382.9936523438</ele>
        <time>2010-06-27T06:55:33Z</time>
      </trkpt>
      <trkpt lat="46.01793" lon="6.92083">
        <ele>1382.5131835938</ele>
        <time>2010-06-27T06:55:38Z</time>
      </trkpt>
      <trkpt lat="46.01803" lon="6.92082">
        <ele>1383.4743652344</ele>
        <time>2010-06-27T06:55:42Z</time>
      </trkpt>
      <trkpt lat="46.01814" lon="6.9208">
        <ele>1382.9936523438</ele>
        <time>2010-06-27T06:55:46Z</time>
      </trkpt>
      <trkpt lat="46.01827" lon="6.92078">
        <ele>1382.9936523438</ele>
        <time>2010-06-27T06:55:51Z</time>
      </trkpt>
      <trkpt lat="46.01842" lon="6.92075">
        <ele>1379.6291503906</ele>
        <time>2010-06-27T06:55:56Z</time>
      </trkpt>
      <trkpt lat="46.01854" lon="6.92079">
        <ele>1374.8227539062</ele>
        <time>2010-06-27T06:56:00Z</time>
      </trkpt>
      <trkpt lat="46.01868" lon="6.9209">
        <ele>1367.6125488281</ele>
        <time>2010-06-27T06:56:05Z</time>
      </trkpt>
      <trkpt lat="46.01875" lon="6.92097">
        <ele>1363.7673339844</ele>
        <time>2010-06-27T06:56:08Z</time>
      </trkpt>
      <trkpt lat="46.01887" lon="6.92096">
        <ele>1362.8061523438</ele>
        <time>2010-06-27T06:56:13Z</time>
      </trkpt>
      <trkpt lat="46.019" lon="6.92107">
        <ele>1359.9221191406</ele>
        <time>2010-06-27T06:56:18Z</time>
      </trkpt>
      <trkpt lat="46.01915" lon="6.92125">
        <ele>1351.7509765625</ele>
        <time>2010-06-27T06:56:25Z</time>
      </trkpt>
      <trkpt lat="46.01933" lon="6.92142">
        <ele>1348.8669433594</ele>
        <time>2010-06-27T06:56:32Z</time>
      </trkpt>
      <trkpt lat="46.01938" lon="6.92145">
        <ele>1346.9443359375</ele>
        <time>2010-06-27T06:56:34Z</time>
      </trkpt>
      <trkpt lat="46.01951" lon="6.92156">
        <ele>1345.5024414062</ele>
        <time>2010-06-27T06:56:39Z</time>
      </trkpt>
      <trkpt lat="46.01964" lon="6.92174">
        <ele>1343.0991210938</ele>
        <time>2010-06-27T06:56:45Z</time>
      </trkpt>
      <trkpt lat="46.0197" lon="6.92181">
        <ele>1340.6958007812</ele>
        <time>2010-06-27T06:56:48Z</time>
      </trkpt>
      <trkpt lat="46.01978" lon="6.92185">
        <ele>1340.2153320312</ele>
        <time>2010-06-27T06:56:51Z</time>
      </trkpt>
      <trkpt lat="46.01992" lon="6.92187">
        <ele>1340.2153320312</ele>
        <time>2010-06-27T06:56:57Z</time>
      </trkpt>
      <trkpt lat="46.02009" lon="6.9219">
        <ele>1341.6572265625</ele>
        <time>2010-06-27T06:57:03Z</time>
      </trkpt>
      <trkpt lat="46.02025" lon="6.92193">
        <ele>1342.6186523438</ele>
        <time>2010-06-27T06:57:08Z</time>
      </trkpt>
      <trkpt lat="46.02037" lon="6.92198">
        <ele>1342.6186523438</ele>
        <time>2010-06-27T06:57:12Z</time>
      </trkpt>
      <trkpt lat="46.02049" lon="6.92205">
        <ele>1341.6572265625</ele>
        <time>2010-06-27T06:57:16Z</time>
      </trkpt>
      <trkpt lat="46.02056" lon="6.92209">
        <ele>1341.6572265625</ele>
        <time>2010-06-27T06:57:19Z</time>
      </trkpt>
      <trkpt lat="46.02074" lon="6.92218">
        <ele>1339.2536621094</ele>
        <time>2010-06-27T06:57:25Z</time>
      </trkpt>
      <trkpt lat="46.02083" lon="6.92223">
        <ele>1339.734375</ele>
        <time>2010-06-27T06:57:28Z</time>
      </trkpt>
      <trkpt lat="46.02093" lon="6.9223">
        <ele>1339.2536621094</ele>
        <time>2010-06-27T06:57:32Z</time>
      </trkpt>
      <trkpt lat="46.02104" lon="6.92234">
        <ele>1339.2536621094</ele>
        <time>2010-06-27T06:57:36Z</time>
      </trkpt>
      <trkpt lat="46.02116" lon="6.92242">
        <ele>1340.6958007812</ele>
        <time>2010-06-27T06:57:40Z</time>
      </trkpt>
      <trkpt lat="46.02128" lon="6.92253">
        <ele>1340.6958007812</ele>
        <time>2010-06-27T06:57:45Z</time>
      </trkpt>
      <trkpt lat="46.02139" lon="6.92261">
        <ele>1339.734375</ele>
        <time>2010-06-27T06:57:48Z</time>
      </trkpt>
      <trkpt lat="46.02145" lon="6.92266">
        <ele>1335.4084472656</ele>
        <time>2010-06-27T06:57:50Z</time>
      </trkpt>
      <trkpt lat="46.02155" lon="6.9228">
        <ele>1328.6794433594</ele>
        <time>2010-06-27T06:57:56Z</time>
      </trkpt>
      <trkpt lat="46.02162" lon="6.92287">
        <ele>1325.7954101562</ele>
        <time>2010-06-27T06:57:59Z</time>
      </trkpt>
      <trkpt lat="46.02173" lon="6.92299">
        <ele>1325.3146972656</ele>
        <time>2010-06-27T06:58:04Z</time>
      </trkpt>
      <trkpt lat="46.02184" lon="6.92307">
        <ele>1326.2761230469</ele>
        <time>2010-06-27T06:58:08Z</time>
      </trkpt>
      <trkpt lat="46.02199" lon="6.92321">
        <ele>1327.2375488281</ele>
        <time>2010-06-27T06:58:14Z</time>
      </trkpt>
      <trkpt lat="46.02209" lon="6.92328">
        <ele>1326.7568359375</ele>
        <time>2010-06-27T06:58:18Z</time>
      </trkpt>
      <trkpt lat="46.02217" lon="6.92335">
        <ele>1326.2761230469</ele>
        <time>2010-06-27T06:58:21Z</time>
      </trkpt>
      <trkpt lat="46.02227" lon="6.92343">
        <ele>1329.1599121094</ele>
        <time>2010-06-27T06:58:25Z</time>
      </trkpt>
      <trkpt lat="46.02239" lon="6.92352">
        <ele>1329.1599121094</ele>
        <time>2010-06-27T06:58:30Z</time>
      </trkpt>
      <trkpt lat="46.02255" lon="6.92366">
        <ele>1329.1599121094</ele>
        <time>2010-06-27T06:58:36Z</time>
      </trkpt>
      <trkpt lat="46.02263" lon="6.92372">
        <ele>1328.1987304688</ele>
        <time>2010-06-27T06:58:39Z</time>
      </trkpt>
      <trkpt lat="46.02277" lon="6.92385">
        <ele>1328.6794433594</ele>
        <time>2010-06-27T06:58:45Z</time>
      </trkpt>
      <trkpt lat="46.02284" lon="6.92392">
        <ele>1328.1987304688</ele>
        <time>2010-06-27T06:58:48Z</time>
      </trkpt>
      <trkpt lat="46.02293" lon="6.92399">
        <ele>1326.7568359375</ele>
        <time>2010-06-27T06:58:51Z</time>
      </trkpt>
      <trkpt lat="46.02306" lon="6.92412">
        <ele>1325.3146972656</ele>
        <time>2010-06-27T06:58:57Z</time>
      </trkpt>
      <trkpt lat="46.02315" lon="6.92421">
        <ele>1323.3920898438</ele>
        <time>2010-06-27T06:59:01Z</time>
      </trkpt>
      <trkpt lat="46.02327" lon="6.92433">
        <ele>1321.4692382812</ele>
        <time>2010-06-27T06:59:06Z</time>
      </trkpt>
      <trkpt lat="46.02338" lon="6.92445">
        <ele>1315.7016601562</ele>
        <time>2010-06-27T06:59:11Z</time>
      </trkpt>
      <trkpt lat="46.02349" lon="6.92452">
        <ele>1315.2209472656</ele>
        <time>2010-06-27T06:59:15Z</time>
      </trkpt>
      <trkpt lat="46.02364" lon="6.92457">
        <ele>1316.1821289062</ele>
        <time>2010-06-27T06:59:20Z</time>
      </trkpt>
      <trkpt lat="46.02367" lon="6.92457">
        <ele>1316.1821289062</ele>
        <time>2010-06-27T06:59:21Z</time>
      </trkpt>
      <trkpt lat="46.02374" lon="6.92467">
        <ele>1314.740234375</ele>
        <time>2010-06-27T06:59:25Z</time>
      </trkpt>
      <trkpt lat="46.02384" lon="6.92479">
        <ele>1316.1821289062</ele>
        <time>2010-06-27T06:59:30Z</time>
      </trkpt>
      <trkpt lat="46.02393" lon="6.92487">
        <ele>1315.7016601562</ele>
        <time>2010-06-27T06:59:34Z</time>
      </trkpt>
      <trkpt lat="46.02405" lon="6.92497">
        <ele>1314.740234375</ele>
        <time>2010-06-27T06:59:39Z</time>
      </trkpt>
      <trkpt lat="46.02415" lon="6.92505">
        <ele>1316.6628417969</ele>
        <time>2010-06-27T06:59:43Z</time>
      </trkpt>
      <trkpt lat="46.0242" lon="6.9251">
        <ele>1313.7788085938</ele>
        <time>2010-06-27T06:59:46Z</time>
      </trkpt>
      <trkpt lat="46.02426" lon="6.92525">
        <ele>1314.2595214844</ele>
        <time>2010-06-27T06:59:50Z</time>
      </trkpt>
      <trkpt lat="46.02428" lon="6.9254">
        <ele>1317.1435546875</ele>
        <time>2010-06-27T06:59:54Z</time>
      </trkpt>
      <trkpt lat="46.02432" lon="6.92556">
        <ele>1318.1047363281</ele>
        <time>2010-06-27T06:59:58Z</time>
      </trkpt>
      <trkpt lat="46.02435" lon="6.92567">
        <ele>1318.1047363281</ele>
        <time>2010-06-27T07:00:01Z</time>
      </trkpt>
      <trkpt lat="46.02439" lon="6.92578">
        <ele>1317.1435546875</ele>
        <time>2010-06-27T07:00:04Z</time>
      </trkpt>
      <trkpt lat="46.02443" lon="6.92584">
        <ele>1316.1821289062</ele>
        <time>2010-06-27T07:00:06Z</time>
      </trkpt>
      <trkpt lat="46.02448" lon="6.92601">
        <ele>1314.740234375</ele>
        <time>2010-06-27T07:00:11Z</time>
      </trkpt>
      <trkpt lat="46.02452" lon="6.92611">
        <ele>1313.7788085938</ele>
        <time>2010-06-27T07:00:14Z</time>
      </trkpt>
      <trkpt lat="46.02456" lon="6.92626">
        <ele>1312.8176269531</ele>
        <time>2010-06-27T07:00:19Z</time>
      </trkpt>
      <trkpt lat="46.02462" lon="6.9264">
        <ele>1312.8176269531</ele>
        <time>2010-06-27T07:00:23Z</time>
      </trkpt>
      <trkpt lat="46.02465" lon="6.92651">
        <ele>1313.2983398438</ele>
        <time>2010-06-27T07:00:26Z</time>
      </trkpt>
      <trkpt lat="46.0247" lon="6.92664">
        <ele>1311.8564453125</ele>
        <time>2010-06-27T07:00:30Z</time>
      </trkpt>
      <trkpt lat="46.02475" lon="6.92677">
        <ele>1310.8950195312</ele>
        <time>2010-06-27T07:00:34Z</time>
      </trkpt>
      <trkpt lat="46.02478" lon="6.92686">
        <ele>1310.4143066406</ele>
        <time>2010-06-27T07:00:37Z</time>
      </trkpt>
      <trkpt lat="46.02487" lon="6.92701">
        <ele>1309.93359375</ele>
        <time>2010-06-27T07:00:42Z</time>
      </trkpt>
      <trkpt lat="46.02494" lon="6.92712">
        <ele>1315.7016601562</ele>
        <time>2010-06-27T07:00:45Z</time>
      </trkpt>
      <trkpt lat="46.02499" lon="6.92717">
        <ele>1315.7016601562</ele>
        <time>2010-06-27T07:00:47Z</time>
      </trkpt>
      <trkpt lat="46.02503" lon="6.92721">
        <ele>1319.0661621094</ele>
        <time>2010-06-27T07:00:49Z</time>
      </trkpt>
      <trkpt lat="46.02511" lon="6.92725">
        <ele>1321.9499511719</ele>
        <time>2010-06-27T07:00:53Z</time>
      </trkpt>
      <trkpt lat="46.02525" lon="6.9273">
        <ele>1322.4306640625</ele>
        <time>2010-06-27T07:00:57Z</time>
      </trkpt>
      <trkpt lat="46.02529" lon="6.92733">
        <ele>1322.9113769531</ele>
        <time>2010-06-27T07:01:00Z</time>
      </trkpt>
      <trkpt lat="46.02538" lon="6.92738">
        <ele>1323.3920898438</ele>
        <time>2010-06-27T07:01:04Z</time>
      </trkpt>
      <trkpt lat="46.02547" lon="6.92743">
        <ele>1324.8342285156</ele>
        <time>2010-06-27T07:01:09Z</time>
      </trkpt>
      <trkpt lat="46.0256" lon="6.92749">
        <ele>1322.9113769531</ele>
        <time>2010-06-27T07:01:15Z</time>
      </trkpt>
      <trkpt lat="46.02571" lon="6.92756">
        <ele>1322.9113769531</ele>
        <time>2010-06-27T07:01:20Z</time>
      </trkpt>
      <trkpt lat="46.02582" lon="6.92762">
        <ele>1320.5080566406</ele>
        <time>2010-06-27T07:01:25Z</time>
      </trkpt>
      <trkpt lat="46.02596" lon="6.92766">
        <ele>1319.0661621094</ele>
        <time>2010-06-27T07:01:31Z</time>
      </trkpt>
      <trkpt lat="46.02598" lon="6.92766">
        <ele>1319.0661621094</ele>
        <time>2010-06-27T07:01:32Z</time>
      </trkpt>
      <trkpt lat="46.02611" lon="6.92766">
        <ele>1319.546875</ele>
        <time>2010-06-27T07:01:37Z</time>
      </trkpt>
      <trkpt lat="46.02625" lon="6.9277">
        <ele>1320.5080566406</ele>
        <time>2010-06-27T07:01:42Z</time>
      </trkpt>
      <trkpt lat="46.02638" lon="6.92778">
        <ele>1319.0661621094</ele>
        <time>2010-06-27T07:01:47Z</time>
      </trkpt>
      <trkpt lat="46.02653" lon="6.92789">
        <ele>1317.6240234375</ele>
        <time>2010-06-27T07:01:53Z</time>
      </trkpt>
      <trkpt lat="46.02663" lon="6.92797">
        <ele>1317.1435546875</ele>
        <time>2010-06-27T07:01:58Z</time>
      </trkpt>
      <trkpt lat="46.02679" lon="6.9281">
        <ele>1315.7016601562</ele>
        <time>2010-06-27T07:02:05Z</time>
      </trkpt>
      <trkpt lat="46.0269" lon="6.92816">
        <ele>1320.9887695312</ele>
        <time>2010-06-27T07:02:10Z</time>
      </trkpt>
      <trkpt lat="46.02707" lon="6.9282">
        <ele>1324.353515625</ele>
        <time>2010-06-27T07:02:16Z</time>
      </trkpt>
      <trkpt lat="46.0272" lon="6.92824">
        <ele>1325.3146972656</ele>
        <time>2010-06-27T07:02:21Z</time>
      </trkpt>
      <trkpt lat="46.02734" lon="6.9283">
        <ele>1326.2761230469</ele>
        <time>2010-06-27T07:02:26Z</time>
      </trkpt>
      <trkpt lat="46.0275" lon="6.92831">
        <ele>1325.3146972656</ele>
        <time>2010-06-27T07:02:31Z</time>
      </trkpt>
      <trkpt lat="46.02764" lon="6.92827">
        <ele>1323.8725585938</ele>
        <time>2010-06-27T07:02:36Z</time>
      </trkpt>
      <trkpt lat="46.02777" lon="6.92828">
        <ele>1321.4692382812</ele>
        <time>2010-06-27T07:02:41Z</time>
      </trkpt>
      <trkpt lat="46.02787" lon="6.92822">
        <ele>1320.5080566406</ele>
        <time>2010-06-27T07:02:45Z</time>
      </trkpt>
      <trkpt lat="46.02802" lon="6.92823">
        <ele>1316.6628417969</ele>
        <time>2010-06-27T07:02:50Z</time>
      </trkpt>
      <trkpt lat="46.02813" lon="6.92828">
        <ele>1313.2983398438</ele>
        <time>2010-06-27T07:02:54Z</time>
      </trkpt>
      <trkpt lat="46.02819" lon="6.92834">
        <ele>1310.8950195312</ele>
        <time>2010-06-27T07:02:58Z</time>
      </trkpt>
      <trkpt lat="46.02827" lon="6.92842">
        <ele>1307.5302734375</ele>
        <time>2010-06-27T07:03:01Z</time>
      </trkpt>
      <trkpt lat="46.02839" lon="6.92855">
        <ele>1300.8010253906</ele>
        <time>2010-06-27T07:03:05Z</time>
      </trkpt>
      <trkpt lat="46.0285" lon="6.92864">
        <ele>1299.3591308594</ele>
        <time>2010-06-27T07:03:08Z</time>
      </trkpt>
      <trkpt lat="46.02859" lon="6.92875">
        <ele>1296.4753417969</ele>
        <time>2010-06-27T07:03:12Z</time>
      </trkpt>
      <trkpt lat="46.0287" lon="6.92888">
        <ele>1294.0720214844</ele>
        <time>2010-06-27T07:03:17Z</time>
      </trkpt>
      <trkpt lat="46.0288" lon="6.92904">
        <ele>1287.8232421875</ele>
        <time>2010-06-27T07:03:22Z</time>
      </trkpt>
      <trkpt lat="46.02888" lon="6.92921">
        <ele>1286.8618164062</ele>
        <time>2010-06-27T07:03:27Z</time>
      </trkpt>
      <trkpt lat="46.029" lon="6.92934">
        <ele>1285.419921875</ele>
        <time>2010-06-27T07:03:32Z</time>
      </trkpt>
      <trkpt lat="46.02903" lon="6.92939">
        <ele>1285.419921875</ele>
        <time>2010-06-27T07:03:35Z</time>
      </trkpt>
      <trkpt lat="46.02908" lon="6.92944">
        <ele>1284.939453125</ele>
        <time>2010-06-27T07:03:39Z</time>
      </trkpt>
      <trkpt lat="46.02917" lon="6.9296">
        <ele>1285.9006347656</ele>
        <time>2010-06-27T07:03:44Z</time>
      </trkpt>
      <trkpt lat="46.02919" lon="6.92966">
        <ele>1285.9006347656</ele>
        <time>2010-06-27T07:03:46Z</time>
      </trkpt>
      <trkpt lat="46.02932" lon="6.92979">
        <ele>1286.3813476562</ele>
        <time>2010-06-27T07:03:51Z</time>
      </trkpt>
      <trkpt lat="46.02942" lon="6.92991">
        <ele>1283.9780273438</ele>
        <time>2010-06-27T07:03:55Z</time>
      </trkpt>
      <trkpt lat="46.0295" lon="6.92997">
        <ele>1283.4973144531</ele>
        <time>2010-06-27T07:03:57Z</time>
      </trkpt>
      <trkpt lat="46.0296" lon="6.93009">
        <ele>1282.5361328125</ele>
        <time>2010-06-27T07:04:01Z</time>
      </trkpt>
      <trkpt lat="46.02964" lon="6.93015">
        <ele>1282.5361328125</ele>
        <time>2010-06-27T07:04:03Z</time>
      </trkpt>
      <trkpt lat="46.02978" lon="6.93031">
        <ele>1279.6520996094</ele>
        <time>2010-06-27T07:04:09Z</time>
      </trkpt>
      <trkpt lat="46.02988" lon="6.93039">
        <ele>1278.2102050781</ele>
        <time>2010-06-27T07:04:13Z</time>
      </trkpt>
      <trkpt lat="46.02995" lon="6.93054">
        <ele>1281.0942382812</ele>
        <time>2010-06-27T07:04:18Z</time>
      </trkpt>
      <trkpt lat="46.02997" lon="6.93057">
        <ele>1281.0942382812</ele>
        <time>2010-06-27T07:04:19Z</time>
      </trkpt>
      <trkpt lat="46.03005" lon="6.9307">
        <ele>1281.5747070312</ele>
        <time>2010-06-27T07:04:23Z</time>
      </trkpt>
      <trkpt lat="46.03011" lon="6.93084">
        <ele>1280.6135253906</ele>
        <time>2010-06-27T07:04:27Z</time>
      </trkpt>
      <trkpt lat="46.03014" lon="6.93095">
        <ele>1282.5361328125</ele>
        <time>2010-06-27T07:04:30Z</time>
      </trkpt>
      <trkpt lat="46.03016" lon="6.93099">
        <ele>1282.5361328125</ele>
        <time>2010-06-27T07:04:31Z</time>
      </trkpt>
      <trkpt lat="46.0302" lon="6.9311">
        <ele>1283.4973144531</ele>
        <time>2010-06-27T07:04:34Z</time>
      </trkpt>
      <trkpt lat="46.03023" lon="6.93126">
        <ele>1282.5361328125</ele>
        <time>2010-06-27T07:04:38Z</time>
      </trkpt>
      <trkpt lat="46.03027" lon="6.93138">
        <ele>1281.5747070312</ele>
        <time>2010-06-27T07:04:41Z</time>
      </trkpt>
      <trkpt lat="46.03038" lon="6.93158">
        <ele>1280.6135253906</ele>
        <time>2010-06-27T07:04:47Z</time>
      </trkpt>
      <trkpt lat="46.03049" lon="6.93167">
        <ele>1280.6135253906</ele>
        <time>2010-06-27T07:04:52Z</time>
      </trkpt>
      <trkpt lat="46.0306" lon="6.93174">
        <ele>1280.1328125</ele>
        <time>2010-06-27T07:04:57Z</time>
      </trkpt>
      <trkpt lat="46.0307" lon="6.93179">
        <ele>1279.1713867188</ele>
        <time>2010-06-27T07:05:05Z</time>
      </trkpt>
      <trkpt lat="46.03075" lon="6.9318">
        <ele>1277.7294921875</ele>
        <time>2010-06-27T07:05:12Z</time>
      </trkpt>
      <trkpt lat="46.03078" lon="6.93181">
        <ele>1276.7683105469</ele>
        <time>2010-06-27T07:05:18Z</time>
      </trkpt>
      <trkpt lat="46.03078" lon="6.93181">
        <ele>1276.7683105469</ele>
        <time>2010-06-27T07:05:26Z</time>
      </trkpt>
      <trkpt lat="46.03078" lon="6.9318">
        <ele>1277.7294921875</ele>
        <time>2010-06-27T07:05:37Z</time>
      </trkpt>
      <trkpt lat="46.03078" lon="6.93183">
        <ele>1274.3647460938</ele>
        <time>2010-06-27T07:05:54Z</time>
      </trkpt>
      <trkpt lat="46.03079" lon="6.93183">
        <ele>1270.0388183594</ele>
        <time>2010-06-27T07:06:03Z</time>
      </trkpt>
      <trkpt lat="46.03079" lon="6.93184">
        <ele>1269.0776367188</ele>
        <time>2010-06-27T07:06:10Z</time>
      </trkpt>
      <trkpt lat="46.03079" lon="6.93184">
        <ele>1270.0388183594</ele>
        <time>2010-06-27T07:06:17Z</time>
      </trkpt>
      <trkpt lat="46.03079" lon="6.93183">
        <ele>1271.0002441406</ele>
        <time>2010-06-27T07:06:28Z</time>
      </trkpt>
      <trkpt lat="46.03078" lon="6.93183">
        <ele>1271.4807128906</ele>
        <time>2010-06-27T07:06:35Z</time>
      </trkpt>
      <trkpt lat="46.03079" lon="6.93185">
        <ele>1273.4035644531</ele>
        <time>2010-06-27T07:06:54Z</time>
      </trkpt>
      <trkpt lat="46.03081" lon="6.93188">
        <ele>1273.4035644531</ele>
        <time>2010-06-27T07:07:00Z</time>
      </trkpt>
      <trkpt lat="46.03083" lon="6.9319">
        <ele>1273.8840332031</ele>
        <time>2010-06-27T07:07:05Z</time>
      </trkpt>
      <trkpt lat="46.03088" lon="6.93193">
        <ele>1274.3647460938</ele>
        <time>2010-06-27T07:07:11Z</time>
      </trkpt>
      <trkpt lat="46.03094" lon="6.93201">
        <ele>1273.8840332031</ele>
        <time>2010-06-27T07:07:17Z</time>
      </trkpt>
      <trkpt lat="46.03102" lon="6.93213">
        <ele>1273.8840332031</ele>
        <time>2010-06-27T07:07:26Z</time>
      </trkpt>
      <trkpt lat="46.03108" lon="6.93222">
        <ele>1273.4035644531</ele>
        <time>2010-06-27T07:07:33Z</time>
      </trkpt>
      <trkpt lat="46.03115" lon="6.93229">
        <ele>1273.4035644531</ele>
        <time>2010-06-27T07:07:40Z</time>
      </trkpt>
      <trkpt lat="46.03125" lon="6.93237">
        <ele>1275.3259277344</ele>
        <time>2010-06-27T07:07:48Z</time>
      </trkpt>
      <trkpt lat="46.03136" lon="6.93249">
        <ele>1275.3259277344</ele>
        <time>2010-06-27T07:07:55Z</time>
      </trkpt>
      <trkpt lat="46.03146" lon="6.9326">
        <ele>1273.8840332031</ele>
        <time>2010-06-27T07:07:59Z</time>
      </trkpt>
      <trkpt lat="46.0315" lon="6.9327">
        <ele>1272.9228515625</ele>
        <time>2010-06-27T07:08:03Z</time>
      </trkpt>
      <trkpt lat="46.03157" lon="6.93276">
        <ele>1274.8454589844</ele>
        <time>2010-06-27T07:08:06Z</time>
      </trkpt>
      <trkpt lat="46.03169" lon="6.93289">
        <ele>1273.8840332031</ele>
        <time>2010-06-27T07:08:11Z</time>
      </trkpt>
      <trkpt lat="46.03175" lon="6.93296">
        <ele>1275.806640625</ele>
        <time>2010-06-27T07:08:14Z</time>
      </trkpt>
      <trkpt lat="46.03181" lon="6.93305">
        <ele>1275.3259277344</ele>
        <time>2010-06-27T07:08:17Z</time>
      </trkpt>
      <trkpt lat="46.03192" lon="6.93324">
        <ele>1273.8840332031</ele>
        <time>2010-06-27T07:08:23Z</time>
      </trkpt>
      <trkpt lat="46.03199" lon="6.93333">
        <ele>1272.4421386719</ele>
        <time>2010-06-27T07:08:26Z</time>
      </trkpt>
      <trkpt lat="46.03211" lon="6.9335">
        <ele>1269.5583496094</ele>
        <time>2010-06-27T07:08:32Z</time>
      </trkpt>
      <trkpt lat="46.03222" lon="6.9336">
        <ele>1269.0776367188</ele>
        <time>2010-06-27T07:08:38Z</time>
      </trkpt>
      <trkpt lat="46.03222" lon="6.93368">
        <ele>1270.51953125</ele>
        <time>2010-06-27T07:08:43Z</time>
      </trkpt>
      <trkpt lat="46.0322" lon="6.93373">
        <ele>1271.4807128906</ele>
        <time>2010-06-27T07:08:47Z</time>
      </trkpt>
      <trkpt lat="46.03217" lon="6.93379">
        <ele>1273.4035644531</ele>
        <time>2010-06-27T07:08:52Z</time>
      </trkpt>
      <trkpt lat="46.03211" lon="6.93385">
        <ele>1277.2490234375</ele>
        <time>2010-06-27T07:08:59Z</time>
      </trkpt>
      <trkpt lat="46.03205" lon="6.93392">
        <ele>1281.0942382812</ele>
        <time>2010-06-27T07:09:07Z</time>
      </trkpt>
      <trkpt lat="46.032" lon="6.93398">
        <ele>1284.4587402344</ele>
        <time>2010-06-27T07:09:14Z</time>
      </trkpt>
      <trkpt lat="46.03195" lon="6.93404">
        <ele>1287.3425292969</ele>
        <time>2010-06-27T07:09:21Z</time>
      </trkpt>
      <trkpt lat="46.03189" lon="6.93404">
        <ele>1289.2651367188</ele>
        <time>2010-06-27T07:09:27Z</time>
      </trkpt>
      <trkpt lat="46.03183" lon="6.93405">
        <ele>1291.1877441406</ele>
        <time>2010-06-27T07:09:34Z</time>
      </trkpt>
      <trkpt lat="46.03181" lon="6.93405">
        <ele>1291.6684570312</ele>
        <time>2010-06-27T07:09:35Z</time>
      </trkpt>
      <trkpt lat="46.03173" lon="6.934">
        <ele>1293.5913085938</ele>
        <time>2010-06-27T07:09:44Z</time>
      </trkpt>
      <trkpt lat="46.03168" lon="6.93399">
        <ele>1295.5139160156</ele>
        <time>2010-06-27T07:09:50Z</time>
      </trkpt>
      <trkpt lat="46.03163" lon="6.93401">
        <ele>1296.9558105469</ele>
        <time>2010-06-27T07:09:56Z</time>
      </trkpt>
      <trkpt lat="46.03159" lon="6.93405">
        <ele>1299.3591308594</ele>
        <time>2010-06-27T07:10:03Z</time>
      </trkpt>
      <trkpt lat="46.03154" lon="6.93406">
        <ele>1301.2817382812</ele>
        <time>2010-06-27T07:10:10Z</time>
      </trkpt>
      <trkpt lat="46.0315" lon="6.93404">
        <ele>1302.2429199219</ele>
        <time>2010-06-27T07:10:16Z</time>
      </trkpt>
      <trkpt lat="46.03144" lon="6.93403">
        <ele>1305.126953125</ele>
        <time>2010-06-27T07:10:23Z</time>
      </trkpt>
      <trkpt lat="46.03141" lon="6.93408">
        <ele>1307.5302734375</ele>
        <time>2010-06-27T07:10:30Z</time>
      </trkpt>
      <trkpt lat="46.03136" lon="6.93414">
        <ele>1309.93359375</ele>
        <time>2010-06-27T07:10:37Z</time>
      </trkpt>
      <trkpt lat="46.03134" lon="6.93417">
        <ele>1310.8950195312</ele>
        <time>2010-06-27T07:10:43Z</time>
      </trkpt>
      <trkpt lat="46.03131" lon="6.93415">
        <ele>1310.4143066406</ele>
        <time>2010-06-27T07:10:49Z</time>
      </trkpt>
      <trkpt lat="46.03129" lon="6.93409">
        <ele>1309.93359375</ele>
        <time>2010-06-27T07:10:56Z</time>
      </trkpt>
      <trkpt lat="46.03127" lon="6.93404">
        <ele>1309.93359375</ele>
        <time>2010-06-27T07:11:04Z</time>
      </trkpt>
      <trkpt lat="46.03126" lon="6.934">
        <ele>1310.4143066406</ele>
        <time>2010-06-27T07:11:10Z</time>
      </trkpt>
      <trkpt lat="46.03125" lon="6.93401">
        <ele>1308.9724121094</ele>
        <time>2010-06-27T07:11:18Z</time>
      </trkpt>
      <trkpt lat="46.03124" lon="6.93403">
        <ele>1308.0112304688</ele>
        <time>2010-06-27T07:11:25Z</time>
      </trkpt>
      <trkpt lat="46.03123" lon="6.93408">
        <ele>1308.0112304688</ele>
        <time>2010-06-27T07:11:30Z</time>
      </trkpt>
      <trkpt lat="46.03123" lon="6.93411">
        <ele>1308.4916992188</ele>
        <time>2010-06-27T07:11:37Z</time>
      </trkpt>
      <trkpt lat="46.03121" lon="6.93415">
        <ele>1311.8564453125</ele>
        <time>2010-06-27T07:11:44Z</time>
      </trkpt>
      <trkpt lat="46.03119" lon="6.93417">
        <ele>1312.8176269531</ele>
        <time>2010-06-27T07:11:48Z</time>
      </trkpt>
      <trkpt lat="46.03117" lon="6.93418">
        <ele>1314.740234375</ele>
        <time>2010-06-27T07:11:52Z</time>
      </trkpt>
      <trkpt lat="46.03116" lon="6.93422">
        <ele>1316.6628417969</ele>
        <time>2010-06-27T07:11:58Z</time>
      </trkpt>
      <trkpt lat="46.03114" lon="6.93425">
        <ele>1318.1047363281</ele>
        <time>2010-06-27T07:12:04Z</time>
      </trkpt>
      <trkpt lat="46.03112" lon="6.93429">
        <ele>1320.02734375</ele>
        <time>2010-06-27T07:12:10Z</time>
      </trkpt>
      <trkpt lat="46.03109" lon="6.9343">
        <ele>1321.4692382812</ele>
        <time>2010-06-27T07:12:16Z</time>
      </trkpt>
      <trkpt lat="46.03107" lon="6.93434">
        <ele>1321.9499511719</ele>
        <time>2010-06-27T07:12:21Z</time>
      </trkpt>
      <trkpt lat="46.03104" lon="6.93437">
        <ele>1322.9113769531</ele>
        <time>2010-06-27T07:12:26Z</time>
      </trkpt>
      <trkpt lat="46.03102" lon="6.9344">
        <ele>1324.353515625</ele>
        <time>2010-06-27T07:12:32Z</time>
      </trkpt>
      <trkpt lat="46.03098" lon="6.93431">
        <ele>1327.7180175781</ele>
        <time>2010-06-27T07:12:39Z</time>
      </trkpt>
      <trkpt lat="46.03098" lon="6.93429">
        <ele>1327.7180175781</ele>
        <time>2010-06-27T07:12:40Z</time>
      </trkpt>
      <trkpt lat="46.03094" lon="6.93425">
        <ele>1329.640625</ele>
        <time>2010-06-27T07:12:45Z</time>
      </trkpt>
      <trkpt lat="46.03089" lon="6.9343">
        <ele>1331.5632324219</ele>
        <time>2010-06-27T07:12:52Z</time>
      </trkpt>
      <trkpt lat="46.03085" lon="6.93438">
        <ele>1333.0051269531</ele>
        <time>2010-06-27T07:13:00Z</time>
      </trkpt>
      <trkpt lat="46.03082" lon="6.93446">
        <ele>1334.9279785156</ele>
        <time>2010-06-27T07:13:08Z</time>
      </trkpt>
      <trkpt lat="46.0308" lon="6.93451">
        <ele>1336.3698730469</ele>
        <time>2010-06-27T07:13:16Z</time>
      </trkpt>
      <trkpt lat="46.03077" lon="6.93457">
        <ele>1338.2924804688</ele>
        <time>2010-06-27T07:13:25Z</time>
      </trkpt>
      <trkpt lat="46.03075" lon="6.93462">
        <ele>1339.2536621094</ele>
        <time>2010-06-27T07:13:32Z</time>
      </trkpt>
      <trkpt lat="46.03073" lon="6.93465">
        <ele>1340.6958007812</ele>
        <time>2010-06-27T07:13:38Z</time>
      </trkpt>
      <trkpt lat="46.03074" lon="6.93469">
        <ele>1339.734375</ele>
        <time>2010-06-27T07:13:43Z</time>
      </trkpt>
      <trkpt lat="46.03071" lon="6.9347">
        <ele>1340.2153320312</ele>
        <time>2010-06-27T07:13:47Z</time>
      </trkpt>
      <trkpt lat="46.03068" lon="6.93471">
        <ele>1342.1379394531</ele>
        <time>2010-06-27T07:13:53Z</time>
      </trkpt>
      <trkpt lat="46.03064" lon="6.93476">
        <ele>1345.9831542969</ele>
        <time>2010-06-27T07:14:00Z</time>
      </trkpt>
      <trkpt lat="46.03064" lon="6.93481">
        <ele>1348.3862304688</ele>
        <time>2010-06-27T07:14:07Z</time>
      </trkpt>
      <trkpt lat="46.03064" lon="6.93481">
        <ele>1348.3862304688</ele>
        <time>2010-06-27T07:14:14Z</time>
      </trkpt>
      <trkpt lat="46.03064" lon="6.93483">
        <ele>1348.3862304688</ele>
        <time>2010-06-27T07:14:20Z</time>
      </trkpt>
      <trkpt lat="46.03063" lon="6.93487">
        <ele>1350.7895507812</ele>
        <time>2010-06-27T07:14:28Z</time>
      </trkpt>
      <trkpt lat="46.03064" lon="6.93491">
        <ele>1351.7509765625</ele>
        <time>2010-06-27T07:14:35Z</time>
      </trkpt>
      <trkpt lat="46.03065" lon="6.93496">
        <ele>1353.1928710938</ele>
        <time>2010-06-27T07:14:42Z</time>
      </trkpt>
      <trkpt lat="46.03064" lon="6.93502">
        <ele>1354.634765625</ele>
        <time>2010-06-27T07:14:50Z</time>
      </trkpt>
      <trkpt lat="46.03062" lon="6.93506">
        <ele>1355.5961914062</ele>
        <time>2010-06-27T07:14:55Z</time>
      </trkpt>
      <trkpt lat="46.03058" lon="6.93513">
        <ele>1358.4802246094</ele>
        <time>2010-06-27T07:15:01Z</time>
      </trkpt>
      <trkpt lat="46.03056" lon="6.93519">
        <ele>1359.4416503906</ele>
        <time>2010-06-27T07:15:07Z</time>
      </trkpt>
      <trkpt lat="46.03059" lon="6.93526">
        <ele>1360.4028320312</ele>
        <time>2010-06-27T07:15:14Z</time>
      </trkpt>
      <trkpt lat="46.03063" lon="6.93533">
        <ele>1362.3254394531</ele>
        <time>2010-06-27T07:15:20Z</time>
      </trkpt>
      <trkpt lat="46.03066" lon="6.9354">
        <ele>1365.6901855469</ele>
        <time>2010-06-27T07:15:28Z</time>
      </trkpt>
      <trkpt lat="46.03069" lon="6.93542">
        <ele>1364.248046875</ele>
        <time>2010-06-27T07:15:34Z</time>
      </trkpt>
      <trkpt lat="46.0307" lon="6.93549">
        <ele>1366.6513671875</ele>
        <time>2010-06-27T07:15:40Z</time>
      </trkpt>
      <trkpt lat="46.03071" lon="6.93551">
        <ele>1367.1320800781</ele>
        <time>2010-06-27T07:15:41Z</time>
      </trkpt>
      <trkpt lat="46.03075" lon="6.93561">
        <ele>1369.0546875</ele>
        <time>2010-06-27T07:15:47Z</time>
      </trkpt>
      <trkpt lat="46.03078" lon="6.93567">
        <ele>1373.861328125</ele>
        <time>2010-06-27T07:15:52Z</time>
      </trkpt>
      <trkpt lat="46.03082" lon="6.93571">
        <ele>1389.2424316406</ele>
        <time>2010-06-27T07:15:58Z</time>
      </trkpt>
      <trkpt lat="46.03083" lon="6.93572">
        <ele>1390.6843261719</ele>
        <time>2010-06-27T07:15:59Z</time>
      </trkpt>
      <trkpt lat="46.03093" lon="6.93582">
        <ele>1385.8776855469</ele>
        <time>2010-06-27T07:16:07Z</time>
      </trkpt>
      <trkpt lat="46.03096" lon="6.93586">
        <ele>1384.4357910156</ele>
        <time>2010-06-27T07:16:10Z</time>
      </trkpt>
      <trkpt lat="46.03101" lon="6.9359">
        <ele>1394.0490722656</ele>
        <time>2010-06-27T07:16:16Z</time>
      </trkpt>
      <trkpt lat="46.03106" lon="6.93595">
        <ele>1390.6843261719</ele>
        <time>2010-06-27T07:16:21Z</time>
      </trkpt>
      <trkpt lat="46.03117" lon="6.93596">
        <ele>1390.6843261719</ele>
        <time>2010-06-27T07:16:26Z</time>
      </trkpt>
      <trkpt lat="46.03125" lon="6.93602">
        <ele>1385.3969726562</ele>
        <time>2010-06-27T07:16:31Z</time>
      </trkpt>
      <trkpt lat="46.03126" lon="6.93605">
        <ele>1384.4357910156</ele>
        <time>2010-06-27T07:16:33Z</time>
      </trkpt>
      <trkpt lat="46.03131" lon="6.93616">
        <ele>1397.8942871094</ele>
        <time>2010-06-27T07:16:44Z</time>
      </trkpt>
      <trkpt lat="46.03133" lon="6.93623">
        <ele>1391.6457519531</ele>
        <time>2010-06-27T07:16:51Z</time>
      </trkpt>
      <trkpt lat="46.03137" lon="6.93622">
        <ele>1393.568359375</ele>
        <time>2010-06-27T07:16:56Z</time>
      </trkpt>
      <trkpt lat="46.03138" lon="6.93629">
        <ele>1388.28125</ele>
        <time>2010-06-27T07:17:01Z</time>
      </trkpt>
      <trkpt lat="46.03135" lon="6.93631">
        <ele>1387.8002929688</ele>
        <time>2010-06-27T07:17:05Z</time>
      </trkpt>
      <trkpt lat="46.03131" lon="6.93631">
        <ele>1389.2424316406</ele>
        <time>2010-06-27T07:17:10Z</time>
      </trkpt>
      <trkpt lat="46.0313" lon="6.93636">
        <ele>1387.3195800781</ele>
        <time>2010-06-27T07:17:15Z</time>
      </trkpt>
      <trkpt lat="46.03132" lon="6.93636">
        <ele>1394.5295410156</ele>
        <time>2010-06-27T07:17:22Z</time>
      </trkpt>
      <trkpt lat="46.03134" lon="6.93637">
        <ele>1397.8942871094</ele>
        <time>2010-06-27T07:17:27Z</time>
      </trkpt>
      <trkpt lat="46.03145" lon="6.93643">
        <ele>1389.7231445312</ele>
        <time>2010-06-27T07:17:35Z</time>
      </trkpt>
      <trkpt lat="46.03147" lon="6.93645">
        <ele>1388.28125</ele>
        <time>2010-06-27T07:17:37Z</time>
      </trkpt>
      <trkpt lat="46.03154" lon="6.93651">
        <ele>1388.7619628906</ele>
        <time>2010-06-27T07:17:44Z</time>
      </trkpt>
      <trkpt lat="46.03156" lon="6.93662">
        <ele>1392.1264648438</ele>
        <time>2010-06-27T07:17:52Z</time>
      </trkpt>
      <trkpt lat="46.03156" lon="6.93665">
        <ele>1393.0876464844</ele>
        <time>2010-06-27T07:17:54Z</time>
      </trkpt>
      <trkpt lat="46.03156" lon="6.93676">
        <ele>1397.4135742188</ele>
        <time>2010-06-27T07:18:00Z</time>
      </trkpt>
      <trkpt lat="46.03155" lon="6.93682">
        <ele>1412.3139648438</ele>
        <time>2010-06-27T07:18:08Z</time>
      </trkpt>
      <trkpt lat="46.03158" lon="6.93686">
        <ele>1426.7338867188</ele>
        <time>2010-06-27T07:18:14Z</time>
      </trkpt>
      <trkpt lat="46.03158" lon="6.93688">
        <ele>1427.6950683594</ele>
        <time>2010-06-27T07:18:16Z</time>
      </trkpt>
      <trkpt lat="46.03163" lon="6.93694">
        <ele>1444.5180664062</ele>
        <time>2010-06-27T07:18:23Z</time>
      </trkpt>
      <trkpt lat="46.03168" lon="6.93696">
        <ele>1453.1701660156</ele>
        <time>2010-06-27T07:18:30Z</time>
      </trkpt>
      <trkpt lat="46.03172" lon="6.93701">
        <ele>1453.1701660156</ele>
        <time>2010-06-27T07:18:36Z</time>
      </trkpt>
      <trkpt lat="46.03175" lon="6.93706">
        <ele>1459.8991699219</ele>
        <time>2010-06-27T07:18:43Z</time>
      </trkpt>
      <trkpt lat="46.03178" lon="6.93712">
        <ele>1465.1865234375</ele>
        <time>2010-06-27T07:18:48Z</time>
      </trkpt>
      <trkpt lat="46.03183" lon="6.93719">
        <ele>1459.4187011719</ele>
        <time>2010-06-27T07:18:53Z</time>
      </trkpt>
      <trkpt lat="46.03188" lon="6.93725">
        <ele>1450.2861328125</ele>
        <time>2010-06-27T07:18:58Z</time>
      </trkpt>
      <trkpt lat="46.03193" lon="6.93728">
        <ele>1453.6508789062</ele>
        <time>2010-06-27T07:19:01Z</time>
      </trkpt>
      <trkpt lat="46.03197" lon="6.93734">
        <ele>1450.2861328125</ele>
        <time>2010-06-27T07:19:07Z</time>
      </trkpt>
      <trkpt lat="46.03202" lon="6.93741">
        <ele>1443.5568847656</ele>
        <time>2010-06-27T07:19:12Z</time>
      </trkpt>
      <trkpt lat="46.03203" lon="6.93743">
        <ele>1443.5568847656</ele>
        <time>2010-06-27T07:19:14Z</time>
      </trkpt>
      <trkpt lat="46.03206" lon="6.93745">
        <ele>1446.4409179688</ele>
        <time>2010-06-27T07:19:16Z</time>
      </trkpt>
      <trkpt lat="46.03213" lon="6.9375">
        <ele>1463.2639160156</ele>
        <time>2010-06-27T07:19:23Z</time>
      </trkpt>
      <trkpt lat="46.03217" lon="6.93754">
        <ele>1462.783203125</ele>
        <time>2010-06-27T07:19:30Z</time>
      </trkpt>
      <trkpt lat="46.0322" lon="6.93762">
        <ele>1462.3024902344</ele>
        <time>2010-06-27T07:19:37Z</time>
      </trkpt>
      <trkpt lat="46.03221" lon="6.93763">
        <ele>1463.2639160156</ele>
        <time>2010-06-27T07:19:38Z</time>
      </trkpt>
      <trkpt lat="46.03228" lon="6.93771">
        <ele>1449.8054199219</ele>
        <time>2010-06-27T07:19:44Z</time>
      </trkpt>
      <trkpt lat="46.03231" lon="6.93776">
        <ele>1445.4794921875</ele>
        <time>2010-06-27T07:19:51Z</time>
      </trkpt>
      <trkpt lat="46.03234" lon="6.93777">
        <ele>1454.1315917969</ele>
        <time>2010-06-27T07:19:56Z</time>
      </trkpt>
      <trkpt lat="46.03234" lon="6.93781">
        <ele>1461.3413085938</ele>
        <time>2010-06-27T07:20:01Z</time>
      </trkpt>
      <trkpt lat="46.03238" lon="6.93782">
        <ele>1469.9931640625</ele>
        <time>2010-06-27T07:20:09Z</time>
      </trkpt>
      <trkpt lat="46.03242" lon="6.93783">
        <ele>1482.0095214844</ele>
        <time>2010-06-27T07:20:13Z</time>
      </trkpt>
      <trkpt lat="46.03246" lon="6.93786">
        <ele>1482.970703125</ele>
        <time>2010-06-27T07:20:18Z</time>
      </trkpt>
      <trkpt lat="46.03253" lon="6.93793">
        <ele>1480.0869140625</ele>
        <time>2010-06-27T07:20:27Z</time>
      </trkpt>
      <trkpt lat="46.03258" lon="6.93804">
        <ele>1460.3798828125</ele>
        <time>2010-06-27T07:20:34Z</time>
      </trkpt>
      <trkpt lat="46.03262" lon="6.93812">
        <ele>1453.1701660156</ele>
        <time>2010-06-27T07:20:42Z</time>
      </trkpt>
      <trkpt lat="46.03267" lon="6.93823">
        <ele>1445.9602050781</ele>
        <time>2010-06-27T07:20:48Z</time>
      </trkpt>
      <trkpt lat="46.03269" lon="6.93827">
        <ele>1444.0375976562</ele>
        <time>2010-06-27T07:20:51Z</time>
      </trkpt>
      <trkpt lat="46.03275" lon="6.93834">
        <ele>1438.2697753906</ele>
        <time>2010-06-27T07:20:57Z</time>
      </trkpt>
      <trkpt lat="46.03279" lon="6.9384">
        <ele>1439.2309570312</ele>
        <time>2010-06-27T07:21:02Z</time>
      </trkpt>
      <trkpt lat="46.03288" lon="6.93848">
        <ele>1442.595703125</ele>
        <time>2010-06-27T07:21:09Z</time>
      </trkpt>
      <trkpt lat="46.03293" lon="6.93854">
        <ele>1453.1701660156</ele>
        <time>2010-06-27T07:21:17Z</time>
      </trkpt>
      <trkpt lat="46.03299" lon="6.93859">
        <ele>1459.8991699219</ele>
        <time>2010-06-27T07:21:23Z</time>
      </trkpt>
      <trkpt lat="46.03303" lon="6.93859">
        <ele>1467.5895996094</ele>
        <time>2010-06-27T07:21:28Z</time>
      </trkpt>
      <trkpt lat="46.03312" lon="6.93864">
        <ele>1448.36328125</ele>
        <time>2010-06-27T07:21:44Z</time>
      </trkpt>
      <trkpt lat="46.03317" lon="6.9387">
        <ele>1437.7890625</ele>
        <time>2010-06-27T07:21:55Z</time>
      </trkpt>
      <trkpt lat="46.03323" lon="6.93875">
        <ele>1424.8112792969</ele>
        <time>2010-06-27T07:22:00Z</time>
      </trkpt>
      <trkpt lat="46.03329" lon="6.93885">
        <ele>1416.1591796875</ele>
        <time>2010-06-27T07:22:07Z</time>
      </trkpt>
      <trkpt lat="46.03334" lon="6.93892">
        <ele>1416.6398925781</ele>
        <time>2010-06-27T07:22:14Z</time>
      </trkpt>
      <trkpt lat="46.03339" lon="6.93898">
        <ele>1409.4301757812</ele>
        <time>2010-06-27T07:22:19Z</time>
      </trkpt>
      <trkpt lat="46.03344" lon="6.93904">
        <ele>1406.5461425781</ele>
        <time>2010-06-27T07:22:25Z</time>
      </trkpt>
      <trkpt lat="46.03349" lon="6.93909">
        <ele>1416.1591796875</ele>
        <time>2010-06-27T07:22:31Z</time>
      </trkpt>
      <trkpt lat="46.03354" lon="6.93913">
        <ele>1430.5791015625</ele>
        <time>2010-06-27T07:22:37Z</time>
      </trkpt>
      <trkpt lat="46.03358" lon="6.93913">
        <ele>1452.2087402344</ele>
        <time>2010-06-27T07:22:41Z</time>
      </trkpt>
      <trkpt lat="46.03363" lon="6.93914">
        <ele>1460.8605957031</ele>
        <time>2010-06-27T07:22:47Z</time>
      </trkpt>
      <trkpt lat="46.03368" lon="6.9392">
        <ele>1460.8605957031</ele>
        <time>2010-06-27T07:22:53Z</time>
      </trkpt>
      <trkpt lat="46.03371" lon="6.93926">
        <ele>1450.2861328125</ele>
        <time>2010-06-27T07:22:57Z</time>
      </trkpt>
      <trkpt lat="46.03372" lon="6.93927">
        <ele>1450.2861328125</ele>
        <time>2010-06-27T07:22:58Z</time>
      </trkpt>
      <trkpt lat="46.03378" lon="6.9393">
        <ele>1444.5180664062</ele>
        <time>2010-06-27T07:23:04Z</time>
      </trkpt>
      <trkpt lat="46.03381" lon="6.93934">
        <ele>1487.7775878906</ele>
        <time>2010-06-27T07:23:20Z</time>
      </trkpt>
      <trkpt lat="46.03384" lon="6.93941">
        <ele>1475.7609863281</ele>
        <time>2010-06-27T07:23:31Z</time>
      </trkpt>
      <trkpt lat="46.03386" lon="6.93945">
        <ele>1474.3190917969</ele>
        <time>2010-06-27T07:23:37Z</time>
      </trkpt>
      <trkpt lat="46.03389" lon="6.93948">
        <ele>1471.9157714844</ele>
        <time>2010-06-27T07:23:43Z</time>
      </trkpt>
      <trkpt lat="46.0339" lon="6.93953">
        <ele>1471.9157714844</ele>
        <time>2010-06-27T07:23:49Z</time>
      </trkpt>
      <trkpt lat="46.03388" lon="6.93955">
        <ele>1476.2416992188</ele>
        <time>2010-06-27T07:23:53Z</time>
      </trkpt>
      <trkpt lat="46.03383" lon="6.93953">
        <ele>1489.2194824219</ele>
        <time>2010-06-27T07:23:59Z</time>
      </trkpt>
      <trkpt lat="46.03378" lon="6.93954">
        <ele>1491.1420898438</ele>
        <time>2010-06-27T07:24:04Z</time>
      </trkpt>
      <trkpt lat="46.03381" lon="6.93956">
        <ele>1492.103515625</ele>
        <time>2010-06-27T07:24:09Z</time>
      </trkpt>
      <trkpt lat="46.03383" lon="6.93961">
        <ele>1488.2583007812</ele>
        <time>2010-06-27T07:24:15Z</time>
      </trkpt>
      <trkpt lat="46.03385" lon="6.93964">
        <ele>1489.2194824219</ele>
        <time>2010-06-27T07:24:20Z</time>
      </trkpt>
      <trkpt lat="46.03386" lon="6.93967">
        <ele>1490.1809082031</ele>
        <time>2010-06-27T07:24:25Z</time>
      </trkpt>
      <trkpt lat="46.03389" lon="6.93971">
        <ele>1483.9321289062</ele>
        <time>2010-06-27T07:24:30Z</time>
      </trkpt>
      <trkpt lat="46.03395" lon="6.93975">
        <ele>1480.5676269531</ele>
        <time>2010-06-27T07:24:35Z</time>
      </trkpt>
      <trkpt lat="46.03401" lon="6.93981">
        <ele>1481.0483398438</ele>
        <time>2010-06-27T07:24:41Z</time>
      </trkpt>
      <trkpt lat="46.03403" lon="6.93983">
        <ele>1479.1254882812</ele>
        <time>2010-06-27T07:24:44Z</time>
      </trkpt>
      <trkpt lat="46.03411" lon="6.93988">
        <ele>1471.9157714844</ele>
        <time>2010-06-27T07:24:50Z</time>
      </trkpt>
      <trkpt lat="46.03414" lon="6.93992">
        <ele>1473.8383789062</ele>
        <time>2010-06-27T07:24:53Z</time>
      </trkpt>
      <trkpt lat="46.03418" lon="6.93995">
        <ele>1483.4514160156</ele>
        <time>2010-06-27T07:25:00Z</time>
      </trkpt>
      <trkpt lat="46.03419" lon="6.93996">
        <ele>1484.8937988281</ele>
        <time>2010-06-27T07:25:02Z</time>
      </trkpt>
      <trkpt lat="46.03426" lon="6.93999">
        <ele>1489.7001953125</ele>
        <time>2010-06-27T07:25:08Z</time>
      </trkpt>
      <trkpt lat="46.03432" lon="6.94005">
        <ele>1484.8937988281</ele>
        <time>2010-06-27T07:25:13Z</time>
      </trkpt>
      <trkpt lat="46.03436" lon="6.9401">
        <ele>1486.8161621094</ele>
        <time>2010-06-27T07:25:18Z</time>
      </trkpt>
      <trkpt lat="46.03441" lon="6.94013">
        <ele>1491.1420898438</ele>
        <time>2010-06-27T07:25:23Z</time>
      </trkpt>
      <trkpt lat="46.03442" lon="6.94015">
        <ele>1493.5454101562</ele>
        <time>2010-06-27T07:25:24Z</time>
      </trkpt>
      <trkpt lat="46.03447" lon="6.94022">
        <ele>1496.9099121094</ele>
        <time>2010-06-27T07:25:32Z</time>
      </trkpt>
      <trkpt lat="46.0345" lon="6.94026">
        <ele>1493.5454101562</ele>
        <time>2010-06-27T07:25:37Z</time>
      </trkpt>
      <trkpt lat="46.03452" lon="6.94031">
        <ele>1497.8713378906</ele>
        <time>2010-06-27T07:25:42Z</time>
      </trkpt>
      <trkpt lat="46.03458" lon="6.94035">
        <ele>1493.0646972656</ele>
        <time>2010-06-27T07:25:49Z</time>
      </trkpt>
      <trkpt lat="46.03462" lon="6.94038">
        <ele>1496.4294433594</ele>
        <time>2010-06-27T07:25:54Z</time>
      </trkpt>
      <trkpt lat="46.03466" lon="6.94042">
        <ele>1502.6779785156</ele>
        <time>2010-06-27T07:26:00Z</time>
      </trkpt>
      <trkpt lat="46.03469" lon="6.94048">
        <ele>1502.197265625</ele>
        <time>2010-06-27T07:26:06Z</time>
      </trkpt>
      <trkpt lat="46.03471" lon="6.94051">
        <ele>1512.7717285156</ele>
        <time>2010-06-27T07:26:12Z</time>
      </trkpt>
      <trkpt lat="46.03475" lon="6.94056">
        <ele>1518.5397949219</ele>
        <time>2010-06-27T07:26:18Z</time>
      </trkpt>
      <trkpt lat="46.03478" lon="6.94059">
        <ele>1523.8269042969</ele>
        <time>2010-06-27T07:26:23Z</time>
      </trkpt>
      <trkpt lat="46.03481" lon="6.94063">
        <ele>1522.8657226562</ele>
        <time>2010-06-27T07:26:29Z</time>
      </trkpt>
      <trkpt lat="46.03485" lon="6.94064">
        <ele>1522.8657226562</ele>
        <time>2010-06-27T07:26:35Z</time>
      </trkpt>
      <trkpt lat="46.0349" lon="6.94066">
        <ele>1521.4235839844</ele>
        <time>2010-06-27T07:26:42Z</time>
      </trkpt>
      <trkpt lat="46.03493" lon="6.94067">
        <ele>1521.904296875</ele>
        <time>2010-06-27T07:26:48Z</time>
      </trkpt>
      <trkpt lat="46.03497" lon="6.94066">
        <ele>1520.4624023438</ele>
        <time>2010-06-27T07:26:54Z</time>
      </trkpt>
      <trkpt lat="46.035" lon="6.94069">
        <ele>1523.8269042969</ele>
        <time>2010-06-27T07:27:00Z</time>
      </trkpt>
      <trkpt lat="46.03503" lon="6.94076">
        <ele>1526.7109375</ele>
        <time>2010-06-27T07:27:06Z</time>
      </trkpt>
      <trkpt lat="46.03502" lon="6.9408">
        <ele>1528.1528320312</ele>
        <time>2010-06-27T07:27:09Z</time>
      </trkpt>
      <trkpt lat="46.03496" lon="6.94085">
        <ele>1530.0754394531</ele>
        <time>2010-06-27T07:27:18Z</time>
      </trkpt>
      <trkpt lat="46.03495" lon="6.9409">
        <ele>1532.9594726562</ele>
        <time>2010-06-27T07:27:24Z</time>
      </trkpt>
      <trkpt lat="46.03495" lon="6.94098">
        <ele>1533.9208984375</ele>
        <time>2010-06-27T07:27:32Z</time>
      </trkpt>
      <trkpt lat="46.03497" lon="6.94104">
        <ele>1535.8435058594</ele>
        <time>2010-06-27T07:27:38Z</time>
      </trkpt>
      <trkpt lat="46.03496" lon="6.94111">
        <ele>1539.2080078125</ele>
        <time>2010-06-27T07:27:43Z</time>
      </trkpt>
      <trkpt lat="46.03494" lon="6.94117">
        <ele>1544.4951171875</ele>
        <time>2010-06-27T07:27:47Z</time>
      </trkpt>
      <trkpt lat="46.03492" lon="6.9412">
        <ele>1548.3405761719</ele>
        <time>2010-06-27T07:27:51Z</time>
      </trkpt>
      <trkpt lat="46.03489" lon="6.94121">
        <ele>1550.7438964844</ele>
        <time>2010-06-27T07:27:56Z</time>
      </trkpt>
      <trkpt lat="46.03489" lon="6.94124">
        <ele>1550.2634277344</ele>
        <time>2010-06-27T07:28:01Z</time>
      </trkpt>
      <trkpt lat="46.03492" lon="6.94128">
        <ele>1549.7827148438</ele>
        <time>2010-06-27T07:28:06Z</time>
      </trkpt>
      <trkpt lat="46.03496" lon="6.94132">
        <ele>1550.7438964844</ele>
        <time>2010-06-27T07:28:12Z</time>
      </trkpt>
      <trkpt lat="46.03502" lon="6.94137">
        <ele>1549.3020019531</ele>
        <time>2010-06-27T07:28:20Z</time>
      </trkpt>
      <trkpt lat="46.03505" lon="6.94139">
        <ele>1545.4565429688</ele>
        <time>2010-06-27T07:28:25Z</time>
      </trkpt>
      <trkpt lat="46.03507" lon="6.94139">
        <ele>1544.0146484375</ele>
        <time>2010-06-27T07:28:30Z</time>
      </trkpt>
      <trkpt lat="46.03511" lon="6.94143">
        <ele>1545.4565429688</ele>
        <time>2010-06-27T07:28:37Z</time>
      </trkpt>
      <trkpt lat="46.03513" lon="6.94148">
        <ele>1547.8598632812</ele>
        <time>2010-06-27T07:28:42Z</time>
      </trkpt>
      <trkpt lat="46.03513" lon="6.94152">
        <ele>1546.41796875</ele>
        <time>2010-06-27T07:28:47Z</time>
      </trkpt>
      <trkpt lat="46.03516" lon="6.9416">
        <ele>1543.5339355469</ele>
        <time>2010-06-27T07:28:55Z</time>
      </trkpt>
      <trkpt lat="46.03521" lon="6.9416">
        <ele>1538.2468261719</ele>
        <time>2010-06-27T07:29:01Z</time>
      </trkpt>
      <trkpt lat="46.03524" lon="6.94165">
        <ele>1534.4016113281</ele>
        <time>2010-06-27T07:29:05Z</time>
      </trkpt>
      <trkpt lat="46.03526" lon="6.94173">
        <ele>1540.1694335938</ele>
        <time>2010-06-27T07:29:10Z</time>
      </trkpt>
      <trkpt lat="46.0353" lon="6.94178">
        <ele>1545.9372558594</ele>
        <time>2010-06-27T07:29:14Z</time>
      </trkpt>
      <trkpt lat="46.03533" lon="6.94184">
        <ele>1556.9924316406</ele>
        <time>2010-06-27T07:29:19Z</time>
      </trkpt>
      <trkpt lat="46.03536" lon="6.94193">
        <ele>1562.2795410156</ele>
        <time>2010-06-27T07:29:27Z</time>
      </trkpt>
      <trkpt lat="46.03537" lon="6.942">
        <ele>1577.6606445312</ele>
        <time>2010-06-27T07:29:35Z</time>
      </trkpt>
      <trkpt lat="46.0354" lon="6.94204">
        <ele>1579.5832519531</ele>
        <time>2010-06-27T07:29:40Z</time>
      </trkpt>
      <trkpt lat="46.03548" lon="6.94212">
        <ele>1575.2573242188</ele>
        <time>2010-06-27T07:29:50Z</time>
      </trkpt>
      <trkpt lat="46.03553" lon="6.94221">
        <ele>1574.2961425781</ele>
        <time>2010-06-27T07:30:00Z</time>
      </trkpt>
      <trkpt lat="46.03558" lon="6.94224">
        <ele>1576.21875</ele>
        <time>2010-06-27T07:30:10Z</time>
      </trkpt>
      <trkpt lat="46.03559" lon="6.94228">
        <ele>1573.3349609375</ele>
        <time>2010-06-27T07:30:16Z</time>
      </trkpt>
      <trkpt lat="46.03562" lon="6.94232">
        <ele>1564.6831054688</ele>
        <time>2010-06-27T07:30:26Z</time>
      </trkpt>
      <trkpt lat="46.03565" lon="6.94235">
        <ele>1570.4509277344</ele>
        <time>2010-06-27T07:30:33Z</time>
      </trkpt>
      <trkpt lat="46.03568" lon="6.94241">
        <ele>1581.5061035156</ele>
        <time>2010-06-27T07:30:40Z</time>
      </trkpt>
      <trkpt lat="46.03572" lon="6.94243">
        <ele>1583.9094238281</ele>
        <time>2010-06-27T07:30:49Z</time>
      </trkpt>
      <trkpt lat="46.03577" lon="6.94247">
        <ele>1580.0642089844</ele>
        <time>2010-06-27T07:30:58Z</time>
      </trkpt>
      <trkpt lat="46.03582" lon="6.94251">
        <ele>1582.4675292969</ele>
        <time>2010-06-27T07:31:03Z</time>
      </trkpt>
      <trkpt lat="46.03588" lon="6.94257">
        <ele>1581.9868164062</ele>
        <time>2010-06-27T07:31:09Z</time>
      </trkpt>
      <trkpt lat="46.03592" lon="6.94265">
        <ele>1585.83203125</ele>
        <time>2010-06-27T07:31:16Z</time>
      </trkpt>
      <trkpt lat="46.03592" lon="6.9427">
        <ele>1598.8098144531</ele>
        <time>2010-06-27T07:31:22Z</time>
      </trkpt>
      <trkpt lat="46.03591" lon="6.94277">
        <ele>1597.3679199219</ele>
        <time>2010-06-27T07:31:28Z</time>
      </trkpt>
      <trkpt lat="46.03596" lon="6.94282">
        <ele>1598.3291015625</ele>
        <time>2010-06-27T07:31:34Z</time>
      </trkpt>
      <trkpt lat="46.03598" lon="6.94287">
        <ele>1604.5776367188</ele>
        <time>2010-06-27T07:31:39Z</time>
      </trkpt>
      <trkpt lat="46.03599" lon="6.94288">
        <ele>1603.6164550781</ele>
        <time>2010-06-27T07:31:40Z</time>
      </trkpt>
      <trkpt lat="46.03604" lon="6.94291">
        <ele>1594.9643554688</ele>
        <time>2010-06-27T07:31:46Z</time>
      </trkpt>
      <trkpt lat="46.03606" lon="6.94296">
        <ele>1591.5998535156</ele>
        <time>2010-06-27T07:31:52Z</time>
      </trkpt>
      <trkpt lat="46.03609" lon="6.943">
        <ele>1584.8708496094</ele>
        <time>2010-06-27T07:31:59Z</time>
      </trkpt>
      <trkpt lat="46.03612" lon="6.94304">
        <ele>1589.6772460938</ele>
        <time>2010-06-27T07:32:06Z</time>
      </trkpt>
      <trkpt lat="46.03607" lon="6.94307">
        <ele>1593.0417480469</ele>
        <time>2010-06-27T07:32:14Z</time>
      </trkpt>
      <trkpt lat="46.03605" lon="6.94308">
        <ele>1594.0031738281</ele>
        <time>2010-06-27T07:32:16Z</time>
      </trkpt>
      <trkpt lat="46.03601" lon="6.94306">
        <ele>1595.4450683594</ele>
        <time>2010-06-27T07:32:19Z</time>
      </trkpt>
      <trkpt lat="46.03596" lon="6.94308">
        <ele>1595.92578125</ele>
        <time>2010-06-27T07:32:23Z</time>
      </trkpt>
      <trkpt lat="46.03591" lon="6.94308">
        <ele>1597.8486328125</ele>
        <time>2010-06-27T07:32:30Z</time>
      </trkpt>
      <trkpt lat="46.03583" lon="6.94307">
        <ele>1600.251953125</ele>
        <time>2010-06-27T07:32:37Z</time>
      </trkpt>
      <trkpt lat="46.03578" lon="6.94307">
        <ele>1600.251953125</ele>
        <time>2010-06-27T07:32:42Z</time>
      </trkpt>
      <trkpt lat="46.03575" lon="6.94306">
        <ele>1604.0971679688</ele>
        <time>2010-06-27T07:32:49Z</time>
      </trkpt>
      <trkpt lat="46.03572" lon="6.94303">
        <ele>1604.0971679688</ele>
        <time>2010-06-27T07:32:54Z</time>
      </trkpt>
      <trkpt lat="46.03569" lon="6.94301">
        <ele>1605.5390625</ele>
        <time>2010-06-27T07:33:01Z</time>
      </trkpt>
      <trkpt lat="46.03561" lon="6.94304">
        <ele>1605.0583496094</ele>
        <time>2010-06-27T07:33:09Z</time>
      </trkpt>
      <trkpt lat="46.03555" lon="6.94305">
        <ele>1608.9035644531</ele>
        <time>2010-06-27T07:33:15Z</time>
      </trkpt>
      <trkpt lat="46.0355" lon="6.94307">
        <ele>1609.8647460938</ele>
        <time>2010-06-27T07:33:22Z</time>
      </trkpt>
      <trkpt lat="46.03545" lon="6.94309">
        <ele>1609.3842773438</ele>
        <time>2010-06-27T07:33:28Z</time>
      </trkpt>
      <trkpt lat="46.03543" lon="6.9431">
        <ele>1606.01953125</ele>
        <time>2010-06-27T07:33:34Z</time>
      </trkpt>
      <trkpt lat="46.03548" lon="6.94314">
        <ele>1601.2131347656</ele>
        <time>2010-06-27T07:33:40Z</time>
      </trkpt>
      <trkpt lat="46.03551" lon="6.94321">
        <ele>1610.3454589844</ele>
        <time>2010-06-27T07:33:46Z</time>
      </trkpt>
      <trkpt lat="46.03551" lon="6.94322">
        <ele>1612.7490234375</ele>
        <time>2010-06-27T07:33:47Z</time>
      </trkpt>
      <trkpt lat="46.03556" lon="6.94327">
        <ele>1625.7265625</ele>
        <time>2010-06-27T07:33:54Z</time>
      </trkpt>
      <trkpt lat="46.03558" lon="6.94331">
        <ele>1630.5334472656</ele>
        <time>2010-06-27T07:34:00Z</time>
      </trkpt>
      <trkpt lat="46.03562" lon="6.94335">
        <ele>1626.2072753906</ele>
        <time>2010-06-27T07:34:06Z</time>
      </trkpt>
      <trkpt lat="46.03564" lon="6.9434">
        <ele>1623.8039550781</ele>
        <time>2010-06-27T07:34:12Z</time>
      </trkpt>
      <trkpt lat="46.03568" lon="6.94346">
        <ele>1623.8039550781</ele>
        <time>2010-06-27T07:34:18Z</time>
      </trkpt>
      <trkpt lat="46.03569" lon="6.94352">
        <ele>1627.1687011719</ele>
        <time>2010-06-27T07:34:23Z</time>
      </trkpt>
      <trkpt lat="46.03572" lon="6.94356">
        <ele>1629.5720214844</ele>
        <time>2010-06-27T07:34:28Z</time>
      </trkpt>
      <trkpt lat="46.03573" lon="6.9436">
        <ele>1632.4560546875</ele>
        <time>2010-06-27T07:34:33Z</time>
      </trkpt>
      <trkpt lat="46.03574" lon="6.94364">
        <ele>1634.3786621094</ele>
        <time>2010-06-27T07:34:38Z</time>
      </trkpt>
      <trkpt lat="46.03577" lon="6.94368">
        <ele>1631.0141601562</ele>
        <time>2010-06-27T07:34:43Z</time>
      </trkpt>
      <trkpt lat="46.03581" lon="6.94375">
        <ele>1627.6491699219</ele>
        <time>2010-06-27T07:34:49Z</time>
      </trkpt>
      <trkpt lat="46.03584" lon="6.9438">
        <ele>1629.5720214844</ele>
        <time>2010-06-27T07:34:53Z</time>
      </trkpt>
      <trkpt lat="46.03591" lon="6.94386">
        <ele>1636.7817382812</ele>
        <time>2010-06-27T07:34:58Z</time>
      </trkpt>
      <trkpt lat="46.03592" lon="6.94387">
        <ele>1637.2624511719</ele>
        <time>2010-06-27T07:34:59Z</time>
      </trkpt>
      <trkpt lat="46.03595" lon="6.94396">
        <ele>1634.3786621094</ele>
        <time>2010-06-27T07:35:07Z</time>
      </trkpt>
      <trkpt lat="46.03599" lon="6.94402">
        <ele>1636.7817382812</ele>
        <time>2010-06-27T07:35:13Z</time>
      </trkpt>
      <trkpt lat="46.03602" lon="6.94409">
        <ele>1636.3012695312</ele>
        <time>2010-06-27T07:35:19Z</time>
      </trkpt>
      <trkpt lat="46.03602" lon="6.94417">
        <ele>1640.626953125</ele>
        <time>2010-06-27T07:35:26Z</time>
      </trkpt>
      <trkpt lat="46.03605" lon="6.94422">
        <ele>1639.1850585938</ele>
        <time>2010-06-27T07:35:33Z</time>
      </trkpt>
      <trkpt lat="46.03609" lon="6.94426">
        <ele>1641.1076660156</ele>
        <time>2010-06-27T07:35:38Z</time>
      </trkpt>
      <trkpt lat="46.03611" lon="6.9443">
        <ele>1644.953125</ele>
        <time>2010-06-27T07:35:43Z</time>
      </trkpt>
      <trkpt lat="46.03613" lon="6.94439">
        <ele>1649.759765625</ele>
        <time>2010-06-27T07:35:49Z</time>
      </trkpt>
      <trkpt lat="46.03615" lon="6.94443">
        <ele>1649.759765625</ele>
        <time>2010-06-27T07:35:53Z</time>
      </trkpt>
      <trkpt lat="46.03619" lon="6.9445">
        <ele>1657.4501953125</ele>
        <time>2010-06-27T07:36:01Z</time>
      </trkpt>
      <trkpt lat="46.03622" lon="6.94455">
        <ele>1656.9694824219</ele>
        <time>2010-06-27T07:36:07Z</time>
      </trkpt>
      <trkpt lat="46.03625" lon="6.9446">
        <ele>1658.8920898438</ele>
        <time>2010-06-27T07:36:13Z</time>
      </trkpt>
      <trkpt lat="46.0363" lon="6.94465">
        <ele>1659.8532714844</ele>
        <time>2010-06-27T07:36:20Z</time>
      </trkpt>
      <trkpt lat="46.03634" lon="6.94469">
        <ele>1658.8920898438</ele>
        <time>2010-06-27T07:36:27Z</time>
      </trkpt>
      <trkpt lat="46.03639" lon="6.94476">
        <ele>1656.9694824219</ele>
        <time>2010-06-27T07:36:35Z</time>
      </trkpt>
      <trkpt lat="46.03642" lon="6.94481">
        <ele>1660.8149414062</ele>
        <time>2010-06-27T07:36:41Z</time>
      </trkpt>
      <trkpt lat="46.03648" lon="6.94487">
        <ele>1665.6215820312</ele>
        <time>2010-06-27T07:36:48Z</time>
      </trkpt>
      <trkpt lat="46.0365" lon="6.94488">
        <ele>1666.5827636719</ele>
        <time>2010-06-27T07:36:49Z</time>
      </trkpt>
      <trkpt lat="46.03651" lon="6.94489">
        <ele>1667.5439453125</ele>
        <time>2010-06-27T07:36:51Z</time>
      </trkpt>
      <trkpt lat="46.03656" lon="6.94496">
        <ele>1668.9860839844</ele>
        <time>2010-06-27T07:36:58Z</time>
      </trkpt>
      <trkpt lat="46.03659" lon="6.94504">
        <ele>1664.66015625</ele>
        <time>2010-06-27T07:37:02Z</time>
      </trkpt>
      <trkpt lat="46.0366" lon="6.94507">
        <ele>1663.6987304688</ele>
        <time>2010-06-27T07:37:04Z</time>
      </trkpt>
      <trkpt lat="46.03664" lon="6.94511">
        <ele>1664.66015625</ele>
        <time>2010-06-27T07:37:08Z</time>
      </trkpt>
      <trkpt lat="46.03672" lon="6.94513">
        <ele>1666.5827636719</ele>
        <time>2010-06-27T07:37:14Z</time>
      </trkpt>
      <trkpt lat="46.03682" lon="6.9452">
        <ele>1669.466796875</ele>
        <time>2010-06-27T07:37:19Z</time>
      </trkpt>
      <trkpt lat="46.03683" lon="6.94522">
        <ele>1669.947265625</ele>
        <time>2010-06-27T07:37:20Z</time>
      </trkpt>
      <trkpt lat="46.03694" lon="6.94526">
        <ele>1671.8698730469</ele>
        <time>2010-06-27T07:37:25Z</time>
      </trkpt>
      <trkpt lat="46.03703" lon="6.9453">
        <ele>1674.75390625</ele>
        <time>2010-06-27T07:37:29Z</time>
      </trkpt>
      <trkpt lat="46.03712" lon="6.94532">
        <ele>1674.75390625</ele>
        <time>2010-06-27T07:37:34Z</time>
      </trkpt>
      <trkpt lat="46.03726" lon="6.94534">
        <ele>1675.7150878906</ele>
        <time>2010-06-27T07:37:40Z</time>
      </trkpt>
      <trkpt lat="46.03733" lon="6.94537">
        <ele>1676.6767578125</ele>
        <time>2010-06-27T07:37:44Z</time>
      </trkpt>
      <trkpt lat="46.03747" lon="6.94547">
        <ele>1676.1960449219</ele>
        <time>2010-06-27T07:37:51Z</time>
      </trkpt>
      <trkpt lat="46.03753" lon="6.9455">
        <ele>1676.1960449219</ele>
        <time>2010-06-27T07:37:54Z</time>
      </trkpt>
      <trkpt lat="46.03758" lon="6.94555">
        <ele>1675.234375</ele>
        <time>2010-06-27T07:37:58Z</time>
      </trkpt>
      <trkpt lat="46.03761" lon="6.94559">
        <ele>1675.7150878906</ele>
        <time>2010-06-27T07:38:02Z</time>
      </trkpt>
      <trkpt lat="46.03763" lon="6.94561">
        <ele>1675.234375</ele>
        <time>2010-06-27T07:38:04Z</time>
      </trkpt>
      <trkpt lat="46.03769" lon="6.94566">
        <ele>1679.560546875</ele>
        <time>2010-06-27T07:38:08Z</time>
      </trkpt>
      <trkpt lat="46.03776" lon="6.94571">
        <ele>1677.1574707031</ele>
        <time>2010-06-27T07:38:14Z</time>
      </trkpt>
      <trkpt lat="46.03785" lon="6.94577">
        <ele>1673.7924804688</ele>
        <time>2010-06-27T07:38:20Z</time>
      </trkpt>
      <trkpt lat="46.03792" lon="6.94587">
        <ele>1669.466796875</ele>
        <time>2010-06-27T07:38:26Z</time>
      </trkpt>
      <trkpt lat="46.03792" lon="6.94589">
        <ele>1669.947265625</ele>
        <time>2010-06-27T07:38:27Z</time>
      </trkpt>
      <trkpt lat="46.03802" lon="6.94595">
        <ele>1669.466796875</ele>
        <time>2010-06-27T07:38:35Z</time>
      </trkpt>
      <trkpt lat="46.03809" lon="6.94603">
        <ele>1672.3505859375</ele>
        <time>2010-06-27T07:38:41Z</time>
      </trkpt>
      <trkpt lat="46.03815" lon="6.9461">
        <ele>1675.234375</ele>
        <time>2010-06-27T07:38:47Z</time>
      </trkpt>
      <trkpt lat="46.0382" lon="6.94615">
        <ele>1680.0412597656</ele>
        <time>2010-06-27T07:38:52Z</time>
      </trkpt>
      <trkpt lat="46.03822" lon="6.94617">
        <ele>1681.9638671875</ele>
        <time>2010-06-27T07:38:54Z</time>
      </trkpt>
      <trkpt lat="46.03827" lon="6.94623">
        <ele>1682.9250488281</ele>
        <time>2010-06-27T07:39:00Z</time>
      </trkpt>
      <trkpt lat="46.03829" lon="6.94626">
        <ele>1684.3671875</ele>
        <time>2010-06-27T07:39:02Z</time>
      </trkpt>
      <trkpt lat="46.03831" lon="6.94628">
        <ele>1684.8479003906</ele>
        <time>2010-06-27T07:39:04Z</time>
      </trkpt>
      <trkpt lat="46.03832" lon="6.94631">
        <ele>1684.8479003906</ele>
        <time>2010-06-27T07:39:06Z</time>
      </trkpt>
      <trkpt lat="46.03835" lon="6.94638">
        <ele>1683.4057617188</ele>
        <time>2010-06-27T07:39:11Z</time>
      </trkpt>
      <trkpt lat="46.03837" lon="6.94644">
        <ele>1683.8864746094</ele>
        <time>2010-06-27T07:39:15Z</time>
      </trkpt>
      <trkpt lat="46.03841" lon="6.94655">
        <ele>1688.2124023438</ele>
        <time>2010-06-27T07:39:22Z</time>
      </trkpt>
      <trkpt lat="46.03842" lon="6.9466">
        <ele>1688.6931152344</ele>
        <time>2010-06-27T07:39:25Z</time>
      </trkpt>
      <trkpt lat="46.03843" lon="6.94666">
        <ele>1691.0961914062</ele>
        <time>2010-06-27T07:39:29Z</time>
      </trkpt>
      <trkpt lat="46.03844" lon="6.94678">
        <ele>1690.6154785156</ele>
        <time>2010-06-27T07:39:34Z</time>
      </trkpt>
      <trkpt lat="46.03848" lon="6.94694">
        <ele>1690.6154785156</ele>
        <time>2010-06-27T07:39:39Z</time>
      </trkpt>
      <trkpt lat="46.03855" lon="6.94705">
        <ele>1688.6931152344</ele>
        <time>2010-06-27T07:39:44Z</time>
      </trkpt>
      <trkpt lat="46.0386" lon="6.94719">
        <ele>1684.8479003906</ele>
        <time>2010-06-27T07:39:49Z</time>
      </trkpt>
      <trkpt lat="46.0386" lon="6.94721">
        <ele>1683.8864746094</ele>
        <time>2010-06-27T07:39:50Z</time>
      </trkpt>
      <trkpt lat="46.03865" lon="6.9474">
        <ele>1682.4445800781</ele>
        <time>2010-06-27T07:39:56Z</time>
      </trkpt>
      <trkpt lat="46.03871" lon="6.94747">
        <ele>1683.4057617188</ele>
        <time>2010-06-27T07:39:59Z</time>
      </trkpt>
      <trkpt lat="46.03876" lon="6.94764">
        <ele>1681.0026855469</ele>
        <time>2010-06-27T07:40:05Z</time>
      </trkpt>
      <trkpt lat="46.03882" lon="6.94776">
        <ele>1681.9638671875</ele>
        <time>2010-06-27T07:40:11Z</time>
      </trkpt>
      <trkpt lat="46.03883" lon="6.94778">
        <ele>1682.4445800781</ele>
        <time>2010-06-27T07:40:12Z</time>
      </trkpt>
      <trkpt lat="46.03885" lon="6.94782">
        <ele>1683.4057617188</ele>
        <time>2010-06-27T07:40:15Z</time>
      </trkpt>
      <trkpt lat="46.03891" lon="6.94796">
        <ele>1695.9030761719</ele>
        <time>2010-06-27T07:40:22Z</time>
      </trkpt>
      <trkpt lat="46.03893" lon="6.94797">
        <ele>1698.7868652344</ele>
        <time>2010-06-27T07:40:23Z</time>
      </trkpt>
      <trkpt lat="46.03899" lon="6.94804">
        <ele>1708.880859375</ele>
        <time>2010-06-27T07:40:28Z</time>
      </trkpt>
      <trkpt lat="46.03904" lon="6.94811">
        <ele>1715.1293945312</ele>
        <time>2010-06-27T07:40:34Z</time>
      </trkpt>
      <trkpt lat="46.03907" lon="6.94814">
        <ele>1716.5712890625</ele>
        <time>2010-06-27T07:40:37Z</time>
      </trkpt>
      <trkpt lat="46.0391" lon="6.94823">
        <ele>1717.0520019531</ele>
        <time>2010-06-27T07:40:44Z</time>
      </trkpt>
      <trkpt lat="46.0391" lon="6.94825">
        <ele>1718.0131835938</ele>
        <time>2010-06-27T07:40:46Z</time>
      </trkpt>
      <trkpt lat="46.03905" lon="6.94833">
        <ele>1717.0520019531</ele>
        <time>2010-06-27T07:40:53Z</time>
      </trkpt>
      <trkpt lat="46.03904" lon="6.94838">
        <ele>1718.4938964844</ele>
        <time>2010-06-27T07:40:58Z</time>
      </trkpt>
      <trkpt lat="46.0391" lon="6.9484">
        <ele>1720.8972167969</ele>
        <time>2010-06-27T07:41:04Z</time>
      </trkpt>
      <trkpt lat="46.03913" lon="6.94844">
        <ele>1721.8583984375</ele>
        <time>2010-06-27T07:41:09Z</time>
      </trkpt>
      <trkpt lat="46.03915" lon="6.94847">
        <ele>1723.7810058594</ele>
        <time>2010-06-27T07:41:12Z</time>
      </trkpt>
      <trkpt lat="46.03918" lon="6.94854">
        <ele>1727.1459960938</ele>
        <time>2010-06-27T07:41:19Z</time>
      </trkpt>
      <trkpt lat="46.0392" lon="6.94857">
        <ele>1727.6264648438</ele>
        <time>2010-06-27T07:41:24Z</time>
      </trkpt>
      <trkpt lat="46.0392" lon="6.94864">
        <ele>1723.7810058594</ele>
        <time>2010-06-27T07:41:29Z</time>
      </trkpt>
      <trkpt lat="46.03919" lon="6.94869">
        <ele>1725.2231445312</ele>
        <time>2010-06-27T07:41:34Z</time>
      </trkpt>
      <trkpt lat="46.03915" lon="6.94869">
        <ele>1722.8198242188</ele>
        <time>2010-06-27T07:41:39Z</time>
      </trkpt>
      <trkpt lat="46.0391" lon="6.94867">
        <ele>1724.2619628906</ele>
        <time>2010-06-27T07:41:46Z</time>
      </trkpt>
      <trkpt lat="46.0391" lon="6.94871">
        <ele>1728.1071777344</ele>
        <time>2010-06-27T07:41:51Z</time>
      </trkpt>
      <trkpt lat="46.03914" lon="6.94876">
        <ele>1727.6264648438</ele>
        <time>2010-06-27T07:41:57Z</time>
      </trkpt>
      <trkpt lat="46.03912" lon="6.94881">
        <ele>1726.6652832031</ele>
        <time>2010-06-27T07:42:00Z</time>
      </trkpt>
      <trkpt lat="46.03901" lon="6.9488">
        <ele>1723.3005371094</ele>
        <time>2010-06-27T07:42:08Z</time>
      </trkpt>
      <trkpt lat="46.03895" lon="6.94878">
        <ele>1722.3391113281</ele>
        <time>2010-06-27T07:42:12Z</time>
      </trkpt>
      <trkpt lat="46.03886" lon="6.94875">
        <ele>1721.8583984375</ele>
        <time>2010-06-27T07:42:19Z</time>
      </trkpt>
      <trkpt lat="46.03875" lon="6.94873">
        <ele>1721.8583984375</ele>
        <time>2010-06-27T07:42:29Z</time>
      </trkpt>
      <trkpt lat="46.03863" lon="6.94871">
        <ele>1721.8583984375</ele>
        <time>2010-06-27T07:42:38Z</time>
      </trkpt>
      <trkpt lat="46.03852" lon="6.9487">
        <ele>1721.8583984375</ele>
        <time>2010-06-27T07:42:47Z</time>
      </trkpt>
      <trkpt lat="46.03851" lon="6.9487">
        <ele>1721.8583984375</ele>
        <time>2010-06-27T07:42:48Z</time>
      </trkpt>
      <trkpt lat="46.03839" lon="6.94871">
        <ele>1723.3005371094</ele>
        <time>2010-06-27T07:42:59Z</time>
      </trkpt>
      <trkpt lat="46.03831" lon="6.94873">
        <ele>1724.2619628906</ele>
        <time>2010-06-27T07:43:06Z</time>
      </trkpt>
      <trkpt lat="46.03826" lon="6.94874">
        <ele>1725.2231445312</ele>
        <time>2010-06-27T07:43:10Z</time>
      </trkpt>
      <trkpt lat="46.03817" lon="6.94873">
        <ele>1723.7810058594</ele>
        <time>2010-06-27T07:43:19Z</time>
      </trkpt>
      <trkpt lat="46.03814" lon="6.94872">
        <ele>1724.2619628906</ele>
        <time>2010-06-27T07:43:21Z</time>
      </trkpt>
      <trkpt lat="46.03806" lon="6.94868">
        <ele>1728.587890625</ele>
        <time>2010-06-27T07:43:27Z</time>
      </trkpt>
      <trkpt lat="46.03804" lon="6.94867">
        <ele>1730.0297851562</ele>
        <time>2010-06-27T07:43:28Z</time>
      </trkpt>
      <trkpt lat="46.038" lon="6.94866">
        <ele>1730.5104980469</ele>
        <time>2010-06-27T07:43:32Z</time>
      </trkpt>
      <trkpt lat="46.03794" lon="6.94865">
        <ele>1732.9135742188</ele>
        <time>2010-06-27T07:43:36Z</time>
      </trkpt>
      <trkpt lat="46.03785" lon="6.94866">
        <ele>1735.7976074219</ele>
        <time>2010-06-27T07:43:42Z</time>
      </trkpt>
      <trkpt lat="46.0378" lon="6.94863">
        <ele>1736.7587890625</ele>
        <time>2010-06-27T07:43:46Z</time>
      </trkpt>
      <trkpt lat="46.03777" lon="6.94862">
        <ele>1738.681640625</ele>
        <time>2010-06-27T07:43:48Z</time>
      </trkpt>
      <trkpt lat="46.03771" lon="6.94863">
        <ele>1738.2009277344</ele>
        <time>2010-06-27T07:43:52Z</time>
      </trkpt>
      <trkpt lat="46.03764" lon="6.94863">
        <ele>1736.2783203125</ele>
        <time>2010-06-27T07:43:58Z</time>
      </trkpt>
      <trkpt lat="46.03753" lon="6.94858">
        <ele>1731.4716796875</ele>
        <time>2010-06-27T07:44:09Z</time>
      </trkpt>
      <trkpt lat="46.03744" lon="6.94853">
        <ele>1732.9135742188</ele>
        <time>2010-06-27T07:44:16Z</time>
      </trkpt>
      <trkpt lat="46.03733" lon="6.94851">
        <ele>1736.7587890625</ele>
        <time>2010-06-27T07:44:24Z</time>
      </trkpt>
      <trkpt lat="46.03721" lon="6.94846">
        <ele>1739.6428222656</ele>
        <time>2010-06-27T07:44:33Z</time>
      </trkpt>
      <trkpt lat="46.03716" lon="6.9484">
        <ele>1741.5656738281</ele>
        <time>2010-06-27T07:44:38Z</time>
      </trkpt>
      <trkpt lat="46.0371" lon="6.94834">
        <ele>1746.3723144531</ele>
        <time>2010-06-27T07:44:42Z</time>
      </trkpt>
      <trkpt lat="46.03706" lon="6.94831">
        <ele>1745.8916015625</ele>
        <time>2010-06-27T07:44:46Z</time>
      </trkpt>
      <trkpt lat="46.03699" lon="6.94826">
        <ele>1745.4108886719</ele>
        <time>2010-06-27T07:44:51Z</time>
      </trkpt>
      <trkpt lat="46.03696" lon="6.94825">
        <ele>1745.4108886719</ele>
        <time>2010-06-27T07:44:54Z</time>
      </trkpt>
      <trkpt lat="46.0369" lon="6.94821">
        <ele>1747.3334960938</ele>
        <time>2010-06-27T07:44:59Z</time>
      </trkpt>
      <trkpt lat="46.03685" lon="6.9482">
        <ele>1747.8142089844</ele>
        <time>2010-06-27T07:45:02Z</time>
      </trkpt>
      <trkpt lat="46.03677" lon="6.9482">
        <ele>1749.7368164062</ele>
        <time>2010-06-27T07:45:09Z</time>
      </trkpt>
      <trkpt lat="46.03671" lon="6.94822">
        <ele>1749.7368164062</ele>
        <time>2010-06-27T07:45:13Z</time>
      </trkpt>
      <trkpt lat="46.03665" lon="6.94822">
        <ele>1749.2561035156</ele>
        <time>2010-06-27T07:45:18Z</time>
      </trkpt>
      <trkpt lat="46.03656" lon="6.9482">
        <ele>1752.6206054688</ele>
        <time>2010-06-27T07:45:23Z</time>
      </trkpt>
      <trkpt lat="46.03654" lon="6.94819">
        <ele>1752.6206054688</ele>
        <time>2010-06-27T07:45:24Z</time>
      </trkpt>
      <trkpt lat="46.03646" lon="6.94811">
        <ele>1750.6979980469</ele>
        <time>2010-06-27T07:45:32Z</time>
      </trkpt>
      <trkpt lat="46.0364" lon="6.94803">
        <ele>1751.1787109375</ele>
        <time>2010-06-27T07:45:38Z</time>
      </trkpt>
      <trkpt lat="46.03633" lon="6.94794">
        <ele>1750.2175292969</ele>
        <time>2010-06-27T07:45:44Z</time>
      </trkpt>
      <trkpt lat="46.03627" lon="6.94788">
        <ele>1750.6979980469</ele>
        <time>2010-06-27T07:45:50Z</time>
      </trkpt>
      <trkpt lat="46.03619" lon="6.94781">
        <ele>1748.2946777344</ele>
        <time>2010-06-27T07:45:56Z</time>
      </trkpt>
      <trkpt lat="46.03616" lon="6.94775">
        <ele>1751.6594238281</ele>
        <time>2010-06-27T07:45:59Z</time>
      </trkpt>
      <trkpt lat="46.03605" lon="6.94767">
        <ele>1759.3500976562</ele>
        <time>2010-06-27T07:46:08Z</time>
      </trkpt>
      <trkpt lat="46.03601" lon="6.94765">
        <ele>1759.3500976562</ele>
        <time>2010-06-27T07:46:12Z</time>
      </trkpt>
      <trkpt lat="46.03593" lon="6.94761">
        <ele>1763.67578125</ele>
        <time>2010-06-27T07:46:20Z</time>
      </trkpt>
      <trkpt lat="46.03587" lon="6.94758">
        <ele>1765.5986328125</ele>
        <time>2010-06-27T07:46:26Z</time>
      </trkpt>
      <trkpt lat="46.03585" lon="6.94758">
        <ele>1764.6372070312</ele>
        <time>2010-06-27T07:46:28Z</time>
      </trkpt>
      <trkpt lat="46.03577" lon="6.94756">
        <ele>1764.1564941406</ele>
        <time>2010-06-27T07:46:37Z</time>
      </trkpt>
      <trkpt lat="46.03571" lon="6.94755">
        <ele>1765.1179199219</ele>
        <time>2010-06-27T07:46:42Z</time>
      </trkpt>
      <trkpt lat="46.03564" lon="6.94745">
        <ele>1770.8857421875</ele>
        <time>2010-06-27T07:46:51Z</time>
      </trkpt>
      <trkpt lat="46.03562" lon="6.94741">
        <ele>1771.8469238281</ele>
        <time>2010-06-27T07:46:54Z</time>
      </trkpt>
      <trkpt lat="46.03563" lon="6.94728">
        <ele>1774.7312011719</ele>
        <time>2010-06-27T07:47:03Z</time>
      </trkpt>
      <trkpt lat="46.03566" lon="6.94718">
        <ele>1772.3278808594</ele>
        <time>2010-06-27T07:47:12Z</time>
      </trkpt>
      <trkpt lat="46.03568" lon="6.94711">
        <ele>1774.2504882812</ele>
        <time>2010-06-27T07:47:19Z</time>
      </trkpt>
      <trkpt lat="46.03566" lon="6.94703">
        <ele>1776.6538085938</ele>
        <time>2010-06-27T07:47:26Z</time>
      </trkpt>
      <trkpt lat="46.0356" lon="6.94696">
        <ele>1776.1730957031</ele>
        <time>2010-06-27T07:47:33Z</time>
      </trkpt>
      <trkpt lat="46.03554" lon="6.94698">
        <ele>1776.6538085938</ele>
        <time>2010-06-27T07:47:38Z</time>
      </trkpt>
      <trkpt lat="46.03552" lon="6.947">
        <ele>1777.1345214844</ele>
        <time>2010-06-27T07:47:40Z</time>
      </trkpt>
      <trkpt lat="46.03549" lon="6.94705">
        <ele>1778.5764160156</ele>
        <time>2010-06-27T07:47:44Z</time>
      </trkpt>
      <trkpt lat="46.03545" lon="6.94707">
        <ele>1779.0568847656</ele>
        <time>2010-06-27T07:47:48Z</time>
      </trkpt>
      <trkpt lat="46.03536" lon="6.94707">
        <ele>1780.9797363281</ele>
        <time>2010-06-27T07:47:56Z</time>
      </trkpt>
      <trkpt lat="46.03532" lon="6.94706">
        <ele>1781.9409179688</ele>
        <time>2010-06-27T07:48:00Z</time>
      </trkpt>
      <trkpt lat="46.03527" lon="6.94703">
        <ele>1782.9020996094</ele>
        <time>2010-06-27T07:48:04Z</time>
      </trkpt>
      <trkpt lat="46.03516" lon="6.94696">
        <ele>1784.8249511719</ele>
        <time>2010-06-27T07:48:13Z</time>
      </trkpt>
      <trkpt lat="46.03507" lon="6.94692">
        <ele>1785.7861328125</ele>
        <time>2010-06-27T07:48:21Z</time>
      </trkpt>
      <trkpt lat="46.03498" lon="6.94689">
        <ele>1784.8249511719</ele>
        <time>2010-06-27T07:48:28Z</time>
      </trkpt>
      <trkpt lat="46.03489" lon="6.94681">
        <ele>1785.3054199219</ele>
        <time>2010-06-27T07:48:36Z</time>
      </trkpt>
      <trkpt lat="46.03483" lon="6.94672">
        <ele>1786.2668457031</ele>
        <time>2010-06-27T07:48:42Z</time>
      </trkpt>
      <trkpt lat="46.03476" lon="6.94666">
        <ele>1785.7861328125</ele>
        <time>2010-06-27T07:48:46Z</time>
      </trkpt>
      <trkpt lat="46.0347" lon="6.94657">
        <ele>1786.2668457031</ele>
        <time>2010-06-27T07:48:51Z</time>
      </trkpt>
      <trkpt lat="46.03465" lon="6.94651">
        <ele>1786.2668457031</ele>
        <time>2010-06-27T07:48:56Z</time>
      </trkpt>
      <trkpt lat="46.03462" lon="6.94648">
        <ele>1785.7861328125</ele>
        <time>2010-06-27T07:48:59Z</time>
      </trkpt>
      <trkpt lat="46.03454" lon="6.94638">
        <ele>1785.3054199219</ele>
        <time>2010-06-27T07:49:04Z</time>
      </trkpt>
      <trkpt lat="46.03444" lon="6.94627">
        <ele>1786.7473144531</ele>
        <time>2010-06-27T07:49:09Z</time>
      </trkpt>
      <trkpt lat="46.03439" lon="6.9462">
        <ele>1787.2280273438</ele>
        <time>2010-06-27T07:49:12Z</time>
      </trkpt>
      <trkpt lat="46.03433" lon="6.9461">
        <ele>1789.1508789062</ele>
        <time>2010-06-27T07:49:16Z</time>
      </trkpt>
      <trkpt lat="46.03431" lon="6.94606">
        <ele>1789.6315917969</ele>
        <time>2010-06-27T07:49:18Z</time>
      </trkpt>
      <trkpt lat="46.03424" lon="6.94594">
        <ele>1789.1508789062</ele>
        <time>2010-06-27T07:49:23Z</time>
      </trkpt>
      <trkpt lat="46.03416" lon="6.94581">
        <ele>1788.6704101562</ele>
        <time>2010-06-27T07:49:29Z</time>
      </trkpt>
      <trkpt lat="46.03408" lon="6.94574">
        <ele>1788.1896972656</ele>
        <time>2010-06-27T07:49:35Z</time>
      </trkpt>
      <trkpt lat="46.03407" lon="6.94573">
        <ele>1788.6704101562</ele>
        <time>2010-06-27T07:49:36Z</time>
      </trkpt>
      <trkpt lat="46.03401" lon="6.94569">
        <ele>1787.7087402344</ele>
        <time>2010-06-27T07:49:41Z</time>
      </trkpt>
      <trkpt lat="46.03397" lon="6.94566">
        <ele>1788.6704101562</ele>
        <time>2010-06-27T07:49:44Z</time>
      </trkpt>
      <trkpt lat="46.03393" lon="6.94564">
        <ele>1789.1508789062</ele>
        <time>2010-06-27T07:49:47Z</time>
      </trkpt>
      <trkpt lat="46.03388" lon="6.94559">
        <ele>1789.6315917969</ele>
        <time>2010-06-27T07:49:52Z</time>
      </trkpt>
      <trkpt lat="46.03387" lon="6.94558">
        <ele>1789.6315917969</ele>
        <time>2010-06-27T07:49:53Z</time>
      </trkpt>
      <trkpt lat="46.03375" lon="6.94556">
        <ele>1794.9187011719</ele>
        <time>2010-06-27T07:50:02Z</time>
      </trkpt>
      <trkpt lat="46.03369" lon="6.94558">
        <ele>1797.3220214844</ele>
        <time>2010-06-27T07:50:06Z</time>
      </trkpt>
      <trkpt lat="46.03362" lon="6.9456">
        <ele>1798.7639160156</ele>
        <time>2010-06-27T07:50:10Z</time>
      </trkpt>
      <trkpt lat="46.03356" lon="6.94559">
        <ele>1798.7639160156</ele>
        <time>2010-06-27T07:50:14Z</time>
      </trkpt>
      <trkpt lat="46.03352" lon="6.94559">
        <ele>1799.2446289062</ele>
        <time>2010-06-27T07:50:17Z</time>
      </trkpt>
      <trkpt lat="46.03344" lon="6.94556">
        <ele>1801.1672363281</ele>
        <time>2010-06-27T07:50:22Z</time>
      </trkpt>
      <trkpt lat="46.03334" lon="6.94552">
        <ele>1803.08984375</ele>
        <time>2010-06-27T07:50:30Z</time>
      </trkpt>
      <trkpt lat="46.03326" lon="6.94549">
        <ele>1804.0515136719</ele>
        <time>2010-06-27T07:50:35Z</time>
      </trkpt>
      <trkpt lat="46.03322" lon="6.94547">
        <ele>1804.5319824219</ele>
        <time>2010-06-27T07:50:39Z</time>
      </trkpt>
      <trkpt lat="46.03314" lon="6.94549">
        <ele>1805.0126953125</ele>
        <time>2010-06-27T07:50:45Z</time>
      </trkpt>
      <trkpt lat="46.03313" lon="6.94555">
        <ele>1808.3771972656</ele>
        <time>2010-06-27T07:50:48Z</time>
      </trkpt>
      <trkpt lat="46.03317" lon="6.94562">
        <ele>1811.2612304688</ele>
        <time>2010-06-27T07:50:53Z</time>
      </trkpt>
      <trkpt lat="46.03318" lon="6.94563">
        <ele>1811.2612304688</ele>
        <time>2010-06-27T07:50:54Z</time>
      </trkpt>
      <trkpt lat="46.03324" lon="6.94573">
        <ele>1812.2224121094</ele>
        <time>2010-06-27T07:51:00Z</time>
      </trkpt>
      <trkpt lat="46.03327" lon="6.94579">
        <ele>1814.1450195312</ele>
        <time>2010-06-27T07:51:04Z</time>
      </trkpt>
      <trkpt lat="46.03331" lon="6.94588">
        <ele>1814.6257324219</ele>
        <time>2010-06-27T07:51:10Z</time>
      </trkpt>
      <trkpt lat="46.03333" lon="6.94593">
        <ele>1814.6257324219</ele>
        <time>2010-06-27T07:51:13Z</time>
      </trkpt>
      <trkpt lat="46.0334" lon="6.9461">
        <ele>1815.5871582031</ele>
        <time>2010-06-27T07:51:22Z</time>
      </trkpt>
      <trkpt lat="46.0334" lon="6.94615">
        <ele>1816.0676269531</ele>
        <time>2010-06-27T07:51:25Z</time>
      </trkpt>
      <trkpt lat="46.03337" lon="6.94621">
        <ele>1817.0290527344</ele>
        <time>2010-06-27T07:51:28Z</time>
      </trkpt>
      <trkpt lat="46.03325" lon="6.94625">
        <ele>1819.4323730469</ele>
        <time>2010-06-27T07:51:38Z</time>
      </trkpt>
      <trkpt lat="46.03318" lon="6.94623">
        <ele>1821.8356933594</ele>
        <time>2010-06-27T07:51:44Z</time>
      </trkpt>
      <trkpt lat="46.03311" lon="6.9462">
        <ele>1823.2778320312</ele>
        <time>2010-06-27T07:51:50Z</time>
      </trkpt>
      <trkpt lat="46.03303" lon="6.94618">
        <ele>1826.1616210938</ele>
        <time>2010-06-27T07:51:56Z</time>
      </trkpt>
      <trkpt lat="46.03292" lon="6.9462">
        <ele>1827.603515625</ele>
        <time>2010-06-27T07:52:04Z</time>
      </trkpt>
      <trkpt lat="46.03283" lon="6.94623">
        <ele>1826.1616210938</ele>
        <time>2010-06-27T07:52:11Z</time>
      </trkpt>
      <trkpt lat="46.03273" lon="6.94626">
        <ele>1827.603515625</ele>
        <time>2010-06-27T07:52:18Z</time>
      </trkpt>
      <trkpt lat="46.03265" lon="6.94626">
        <ele>1828.0842285156</ele>
        <time>2010-06-27T07:52:24Z</time>
      </trkpt>
      <trkpt lat="46.03257" lon="6.94627">
        <ele>1830.9682617188</ele>
        <time>2010-06-27T07:52:30Z</time>
      </trkpt>
      <trkpt lat="46.03249" lon="6.94626">
        <ele>1831.9294433594</ele>
        <time>2010-06-27T07:52:36Z</time>
      </trkpt>
      <trkpt lat="46.03244" lon="6.94627">
        <ele>1831.4487304688</ele>
        <time>2010-06-27T07:52:41Z</time>
      </trkpt>
      <trkpt lat="46.03241" lon="6.94628">
        <ele>1832.41015625</ele>
        <time>2010-06-27T07:52:43Z</time>
      </trkpt>
      <trkpt lat="46.0323" lon="6.94636">
        <ele>1833.8520507812</ele>
        <time>2010-06-27T07:52:49Z</time>
      </trkpt>
      <trkpt lat="46.03224" lon="6.9464">
        <ele>1834.8134765625</ele>
        <time>2010-06-27T07:52:52Z</time>
      </trkpt>
      <trkpt lat="46.03215" lon="6.94651">
        <ele>1833.3713378906</ele>
        <time>2010-06-27T07:52:57Z</time>
      </trkpt>
      <trkpt lat="46.03203" lon="6.94659">
        <ele>1836.7360839844</ele>
        <time>2010-06-27T07:53:02Z</time>
      </trkpt>
      <trkpt lat="46.03197" lon="6.94664">
        <ele>1837.216796875</ele>
        <time>2010-06-27T07:53:05Z</time>
      </trkpt>
      <trkpt lat="46.03186" lon="6.94673">
        <ele>1839.6201171875</ele>
        <time>2010-06-27T07:53:11Z</time>
      </trkpt>
      <trkpt lat="46.03176" lon="6.94679">
        <ele>1839.1394042969</ele>
        <time>2010-06-27T07:53:17Z</time>
      </trkpt>
      <trkpt lat="46.03176" lon="6.9468">
        <ele>1839.1394042969</ele>
        <time>2010-06-27T07:53:21Z</time>
      </trkpt>
      <trkpt lat="46.03175" lon="6.9468">
        <ele>1839.1394042969</ele>
        <time>2010-06-27T07:53:22Z</time>
      </trkpt>
      <trkpt lat="46.03165" lon="6.9468">
        <ele>1838.6589355469</ele>
        <time>2010-06-27T07:53:27Z</time>
      </trkpt>
      <trkpt lat="46.03158" lon="6.94685">
        <ele>1837.216796875</ele>
        <time>2010-06-27T07:53:31Z</time>
      </trkpt>
      <trkpt lat="46.03148" lon="6.94694">
        <ele>1838.1782226562</ele>
        <time>2010-06-27T07:53:36Z</time>
      </trkpt>
      <trkpt lat="46.03143" lon="6.94696">
        <ele>1838.6589355469</ele>
        <time>2010-06-27T07:53:39Z</time>
      </trkpt>
      <trkpt lat="46.03137" lon="6.94698">
        <ele>1839.1394042969</ele>
        <time>2010-06-27T07:53:44Z</time>
      </trkpt>
      <trkpt lat="46.0313" lon="6.94701">
        <ele>1840.5812988281</ele>
        <time>2010-06-27T07:53:48Z</time>
      </trkpt>
      <trkpt lat="46.03125" lon="6.94705">
        <ele>1840.5812988281</ele>
        <time>2010-06-27T07:53:50Z</time>
      </trkpt>
      <trkpt lat="46.03123" lon="6.94706">
        <ele>1840.1008300781</ele>
        <time>2010-06-27T07:53:52Z</time>
      </trkpt>
      <trkpt lat="46.03117" lon="6.94707">
        <ele>1842.5041503906</ele>
        <time>2010-06-27T07:53:56Z</time>
      </trkpt>
      <trkpt lat="46.03107" lon="6.94715">
        <ele>1845.8686523438</ele>
        <time>2010-06-27T07:54:02Z</time>
      </trkpt>
      <trkpt lat="46.03099" lon="6.94715">
        <ele>1847.310546875</ele>
        <time>2010-06-27T07:54:07Z</time>
      </trkpt>
      <trkpt lat="46.03096" lon="6.94715">
        <ele>1850.1945800781</ele>
        <time>2010-06-27T07:54:10Z</time>
      </trkpt>
      <trkpt lat="46.03086" lon="6.94716">
        <ele>1853.0786132812</ele>
        <time>2010-06-27T07:54:16Z</time>
      </trkpt>
      <trkpt lat="46.03078" lon="6.94719">
        <ele>1854.0400390625</ele>
        <time>2010-06-27T07:54:21Z</time>
      </trkpt>
      <trkpt lat="46.03072" lon="6.9472">
        <ele>1855.9624023438</ele>
        <time>2010-06-27T07:54:26Z</time>
      </trkpt>
      <trkpt lat="46.03071" lon="6.9472">
        <ele>1855.9624023438</ele>
        <time>2010-06-27T07:54:27Z</time>
      </trkpt>
      <trkpt lat="46.03065" lon="6.9472">
        <ele>1855.9624023438</ele>
        <time>2010-06-27T07:54:32Z</time>
      </trkpt>
      <trkpt lat="46.03059" lon="6.94718">
        <ele>1856.4431152344</ele>
        <time>2010-06-27T07:54:37Z</time>
      </trkpt>
      <trkpt lat="46.03052" lon="6.94709">
        <ele>1856.923828125</ele>
        <time>2010-06-27T07:54:41Z</time>
      </trkpt>
      <trkpt lat="46.03051" lon="6.94702">
        <ele>1857.4045410156</ele>
        <time>2010-06-27T07:54:43Z</time>
      </trkpt>
      <trkpt lat="46.03053" lon="6.94683">
        <ele>1857.4045410156</ele>
        <time>2010-06-27T07:54:48Z</time>
      </trkpt>
      <trkpt lat="46.03051" lon="6.94667">
        <ele>1856.923828125</ele>
        <time>2010-06-27T07:54:53Z</time>
      </trkpt>
      <trkpt lat="46.03044" lon="6.94663">
        <ele>1854.5205078125</ele>
        <time>2010-06-27T07:54:57Z</time>
      </trkpt>
      <trkpt lat="46.0304" lon="6.94658">
        <ele>1854.5205078125</ele>
        <time>2010-06-27T07:55:01Z</time>
      </trkpt>
      <trkpt lat="46.0303" lon="6.94649">
        <ele>1854.5205078125</ele>
        <time>2010-06-27T07:55:09Z</time>
      </trkpt>
      <trkpt lat="46.03022" lon="6.94643">
        <ele>1855.4819335938</ele>
        <time>2010-06-27T07:55:16Z</time>
      </trkpt>
      <trkpt lat="46.0302" lon="6.94641">
        <ele>1855.9624023438</ele>
        <time>2010-06-27T07:55:18Z</time>
      </trkpt>
      <trkpt lat="46.03011" lon="6.94637">
        <ele>1858.3657226562</ele>
        <time>2010-06-27T07:55:25Z</time>
      </trkpt>
      <trkpt lat="46.03004" lon="6.94634">
        <ele>1857.8852539062</ele>
        <time>2010-06-27T07:55:31Z</time>
      </trkpt>
      <trkpt lat="46.02999" lon="6.94632">
        <ele>1861.2497558594</ele>
        <time>2010-06-27T07:55:34Z</time>
      </trkpt>
      <trkpt lat="46.02991" lon="6.94628">
        <ele>1864.1335449219</ele>
        <time>2010-06-27T07:55:41Z</time>
      </trkpt>
      <trkpt lat="46.02988" lon="6.94626">
        <ele>1865.5756835938</ele>
        <time>2010-06-27T07:55:44Z</time>
      </trkpt>
      <trkpt lat="46.02983" lon="6.94627">
        <ele>1867.017578125</ele>
        <time>2010-06-27T07:55:48Z</time>
      </trkpt>
      <trkpt lat="46.02983" lon="6.9463">
        <ele>1867.498046875</ele>
        <time>2010-06-27T07:55:50Z</time>
      </trkpt>
      <trkpt lat="46.02983" lon="6.94634">
        <ele>1867.9787597656</ele>
        <time>2010-06-27T07:55:53Z</time>
      </trkpt>
      <trkpt lat="46.02986" lon="6.94642">
        <ele>1868.9404296875</ele>
        <time>2010-06-27T07:55:58Z</time>
      </trkpt>
      <trkpt lat="46.02995" lon="6.94659">
        <ele>1868.9404296875</ele>
        <time>2010-06-27T07:56:08Z</time>
      </trkpt>
      <trkpt lat="46.02999" lon="6.9467">
        <ele>1869.9016113281</ele>
        <time>2010-06-27T07:56:15Z</time>
      </trkpt>
      <trkpt lat="46.03006" lon="6.94684">
        <ele>1870.3823242188</ele>
        <time>2010-06-27T07:56:23Z</time>
      </trkpt>
      <trkpt lat="46.03008" lon="6.94692">
        <ele>1870.3823242188</ele>
        <time>2010-06-27T07:56:29Z</time>
      </trkpt>
      <trkpt lat="46.03011" lon="6.94697">
        <ele>1870.8630371094</ele>
        <time>2010-06-27T07:56:33Z</time>
      </trkpt>
      <trkpt lat="46.03014" lon="6.9471">
        <ele>1871.3435058594</ele>
        <time>2010-06-27T07:56:40Z</time>
      </trkpt>
      <trkpt lat="46.03014" lon="6.94721">
        <ele>1871.82421875</ele>
        <time>2010-06-27T07:56:45Z</time>
      </trkpt>
      <trkpt lat="46.03013" lon="6.94732">
        <ele>1873.2663574219</ele>
        <time>2010-06-27T07:56:51Z</time>
      </trkpt>
      <trkpt lat="46.03013" lon="6.94736">
        <ele>1872.7856445312</ele>
        <time>2010-06-27T07:56:53Z</time>
      </trkpt>
      <trkpt lat="46.03011" lon="6.94754">
        <ele>1875.1887207031</ele>
        <time>2010-06-27T07:57:02Z</time>
      </trkpt>
      <trkpt lat="46.03013" lon="6.94765">
        <ele>1877.1115722656</ele>
        <time>2010-06-27T07:57:09Z</time>
      </trkpt>
      <trkpt lat="46.03017" lon="6.94777">
        <ele>1877.1115722656</ele>
        <time>2010-06-27T07:57:16Z</time>
      </trkpt>
      <trkpt lat="46.03026" lon="6.94782">
        <ele>1879.9953613281</ele>
        <time>2010-06-27T07:57:24Z</time>
      </trkpt>
      <trkpt lat="46.03034" lon="6.94782">
        <ele>1881.91796875</ele>
        <time>2010-06-27T07:57:31Z</time>
      </trkpt>
      <trkpt lat="46.03047" lon="6.94784">
        <ele>1879.9953613281</ele>
        <time>2010-06-27T07:57:39Z</time>
      </trkpt>
      <trkpt lat="46.03056" lon="6.94787">
        <ele>1881.4372558594</ele>
        <time>2010-06-27T07:57:45Z</time>
      </trkpt>
      <trkpt lat="46.03064" lon="6.94788">
        <ele>1882.8791503906</ele>
        <time>2010-06-27T07:57:51Z</time>
      </trkpt>
      <trkpt lat="46.03074" lon="6.94787">
        <ele>1885.7634277344</ele>
        <time>2010-06-27T07:57:58Z</time>
      </trkpt>
      <trkpt lat="46.03081" lon="6.94789">
        <ele>1886.724609375</ele>
        <time>2010-06-27T07:58:03Z</time>
      </trkpt>
      <trkpt lat="46.0309" lon="6.9479">
        <ele>1885.7634277344</ele>
        <time>2010-06-27T07:58:10Z</time>
      </trkpt>
      <trkpt lat="46.03099" lon="6.94794">
        <ele>1887.6860351562</ele>
        <time>2010-06-27T07:58:17Z</time>
      </trkpt>
      <trkpt lat="46.03103" lon="6.94795">
        <ele>1888.1667480469</ele>
        <time>2010-06-27T07:58:22Z</time>
      </trkpt>
      <trkpt lat="46.03112" lon="6.948">
        <ele>1889.6086425781</ele>
        <time>2010-06-27T07:58:29Z</time>
      </trkpt>
      <trkpt lat="46.03119" lon="6.94808">
        <ele>1889.6086425781</ele>
        <time>2010-06-27T07:58:35Z</time>
      </trkpt>
      <trkpt lat="46.0312" lon="6.94825">
        <ele>1891.0505371094</ele>
        <time>2010-06-27T07:58:44Z</time>
      </trkpt>
      <trkpt lat="46.03127" lon="6.94841">
        <ele>1894.4150390625</ele>
        <time>2010-06-27T07:58:53Z</time>
      </trkpt>
      <trkpt lat="46.03133" lon="6.94849">
        <ele>1896.337890625</ele>
        <time>2010-06-27T07:58:59Z</time>
      </trkpt>
      <trkpt lat="46.03133" lon="6.94853">
        <ele>1896.818359375</ele>
        <time>2010-06-27T07:59:02Z</time>
      </trkpt>
      <trkpt lat="46.03131" lon="6.94855">
        <ele>1897.7797851562</ele>
        <time>2010-06-27T07:59:08Z</time>
      </trkpt>
      <trkpt lat="46.03127" lon="6.94858">
        <ele>1897.2990722656</ele>
        <time>2010-06-27T07:59:13Z</time>
      </trkpt>
      <trkpt lat="46.03124" lon="6.9486">
        <ele>1897.2990722656</ele>
        <time>2010-06-27T07:59:16Z</time>
      </trkpt>
      <trkpt lat="46.03115" lon="6.94857">
        <ele>1898.7409667969</ele>
        <time>2010-06-27T07:59:23Z</time>
      </trkpt>
      <trkpt lat="46.03114" lon="6.94856">
        <ele>1899.2216796875</ele>
        <time>2010-06-27T07:59:25Z</time>
      </trkpt>
      <trkpt lat="46.03109" lon="6.94853">
        <ele>1900.6638183594</ele>
        <time>2010-06-27T07:59:30Z</time>
      </trkpt>
      <trkpt lat="46.03104" lon="6.94848">
        <ele>1902.5864257812</ele>
        <time>2010-06-27T07:59:35Z</time>
      </trkpt>
      <trkpt lat="46.03101" lon="6.94845">
        <ele>1903.0671386719</ele>
        <time>2010-06-27T07:59:39Z</time>
      </trkpt>
      <trkpt lat="46.03096" lon="6.94841">
        <ele>1903.5478515625</ele>
        <time>2010-06-27T07:59:45Z</time>
      </trkpt>
      <trkpt lat="46.03086" lon="6.9484">
        <ele>1905.9509277344</ele>
        <time>2010-06-27T07:59:52Z</time>
      </trkpt>
      <trkpt lat="46.03082" lon="6.94839">
        <ele>1907.3930664062</ele>
        <time>2010-06-27T07:59:57Z</time>
      </trkpt>
      <trkpt lat="46.03073" lon="6.9484">
        <ele>1909.3156738281</ele>
        <time>2010-06-27T08:00:05Z</time>
      </trkpt>
      <trkpt lat="46.03065" lon="6.94843">
        <ele>1910.2768554688</ele>
        <time>2010-06-27T08:00:13Z</time>
      </trkpt>
      <trkpt lat="46.0306" lon="6.94844">
        <ele>1911.7189941406</ele>
        <time>2010-06-27T08:00:17Z</time>
      </trkpt>
      <trkpt lat="46.03051" lon="6.94847">
        <ele>1913.6413574219</ele>
        <time>2010-06-27T08:00:25Z</time>
      </trkpt>
      <trkpt lat="46.03049" lon="6.94848">
        <ele>1914.6027832031</ele>
        <time>2010-06-27T08:00:27Z</time>
      </trkpt>
      <trkpt lat="46.0305" lon="6.94857">
        <ele>1916.044921875</ele>
        <time>2010-06-27T08:00:34Z</time>
      </trkpt>
      <trkpt lat="46.03056" lon="6.94859">
        <ele>1917.4868164062</ele>
        <time>2010-06-27T08:00:40Z</time>
      </trkpt>
      <trkpt lat="46.0306" lon="6.9486">
        <ele>1917.4868164062</ele>
        <time>2010-06-27T08:00:44Z</time>
      </trkpt>
      <trkpt lat="46.03066" lon="6.94863">
        <ele>1917.4868164062</ele>
        <time>2010-06-27T08:00:47Z</time>
      </trkpt>
      <trkpt lat="46.03072" lon="6.94873">
        <ele>1918.4482421875</ele>
        <time>2010-06-27T08:00:54Z</time>
      </trkpt>
      <trkpt lat="46.03073" lon="6.94876">
        <ele>1918.9289550781</ele>
        <time>2010-06-27T08:00:56Z</time>
      </trkpt>
      <trkpt lat="46.03069" lon="6.94889">
        <ele>1920.3708496094</ele>
        <time>2010-06-27T08:01:04Z</time>
      </trkpt>
      <trkpt lat="46.03064" lon="6.94899">
        <ele>1922.2934570312</ele>
        <time>2010-06-27T08:01:12Z</time>
      </trkpt>
      <trkpt lat="46.03059" lon="6.9491">
        <ele>1924.2160644531</ele>
        <time>2010-06-27T08:01:21Z</time>
      </trkpt>
      <trkpt lat="46.03055" lon="6.94921">
        <ele>1925.1772460938</ele>
        <time>2010-06-27T08:01:30Z</time>
      </trkpt>
      <trkpt lat="46.03054" lon="6.94927">
        <ele>1925.6579589844</ele>
        <time>2010-06-27T08:01:34Z</time>
      </trkpt>
      <trkpt lat="46.03054" lon="6.9494">
        <ele>1927.1000976562</ele>
        <time>2010-06-27T08:01:43Z</time>
      </trkpt>
      <trkpt lat="46.03052" lon="6.94945">
        <ele>1928.0612792969</ele>
        <time>2010-06-27T08:01:47Z</time>
      </trkpt>
      <trkpt lat="46.03045" lon="6.94952">
        <ele>1929.0224609375</ele>
        <time>2010-06-27T08:01:54Z</time>
      </trkpt>
      <trkpt lat="46.03042" lon="6.94953">
        <ele>1929.5031738281</ele>
        <time>2010-06-27T08:01:56Z</time>
      </trkpt>
      <trkpt lat="46.03032" lon="6.9496">
        <ele>1930.4645996094</ele>
        <time>2010-06-27T08:02:05Z</time>
      </trkpt>
      <trkpt lat="46.03023" lon="6.94964">
        <ele>1932.3874511719</ele>
        <time>2010-06-27T08:02:12Z</time>
      </trkpt>
      <trkpt lat="46.03014" lon="6.94968">
        <ele>1933.3486328125</ele>
        <time>2010-06-27T08:02:20Z</time>
      </trkpt>
      <trkpt lat="46.03005" lon="6.9497">
        <ele>1935.2712402344</ele>
        <time>2010-06-27T08:02:27Z</time>
      </trkpt>
      <trkpt lat="46.02995" lon="6.94971">
        <ele>1937.6745605469</ele>
        <time>2010-06-27T08:02:35Z</time>
      </trkpt>
      <trkpt lat="46.02987" lon="6.9497">
        <ele>1938.6359863281</ele>
        <time>2010-06-27T08:02:41Z</time>
      </trkpt>
      <trkpt lat="46.02978" lon="6.94968">
        <ele>1938.6359863281</ele>
        <time>2010-06-27T08:02:47Z</time>
      </trkpt>
      <trkpt lat="46.02969" lon="6.94967">
        <ele>1939.1164550781</ele>
        <time>2010-06-27T08:02:53Z</time>
      </trkpt>
      <trkpt lat="46.02959" lon="6.94964">
        <ele>1940.5583496094</ele>
        <time>2010-06-27T08:03:00Z</time>
      </trkpt>
      <trkpt lat="46.02951" lon="6.94962">
        <ele>1940.5583496094</ele>
        <time>2010-06-27T08:03:06Z</time>
      </trkpt>
      <trkpt lat="46.02949" lon="6.9496">
        <ele>1940.0778808594</ele>
        <time>2010-06-27T08:03:09Z</time>
      </trkpt>
      <trkpt lat="46.02942" lon="6.9496">
        <ele>1940.0778808594</ele>
        <time>2010-06-27T08:03:14Z</time>
      </trkpt>
      <trkpt lat="46.0294" lon="6.94959">
        <ele>1940.5583496094</ele>
        <time>2010-06-27T08:03:15Z</time>
      </trkpt>
      <trkpt lat="46.02921" lon="6.94959">
        <ele>1942.4812011719</ele>
        <time>2010-06-27T08:03:22Z</time>
      </trkpt>
      <trkpt lat="46.02906" lon="6.94959">
        <ele>1941.0390625</ele>
        <time>2010-06-27T08:03:28Z</time>
      </trkpt>
      <trkpt lat="46.02894" lon="6.9496">
        <ele>1940.5583496094</ele>
        <time>2010-06-27T08:03:33Z</time>
      </trkpt>
      <trkpt lat="46.02883" lon="6.94961">
        <ele>1940.0778808594</ele>
        <time>2010-06-27T08:03:38Z</time>
      </trkpt>
      <trkpt lat="46.02873" lon="6.94963">
        <ele>1940.0778808594</ele>
        <time>2010-06-27T08:03:42Z</time>
      </trkpt>
      <trkpt lat="46.02859" lon="6.94967">
        <ele>1939.5971679688</ele>
        <time>2010-06-27T08:03:49Z</time>
      </trkpt>
      <trkpt lat="46.02846" lon="6.94971">
        <ele>1940.0778808594</ele>
        <time>2010-06-27T08:03:56Z</time>
      </trkpt>
      <trkpt lat="46.02837" lon="6.94975">
        <ele>1941.5197753906</ele>
        <time>2010-06-27T08:04:02Z</time>
      </trkpt>
      <trkpt lat="46.02829" lon="6.94978">
        <ele>1942.9616699219</ele>
        <time>2010-06-27T08:04:08Z</time>
      </trkpt>
      <trkpt lat="46.02819" lon="6.94983">
        <ele>1945.845703125</ele>
        <time>2010-06-27T08:04:15Z</time>
      </trkpt>
      <trkpt lat="46.02809" lon="6.94989">
        <ele>1948.2490234375</ele>
        <time>2010-06-27T08:04:23Z</time>
      </trkpt>
      <trkpt lat="46.02799" lon="6.94994">
        <ele>1950.65234375</ele>
        <time>2010-06-27T08:04:30Z</time>
      </trkpt>
      <trkpt lat="46.0279" lon="6.94997">
        <ele>1951.1330566406</ele>
        <time>2010-06-27T08:04:37Z</time>
      </trkpt>
      <trkpt lat="46.02781" lon="6.95">
        <ele>1953.5363769531</ele>
        <time>2010-06-27T08:04:44Z</time>
      </trkpt>
      <trkpt lat="46.02773" lon="6.95003">
        <ele>1954.9782714844</ele>
        <time>2010-06-27T08:04:50Z</time>
      </trkpt>
      <trkpt lat="46.02763" lon="6.95007">
        <ele>1956.4201660156</ele>
        <time>2010-06-27T08:04:57Z</time>
      </trkpt>
      <trkpt lat="46.02755" lon="6.95011">
        <ele>1957.8623046875</ele>
        <time>2010-06-27T08:05:04Z</time>
      </trkpt>
      <trkpt lat="46.02753" lon="6.95011">
        <ele>1959.3041992188</ele>
        <time>2010-06-27T08:05:06Z</time>
      </trkpt>
      <trkpt lat="46.02748" lon="6.95013">
        <ele>1959.3041992188</ele>
        <time>2010-06-27T08:05:10Z</time>
      </trkpt>
      <trkpt lat="46.02738" lon="6.95018">
        <ele>1959.3041992188</ele>
        <time>2010-06-27T08:05:18Z</time>
      </trkpt>
      <trkpt lat="46.02729" lon="6.95022">
        <ele>1960.74609375</ele>
        <time>2010-06-27T08:05:25Z</time>
      </trkpt>
      <trkpt lat="46.0272" lon="6.95027">
        <ele>1962.6687011719</ele>
        <time>2010-06-27T08:05:32Z</time>
      </trkpt>
      <trkpt lat="46.02713" lon="6.95032">
        <ele>1963.6298828125</ele>
        <time>2010-06-27T08:05:38Z</time>
      </trkpt>
      <trkpt lat="46.02705" lon="6.95038">
        <ele>1965.072265625</ele>
        <time>2010-06-27T08:05:44Z</time>
      </trkpt>
      <trkpt lat="46.02702" lon="6.95039">
        <ele>1966.0334472656</ele>
        <time>2010-06-27T08:05:47Z</time>
      </trkpt>
      <trkpt lat="46.02697" lon="6.95042">
        <ele>1966.5141601562</ele>
        <time>2010-06-27T08:05:51Z</time>
      </trkpt>
      <trkpt lat="46.02688" lon="6.95048">
        <ele>1967.9560546875</ele>
        <time>2010-06-27T08:05:59Z</time>
      </trkpt>
      <trkpt lat="46.02682" lon="6.95052">
        <ele>1968.9174804688</ele>
        <time>2010-06-27T08:06:05Z</time>
      </trkpt>
      <trkpt lat="46.02674" lon="6.95056">
        <ele>1969.3981933594</ele>
        <time>2010-06-27T08:06:12Z</time>
      </trkpt>
      <trkpt lat="46.02665" lon="6.95058">
        <ele>1970.8400878906</ele>
        <time>2010-06-27T08:06:20Z</time>
      </trkpt>
      <trkpt lat="46.02656" lon="6.9506">
        <ele>1970.359375</ele>
        <time>2010-06-27T08:06:27Z</time>
      </trkpt>
      <trkpt lat="46.02646" lon="6.95059">
        <ele>1971.3205566406</ele>
        <time>2010-06-27T08:06:35Z</time>
      </trkpt>
      <trkpt lat="46.02638" lon="6.95059">
        <ele>1971.8012695312</ele>
        <time>2010-06-27T08:06:41Z</time>
      </trkpt>
      <trkpt lat="46.02637" lon="6.95059">
        <ele>1971.8012695312</ele>
        <time>2010-06-27T08:06:42Z</time>
      </trkpt>
      <trkpt lat="46.02629" lon="6.95057">
        <ele>1972.7626953125</ele>
        <time>2010-06-27T08:06:48Z</time>
      </trkpt>
      <trkpt lat="46.02619" lon="6.95055">
        <ele>1974.2045898438</ele>
        <time>2010-06-27T08:06:56Z</time>
      </trkpt>
      <trkpt lat="46.02608" lon="6.95054">
        <ele>1975.646484375</ele>
        <time>2010-06-27T08:07:04Z</time>
      </trkpt>
      <trkpt lat="46.026" lon="6.95055">
        <ele>1978.5305175781</ele>
        <time>2010-06-27T08:07:10Z</time>
      </trkpt>
      <trkpt lat="46.02592" lon="6.95057">
        <ele>1981.4145507812</ele>
        <time>2010-06-27T08:07:17Z</time>
      </trkpt>
      <trkpt lat="46.02583" lon="6.95058">
        <ele>1982.3759765625</ele>
        <time>2010-06-27T08:07:23Z</time>
      </trkpt>
      <trkpt lat="46.02576" lon="6.95061">
        <ele>1982.8564453125</ele>
        <time>2010-06-27T08:07:29Z</time>
      </trkpt>
      <trkpt lat="46.02569" lon="6.95064">
        <ele>1984.2985839844</ele>
        <time>2010-06-27T08:07:36Z</time>
      </trkpt>
      <trkpt lat="46.02561" lon="6.95069">
        <ele>1986.2211914062</ele>
        <time>2010-06-27T08:07:44Z</time>
      </trkpt>
      <trkpt lat="46.02554" lon="6.95074">
        <ele>1988.1437988281</ele>
        <time>2010-06-27T08:07:51Z</time>
      </trkpt>
      <trkpt lat="46.02545" lon="6.9508">
        <ele>1989.5856933594</ele>
        <time>2010-06-27T08:08:00Z</time>
      </trkpt>
      <trkpt lat="46.02536" lon="6.95085">
        <ele>1991.9890136719</ele>
        <time>2010-06-27T08:08:08Z</time>
      </trkpt>
      <trkpt lat="46.0253" lon="6.9509">
        <ele>1992.9501953125</ele>
        <time>2010-06-27T08:08:15Z</time>
      </trkpt>
      <trkpt lat="46.02523" lon="6.95094">
        <ele>1994.3920898438</ele>
        <time>2010-06-27T08:08:22Z</time>
      </trkpt>
      <trkpt lat="46.02515" lon="6.95098">
        <ele>1995.353515625</ele>
        <time>2010-06-27T08:08:29Z</time>
      </trkpt>
      <trkpt lat="46.02509" lon="6.951">
        <ele>1997.2763671875</ele>
        <time>2010-06-27T08:08:35Z</time>
      </trkpt>
      <trkpt lat="46.02505" lon="6.95102">
        <ele>1997.7570800781</ele>
        <time>2010-06-27T08:08:39Z</time>
      </trkpt>
      <trkpt lat="46.02496" lon="6.95105">
        <ele>1998.7182617188</ele>
        <time>2010-06-27T08:08:47Z</time>
      </trkpt>
      <trkpt lat="46.02487" lon="6.95112">
        <ele>2000.6408691406</ele>
        <time>2010-06-27T08:08:55Z</time>
      </trkpt>
      <trkpt lat="46.0248" lon="6.95119">
        <ele>2001.6022949219</ele>
        <time>2010-06-27T08:09:03Z</time>
      </trkpt>
      <trkpt lat="46.02477" lon="6.95124">
        <ele>2001.6022949219</ele>
        <time>2010-06-27T08:09:11Z</time>
      </trkpt>
      <trkpt lat="46.02476" lon="6.95125">
        <ele>2001.1215820312</ele>
        <time>2010-06-27T08:09:16Z</time>
      </trkpt>
      <trkpt lat="46.02468" lon="6.95127">
        <ele>2003.0441894531</ele>
        <time>2010-06-27T08:09:24Z</time>
      </trkpt>
      <trkpt lat="46.02466" lon="6.95129">
        <ele>2003.5249023438</ele>
        <time>2010-06-27T08:09:29Z</time>
      </trkpt>
      <trkpt lat="46.02464" lon="6.95127">
        <ele>2003.5249023438</ele>
        <time>2010-06-27T08:09:31Z</time>
      </trkpt>
      <trkpt lat="46.0246" lon="6.95123">
        <ele>2004.0056152344</ele>
        <time>2010-06-27T08:09:35Z</time>
      </trkpt>
      <trkpt lat="46.02455" lon="6.95118">
        <ele>2004.4860839844</ele>
        <time>2010-06-27T08:09:40Z</time>
      </trkpt>
      <trkpt lat="46.02448" lon="6.95105">
        <ele>2006.4086914062</ele>
        <time>2010-06-27T08:09:49Z</time>
      </trkpt>
      <trkpt lat="46.02445" lon="6.951">
        <ele>2006.8894042969</ele>
        <time>2010-06-27T08:09:53Z</time>
      </trkpt>
      <trkpt lat="46.02442" lon="6.95095">
        <ele>2006.8894042969</ele>
        <time>2010-06-27T08:09:58Z</time>
      </trkpt>
      <trkpt lat="46.02441" lon="6.95089">
        <ele>2007.8508300781</ele>
        <time>2010-06-27T08:10:02Z</time>
      </trkpt>
      <trkpt lat="46.02434" lon="6.95074">
        <ele>2009.7731933594</ele>
        <time>2010-06-27T08:10:11Z</time>
      </trkpt>
      <trkpt lat="46.0243" lon="6.95063">
        <ele>2010.7346191406</ele>
        <time>2010-06-27T08:10:18Z</time>
      </trkpt>
      <trkpt lat="46.02426" lon="6.95053">
        <ele>2011.6960449219</ele>
        <time>2010-06-27T08:10:25Z</time>
      </trkpt>
      <trkpt lat="46.02425" lon="6.9505">
        <ele>2012.1767578125</ele>
        <time>2010-06-27T08:10:27Z</time>
      </trkpt>
      <trkpt lat="46.02423" lon="6.95044">
        <ele>2012.1767578125</ele>
        <time>2010-06-27T08:10:35Z</time>
      </trkpt>
      <trkpt lat="46.0242" lon="6.95042">
        <ele>2012.1767578125</ele>
        <time>2010-06-27T08:10:41Z</time>
      </trkpt>
      <trkpt lat="46.02419" lon="6.95035">
        <ele>2011.6960449219</ele>
        <time>2010-06-27T08:10:48Z</time>
      </trkpt>
      <trkpt lat="46.02419" lon="6.95027">
        <ele>2011.2153320312</ele>
        <time>2010-06-27T08:10:55Z</time>
      </trkpt>
      <trkpt lat="46.02418" lon="6.95026">
        <ele>2011.6960449219</ele>
        <time>2010-06-27T08:11:04Z</time>
      </trkpt>
      <trkpt lat="46.02415" lon="6.95019">
        <ele>2012.1767578125</ele>
        <time>2010-06-27T08:11:08Z</time>
      </trkpt>
      <trkpt lat="46.02411" lon="6.95003">
        <ele>2012.6574707031</ele>
        <time>2010-06-27T08:11:17Z</time>
      </trkpt>
      <trkpt lat="46.02405" lon="6.9499">
        <ele>2013.6186523438</ele>
        <time>2010-06-27T08:11:26Z</time>
      </trkpt>
      <trkpt lat="46.02403" lon="6.94986">
        <ele>2014.580078125</ele>
        <time>2010-06-27T08:11:29Z</time>
      </trkpt>
      <trkpt lat="46.024" lon="6.94981">
        <ele>2014.580078125</ele>
        <time>2010-06-27T08:11:33Z</time>
      </trkpt>
      <trkpt lat="46.02396" lon="6.94976">
        <ele>2015.0607910156</ele>
        <time>2010-06-27T08:11:39Z</time>
      </trkpt>
      <trkpt lat="46.0239" lon="6.94967">
        <ele>2016.9833984375</ele>
        <time>2010-06-27T08:11:46Z</time>
      </trkpt>
      <trkpt lat="46.02385" lon="6.94959">
        <ele>2018.9060058594</ele>
        <time>2010-06-27T08:11:53Z</time>
      </trkpt>
      <trkpt lat="46.02379" lon="6.94951">
        <ele>2020.8286132812</ele>
        <time>2010-06-27T08:12:01Z</time>
      </trkpt>
      <trkpt lat="46.02374" lon="6.94943">
        <ele>2022.2705078125</ele>
        <time>2010-06-27T08:12:08Z</time>
      </trkpt>
      <trkpt lat="46.02368" lon="6.94934">
        <ele>2024.1931152344</ele>
        <time>2010-06-27T08:12:16Z</time>
      </trkpt>
      <trkpt lat="46.02364" lon="6.9493">
        <ele>2025.6350097656</ele>
        <time>2010-06-27T08:12:20Z</time>
      </trkpt>
      <trkpt lat="46.0236" lon="6.94916">
        <ele>2026.5964355469</ele>
        <time>2010-06-27T08:12:30Z</time>
      </trkpt>
      <trkpt lat="46.02357" lon="6.94906">
        <ele>2027.0771484375</ele>
        <time>2010-06-27T08:12:37Z</time>
      </trkpt>
      <trkpt lat="46.02353" lon="6.94897">
        <ele>2027.5576171875</ele>
        <time>2010-06-27T08:12:44Z</time>
      </trkpt>
      <trkpt lat="46.02349" lon="6.94883">
        <ele>2028.5192871094</ele>
        <time>2010-06-27T08:12:54Z</time>
      </trkpt>
      <trkpt lat="46.02352" lon="6.94871">
        <ele>2028.9997558594</ele>
        <time>2010-06-27T08:13:02Z</time>
      </trkpt>
      <trkpt lat="46.02357" lon="6.9486">
        <ele>2029.48046875</ele>
        <time>2010-06-27T08:13:09Z</time>
      </trkpt>
      <trkpt lat="46.02364" lon="6.94851">
        <ele>2029.48046875</ele>
        <time>2010-06-27T08:13:15Z</time>
      </trkpt>
      <trkpt lat="46.02372" lon="6.94839">
        <ele>2030.4418945312</ele>
        <time>2010-06-27T08:13:24Z</time>
      </trkpt>
      <trkpt lat="46.02372" lon="6.9483">
        <ele>2031.4030761719</ele>
        <time>2010-06-27T08:13:29Z</time>
      </trkpt>
      <trkpt lat="46.02367" lon="6.94821">
        <ele>2034.7678222656</ele>
        <time>2010-06-27T08:13:36Z</time>
      </trkpt>
      <trkpt lat="46.02362" lon="6.94817">
        <ele>2036.6901855469</ele>
        <time>2010-06-27T08:13:41Z</time>
      </trkpt>
      <trkpt lat="46.02358" lon="6.94809">
        <ele>2036.6901855469</ele>
        <time>2010-06-27T08:13:47Z</time>
      </trkpt>
      <trkpt lat="46.02354" lon="6.94802">
        <ele>2037.1708984375</ele>
        <time>2010-06-27T08:13:52Z</time>
      </trkpt>
      <trkpt lat="46.02353" lon="6.94801">
        <ele>2037.6516113281</ele>
        <time>2010-06-27T08:13:53Z</time>
      </trkpt>
      <trkpt lat="46.02356" lon="6.94795">
        <ele>2038.6130371094</ele>
        <time>2010-06-27T08:13:58Z</time>
      </trkpt>
      <trkpt lat="46.02355" lon="6.94791">
        <ele>2040.0549316406</ele>
        <time>2010-06-27T08:14:02Z</time>
      </trkpt>
      <trkpt lat="46.02354" lon="6.94788">
        <ele>2040.5354003906</ele>
        <time>2010-06-27T08:14:04Z</time>
      </trkpt>
      <trkpt lat="46.02349" lon="6.94783">
        <ele>2041.4968261719</ele>
        <time>2010-06-27T08:14:09Z</time>
      </trkpt>
      <trkpt lat="46.02345" lon="6.94777">
        <ele>2042.9387207031</ele>
        <time>2010-06-27T08:14:15Z</time>
      </trkpt>
      <trkpt lat="46.02344" lon="6.94776">
        <ele>2042.9387207031</ele>
        <time>2010-06-27T08:14:16Z</time>
      </trkpt>
      <trkpt lat="46.02342" lon="6.94772">
        <ele>2043.9001464844</ele>
        <time>2010-06-27T08:14:19Z</time>
      </trkpt>
      <trkpt lat="46.02338" lon="6.94767">
        <ele>2044.380859375</ele>
        <time>2010-06-27T08:14:24Z</time>
      </trkpt>
      <trkpt lat="46.02332" lon="6.94761">
        <ele>2046.3037109375</ele>
        <time>2010-06-27T08:14:34Z</time>
      </trkpt>
      <trkpt lat="46.02327" lon="6.94753">
        <ele>2048.2260742188</ele>
        <time>2010-06-27T08:14:42Z</time>
      </trkpt>
      <trkpt lat="46.02324" lon="6.94747">
        <ele>2050.1489257812</ele>
        <time>2010-06-27T08:14:49Z</time>
      </trkpt>
      <trkpt lat="46.02324" lon="6.94741">
        <ele>2051.1101074219</ele>
        <time>2010-06-27T08:14:56Z</time>
      </trkpt>
      <trkpt lat="46.02332" lon="6.94737">
        <ele>2052.5520019531</ele>
        <time>2010-06-27T08:15:05Z</time>
      </trkpt>
      <trkpt lat="46.0234" lon="6.94731">
        <ele>2054.9553222656</ele>
        <time>2010-06-27T08:15:15Z</time>
      </trkpt>
      <trkpt lat="46.02343" lon="6.94727">
        <ele>2055.9165039062</ele>
        <time>2010-06-27T08:15:21Z</time>
      </trkpt>
      <trkpt lat="46.02347" lon="6.94723">
        <ele>2056.8779296875</ele>
        <time>2010-06-27T08:15:27Z</time>
      </trkpt>
      <trkpt lat="46.02351" lon="6.94718">
        <ele>2058.8005371094</ele>
        <time>2010-06-27T08:15:33Z</time>
      </trkpt>
      <trkpt lat="46.02359" lon="6.9471">
        <ele>2059.76171875</ele>
        <time>2010-06-27T08:15:43Z</time>
      </trkpt>
      <trkpt lat="46.0236" lon="6.94709">
        <ele>2059.76171875</ele>
        <time>2010-06-27T08:15:44Z</time>
      </trkpt>
      <trkpt lat="46.02367" lon="6.94702">
        <ele>2060.7233886719</ele>
        <time>2010-06-27T08:15:52Z</time>
      </trkpt>
      <trkpt lat="46.02367" lon="6.94689">
        <ele>2060.7233886719</ele>
        <time>2010-06-27T08:16:00Z</time>
      </trkpt>
      <trkpt lat="46.02362" lon="6.94683">
        <ele>2062.1652832031</ele>
        <time>2010-06-27T08:16:08Z</time>
      </trkpt>
      <trkpt lat="46.02357" lon="6.94677">
        <ele>2065.0493164062</ele>
        <time>2010-06-27T08:16:16Z</time>
      </trkpt>
      <trkpt lat="46.02352" lon="6.94672">
        <ele>2067.9331054688</ele>
        <time>2010-06-27T08:16:24Z</time>
      </trkpt>
      <trkpt lat="46.02347" lon="6.94669">
        <ele>2069.8557128906</ele>
        <time>2010-06-27T08:16:31Z</time>
      </trkpt>
      <trkpt lat="46.02343" lon="6.94668">
        <ele>2071.7783203125</ele>
        <time>2010-06-27T08:16:37Z</time>
      </trkpt>
      <trkpt lat="46.02338" lon="6.94665">
        <ele>2073.2204589844</ele>
        <time>2010-06-27T08:16:44Z</time>
      </trkpt>
      <trkpt lat="46.0233" lon="6.9466">
        <ele>2074.6623535156</ele>
        <time>2010-06-27T08:16:53Z</time>
      </trkpt>
      <trkpt lat="46.02325" lon="6.94654">
        <ele>2076.1044921875</ele>
        <time>2010-06-27T08:17:00Z</time>
      </trkpt>
      <trkpt lat="46.02323" lon="6.9465">
        <ele>2077.0659179688</ele>
        <time>2010-06-27T08:17:06Z</time>
      </trkpt>
      <trkpt lat="46.02331" lon="6.94645">
        <ele>2078.98828125</ele>
        <time>2010-06-27T08:17:15Z</time>
      </trkpt>
      <trkpt lat="46.02338" lon="6.94643">
        <ele>2079.9497070312</ele>
        <time>2010-06-27T08:17:22Z</time>
      </trkpt>
      <trkpt lat="46.02342" lon="6.9464">
        <ele>2079.9497070312</ele>
        <time>2010-06-27T08:17:26Z</time>
      </trkpt>
      <trkpt lat="46.02346" lon="6.94635">
        <ele>2080.9111328125</ele>
        <time>2010-06-27T08:17:31Z</time>
      </trkpt>
      <trkpt lat="46.02343" lon="6.94623">
        <ele>2082.3530273438</ele>
        <time>2010-06-27T08:17:37Z</time>
      </trkpt>
      <trkpt lat="46.02347" lon="6.9462">
        <ele>2082.3530273438</ele>
        <time>2010-06-27T08:17:42Z</time>
      </trkpt>
      <trkpt lat="46.0235" lon="6.94615">
        <ele>2083.794921875</ele>
        <time>2010-06-27T08:17:47Z</time>
      </trkpt>
      <trkpt lat="46.02353" lon="6.94609">
        <ele>2085.7175292969</ele>
        <time>2010-06-27T08:17:53Z</time>
      </trkpt>
      <trkpt lat="46.02356" lon="6.94602">
        <ele>2086.1982421875</ele>
        <time>2010-06-27T08:17:58Z</time>
      </trkpt>
      <trkpt lat="46.02356" lon="6.94601">
        <ele>2086.1982421875</ele>
        <time>2010-06-27T08:17:59Z</time>
      </trkpt>
      <trkpt lat="46.02352" lon="6.94595">
        <ele>2086.1982421875</ele>
        <time>2010-06-27T08:18:03Z</time>
      </trkpt>
      <trkpt lat="46.0235" lon="6.9459">
        <ele>2086.1982421875</ele>
        <time>2010-06-27T08:18:06Z</time>
      </trkpt>
      <trkpt lat="46.02352" lon="6.94586">
        <ele>2086.1982421875</ele>
        <time>2010-06-27T08:18:09Z</time>
      </trkpt>
      <trkpt lat="46.02354" lon="6.94582">
        <ele>2087.1594238281</ele>
        <time>2010-06-27T08:18:13Z</time>
      </trkpt>
      <trkpt lat="46.02354" lon="6.94577">
        <ele>2088.6015625</ele>
        <time>2010-06-27T08:18:20Z</time>
      </trkpt>
      <trkpt lat="46.02353" lon="6.94572">
        <ele>2089.08203125</ele>
        <time>2010-06-27T08:18:27Z</time>
      </trkpt>
      <trkpt lat="46.02351" lon="6.94571">
        <ele>2089.08203125</ele>
        <time>2010-06-27T08:18:34Z</time>
      </trkpt>
      <trkpt lat="46.02349" lon="6.94571">
        <ele>2089.5627441406</ele>
        <time>2010-06-27T08:18:39Z</time>
      </trkpt>
      <trkpt lat="46.02347" lon="6.94569">
        <ele>2090.5239257812</ele>
        <time>2010-06-27T08:18:45Z</time>
      </trkpt>
      <trkpt lat="46.02345" lon="6.94568">
        <ele>2091.9660644531</ele>
        <time>2010-06-27T08:18:51Z</time>
      </trkpt>
      <trkpt lat="46.02342" lon="6.94567">
        <ele>2093.408203125</ele>
        <time>2010-06-27T08:18:57Z</time>
      </trkpt>
      <trkpt lat="46.0234" lon="6.94562">
        <ele>2094.3693847656</ele>
        <time>2010-06-27T08:19:04Z</time>
      </trkpt>
      <trkpt lat="46.02337" lon="6.9456">
        <ele>2094.8500976562</ele>
        <time>2010-06-27T08:19:09Z</time>
      </trkpt>
      <trkpt lat="46.02333" lon="6.94558">
        <ele>2095.8115234375</ele>
        <time>2010-06-27T08:19:15Z</time>
      </trkpt>
      <trkpt lat="46.02327" lon="6.94558">
        <ele>2097.2534179688</ele>
        <time>2010-06-27T08:19:20Z</time>
      </trkpt>
      <trkpt lat="46.02323" lon="6.94556">
        <ele>2098.6953125</ele>
        <time>2010-06-27T08:19:25Z</time>
      </trkpt>
      <trkpt lat="46.02321" lon="6.94548">
        <ele>2100.1374511719</ele>
        <time>2010-06-27T08:19:32Z</time>
      </trkpt>
      <trkpt lat="46.02315" lon="6.94544">
        <ele>2101.0986328125</ele>
        <time>2010-06-27T08:19:38Z</time>
      </trkpt>
      <trkpt lat="46.0231" lon="6.94541">
        <ele>2102.0598144531</ele>
        <time>2010-06-27T08:19:44Z</time>
      </trkpt>
      <trkpt lat="46.02307" lon="6.9454">
        <ele>2103.0212402344</ele>
        <time>2010-06-27T08:19:49Z</time>
      </trkpt>
      <trkpt lat="46.02303" lon="6.94539">
        <ele>2104.9438476562</ele>
        <time>2010-06-27T08:19:57Z</time>
      </trkpt>
      <trkpt lat="46.02298" lon="6.94538">
        <ele>2107.3471679688</ele>
        <time>2010-06-27T08:20:03Z</time>
      </trkpt>
      <trkpt lat="46.02295" lon="6.94535">
        <ele>2108.30859375</ele>
        <time>2010-06-27T08:20:09Z</time>
      </trkpt>
      <trkpt lat="46.02292" lon="6.94533">
        <ele>2109.2700195312</ele>
        <time>2010-06-27T08:20:15Z</time>
      </trkpt>
      <trkpt lat="46.0229" lon="6.94532">
        <ele>2110.2312011719</ele>
        <time>2010-06-27T08:20:20Z</time>
      </trkpt>
      <trkpt lat="46.02288" lon="6.94528">
        <ele>2110.7119140625</ele>
        <time>2010-06-27T08:20:25Z</time>
      </trkpt>
      <trkpt lat="46.02283" lon="6.94526">
        <ele>2111.1926269531</ele>
        <time>2010-06-27T08:20:30Z</time>
      </trkpt>
      <trkpt lat="46.0228" lon="6.94526">
        <ele>2112.1538085938</ele>
        <time>2010-06-27T08:20:34Z</time>
      </trkpt>
      <trkpt lat="46.02275" lon="6.94522">
        <ele>2114.5571289062</ele>
        <time>2010-06-27T08:20:41Z</time>
      </trkpt>
      <trkpt lat="46.02271" lon="6.9452">
        <ele>2115.9990234375</ele>
        <time>2010-06-27T08:20:46Z</time>
      </trkpt>
      <trkpt lat="46.02269" lon="6.94519">
        <ele>2116.9604492188</ele>
        <time>2010-06-27T08:20:51Z</time>
      </trkpt>
      <trkpt lat="46.02266" lon="6.94514">
        <ele>2117.4409179688</ele>
        <time>2010-06-27T08:20:56Z</time>
      </trkpt>
      <trkpt lat="46.02265" lon="6.94509">
        <ele>2117.9216308594</ele>
        <time>2010-06-27T08:20:59Z</time>
      </trkpt>
      <trkpt lat="46.02261" lon="6.94509">
        <ele>2119.8442382812</ele>
        <time>2010-06-27T08:21:04Z</time>
      </trkpt>
      <trkpt lat="46.02255" lon="6.94512">
        <ele>2120.3249511719</ele>
        <time>2010-06-27T08:21:08Z</time>
      </trkpt>
      <trkpt lat="46.02248" lon="6.94509">
        <ele>2121.2861328125</ele>
        <time>2010-06-27T08:21:15Z</time>
      </trkpt>
      <trkpt lat="46.02249" lon="6.94503">
        <ele>2121.2861328125</ele>
        <time>2010-06-27T08:21:20Z</time>
      </trkpt>
      <trkpt lat="46.02246" lon="6.945">
        <ele>2122.2475585938</ele>
        <time>2010-06-27T08:21:24Z</time>
      </trkpt>
      <trkpt lat="46.02239" lon="6.94496">
        <ele>2122.2475585938</ele>
        <time>2010-06-27T08:21:32Z</time>
      </trkpt>
      <trkpt lat="46.02234" lon="6.94492">
        <ele>2122.2475585938</ele>
        <time>2010-06-27T08:21:35Z</time>
      </trkpt>
      <trkpt lat="46.02225" lon="6.94489">
        <ele>2121.2861328125</ele>
        <time>2010-06-27T08:21:39Z</time>
      </trkpt>
      <trkpt lat="46.02221" lon="6.9449">
        <ele>2121.7668457031</ele>
        <time>2010-06-27T08:21:44Z</time>
      </trkpt>
      <trkpt lat="46.02216" lon="6.94488">
        <ele>2123.208984375</ele>
        <time>2010-06-27T08:21:49Z</time>
      </trkpt>
      <trkpt lat="46.02213" lon="6.94486">
        <ele>2123.208984375</ele>
        <time>2010-06-27T08:21:52Z</time>
      </trkpt>
      <trkpt lat="46.02206" lon="6.9448">
        <ele>2124.6511230469</ele>
        <time>2010-06-27T08:21:58Z</time>
      </trkpt>
      <trkpt lat="46.022" lon="6.94478">
        <ele>2126.0930175781</ele>
        <time>2010-06-27T08:22:03Z</time>
      </trkpt>
      <trkpt lat="46.02197" lon="6.94475">
        <ele>2126.5737304688</ele>
        <time>2010-06-27T08:22:06Z</time>
      </trkpt>
      <trkpt lat="46.02194" lon="6.94471">
        <ele>2127.0544433594</ele>
        <time>2010-06-27T08:22:09Z</time>
      </trkpt>
      <trkpt lat="46.02188" lon="6.94465">
        <ele>2128.015625</ele>
        <time>2010-06-27T08:22:14Z</time>
      </trkpt>
      <trkpt lat="46.02187" lon="6.94465">
        <ele>2128.4963378906</ele>
        <time>2010-06-27T08:22:15Z</time>
      </trkpt>
      <trkpt lat="46.02184" lon="6.94463">
        <ele>2128.4963378906</ele>
        <time>2010-06-27T08:22:18Z</time>
      </trkpt>
      <trkpt lat="46.02182" lon="6.94457">
        <ele>2128.015625</ele>
        <time>2010-06-27T08:22:22Z</time>
      </trkpt>
      <trkpt lat="46.02177" lon="6.94446">
        <ele>2126.5737304688</ele>
        <time>2010-06-27T08:22:28Z</time>
      </trkpt>
      <trkpt lat="46.02173" lon="6.94443">
        <ele>2127.0544433594</ele>
        <time>2010-06-27T08:22:34Z</time>
      </trkpt>
      <trkpt lat="46.02168" lon="6.9444">
        <ele>2127.0544433594</ele>
        <time>2010-06-27T08:22:37Z</time>
      </trkpt>
      <trkpt lat="46.02166" lon="6.94438">
        <ele>2127.0544433594</ele>
        <time>2010-06-27T08:22:38Z</time>
      </trkpt>
      <trkpt lat="46.02161" lon="6.94436">
        <ele>2127.0544433594</ele>
        <time>2010-06-27T08:22:42Z</time>
      </trkpt>
      <trkpt lat="46.02158" lon="6.94432">
        <ele>2128.015625</ele>
        <time>2010-06-27T08:22:47Z</time>
      </trkpt>
      <trkpt lat="46.02153" lon="6.9443">
        <ele>2128.9768066406</ele>
        <time>2010-06-27T08:22:53Z</time>
      </trkpt>
      <trkpt lat="46.0215" lon="6.94428">
        <ele>2130.4189453125</ele>
        <time>2010-06-27T08:22:59Z</time>
      </trkpt>
      <trkpt lat="46.02146" lon="6.94428">
        <ele>2130.8996582031</ele>
        <time>2010-06-27T08:23:06Z</time>
      </trkpt>
      <trkpt lat="46.02144" lon="6.94429">
        <ele>2130.4189453125</ele>
        <time>2010-06-27T08:23:12Z</time>
      </trkpt>
      <trkpt lat="46.0214" lon="6.94427">
        <ele>2130.4189453125</ele>
        <time>2010-06-27T08:23:17Z</time>
      </trkpt>
      <trkpt lat="46.02141" lon="6.94425">
        <ele>2129.9382324219</ele>
        <time>2010-06-27T08:23:23Z</time>
      </trkpt>
      <trkpt lat="46.02139" lon="6.94421">
        <ele>2133.302734375</ele>
        <time>2010-06-27T08:23:33Z</time>
      </trkpt>
      <trkpt lat="46.02136" lon="6.94417">
        <ele>2134.2641601562</ele>
        <time>2010-06-27T08:23:38Z</time>
      </trkpt>
      <trkpt lat="46.02132" lon="6.94414">
        <ele>2135.7060546875</ele>
        <time>2010-06-27T08:23:44Z</time>
      </trkpt>
      <trkpt lat="46.02127" lon="6.9441">
        <ele>2138.109375</ele>
        <time>2010-06-27T08:23:51Z</time>
      </trkpt>
      <trkpt lat="46.02125" lon="6.94409">
        <ele>2139.0705566406</ele>
        <time>2010-06-27T08:23:57Z</time>
      </trkpt>
      <trkpt lat="46.02121" lon="6.94407">
        <ele>2140.9934082031</ele>
        <time>2010-06-27T08:24:03Z</time>
      </trkpt>
      <trkpt lat="46.02115" lon="6.94404">
        <ele>2141.4741210938</ele>
        <time>2010-06-27T08:24:08Z</time>
      </trkpt>
      <trkpt lat="46.02114" lon="6.94403">
        <ele>2141.4741210938</ele>
        <time>2010-06-27T08:24:09Z</time>
      </trkpt>
      <trkpt lat="46.0211" lon="6.94392">
        <ele>2142.435546875</ele>
        <time>2010-06-27T08:24:16Z</time>
      </trkpt>
      <trkpt lat="46.02105" lon="6.94389">
        <ele>2143.8774414062</ele>
        <time>2010-06-27T08:24:20Z</time>
      </trkpt>
      <trkpt lat="46.02101" lon="6.94385">
        <ele>2144.3579101562</ele>
        <time>2010-06-27T08:24:26Z</time>
      </trkpt>
      <trkpt lat="46.021" lon="6.94383">
        <ele>2144.3579101562</ele>
        <time>2010-06-27T08:24:32Z</time>
      </trkpt>
      <trkpt lat="46.02095" lon="6.94379">
        <ele>2144.3579101562</ele>
        <time>2010-06-27T08:24:37Z</time>
      </trkpt>
      <trkpt lat="46.0209" lon="6.94376">
        <ele>2145.3193359375</ele>
        <time>2010-06-27T08:24:41Z</time>
      </trkpt>
      <trkpt lat="46.02088" lon="6.94368">
        <ele>2145.3193359375</ele>
        <time>2010-06-27T08:24:45Z</time>
      </trkpt>
      <trkpt lat="46.02079" lon="6.94366">
        <ele>2144.3579101562</ele>
        <time>2010-06-27T08:24:51Z</time>
      </trkpt>
      <trkpt lat="46.02074" lon="6.9436">
        <ele>2143.8774414062</ele>
        <time>2010-06-27T08:24:55Z</time>
      </trkpt>
      <trkpt lat="46.02067" lon="6.94356">
        <ele>2141.9548339844</ele>
        <time>2010-06-27T08:24:59Z</time>
      </trkpt>
      <trkpt lat="46.02058" lon="6.94353">
        <ele>2140.9934082031</ele>
        <time>2010-06-27T08:25:04Z</time>
      </trkpt>
      <trkpt lat="46.02054" lon="6.9435">
        <ele>2140.9934082031</ele>
        <time>2010-06-27T08:25:09Z</time>
      </trkpt>
      <trkpt lat="46.02052" lon="6.94346">
        <ele>2140.5126953125</ele>
        <time>2010-06-27T08:25:12Z</time>
      </trkpt>
      <trkpt lat="46.02044" lon="6.94344">
        <ele>2140.0322265625</ele>
        <time>2010-06-27T08:25:16Z</time>
      </trkpt>
      <trkpt lat="46.02039" lon="6.94345">
        <ele>2141.9548339844</ele>
        <time>2010-06-27T08:25:20Z</time>
      </trkpt>
      <trkpt lat="46.02036" lon="6.94342">
        <ele>2142.916015625</ele>
        <time>2010-06-27T08:25:23Z</time>
      </trkpt>
      <trkpt lat="46.02031" lon="6.94336">
        <ele>2144.8386230469</ele>
        <time>2010-06-27T08:25:31Z</time>
      </trkpt>
      <trkpt lat="46.02028" lon="6.94331">
        <ele>2146.7612304688</ele>
        <time>2010-06-27T08:25:37Z</time>
      </trkpt>
      <trkpt lat="46.02027" lon="6.94325">
        <ele>2148.203125</ele>
        <time>2010-06-27T08:25:42Z</time>
      </trkpt>
      <trkpt lat="46.02023" lon="6.94319">
        <ele>2149.6452636719</ele>
        <time>2010-06-27T08:25:50Z</time>
      </trkpt>
      <trkpt lat="46.02022" lon="6.94314">
        <ele>2150.1259765625</ele>
        <time>2010-06-27T08:25:55Z</time>
      </trkpt>
      <trkpt lat="46.02023" lon="6.94311">
        <ele>2151.0871582031</ele>
        <time>2010-06-27T08:26:01Z</time>
      </trkpt>
      <trkpt lat="46.02021" lon="6.94308">
        <ele>2153.009765625</ele>
        <time>2010-06-27T08:26:07Z</time>
      </trkpt>
      <trkpt lat="46.02018" lon="6.94301">
        <ele>2154.9323730469</ele>
        <time>2010-06-27T08:26:14Z</time>
      </trkpt>
      <trkpt lat="46.02012" lon="6.94301">
        <ele>2155.4130859375</ele>
        <time>2010-06-27T08:26:20Z</time>
      </trkpt>
      <trkpt lat="46.02008" lon="6.943">
        <ele>2155.8935546875</ele>
        <time>2010-06-27T08:26:23Z</time>
      </trkpt>
      <trkpt lat="46.02002" lon="6.94297">
        <ele>2155.4130859375</ele>
        <time>2010-06-27T08:26:28Z</time>
      </trkpt>
      <trkpt lat="46.02" lon="6.94288">
        <ele>2156.8552246094</ele>
        <time>2010-06-27T08:26:36Z</time>
      </trkpt>
      <trkpt lat="46.02004" lon="6.9428">
        <ele>2158.7778320312</ele>
        <time>2010-06-27T08:26:44Z</time>
      </trkpt>
      <trkpt lat="46.02003" lon="6.94277">
        <ele>2160.7004394531</ele>
        <time>2010-06-27T08:26:50Z</time>
      </trkpt>
      <trkpt lat="46.01994" lon="6.94274">
        <ele>2162.1423339844</ele>
        <time>2010-06-27T08:26:57Z</time>
      </trkpt>
      <trkpt lat="46.01992" lon="6.94271">
        <ele>2162.1423339844</ele>
        <time>2010-06-27T08:26:59Z</time>
      </trkpt>
      <trkpt lat="46.01991" lon="6.94263">
        <ele>2162.623046875</ele>
        <time>2010-06-27T08:27:05Z</time>
      </trkpt>
      <trkpt lat="46.01988" lon="6.94255">
        <ele>2162.1423339844</ele>
        <time>2010-06-27T08:27:09Z</time>
      </trkpt>
      <trkpt lat="46.01985" lon="6.9425">
        <ele>2162.1423339844</ele>
        <time>2010-06-27T08:27:12Z</time>
      </trkpt>
      <trkpt lat="46.01981" lon="6.94243">
        <ele>2161.6618652344</ele>
        <time>2010-06-27T08:27:17Z</time>
      </trkpt>
      <trkpt lat="46.0198" lon="6.9424">
        <ele>2161.6618652344</ele>
        <time>2010-06-27T08:27:19Z</time>
      </trkpt>
      <trkpt lat="46.01973" lon="6.94235">
        <ele>2163.5842285156</ele>
        <time>2010-06-27T08:27:26Z</time>
      </trkpt>
      <trkpt lat="46.01968" lon="6.94229">
        <ele>2165.9875488281</ele>
        <time>2010-06-27T08:27:34Z</time>
      </trkpt>
      <trkpt lat="46.01963" lon="6.94223">
        <ele>2167.4294433594</ele>
        <time>2010-06-27T08:27:41Z</time>
      </trkpt>
      <trkpt lat="46.01958" lon="6.9422">
        <ele>2168.3908691406</ele>
        <time>2010-06-27T08:27:48Z</time>
      </trkpt>
      <trkpt lat="46.01954" lon="6.94217">
        <ele>2169.8327636719</ele>
        <time>2010-06-27T08:27:53Z</time>
      </trkpt>
      <trkpt lat="46.01951" lon="6.94213">
        <ele>2170.7941894531</ele>
        <time>2010-06-27T08:27:59Z</time>
      </trkpt>
      <trkpt lat="46.01947" lon="6.94208">
        <ele>2171.2746582031</ele>
        <time>2010-06-27T08:28:05Z</time>
      </trkpt>
      <trkpt lat="46.01944" lon="6.94205">
        <ele>2172.236328125</ele>
        <time>2010-06-27T08:28:11Z</time>
      </trkpt>
      <trkpt lat="46.01941" lon="6.94202">
        <ele>2172.7170410156</ele>
        <time>2010-06-27T08:28:17Z</time>
      </trkpt>
      <trkpt lat="46.01936" lon="6.942">
        <ele>2174.1589355469</ele>
        <time>2010-06-27T08:28:25Z</time>
      </trkpt>
      <trkpt lat="46.01929" lon="6.94198">
        <ele>2174.6396484375</ele>
        <time>2010-06-27T08:28:30Z</time>
      </trkpt>
      <trkpt lat="46.01927" lon="6.94197">
        <ele>2175.1201171875</ele>
        <time>2010-06-27T08:28:32Z</time>
      </trkpt>
      <trkpt lat="46.01921" lon="6.94193">
        <ele>2176.0815429688</ele>
        <time>2010-06-27T08:28:38Z</time>
      </trkpt>
      <trkpt lat="46.01918" lon="6.94191">
        <ele>2176.5622558594</ele>
        <time>2010-06-27T08:28:41Z</time>
      </trkpt>
      <trkpt lat="46.01916" lon="6.94187">
        <ele>2177.04296875</ele>
        <time>2010-06-27T08:28:46Z</time>
      </trkpt>
      <trkpt lat="46.01914" lon="6.94189">
        <ele>2178.0041503906</ele>
        <time>2010-06-27T08:28:51Z</time>
      </trkpt>
      <trkpt lat="46.01911" lon="6.94189">
        <ele>2178.4848632812</ele>
        <time>2010-06-27T08:28:56Z</time>
      </trkpt>
      <trkpt lat="46.01909" lon="6.94186">
        <ele>2179.9267578125</ele>
        <time>2010-06-27T08:29:01Z</time>
      </trkpt>
      <trkpt lat="46.01907" lon="6.94184">
        <ele>2180.8881835938</ele>
        <time>2010-06-27T08:29:05Z</time>
      </trkpt>
      <trkpt lat="46.01904" lon="6.94182">
        <ele>2182.330078125</ele>
        <time>2010-06-27T08:29:12Z</time>
      </trkpt>
      <trkpt lat="46.01899" lon="6.9418">
        <ele>2183.7719726562</ele>
        <time>2010-06-27T08:29:17Z</time>
      </trkpt>
      <trkpt lat="46.01894" lon="6.94176">
        <ele>2183.7719726562</ele>
        <time>2010-06-27T08:29:23Z</time>
      </trkpt>
      <trkpt lat="46.01888" lon="6.94176">
        <ele>2185.2138671875</ele>
        <time>2010-06-27T08:29:31Z</time>
      </trkpt>
      <trkpt lat="46.01884" lon="6.94179">
        <ele>2186.1752929688</ele>
        <time>2010-06-27T08:29:37Z</time>
      </trkpt>
      <trkpt lat="46.01884" lon="6.94175">
        <ele>2187.1364746094</ele>
        <time>2010-06-27T08:29:43Z</time>
      </trkpt>
      <trkpt lat="46.01882" lon="6.94174">
        <ele>2189.0593261719</ele>
        <time>2010-06-27T08:29:48Z</time>
      </trkpt>
      <trkpt lat="46.01879" lon="6.94173">
        <ele>2190.0207519531</ele>
        <time>2010-06-27T08:29:53Z</time>
      </trkpt>
      <trkpt lat="46.01877" lon="6.9417">
        <ele>2191.4626464844</ele>
        <time>2010-06-27T08:29:59Z</time>
      </trkpt>
      <trkpt lat="46.01875" lon="6.94167">
        <ele>2192.4240722656</ele>
        <time>2010-06-27T08:30:05Z</time>
      </trkpt>
      <trkpt lat="46.01871" lon="6.94165">
        <ele>2192.9045410156</ele>
        <time>2010-06-27T08:30:11Z</time>
      </trkpt>
      <trkpt lat="46.01863" lon="6.94163">
        <ele>2195.3078613281</ele>
        <time>2010-06-27T08:30:21Z</time>
      </trkpt>
      <trkpt lat="46.01855" lon="6.9416">
        <ele>2196.7497558594</ele>
        <time>2010-06-27T08:30:28Z</time>
      </trkpt>
      <trkpt lat="46.01849" lon="6.94158">
        <ele>2197.7111816406</ele>
        <time>2010-06-27T08:30:33Z</time>
      </trkpt>
      <trkpt lat="46.01846" lon="6.94154">
        <ele>2198.1916503906</ele>
        <time>2010-06-27T08:30:37Z</time>
      </trkpt>
      <trkpt lat="46.01841" lon="6.94149">
        <ele>2199.6337890625</ele>
        <time>2010-06-27T08:30:46Z</time>
      </trkpt>
      <trkpt lat="46.01839" lon="6.94147">
        <ele>2200.1145019531</ele>
        <time>2010-06-27T08:30:50Z</time>
      </trkpt>
      <trkpt lat="46.01836" lon="6.94139">
        <ele>2202.0368652344</ele>
        <time>2010-06-27T08:30:57Z</time>
      </trkpt>
      <trkpt lat="46.01833" lon="6.94137">
        <ele>2202.517578125</ele>
        <time>2010-06-27T08:31:00Z</time>
      </trkpt>
      <trkpt lat="46.01829" lon="6.94136">
        <ele>2202.517578125</ele>
        <time>2010-06-27T08:31:03Z</time>
      </trkpt>
      <trkpt lat="46.01828" lon="6.94132">
        <ele>2203.4790039062</ele>
        <time>2010-06-27T08:31:07Z</time>
      </trkpt>
      <trkpt lat="46.01826" lon="6.94126">
        <ele>2205.4018554688</ele>
        <time>2010-06-27T08:31:14Z</time>
      </trkpt>
      <trkpt lat="46.01826" lon="6.94123">
        <ele>2205.8823242188</ele>
        <time>2010-06-27T08:31:18Z</time>
      </trkpt>
      <trkpt lat="46.01825" lon="6.94118">
        <ele>2207.3244628906</ele>
        <time>2010-06-27T08:31:23Z</time>
      </trkpt>
      <trkpt lat="46.01823" lon="6.94113">
        <ele>2207.8051757812</ele>
        <time>2010-06-27T08:31:29Z</time>
      </trkpt>
      <trkpt lat="46.01822" lon="6.94111">
        <ele>2207.3244628906</ele>
        <time>2010-06-27T08:31:34Z</time>
      </trkpt>
      <trkpt lat="46.01822" lon="6.94111">
        <ele>2207.3244628906</ele>
        <time>2010-06-27T08:31:41Z</time>
      </trkpt>
      <trkpt lat="46.01822" lon="6.94111">
        <ele>2207.3244628906</ele>
        <time>2010-06-27T08:31:52Z</time>
      </trkpt>
      <trkpt lat="46.01822" lon="6.9411">
        <ele>2206.3630371094</ele>
        <time>2010-06-27T08:32:10Z</time>
      </trkpt>
      <trkpt lat="46.01822" lon="6.94109">
        <ele>2206.3630371094</ele>
        <time>2010-06-27T08:32:17Z</time>
      </trkpt>
      <trkpt lat="46.01821" lon="6.94109">
        <ele>2206.84375</ele>
        <time>2010-06-27T08:32:30Z</time>
      </trkpt>
      <trkpt lat="46.01821" lon="6.9411">
        <ele>2206.3630371094</ele>
        <time>2010-06-27T08:32:53Z</time>
      </trkpt>
      <trkpt lat="46.01821" lon="6.9411">
        <ele>2206.84375</ele>
        <time>2010-06-27T08:32:59Z</time>
      </trkpt>
      <trkpt lat="46.01821" lon="6.94109">
        <ele>2207.8051757812</ele>
        <time>2010-06-27T08:33:10Z</time>
      </trkpt>
      <trkpt lat="46.01823" lon="6.94107">
        <ele>2204.9211425781</ele>
        <time>2010-06-27T08:33:34Z</time>
      </trkpt>
      <trkpt lat="46.01827" lon="6.9411">
        <ele>2204.9211425781</ele>
        <time>2010-06-27T08:33:40Z</time>
      </trkpt>
      <trkpt lat="46.01827" lon="6.94111">
        <ele>2205.4018554688</ele>
        <time>2010-06-27T08:33:46Z</time>
      </trkpt>
      <trkpt lat="46.01826" lon="6.9411">
        <ele>2204.9211425781</ele>
        <time>2010-06-27T08:33:52Z</time>
      </trkpt>
      <trkpt lat="46.01825" lon="6.94109">
        <ele>2205.4018554688</ele>
        <time>2010-06-27T08:33:57Z</time>
      </trkpt>
      <trkpt lat="46.01825" lon="6.94107">
        <ele>2205.4018554688</ele>
        <time>2010-06-27T08:34:03Z</time>
      </trkpt>
      <trkpt lat="46.01825" lon="6.94106">
        <ele>2205.8823242188</ele>
        <time>2010-06-27T08:34:04Z</time>
      </trkpt>
      <trkpt lat="46.01824" lon="6.94102">
        <ele>2205.4018554688</ele>
        <time>2010-06-27T08:34:09Z</time>
      </trkpt>
      <trkpt lat="46.01823" lon="6.94101">
        <ele>2204.9211425781</ele>
        <time>2010-06-27T08:34:12Z</time>
      </trkpt>
      <trkpt lat="46.01822" lon="6.9409">
        <ele>2203.9597167969</ele>
        <time>2010-06-27T08:34:17Z</time>
      </trkpt>
      <trkpt lat="46.0182" lon="6.94084">
        <ele>2203.9597167969</ele>
        <time>2010-06-27T08:34:19Z</time>
      </trkpt>
      <trkpt lat="46.01821" lon="6.94061">
        <ele>2204.9211425781</ele>
        <time>2010-06-27T08:34:24Z</time>
      </trkpt>
      <trkpt lat="46.01821" lon="6.94057">
        <ele>2204.9211425781</ele>
        <time>2010-06-27T08:34:25Z</time>
      </trkpt>
      <trkpt lat="46.01819" lon="6.94046">
        <ele>2205.8823242188</ele>
        <time>2010-06-27T08:34:28Z</time>
      </trkpt>
      <trkpt lat="46.01815" lon="6.9403">
        <ele>2206.3630371094</ele>
        <time>2010-06-27T08:34:33Z</time>
      </trkpt>
      <trkpt lat="46.01807" lon="6.94023">
        <ele>2206.84375</ele>
        <time>2010-06-27T08:34:37Z</time>
      </trkpt>
      <trkpt lat="46.01801" lon="6.94017">
        <ele>2205.8823242188</ele>
        <time>2010-06-27T08:34:42Z</time>
      </trkpt>
      <trkpt lat="46.01801" lon="6.94015">
        <ele>2205.4018554688</ele>
        <time>2010-06-27T08:34:45Z</time>
      </trkpt>
      <trkpt lat="46.01795" lon="6.94001">
        <ele>2204.9211425781</ele>
        <time>2010-06-27T08:34:50Z</time>
      </trkpt>
      <trkpt lat="46.01788" lon="6.93991">
        <ele>2205.4018554688</ele>
        <time>2010-06-27T08:34:54Z</time>
      </trkpt>
      <trkpt lat="46.01786" lon="6.93987">
        <ele>2204.9211425781</ele>
        <time>2010-06-27T08:34:58Z</time>
      </trkpt>
      <trkpt lat="46.01783" lon="6.93982">
        <ele>2203.4790039062</ele>
        <time>2010-06-27T08:35:04Z</time>
      </trkpt>
      <trkpt lat="46.01778" lon="6.93979">
        <ele>2201.5563964844</ele>
        <time>2010-06-27T08:35:10Z</time>
      </trkpt>
      <trkpt lat="46.01778" lon="6.93974">
        <ele>2200.5949707031</ele>
        <time>2010-06-27T08:35:13Z</time>
      </trkpt>
      <trkpt lat="46.01776" lon="6.93969">
        <ele>2200.1145019531</ele>
        <time>2010-06-27T08:35:15Z</time>
      </trkpt>
      <trkpt lat="46.01768" lon="6.93967">
        <ele>2198.1916503906</ele>
        <time>2010-06-27T08:35:22Z</time>
      </trkpt>
      <trkpt lat="46.01767" lon="6.93966">
        <ele>2197.7111816406</ele>
        <time>2010-06-27T08:35:23Z</time>
      </trkpt>
      <trkpt lat="46.01761" lon="6.93964">
        <ele>2194.3464355469</ele>
        <time>2010-06-27T08:35:29Z</time>
      </trkpt>
      <trkpt lat="46.01756" lon="6.93961">
        <ele>2192.9045410156</ele>
        <time>2010-06-27T08:35:33Z</time>
      </trkpt>
      <trkpt lat="46.01752" lon="6.93961">
        <ele>2191.4626464844</ele>
        <time>2010-06-27T08:35:37Z</time>
      </trkpt>
      <trkpt lat="46.01747" lon="6.93961">
        <ele>2190.0207519531</ele>
        <time>2010-06-27T08:35:44Z</time>
      </trkpt>
      <trkpt lat="46.01745" lon="6.93961">
        <ele>2190.0207519531</ele>
        <time>2010-06-27T08:35:49Z</time>
      </trkpt>
      <trkpt lat="46.01744" lon="6.9396">
        <ele>2189.5400390625</ele>
        <time>2010-06-27T08:35:54Z</time>
      </trkpt>
      <trkpt lat="46.01742" lon="6.9396">
        <ele>2188.0981445312</ele>
        <time>2010-06-27T08:36:01Z</time>
      </trkpt>
      <trkpt lat="46.01739" lon="6.93959">
        <ele>2187.1364746094</ele>
        <time>2010-06-27T08:36:06Z</time>
      </trkpt>
      <trkpt lat="46.01736" lon="6.93962">
        <ele>2186.6557617188</ele>
        <time>2010-06-27T08:36:10Z</time>
      </trkpt>
      <trkpt lat="46.01733" lon="6.93964">
        <ele>2185.2138671875</ele>
        <time>2010-06-27T08:36:16Z</time>
      </trkpt>
      <trkpt lat="46.01728" lon="6.93962">
        <ele>2183.2912597656</ele>
        <time>2010-06-27T08:36:22Z</time>
      </trkpt>
      <trkpt lat="46.01723" lon="6.93959">
        <ele>2181.3686523438</ele>
        <time>2010-06-27T08:36:26Z</time>
      </trkpt>
      <trkpt lat="46.01717" lon="6.93952">
        <ele>2177.5234375</ele>
        <time>2010-06-27T08:36:32Z</time>
      </trkpt>
      <trkpt lat="46.01714" lon="6.9395">
        <ele>2175.6008300781</ele>
        <time>2010-06-27T08:36:35Z</time>
      </trkpt>
      <trkpt lat="46.0171" lon="6.93949">
        <ele>2174.6396484375</ele>
        <time>2010-06-27T08:36:38Z</time>
      </trkpt>
      <trkpt lat="46.01705" lon="6.93946">
        <ele>2172.7170410156</ele>
        <time>2010-06-27T08:36:42Z</time>
      </trkpt>
      <trkpt lat="46.01707" lon="6.93939">
        <ele>2170.3134765625</ele>
        <time>2010-06-27T08:36:48Z</time>
      </trkpt>
      <trkpt lat="46.01707" lon="6.93938">
        <ele>2170.3134765625</ele>
        <time>2010-06-27T08:36:49Z</time>
      </trkpt>
      <trkpt lat="46.01701" lon="6.93936">
        <ele>2165.5070800781</ele>
        <time>2010-06-27T08:36:57Z</time>
      </trkpt>
      <trkpt lat="46.01696" lon="6.93933">
        <ele>2164.0649414062</ele>
        <time>2010-06-27T08:37:01Z</time>
      </trkpt>
      <trkpt lat="46.01683" lon="6.93926">
        <ele>2162.623046875</ele>
        <time>2010-06-27T08:37:05Z</time>
      </trkpt>
      <trkpt lat="46.01674" lon="6.93923">
        <ele>2161.6618652344</ele>
        <time>2010-06-27T08:37:09Z</time>
      </trkpt>
      <trkpt lat="46.01672" lon="6.93921">
        <ele>2161.1811523438</ele>
        <time>2010-06-27T08:37:10Z</time>
      </trkpt>
      <trkpt lat="46.0166" lon="6.93914">
        <ele>2159.7390136719</ele>
        <time>2010-06-27T08:37:15Z</time>
      </trkpt>
      <trkpt lat="46.01656" lon="6.93913">
        <ele>2159.2585449219</ele>
        <time>2010-06-27T08:37:17Z</time>
      </trkpt>
      <trkpt lat="46.01653" lon="6.93912">
        <ele>2158.7778320312</ele>
        <time>2010-06-27T08:37:20Z</time>
      </trkpt>
      <trkpt lat="46.01644" lon="6.93914">
        <ele>2157.8166503906</ele>
        <time>2010-06-27T08:37:25Z</time>
      </trkpt>
      <trkpt lat="46.01641" lon="6.93914">
        <ele>2156.8552246094</ele>
        <time>2010-06-27T08:37:26Z</time>
      </trkpt>
      <trkpt lat="46.01632" lon="6.93911">
        <ele>2154.4516601562</ele>
        <time>2010-06-27T08:37:32Z</time>
      </trkpt>
      <trkpt lat="46.01629" lon="6.93908">
        <ele>2153.4904785156</ele>
        <time>2010-06-27T08:37:34Z</time>
      </trkpt>
      <trkpt lat="46.0162" lon="6.93905">
        <ele>2151.5678710938</ele>
        <time>2010-06-27T08:37:39Z</time>
      </trkpt>
      <trkpt lat="46.01616" lon="6.93902">
        <ele>2149.6452636719</ele>
        <time>2010-06-27T08:37:42Z</time>
      </trkpt>
      <trkpt lat="46.0161" lon="6.93901">
        <ele>2149.1645507812</ele>
        <time>2010-06-27T08:37:44Z</time>
      </trkpt>
      <trkpt lat="46.01598" lon="6.93894">
        <ele>2147.72265625</ele>
        <time>2010-06-27T08:37:49Z</time>
      </trkpt>
      <trkpt lat="46.01596" lon="6.93892">
        <ele>2147.2419433594</ele>
        <time>2010-06-27T08:37:51Z</time>
      </trkpt>
      <trkpt lat="46.01594" lon="6.93892">
        <ele>2146.2807617188</ele>
        <time>2010-06-27T08:37:58Z</time>
      </trkpt>
      <trkpt lat="46.01591" lon="6.93891">
        <ele>2145.8000488281</ele>
        <time>2010-06-27T08:38:06Z</time>
      </trkpt>
      <trkpt lat="46.01589" lon="6.9389">
        <ele>2145.3193359375</ele>
        <time>2010-06-27T08:38:14Z</time>
      </trkpt>
      <trkpt lat="46.01587" lon="6.9389">
        <ele>2144.3579101562</ele>
        <time>2010-06-27T08:38:22Z</time>
      </trkpt>
      <trkpt lat="46.01585" lon="6.9389">
        <ele>2143.8774414062</ele>
        <time>2010-06-27T08:38:26Z</time>
      </trkpt>
      <trkpt lat="46.0158" lon="6.93888">
        <ele>2142.435546875</ele>
        <time>2010-06-27T08:38:30Z</time>
      </trkpt>
      <trkpt lat="46.01575" lon="6.93882">
        <ele>2139.5512695312</ele>
        <time>2010-06-27T08:38:34Z</time>
      </trkpt>
      <trkpt lat="46.01568" lon="6.93881">
        <ele>2138.109375</ele>
        <time>2010-06-27T08:38:39Z</time>
      </trkpt>
      <trkpt lat="46.01566" lon="6.93882">
        <ele>2137.6286621094</ele>
        <time>2010-06-27T08:38:42Z</time>
      </trkpt>
      <trkpt lat="46.01561" lon="6.93876">
        <ele>2134.2641601562</ele>
        <time>2010-06-27T08:38:47Z</time>
      </trkpt>
      <trkpt lat="46.0156" lon="6.93875">
        <ele>2133.302734375</ele>
        <time>2010-06-27T08:38:48Z</time>
      </trkpt>
      <trkpt lat="46.01549" lon="6.93874">
        <ele>2131.8608398438</ele>
        <time>2010-06-27T08:38:53Z</time>
      </trkpt>
      <trkpt lat="46.01545" lon="6.93874">
        <ele>2131.3801269531</ele>
        <time>2010-06-27T08:38:55Z</time>
      </trkpt>
      <trkpt lat="46.01531" lon="6.93865">
        <ele>2129.4575195312</ele>
        <time>2010-06-27T08:39:00Z</time>
      </trkpt>
      <trkpt lat="46.01523" lon="6.93854">
        <ele>2128.4963378906</ele>
        <time>2010-06-27T08:39:05Z</time>
      </trkpt>
      <trkpt lat="46.0152" lon="6.93846">
        <ele>2129.4575195312</ele>
        <time>2010-06-27T08:39:09Z</time>
      </trkpt>
      <trkpt lat="46.01508" lon="6.9384">
        <ele>2130.8996582031</ele>
        <time>2010-06-27T08:39:15Z</time>
      </trkpt>
      <trkpt lat="46.01497" lon="6.93832">
        <ele>2130.4189453125</ele>
        <time>2010-06-27T08:39:21Z</time>
      </trkpt>
      <trkpt lat="46.01487" lon="6.93819">
        <ele>2128.4963378906</ele>
        <time>2010-06-27T08:39:27Z</time>
      </trkpt>
      <trkpt lat="46.01484" lon="6.93817">
        <ele>2128.4963378906</ele>
        <time>2010-06-27T08:39:29Z</time>
      </trkpt>
      <trkpt lat="46.01474" lon="6.93809">
        <ele>2128.015625</ele>
        <time>2010-06-27T08:39:35Z</time>
      </trkpt>
      <trkpt lat="46.01466" lon="6.938">
        <ele>2127.5349121094</ele>
        <time>2010-06-27T08:39:40Z</time>
      </trkpt>
      <trkpt lat="46.01459" lon="6.93793">
        <ele>2125.6123046875</ele>
        <time>2010-06-27T08:39:45Z</time>
      </trkpt>
      <trkpt lat="46.01457" lon="6.93792">
        <ele>2125.1315917969</ele>
        <time>2010-06-27T08:39:47Z</time>
      </trkpt>
      <trkpt lat="46.01453" lon="6.9379">
        <ele>2123.689453125</ele>
        <time>2010-06-27T08:39:50Z</time>
      </trkpt>
      <trkpt lat="46.01446" lon="6.93789">
        <ele>2121.7668457031</ele>
        <time>2010-06-27T08:39:56Z</time>
      </trkpt>
      <trkpt lat="46.0144" lon="6.93786">
        <ele>2119.8442382812</ele>
        <time>2010-06-27T08:40:00Z</time>
      </trkpt>
      <trkpt lat="46.01435" lon="6.93778">
        <ele>2117.4409179688</ele>
        <time>2010-06-27T08:40:04Z</time>
      </trkpt>
      <trkpt lat="46.01429" lon="6.9378">
        <ele>2115.9990234375</ele>
        <time>2010-06-27T08:40:08Z</time>
      </trkpt>
      <trkpt lat="46.01427" lon="6.9378">
        <ele>2115.0378417969</ele>
        <time>2010-06-27T08:40:09Z</time>
      </trkpt>
      <trkpt lat="46.01423" lon="6.93783">
        <ele>2114.0764160156</ele>
        <time>2010-06-27T08:40:11Z</time>
      </trkpt>
      <trkpt lat="46.01412" lon="6.93785">
        <ele>2112.6345214844</ele>
        <time>2010-06-27T08:40:15Z</time>
      </trkpt>
      <trkpt lat="46.01406" lon="6.93785">
        <ele>2112.1538085938</ele>
        <time>2010-06-27T08:40:19Z</time>
      </trkpt>
      <trkpt lat="46.01402" lon="6.93778">
        <ele>2111.6733398438</ele>
        <time>2010-06-27T08:40:23Z</time>
      </trkpt>
      <trkpt lat="46.01392" lon="6.93771">
        <ele>2107.8278808594</ele>
        <time>2010-06-27T08:40:30Z</time>
      </trkpt>
      <trkpt lat="46.0139" lon="6.93769">
        <ele>2107.8278808594</ele>
        <time>2010-06-27T08:40:31Z</time>
      </trkpt>
      <trkpt lat="46.01387" lon="6.93764">
        <ele>2105.9050292969</ele>
        <time>2010-06-27T08:40:35Z</time>
      </trkpt>
      <trkpt lat="46.01383" lon="6.93759">
        <ele>2104.4631347656</ele>
        <time>2010-06-27T08:40:39Z</time>
      </trkpt>
      <trkpt lat="46.01373" lon="6.9375">
        <ele>2100.6179199219</ele>
        <time>2010-06-27T08:40:46Z</time>
      </trkpt>
      <trkpt lat="46.01371" lon="6.93746">
        <ele>2099.6567382812</ele>
        <time>2010-06-27T08:40:48Z</time>
      </trkpt>
      <trkpt lat="46.01365" lon="6.93739">
        <ele>2097.2534179688</ele>
        <time>2010-06-27T08:40:53Z</time>
      </trkpt>
      <trkpt lat="46.01358" lon="6.93729">
        <ele>2094.8500976562</ele>
        <time>2010-06-27T08:40:58Z</time>
      </trkpt>
      <trkpt lat="46.01351" lon="6.93725">
        <ele>2093.408203125</ele>
        <time>2010-06-27T08:41:02Z</time>
      </trkpt>
      <trkpt lat="46.01347" lon="6.93725">
        <ele>2092.9274902344</ele>
        <time>2010-06-27T08:41:04Z</time>
      </trkpt>
      <trkpt lat="46.01337" lon="6.93725">
        <ele>2091.4853515625</ele>
        <time>2010-06-27T08:41:09Z</time>
      </trkpt>
      <trkpt lat="46.01331" lon="6.93722">
        <ele>2089.08203125</ele>
        <time>2010-06-27T08:41:14Z</time>
      </trkpt>
      <trkpt lat="46.01323" lon="6.9372">
        <ele>2088.1208496094</ele>
        <time>2010-06-27T08:41:17Z</time>
      </trkpt>
      <trkpt lat="46.01313" lon="6.93711">
        <ele>2086.1982421875</ele>
        <time>2010-06-27T08:41:22Z</time>
      </trkpt>
      <trkpt lat="46.01301" lon="6.93706">
        <ele>2084.2756347656</ele>
        <time>2010-06-27T08:41:27Z</time>
      </trkpt>
      <trkpt lat="46.01294" lon="6.93697">
        <ele>2083.3142089844</ele>
        <time>2010-06-27T08:41:31Z</time>
      </trkpt>
      <trkpt lat="46.01286" lon="6.93691">
        <ele>2082.3530273438</ele>
        <time>2010-06-27T08:41:35Z</time>
      </trkpt>
      <trkpt lat="46.01281" lon="6.93687">
        <ele>2082.3530273438</ele>
        <time>2010-06-27T08:41:37Z</time>
      </trkpt>
      <trkpt lat="46.01273" lon="6.93671">
        <ele>2080.4304199219</ele>
        <time>2010-06-27T08:41:43Z</time>
      </trkpt>
      <trkpt lat="46.01264" lon="6.93659">
        <ele>2079.9497070312</ele>
        <time>2010-06-27T08:41:49Z</time>
      </trkpt>
      <trkpt lat="46.01256" lon="6.93654">
        <ele>2079.9497070312</ele>
        <time>2010-06-27T08:41:53Z</time>
      </trkpt>
      <trkpt lat="46.01244" lon="6.93643">
        <ele>2078.5078125</ele>
        <time>2010-06-27T08:41:58Z</time>
      </trkpt>
      <trkpt lat="46.01237" lon="6.93636">
        <ele>2078.0270996094</ele>
        <time>2010-06-27T08:42:01Z</time>
      </trkpt>
      <trkpt lat="46.01234" lon="6.93632">
        <ele>2077.5463867188</ele>
        <time>2010-06-27T08:42:03Z</time>
      </trkpt>
      <trkpt lat="46.01226" lon="6.93626">
        <ele>2076.1044921875</ele>
        <time>2010-06-27T08:42:06Z</time>
      </trkpt>
      <trkpt lat="46.01223" lon="6.93624">
        <ele>2075.6235351562</ele>
        <time>2010-06-27T08:42:07Z</time>
      </trkpt>
      <trkpt lat="46.01215" lon="6.93611">
        <ele>2074.181640625</ele>
        <time>2010-06-27T08:42:11Z</time>
      </trkpt>
      <trkpt lat="46.01204" lon="6.93604">
        <ele>2072.7397460938</ele>
        <time>2010-06-27T08:42:16Z</time>
      </trkpt>
      <trkpt lat="46.01192" lon="6.93601">
        <ele>2071.7783203125</ele>
        <time>2010-06-27T08:42:21Z</time>
      </trkpt>
      <trkpt lat="46.01186" lon="6.936">
        <ele>2073.2204589844</ele>
        <time>2010-06-27T08:42:26Z</time>
      </trkpt>
      <trkpt lat="46.01176" lon="6.93596">
        <ele>2072.7397460938</ele>
        <time>2010-06-27T08:42:31Z</time>
      </trkpt>
      <trkpt lat="46.01167" lon="6.93594">
        <ele>2072.2590332031</ele>
        <time>2010-06-27T08:42:36Z</time>
      </trkpt>
      <trkpt lat="46.01162" lon="6.93593">
        <ele>2071.2976074219</ele>
        <time>2010-06-27T08:42:39Z</time>
      </trkpt>
      <trkpt lat="46.01155" lon="6.93586">
        <ele>2066.0104980469</ele>
        <time>2010-06-27T08:42:45Z</time>
      </trkpt>
      <trkpt lat="46.01154" lon="6.9358">
        <ele>2063.1267089844</ele>
        <time>2010-06-27T08:42:49Z</time>
      </trkpt>
      <trkpt lat="46.01155" lon="6.93576">
        <ele>2062.1652832031</ele>
        <time>2010-06-27T08:42:51Z</time>
      </trkpt>
      <trkpt lat="46.01151" lon="6.93571">
        <ele>2061.6848144531</ele>
        <time>2010-06-27T08:42:55Z</time>
      </trkpt>
      <trkpt lat="46.01149" lon="6.93572">
        <ele>2061.2041015625</ele>
        <time>2010-06-27T08:42:59Z</time>
      </trkpt>
      <trkpt lat="46.01141" lon="6.93574">
        <ele>2059.28125</ele>
        <time>2010-06-27T08:43:05Z</time>
      </trkpt>
      <trkpt lat="46.01141" lon="6.93572">
        <ele>2057.3586425781</ele>
        <time>2010-06-27T08:43:08Z</time>
      </trkpt>
      <trkpt lat="46.01139" lon="6.93563">
        <ele>2055.9165039062</ele>
        <time>2010-06-27T08:43:12Z</time>
      </trkpt>
      <trkpt lat="46.01137" lon="6.93554">
        <ele>2054.474609375</ele>
        <time>2010-06-27T08:43:16Z</time>
      </trkpt>
      <trkpt lat="46.01136" lon="6.93551">
        <ele>2053.994140625</ele>
        <time>2010-06-27T08:43:19Z</time>
      </trkpt>
      <trkpt lat="46.01134" lon="6.93545">
        <ele>2052.5520019531</ele>
        <time>2010-06-27T08:43:23Z</time>
      </trkpt>
      <trkpt lat="46.01122" lon="6.93541">
        <ele>2050.6293945312</ele>
        <time>2010-06-27T08:43:28Z</time>
      </trkpt>
      <trkpt lat="46.01115" lon="6.93534">
        <ele>2049.1875</ele>
        <time>2010-06-27T08:43:32Z</time>
      </trkpt>
      <trkpt lat="46.0111" lon="6.93531">
        <ele>2047.7456054688</ele>
        <time>2010-06-27T08:43:34Z</time>
      </trkpt>
      <trkpt lat="46.01102" lon="6.9352">
        <ele>2045.8229980469</ele>
        <time>2010-06-27T08:43:39Z</time>
      </trkpt>
      <trkpt lat="46.01094" lon="6.93514">
        <ele>2044.380859375</ele>
        <time>2010-06-27T08:43:43Z</time>
      </trkpt>
      <trkpt lat="46.01091" lon="6.93513">
        <ele>2044.380859375</ele>
        <time>2010-06-27T08:43:44Z</time>
      </trkpt>
      <trkpt lat="46.01079" lon="6.93508">
        <ele>2043.9001464844</ele>
        <time>2010-06-27T08:43:49Z</time>
      </trkpt>
      <trkpt lat="46.01072" lon="6.93504">
        <ele>2043.4194335938</ele>
        <time>2010-06-27T08:43:53Z</time>
      </trkpt>
      <trkpt lat="46.01066" lon="6.93501">
        <ele>2043.4194335938</ele>
        <time>2010-06-27T08:43:56Z</time>
      </trkpt>
      <trkpt lat="46.01057" lon="6.93501">
        <ele>2043.4194335938</ele>
        <time>2010-06-27T08:44:01Z</time>
      </trkpt>
      <trkpt lat="46.01052" lon="6.93498">
        <ele>2042.9387207031</ele>
        <time>2010-06-27T08:44:05Z</time>
      </trkpt>
      <trkpt lat="46.01046" lon="6.93494">
        <ele>2041.4968261719</ele>
        <time>2010-06-27T08:44:09Z</time>
      </trkpt>
      <trkpt lat="46.01041" lon="6.93493">
        <ele>2041.0161132812</ele>
        <time>2010-06-27T08:44:13Z</time>
      </trkpt>
      <trkpt lat="46.01039" lon="6.93491">
        <ele>2041.0161132812</ele>
        <time>2010-06-27T08:44:15Z</time>
      </trkpt>
      <trkpt lat="46.01029" lon="6.93484">
        <ele>2041.0161132812</ele>
        <time>2010-06-27T08:44:21Z</time>
      </trkpt>
      <trkpt lat="46.01025" lon="6.93485">
        <ele>2041.0161132812</ele>
        <time>2010-06-27T08:44:23Z</time>
      </trkpt>
      <trkpt lat="46.0102" lon="6.93479">
        <ele>2040.0549316406</ele>
        <time>2010-06-27T08:44:26Z</time>
      </trkpt>
      <trkpt lat="46.01012" lon="6.93475">
        <ele>2039.0935058594</ele>
        <time>2010-06-27T08:44:31Z</time>
      </trkpt>
      <trkpt lat="46.01009" lon="6.93472">
        <ele>2038.1323242188</ele>
        <time>2010-06-27T08:44:33Z</time>
      </trkpt>
      <trkpt lat="46.00999" lon="6.93464">
        <ele>2035.7290039062</ele>
        <time>2010-06-27T08:44:39Z</time>
      </trkpt>
      <trkpt lat="46.00994" lon="6.93457">
        <ele>2033.8063964844</ele>
        <time>2010-06-27T08:44:44Z</time>
      </trkpt>
      <trkpt lat="46.00991" lon="6.93451">
        <ele>2031.8837890625</ele>
        <time>2010-06-27T08:44:48Z</time>
      </trkpt>
      <trkpt lat="46.00985" lon="6.93444">
        <ele>2027.5576171875</ele>
        <time>2010-06-27T08:44:56Z</time>
      </trkpt>
      <trkpt lat="46.00982" lon="6.9344">
        <ele>2026.5964355469</ele>
        <time>2010-06-27T08:44:58Z</time>
      </trkpt>
      <trkpt lat="46.00972" lon="6.93431">
        <ele>2024.1931152344</ele>
        <time>2010-06-27T08:45:05Z</time>
      </trkpt>
      <trkpt lat="46.00967" lon="6.93427">
        <ele>2023.2319335938</ele>
        <time>2010-06-27T08:45:08Z</time>
      </trkpt>
      <trkpt lat="46.0096" lon="6.93422">
        <ele>2021.3090820312</ele>
        <time>2010-06-27T08:45:13Z</time>
      </trkpt>
      <trkpt lat="46.00952" lon="6.93418">
        <ele>2019.8671875</ele>
        <time>2010-06-27T08:45:18Z</time>
      </trkpt>
      <trkpt lat="46.00943" lon="6.93416">
        <ele>2018.9060058594</ele>
        <time>2010-06-27T08:45:23Z</time>
      </trkpt>
      <trkpt lat="46.0094" lon="6.93415">
        <ele>2018.4252929688</ele>
        <time>2010-06-27T08:45:26Z</time>
      </trkpt>
      <trkpt lat="46.00934" lon="6.93409">
        <ele>2016.5026855469</ele>
        <time>2010-06-27T08:45:31Z</time>
      </trkpt>
      <trkpt lat="46.00928" lon="6.93402">
        <ele>2014.0993652344</ele>
        <time>2010-06-27T08:45:36Z</time>
      </trkpt>
      <trkpt lat="46.00925" lon="6.93401">
        <ele>2013.1381835938</ele>
        <time>2010-06-27T08:45:38Z</time>
      </trkpt>
      <trkpt lat="46.00922" lon="6.934">
        <ele>2013.1381835938</ele>
        <time>2010-06-27T08:45:40Z</time>
      </trkpt>
      <trkpt lat="46.00916" lon="6.93397">
        <ele>2010.7346191406</ele>
        <time>2010-06-27T08:45:44Z</time>
      </trkpt>
      <trkpt lat="46.00911" lon="6.93394">
        <ele>2010.25390625</ele>
        <time>2010-06-27T08:45:47Z</time>
      </trkpt>
      <trkpt lat="46.00904" lon="6.93387">
        <ele>2008.8120117188</ele>
        <time>2010-06-27T08:45:51Z</time>
      </trkpt>
      <trkpt lat="46.009" lon="6.93376">
        <ele>2007.8508300781</ele>
        <time>2010-06-27T08:45:55Z</time>
      </trkpt>
      <trkpt lat="46.00896" lon="6.93368">
        <ele>2006.4086914062</ele>
        <time>2010-06-27T08:45:58Z</time>
      </trkpt>
      <trkpt lat="46.00893" lon="6.9336">
        <ele>2004.4860839844</ele>
        <time>2010-06-27T08:46:02Z</time>
      </trkpt>
      <trkpt lat="46.00887" lon="6.93353">
        <ele>2002.5634765625</ele>
        <time>2010-06-27T08:46:07Z</time>
      </trkpt>
      <trkpt lat="46.00885" lon="6.93349">
        <ele>2001.1215820312</ele>
        <time>2010-06-27T08:46:09Z</time>
      </trkpt>
      <trkpt lat="46.00878" lon="6.93344">
        <ele>1998.7182617188</ele>
        <time>2010-06-27T08:46:14Z</time>
      </trkpt>
      <trkpt lat="46.00871" lon="6.93342">
        <ele>1997.7570800781</ele>
        <time>2010-06-27T08:46:18Z</time>
      </trkpt>
      <trkpt lat="46.00866" lon="6.93336">
        <ele>1997.2763671875</ele>
        <time>2010-06-27T08:46:21Z</time>
      </trkpt>
      <trkpt lat="46.00859" lon="6.93329">
        <ele>1994.8728027344</ele>
        <time>2010-06-27T08:46:26Z</time>
      </trkpt>
      <trkpt lat="46.00858" lon="6.93328">
        <ele>1994.3920898438</ele>
        <time>2010-06-27T08:46:27Z</time>
      </trkpt>
      <trkpt lat="46.00854" lon="6.93325">
        <ele>1991.9890136719</ele>
        <time>2010-06-27T08:46:31Z</time>
      </trkpt>
      <trkpt lat="46.0085" lon="6.93317">
        <ele>1990.546875</ele>
        <time>2010-06-27T08:46:38Z</time>
      </trkpt>
      <trkpt lat="46.00847" lon="6.9331">
        <ele>1987.6630859375</ele>
        <time>2010-06-27T08:46:45Z</time>
      </trkpt>
      <trkpt lat="46.00842" lon="6.93306">
        <ele>1985.259765625</ele>
        <time>2010-06-27T08:46:51Z</time>
      </trkpt>
      <trkpt lat="46.00838" lon="6.93303">
        <ele>1983.8178710938</ele>
        <time>2010-06-27T08:46:57Z</time>
      </trkpt>
      <trkpt lat="46.00837" lon="6.93298">
        <ele>1981.8952636719</ele>
        <time>2010-06-27T08:47:03Z</time>
      </trkpt>
      <trkpt lat="46.00834" lon="6.933">
        <ele>1980.4533691406</ele>
        <time>2010-06-27T08:47:08Z</time>
      </trkpt>
      <trkpt lat="46.0083" lon="6.93295">
        <ele>1978.0498046875</ele>
        <time>2010-06-27T08:47:13Z</time>
      </trkpt>
      <trkpt lat="46.00829" lon="6.93293">
        <ele>1978.0498046875</ele>
        <time>2010-06-27T08:47:14Z</time>
      </trkpt>
      <trkpt lat="46.00827" lon="6.93286">
        <ele>1976.6079101562</ele>
        <time>2010-06-27T08:47:18Z</time>
      </trkpt>
      <trkpt lat="46.00821" lon="6.9328">
        <ele>1973.2434082031</ele>
        <time>2010-06-27T08:47:25Z</time>
      </trkpt>
      <trkpt lat="46.00819" lon="6.93278">
        <ele>1972.2819824219</ele>
        <time>2010-06-27T08:47:27Z</time>
      </trkpt>
      <trkpt lat="46.00815" lon="6.93273">
        <ele>1970.359375</ele>
        <time>2010-06-27T08:47:32Z</time>
      </trkpt>
      <trkpt lat="46.00809" lon="6.93268">
        <ele>1969.8786621094</ele>
        <time>2010-06-27T08:47:37Z</time>
      </trkpt>
      <trkpt lat="46.00809" lon="6.93265">
        <ele>1968.9174804688</ele>
        <time>2010-06-27T08:47:41Z</time>
      </trkpt>
      <trkpt lat="46.00806" lon="6.9326">
        <ele>1966.9948730469</ele>
        <time>2010-06-27T08:47:47Z</time>
      </trkpt>
      <trkpt lat="46.00804" lon="6.93259">
        <ele>1965.5529785156</ele>
        <time>2010-06-27T08:47:51Z</time>
      </trkpt>
      <trkpt lat="46.008" lon="6.93257">
        <ele>1963.6298828125</ele>
        <time>2010-06-27T08:47:56Z</time>
      </trkpt>
      <trkpt lat="46.008" lon="6.93254">
        <ele>1962.6687011719</ele>
        <time>2010-06-27T08:47:59Z</time>
      </trkpt>
      <trkpt lat="46.00802" lon="6.93249">
        <ele>1961.2268066406</ele>
        <time>2010-06-27T08:48:02Z</time>
      </trkpt>
      <trkpt lat="46.00803" lon="6.93246">
        <ele>1960.2653808594</ele>
        <time>2010-06-27T08:48:05Z</time>
      </trkpt>
      <trkpt lat="46.00796" lon="6.93245">
        <ele>1956.9008789062</ele>
        <time>2010-06-27T08:48:11Z</time>
      </trkpt>
      <trkpt lat="46.00789" lon="6.93248">
        <ele>1954.9782714844</ele>
        <time>2010-06-27T08:48:15Z</time>
      </trkpt>
      <trkpt lat="46.00788" lon="6.93243">
        <ele>1953.0556640625</ele>
        <time>2010-06-27T08:48:20Z</time>
      </trkpt>
      <trkpt lat="46.00785" lon="6.93239">
        <ele>1950.65234375</ele>
        <time>2010-06-27T08:48:25Z</time>
      </trkpt>
      <trkpt lat="46.00784" lon="6.93235">
        <ele>1949.2104492188</ele>
        <time>2010-06-27T08:48:28Z</time>
      </trkpt>
      <trkpt lat="46.00779" lon="6.93225">
        <ele>1946.8068847656</ele>
        <time>2010-06-27T08:48:34Z</time>
      </trkpt>
      <trkpt lat="46.00774" lon="6.93218">
        <ele>1945.3649902344</ele>
        <time>2010-06-27T08:48:38Z</time>
      </trkpt>
      <trkpt lat="46.00769" lon="6.93213">
        <ele>1944.4035644531</ele>
        <time>2010-06-27T08:48:42Z</time>
      </trkpt>
      <trkpt lat="46.00768" lon="6.93212">
        <ele>1943.9230957031</ele>
        <time>2010-06-27T08:48:43Z</time>
      </trkpt>
      <trkpt lat="46.00754" lon="6.93203">
        <ele>1942.4812011719</ele>
        <time>2010-06-27T08:48:50Z</time>
      </trkpt>
      <trkpt lat="46.00749" lon="6.93199">
        <ele>1941.0390625</ele>
        <time>2010-06-27T08:48:54Z</time>
      </trkpt>
      <trkpt lat="46.00748" lon="6.93198">
        <ele>1940.5583496094</ele>
        <time>2010-06-27T08:48:55Z</time>
      </trkpt>
      <trkpt lat="46.00741" lon="6.93196">
        <ele>1940.0778808594</ele>
        <time>2010-06-27T08:48:58Z</time>
      </trkpt>
      <trkpt lat="46.00731" lon="6.93191">
        <ele>1939.1164550781</ele>
        <time>2010-06-27T08:49:03Z</time>
      </trkpt>
      <trkpt lat="46.00727" lon="6.93189">
        <ele>1939.1164550781</ele>
        <time>2010-06-27T08:49:05Z</time>
      </trkpt>
      <trkpt lat="46.00718" lon="6.93184">
        <ele>1937.6745605469</ele>
        <time>2010-06-27T08:49:11Z</time>
      </trkpt>
      <trkpt lat="46.00711" lon="6.93185">
        <ele>1937.1938476562</ele>
        <time>2010-06-27T08:49:15Z</time>
      </trkpt>
      <trkpt lat="46.0071" lon="6.93184">
        <ele>1937.1938476562</ele>
        <time>2010-06-27T08:49:16Z</time>
      </trkpt>
      <trkpt lat="46.00703" lon="6.93175">
        <ele>1935.2712402344</ele>
        <time>2010-06-27T08:49:21Z</time>
      </trkpt>
      <trkpt lat="46.00701" lon="6.93169">
        <ele>1933.8293457031</ele>
        <time>2010-06-27T08:49:25Z</time>
      </trkpt>
      <trkpt lat="46.00698" lon="6.93163">
        <ele>1931.9064941406</ele>
        <time>2010-06-27T08:49:30Z</time>
      </trkpt>
      <trkpt lat="46.00695" lon="6.93159">
        <ele>1929.5031738281</ele>
        <time>2010-06-27T08:49:34Z</time>
      </trkpt>
      <trkpt lat="46.00694" lon="6.93155">
        <ele>1929.0224609375</ele>
        <time>2010-06-27T08:49:37Z</time>
      </trkpt>
      <trkpt lat="46.00694" lon="6.93151">
        <ele>1928.5419921875</ele>
        <time>2010-06-27T08:49:42Z</time>
      </trkpt>
      <trkpt lat="46.00691" lon="6.93147">
        <ele>1927.1000976562</ele>
        <time>2010-06-27T08:49:49Z</time>
      </trkpt>
      <trkpt lat="46.0069" lon="6.93142">
        <ele>1925.1772460938</ele>
        <time>2010-06-27T08:49:55Z</time>
      </trkpt>
      <trkpt lat="46.00689" lon="6.93135">
        <ele>1923.2548828125</ele>
        <time>2010-06-27T08:50:01Z</time>
      </trkpt>
      <trkpt lat="46.00689" lon="6.93127">
        <ele>1921.33203125</ele>
        <time>2010-06-27T08:50:07Z</time>
      </trkpt>
      <trkpt lat="46.0069" lon="6.9312">
        <ele>1919.8901367188</ele>
        <time>2010-06-27T08:50:12Z</time>
      </trkpt>
      <trkpt lat="46.00687" lon="6.93117">
        <ele>1917.9675292969</ele>
        <time>2010-06-27T08:50:16Z</time>
      </trkpt>
      <trkpt lat="46.00682" lon="6.93113">
        <ele>1915.5642089844</ele>
        <time>2010-06-27T08:50:22Z</time>
      </trkpt>
      <trkpt lat="46.00681" lon="6.93109">
        <ele>1913.1608886719</ele>
        <time>2010-06-27T08:50:27Z</time>
      </trkpt>
      <trkpt lat="46.00678" lon="6.93105">
        <ele>1911.7189941406</ele>
        <time>2010-06-27T08:50:32Z</time>
      </trkpt>
      <trkpt lat="46.00675" lon="6.93098">
        <ele>1909.7961425781</ele>
        <time>2010-06-27T08:50:37Z</time>
      </trkpt>
      <trkpt lat="46.00671" lon="6.93094">
        <ele>1906.9123535156</ele>
        <time>2010-06-27T08:50:44Z</time>
      </trkpt>
      <trkpt lat="46.00666" lon="6.93094">
        <ele>1903.5478515625</ele>
        <time>2010-06-27T08:50:50Z</time>
      </trkpt>
      <trkpt lat="46.00669" lon="6.93085">
        <ele>1901.14453125</ele>
        <time>2010-06-27T08:50:54Z</time>
      </trkpt>
      <trkpt lat="46.00672" lon="6.93078">
        <ele>1899.7023925781</ele>
        <time>2010-06-27T08:50:58Z</time>
      </trkpt>
      <trkpt lat="46.00665" lon="6.93073">
        <ele>1896.818359375</ele>
        <time>2010-06-27T08:51:04Z</time>
      </trkpt>
      <trkpt lat="46.0066" lon="6.93073">
        <ele>1895.8571777344</ele>
        <time>2010-06-27T08:51:06Z</time>
      </trkpt>
      <trkpt lat="46.00648" lon="6.93069">
        <ele>1894.4150390625</ele>
        <time>2010-06-27T08:51:12Z</time>
      </trkpt>
      <trkpt lat="46.00644" lon="6.93065">
        <ele>1891.0505371094</ele>
        <time>2010-06-27T08:51:17Z</time>
      </trkpt>
      <trkpt lat="46.00644" lon="6.93065">
        <ele>1891.0505371094</ele>
        <time>2010-06-27T08:51:18Z</time>
      </trkpt>
      <trkpt lat="46.00643" lon="6.93064">
        <ele>1890.5698242188</ele>
        <time>2010-06-27T08:51:20Z</time>
      </trkpt>
      <trkpt lat="46.00636" lon="6.93065">
        <ele>1887.6860351562</ele>
        <time>2010-06-27T08:51:29Z</time>
      </trkpt>
      <trkpt lat="46.0063" lon="6.93065">
        <ele>1886.724609375</ele>
        <time>2010-06-27T08:51:34Z</time>
      </trkpt>
      <trkpt lat="46.0063" lon="6.93059">
        <ele>1886.244140625</ele>
        <time>2010-06-27T08:51:40Z</time>
      </trkpt>
      <trkpt lat="46.00628" lon="6.93058">
        <ele>1885.2827148438</ele>
        <time>2010-06-27T08:51:46Z</time>
      </trkpt>
      <trkpt lat="46.00625" lon="6.93058">
        <ele>1883.3598632812</ele>
        <time>2010-06-27T08:51:53Z</time>
      </trkpt>
      <trkpt lat="46.00622" lon="6.93054">
        <ele>1881.4372558594</ele>
        <time>2010-06-27T08:51:59Z</time>
      </trkpt>
      <trkpt lat="46.00621" lon="6.93058">
        <ele>1880.4760742188</ele>
        <time>2010-06-27T08:52:04Z</time>
      </trkpt>
      <trkpt lat="46.0062" lon="6.93056">
        <ele>1879.0339355469</ele>
        <time>2010-06-27T08:52:08Z</time>
      </trkpt>
      <trkpt lat="46.0062" lon="6.93051">
        <ele>1876.630859375</ele>
        <time>2010-06-27T08:52:13Z</time>
      </trkpt>
      <trkpt lat="46.00617" lon="6.93051">
        <ele>1874.7082519531</ele>
        <time>2010-06-27T08:52:17Z</time>
      </trkpt>
      <trkpt lat="46.00611" lon="6.93051">
        <ele>1872.7856445312</ele>
        <time>2010-06-27T08:52:23Z</time>
      </trkpt>
      <trkpt lat="46.00608" lon="6.93047">
        <ele>1870.3823242188</ele>
        <time>2010-06-27T08:52:28Z</time>
      </trkpt>
      <trkpt lat="46.00604" lon="6.93045">
        <ele>1867.9787597656</ele>
        <time>2010-06-27T08:52:33Z</time>
      </trkpt>
      <trkpt lat="46.00594" lon="6.93053">
        <ele>1866.0561523438</ele>
        <time>2010-06-27T08:52:38Z</time>
      </trkpt>
      <trkpt lat="46.00593" lon="6.93056">
        <ele>1866.0561523438</ele>
        <time>2010-06-27T08:52:40Z</time>
      </trkpt>
      <trkpt lat="46.00591" lon="6.93056">
        <ele>1865.5756835938</ele>
        <time>2010-06-27T08:52:43Z</time>
      </trkpt>
      <trkpt lat="46.00588" lon="6.9306">
        <ele>1864.6142578125</ele>
        <time>2010-06-27T08:52:52Z</time>
      </trkpt>
      <trkpt lat="46.00584" lon="6.93064">
        <ele>1862.2109375</ele>
        <time>2010-06-27T08:53:00Z</time>
      </trkpt>
      <trkpt lat="46.00579" lon="6.93064">
        <ele>1860.7690429688</ele>
        <time>2010-06-27T08:53:05Z</time>
      </trkpt>
      <trkpt lat="46.00579" lon="6.93058">
        <ele>1859.8076171875</ele>
        <time>2010-06-27T08:53:09Z</time>
      </trkpt>
      <trkpt lat="46.00578" lon="6.93059">
        <ele>1859.3271484375</ele>
        <time>2010-06-27T08:53:10Z</time>
      </trkpt>
      <trkpt lat="46.00573" lon="6.9306">
        <ele>1857.4045410156</ele>
        <time>2010-06-27T08:53:14Z</time>
      </trkpt>
      <trkpt lat="46.00566" lon="6.93061">
        <ele>1854.5205078125</ele>
        <time>2010-06-27T08:53:20Z</time>
      </trkpt>
      <trkpt lat="46.00559" lon="6.93067">
        <ele>1852.1171875</ele>
        <time>2010-06-27T08:53:25Z</time>
      </trkpt>
      <trkpt lat="46.00557" lon="6.93074">
        <ele>1851.1557617188</ele>
        <time>2010-06-27T08:53:28Z</time>
      </trkpt>
      <trkpt lat="46.00558" lon="6.93078">
        <ele>1850.1945800781</ele>
        <time>2010-06-27T08:53:33Z</time>
      </trkpt>
      <trkpt lat="46.00558" lon="6.93079">
        <ele>1850.6750488281</ele>
        <time>2010-06-27T08:53:35Z</time>
      </trkpt>
      <trkpt lat="46.00553" lon="6.93095">
        <ele>1848.7524414062</ele>
        <time>2010-06-27T08:53:41Z</time>
      </trkpt>
      <trkpt lat="46.00551" lon="6.93111">
        <ele>1847.310546875</ele>
        <time>2010-06-27T08:53:45Z</time>
      </trkpt>
      <trkpt lat="46.00543" lon="6.93111">
        <ele>1844.4265136719</ele>
        <time>2010-06-27T08:53:50Z</time>
      </trkpt>
      <trkpt lat="46.00541" lon="6.93109">
        <ele>1843.9460449219</ele>
        <time>2010-06-27T08:53:51Z</time>
      </trkpt>
      <trkpt lat="46.00531" lon="6.93096">
        <ele>1839.6201171875</ele>
        <time>2010-06-27T08:53:57Z</time>
      </trkpt>
      <trkpt lat="46.00531" lon="6.93094">
        <ele>1838.6589355469</ele>
        <time>2010-06-27T08:53:58Z</time>
      </trkpt>
      <trkpt lat="46.0053" lon="6.93081">
        <ele>1835.7746582031</ele>
        <time>2010-06-27T08:54:03Z</time>
      </trkpt>
      <trkpt lat="46.00522" lon="6.93075">
        <ele>1833.3713378906</ele>
        <time>2010-06-27T08:54:07Z</time>
      </trkpt>
      <trkpt lat="46.00517" lon="6.93081">
        <ele>1831.4487304688</ele>
        <time>2010-06-27T08:54:10Z</time>
      </trkpt>
      <trkpt lat="46.00518" lon="6.9309">
        <ele>1828.0842285156</ele>
        <time>2010-06-27T08:54:14Z</time>
      </trkpt>
      <trkpt lat="46.0052" lon="6.93101">
        <ele>1826.6423339844</ele>
        <time>2010-06-27T08:54:17Z</time>
      </trkpt>
      <trkpt lat="46.0052" lon="6.93112">
        <ele>1826.1616210938</ele>
        <time>2010-06-27T08:54:21Z</time>
      </trkpt>
      <trkpt lat="46.00521" lon="6.93125">
        <ele>1826.1616210938</ele>
        <time>2010-06-27T08:54:25Z</time>
      </trkpt>
      <trkpt lat="46.00524" lon="6.93132">
        <ele>1826.1616210938</ele>
        <time>2010-06-27T08:54:28Z</time>
      </trkpt>
      <trkpt lat="46.0053" lon="6.93136">
        <ele>1825.6809082031</ele>
        <time>2010-06-27T08:54:32Z</time>
      </trkpt>
      <trkpt lat="46.00535" lon="6.93147">
        <ele>1824.2390136719</ele>
        <time>2010-06-27T08:54:37Z</time>
      </trkpt>
      <trkpt lat="46.00536" lon="6.93163">
        <ele>1822.7971191406</ele>
        <time>2010-06-27T08:54:42Z</time>
      </trkpt>
      <trkpt lat="46.00538" lon="6.93174">
        <ele>1819.9128417969</ele>
        <time>2010-06-27T08:54:47Z</time>
      </trkpt>
      <trkpt lat="46.00543" lon="6.93189">
        <ele>1817.990234375</ele>
        <time>2010-06-27T08:54:53Z</time>
      </trkpt>
      <trkpt lat="46.00545" lon="6.93199">
        <ele>1816.0676269531</ele>
        <time>2010-06-27T08:54:57Z</time>
      </trkpt>
      <trkpt lat="46.00549" lon="6.93214">
        <ele>1812.703125</ele>
        <time>2010-06-27T08:55:04Z</time>
      </trkpt>
      <trkpt lat="46.00554" lon="6.93226">
        <ele>1808.3771972656</ele>
        <time>2010-06-27T08:55:09Z</time>
      </trkpt>
      <trkpt lat="46.00555" lon="6.93232">
        <ele>1805.9738769531</ele>
        <time>2010-06-27T08:55:12Z</time>
      </trkpt>
      <trkpt lat="46.00558" lon="6.93241">
        <ele>1803.08984375</ele>
        <time>2010-06-27T08:55:17Z</time>
      </trkpt>
      <trkpt lat="46.00557" lon="6.93243">
        <ele>1801.1672363281</ele>
        <time>2010-06-27T08:55:22Z</time>
      </trkpt>
      <trkpt lat="46.00552" lon="6.93236">
        <ele>1799.2446289062</ele>
        <time>2010-06-27T08:55:27Z</time>
      </trkpt>
      <trkpt lat="46.0055" lon="6.93232">
        <ele>1798.283203125</ele>
        <time>2010-06-27T08:55:29Z</time>
      </trkpt>
      <trkpt lat="46.00549" lon="6.93237">
        <ele>1796.8413085938</ele>
        <time>2010-06-27T08:55:32Z</time>
      </trkpt>
      <trkpt lat="46.00553" lon="6.93252">
        <ele>1794.9187011719</ele>
        <time>2010-06-27T08:55:38Z</time>
      </trkpt>
      <trkpt lat="46.00558" lon="6.93263">
        <ele>1792.515625</ele>
        <time>2010-06-27T08:55:42Z</time>
      </trkpt>
      <trkpt lat="46.00559" lon="6.93268">
        <ele>1791.5541992188</ele>
        <time>2010-06-27T08:55:44Z</time>
      </trkpt>
      <trkpt lat="46.00562" lon="6.93279">
        <ele>1790.1123046875</ele>
        <time>2010-06-27T08:55:49Z</time>
      </trkpt>
      <trkpt lat="46.00558" lon="6.93276">
        <ele>1787.7087402344</ele>
        <time>2010-06-27T08:55:52Z</time>
      </trkpt>
      <trkpt lat="46.00551" lon="6.93269">
        <ele>1784.8249511719</ele>
        <time>2010-06-27T08:55:58Z</time>
      </trkpt>
      <trkpt lat="46.00546" lon="6.93266">
        <ele>1782.9020996094</ele>
        <time>2010-06-27T08:56:02Z</time>
      </trkpt>
      <trkpt lat="46.00543" lon="6.93263">
        <ele>1781.9409179688</ele>
        <time>2010-06-27T08:56:04Z</time>
      </trkpt>
      <trkpt lat="46.00542" lon="6.93262">
        <ele>1781.4602050781</ele>
        <time>2010-06-27T08:56:06Z</time>
      </trkpt>
      <trkpt lat="46.00542" lon="6.93266">
        <ele>1780.4990234375</ele>
        <time>2010-06-27T08:56:09Z</time>
      </trkpt>
      <trkpt lat="46.00541" lon="6.93273">
        <ele>1778.5764160156</ele>
        <time>2010-06-27T08:56:12Z</time>
      </trkpt>
      <trkpt lat="46.00544" lon="6.9328">
        <ele>1776.6538085938</ele>
        <time>2010-06-27T08:56:15Z</time>
      </trkpt>
      <trkpt lat="46.00546" lon="6.93292">
        <ele>1775.2116699219</ele>
        <time>2010-06-27T08:56:19Z</time>
      </trkpt>
      <trkpt lat="46.00552" lon="6.93304">
        <ele>1774.7312011719</ele>
        <time>2010-06-27T08:56:23Z</time>
      </trkpt>
      <trkpt lat="46.00557" lon="6.93324">
        <ele>1772.3278808594</ele>
        <time>2010-06-27T08:56:30Z</time>
      </trkpt>
      <trkpt lat="46.00557" lon="6.93327">
        <ele>1771.3662109375</ele>
        <time>2010-06-27T08:56:31Z</time>
      </trkpt>
      <trkpt lat="46.00557" lon="6.93343">
        <ele>1768.482421875</ele>
        <time>2010-06-27T08:56:35Z</time>
      </trkpt>
      <trkpt lat="46.00554" lon="6.93352">
        <ele>1765.5986328125</ele>
        <time>2010-06-27T08:56:39Z</time>
      </trkpt>
      <trkpt lat="46.00552" lon="6.93351">
        <ele>1764.6372070312</ele>
        <time>2010-06-27T08:56:40Z</time>
      </trkpt>
      <trkpt lat="46.00547" lon="6.93349">
        <ele>1763.1953125</ele>
        <time>2010-06-27T08:56:42Z</time>
      </trkpt>
      <trkpt lat="46.00538" lon="6.93334">
        <ele>1758.388671875</ele>
        <time>2010-06-27T08:56:49Z</time>
      </trkpt>
      <trkpt lat="46.00531" lon="6.93325">
        <ele>1755.5046386719</ele>
        <time>2010-06-27T08:56:55Z</time>
      </trkpt>
      <trkpt lat="46.00528" lon="6.9332">
        <ele>1753.58203125</ele>
        <time>2010-06-27T08:56:58Z</time>
      </trkpt>
      <trkpt lat="46.00524" lon="6.93328">
        <ele>1751.1787109375</ele>
        <time>2010-06-27T08:57:04Z</time>
      </trkpt>
      <trkpt lat="46.00521" lon="6.93324">
        <ele>1750.2175292969</ele>
        <time>2010-06-27T08:57:07Z</time>
      </trkpt>
      <trkpt lat="46.00518" lon="6.93318">
        <ele>1748.775390625</ele>
        <time>2010-06-27T08:57:09Z</time>
      </trkpt>
      <trkpt lat="46.00508" lon="6.93305">
        <ele>1746.8527832031</ele>
        <time>2010-06-27T08:57:14Z</time>
      </trkpt>
      <trkpt lat="46.00502" lon="6.93296">
        <ele>1745.4108886719</ele>
        <time>2010-06-27T08:57:18Z</time>
      </trkpt>
      <trkpt lat="46.00492" lon="6.93295">
        <ele>1744.9301757812</ele>
        <time>2010-06-27T08:57:22Z</time>
      </trkpt>
      <trkpt lat="46.00486" lon="6.93286">
        <ele>1743.48828125</ele>
        <time>2010-06-27T08:57:25Z</time>
      </trkpt>
      <trkpt lat="46.0047" lon="6.93269">
        <ele>1741.0849609375</ele>
        <time>2010-06-27T08:57:32Z</time>
      </trkpt>
      <trkpt lat="46.00459" lon="6.9326">
        <ele>1740.6042480469</ele>
        <time>2010-06-27T08:57:37Z</time>
      </trkpt>
      <trkpt lat="46.00455" lon="6.93264">
        <ele>1739.6428222656</ele>
        <time>2010-06-27T08:57:41Z</time>
      </trkpt>
      <trkpt lat="46.00457" lon="6.93272">
        <ele>1739.6428222656</ele>
        <time>2010-06-27T08:57:43Z</time>
      </trkpt>
      <trkpt lat="46.00459" lon="6.93283">
        <ele>1737.7202148438</ele>
        <time>2010-06-27T08:57:46Z</time>
      </trkpt>
      <trkpt lat="46.00461" lon="6.9329">
        <ele>1735.3168945312</ele>
        <time>2010-06-27T08:57:51Z</time>
      </trkpt>
      <trkpt lat="46.00454" lon="6.93281">
        <ele>1733.3942871094</ele>
        <time>2010-06-27T08:57:55Z</time>
      </trkpt>
      <trkpt lat="46.00444" lon="6.93269">
        <ele>1728.587890625</ele>
        <time>2010-06-27T08:57:59Z</time>
      </trkpt>
      <trkpt lat="46.0044" lon="6.93261">
        <ele>1726.1845703125</ele>
        <time>2010-06-27T08:58:02Z</time>
      </trkpt>
      <trkpt lat="46.00439" lon="6.93261">
        <ele>1723.7810058594</ele>
        <time>2010-06-27T08:58:06Z</time>
      </trkpt>
      <trkpt lat="46.00437" lon="6.93266">
        <ele>1722.8198242188</ele>
        <time>2010-06-27T08:58:10Z</time>
      </trkpt>
      <trkpt lat="46.00436" lon="6.93265">
        <ele>1722.3391113281</ele>
        <time>2010-06-27T08:58:11Z</time>
      </trkpt>
      <trkpt lat="46.00433" lon="6.93263">
        <ele>1720.4165039062</ele>
        <time>2010-06-27T08:58:13Z</time>
      </trkpt>
      <trkpt lat="46.00426" lon="6.9326">
        <ele>1719.9357910156</ele>
        <time>2010-06-27T08:58:18Z</time>
      </trkpt>
      <trkpt lat="46.00419" lon="6.93251">
        <ele>1719.4553222656</ele>
        <time>2010-06-27T08:58:22Z</time>
      </trkpt>
      <trkpt lat="46.00414" lon="6.93247">
        <ele>1718.974609375</ele>
        <time>2010-06-27T08:58:26Z</time>
      </trkpt>
      <trkpt lat="46.00412" lon="6.93245">
        <ele>1718.4938964844</ele>
        <time>2010-06-27T08:58:28Z</time>
      </trkpt>
      <trkpt lat="46.00404" lon="6.9324">
        <ele>1714.6486816406</ele>
        <time>2010-06-27T08:58:33Z</time>
      </trkpt>
      <trkpt lat="46.00401" lon="6.93237">
        <ele>1712.7260742188</ele>
        <time>2010-06-27T08:58:35Z</time>
      </trkpt>
      <trkpt lat="46.00393" lon="6.93234">
        <ele>1712.2453613281</ele>
        <time>2010-06-27T08:58:40Z</time>
      </trkpt>
      <trkpt lat="46.00386" lon="6.9323">
        <ele>1714.6486816406</ele>
        <time>2010-06-27T08:58:44Z</time>
      </trkpt>
      <trkpt lat="46.00377" lon="6.93226">
        <ele>1713.2067871094</ele>
        <time>2010-06-27T08:58:48Z</time>
      </trkpt>
      <trkpt lat="46.0037" lon="6.93225">
        <ele>1712.7260742188</ele>
        <time>2010-06-27T08:58:51Z</time>
      </trkpt>
      <trkpt lat="46.00365" lon="6.93223">
        <ele>1710.3227539062</ele>
        <time>2010-06-27T08:58:57Z</time>
      </trkpt>
      <trkpt lat="46.00362" lon="6.9322">
        <ele>1708.4001464844</ele>
        <time>2010-06-27T08:59:00Z</time>
      </trkpt>
      <trkpt lat="46.00353" lon="6.93217">
        <ele>1705.0354003906</ele>
        <time>2010-06-27T08:59:06Z</time>
      </trkpt>
      <trkpt lat="46.00342" lon="6.93214">
        <ele>1702.1513671875</ele>
        <time>2010-06-27T08:59:12Z</time>
      </trkpt>
      <trkpt lat="46.00336" lon="6.93208">
        <ele>1697.8256835938</ele>
        <time>2010-06-27T08:59:17Z</time>
      </trkpt>
      <trkpt lat="46.00336" lon="6.93206">
        <ele>1696.8642578125</ele>
        <time>2010-06-27T08:59:18Z</time>
      </trkpt>
      <trkpt lat="46.00332" lon="6.93204">
        <ele>1695.4223632812</ele>
        <time>2010-06-27T08:59:21Z</time>
      </trkpt>
      <trkpt lat="46.00322" lon="6.93203">
        <ele>1693.0190429688</ele>
        <time>2010-06-27T08:59:27Z</time>
      </trkpt>
      <trkpt lat="46.00318" lon="6.93201">
        <ele>1691.5769042969</ele>
        <time>2010-06-27T08:59:29Z</time>
      </trkpt>
      <trkpt lat="46.00312" lon="6.93192">
        <ele>1687.7316894531</ele>
        <time>2010-06-27T08:59:34Z</time>
      </trkpt>
      <trkpt lat="46.0031" lon="6.93192">
        <ele>1687.2509765625</ele>
        <time>2010-06-27T08:59:35Z</time>
      </trkpt>
      <trkpt lat="46.003" lon="6.93188">
        <ele>1685.8090820312</ele>
        <time>2010-06-27T08:59:41Z</time>
      </trkpt>
      <trkpt lat="46.00292" lon="6.93182">
        <ele>1683.8864746094</ele>
        <time>2010-06-27T08:59:46Z</time>
      </trkpt>
      <trkpt lat="46.00285" lon="6.93177">
        <ele>1681.9638671875</ele>
        <time>2010-06-27T08:59:50Z</time>
      </trkpt>
      <trkpt lat="46.00275" lon="6.93174">
        <ele>1678.5993652344</ele>
        <time>2010-06-27T08:59:57Z</time>
      </trkpt>
      <trkpt lat="46.00271" lon="6.93171">
        <ele>1678.5993652344</ele>
        <time>2010-06-27T09:00:01Z</time>
      </trkpt>
      <trkpt lat="46.00263" lon="6.9317">
        <ele>1678.1186523438</ele>
        <time>2010-06-27T09:00:07Z</time>
      </trkpt>
      <trkpt lat="46.00262" lon="6.93169">
        <ele>1677.6379394531</ele>
        <time>2010-06-27T09:00:08Z</time>
      </trkpt>
      <trkpt lat="46.00257" lon="6.93169">
        <ele>1677.1574707031</ele>
        <time>2010-06-27T09:00:11Z</time>
      </trkpt>
      <trkpt lat="46.00253" lon="6.93169">
        <ele>1675.7150878906</ele>
        <time>2010-06-27T09:00:15Z</time>
      </trkpt>
      <trkpt lat="46.00247" lon="6.93164">
        <ele>1672.8312988281</ele>
        <time>2010-06-27T09:00:20Z</time>
      </trkpt>
      <trkpt lat="46.00237" lon="6.9316">
        <ele>1668.9860839844</ele>
        <time>2010-06-27T09:00:26Z</time>
      </trkpt>
      <trkpt lat="46.00233" lon="6.93157">
        <ele>1667.5439453125</ele>
        <time>2010-06-27T09:00:29Z</time>
      </trkpt>
      <trkpt lat="46.00226" lon="6.93155">
        <ele>1666.5827636719</ele>
        <time>2010-06-27T09:00:34Z</time>
      </trkpt>
      <trkpt lat="46.0022" lon="6.93154">
        <ele>1666.1020507812</ele>
        <time>2010-06-27T09:00:38Z</time>
      </trkpt>
      <trkpt lat="46.00222" lon="6.93165">
        <ele>1664.1794433594</ele>
        <time>2010-06-27T09:00:44Z</time>
      </trkpt>
      <trkpt lat="46.00225" lon="6.93175">
        <ele>1660.8149414062</ele>
        <time>2010-06-27T09:00:49Z</time>
      </trkpt>
      <trkpt lat="46.00229" lon="6.93186">
        <ele>1659.8532714844</ele>
        <time>2010-06-27T09:00:54Z</time>
      </trkpt>
      <trkpt lat="46.00234" lon="6.93195">
        <ele>1656.4887695312</ele>
        <time>2010-06-27T09:01:00Z</time>
      </trkpt>
      <trkpt lat="46.00237" lon="6.932">
        <ele>1656.0080566406</ele>
        <time>2010-06-27T09:01:02Z</time>
      </trkpt>
      <trkpt lat="46.00243" lon="6.93214">
        <ele>1651.6823730469</ele>
        <time>2010-06-27T09:01:09Z</time>
      </trkpt>
      <trkpt lat="46.00248" lon="6.93222">
        <ele>1649.759765625</ele>
        <time>2010-06-27T09:01:13Z</time>
      </trkpt>
      <trkpt lat="46.0025" lon="6.93231">
        <ele>1647.3564453125</ele>
        <time>2010-06-27T09:01:17Z</time>
      </trkpt>
      <trkpt lat="46.00251" lon="6.9324">
        <ele>1643.5109863281</ele>
        <time>2010-06-27T09:01:21Z</time>
      </trkpt>
      <trkpt lat="46.00259" lon="6.93258">
        <ele>1640.626953125</ele>
        <time>2010-06-27T09:01:27Z</time>
      </trkpt>
      <trkpt lat="46.0026" lon="6.93262">
        <ele>1640.626953125</ele>
        <time>2010-06-27T09:01:28Z</time>
      </trkpt>
      <trkpt lat="46.00258" lon="6.93284">
        <ele>1639.6657714844</ele>
        <time>2010-06-27T09:01:34Z</time>
      </trkpt>
      <trkpt lat="46.0026" lon="6.93303">
        <ele>1639.6657714844</ele>
        <time>2010-06-27T09:01:39Z</time>
      </trkpt>
      <trkpt lat="46.00262" lon="6.93313">
        <ele>1641.1076660156</ele>
        <time>2010-06-27T09:01:43Z</time>
      </trkpt>
      <trkpt lat="46.00259" lon="6.93323">
        <ele>1640.626953125</ele>
        <time>2010-06-27T09:01:47Z</time>
      </trkpt>
      <trkpt lat="46.00252" lon="6.93334">
        <ele>1642.5498046875</ele>
        <time>2010-06-27T09:01:53Z</time>
      </trkpt>
      <trkpt lat="46.0025" lon="6.93337">
        <ele>1642.5498046875</ele>
        <time>2010-06-27T09:01:54Z</time>
      </trkpt>
      <trkpt lat="46.00248" lon="6.93351">
        <ele>1640.626953125</ele>
        <time>2010-06-27T09:01:59Z</time>
      </trkpt>
      <trkpt lat="46.00251" lon="6.93365">
        <ele>1640.146484375</ele>
        <time>2010-06-27T09:02:05Z</time>
      </trkpt>
      <trkpt lat="46.00253" lon="6.93373">
        <ele>1639.1850585938</ele>
        <time>2010-06-27T09:02:09Z</time>
      </trkpt>
      <trkpt lat="46.00254" lon="6.93383">
        <ele>1639.6657714844</ele>
        <time>2010-06-27T09:02:13Z</time>
      </trkpt>
      <trkpt lat="46.00256" lon="6.93396">
        <ele>1637.2624511719</ele>
        <time>2010-06-27T09:02:18Z</time>
      </trkpt>
      <trkpt lat="46.00258" lon="6.93403">
        <ele>1637.2624511719</ele>
        <time>2010-06-27T09:02:20Z</time>
      </trkpt>
      <trkpt lat="46.00264" lon="6.93419">
        <ele>1638.2238769531</ele>
        <time>2010-06-27T09:02:25Z</time>
      </trkpt>
      <trkpt lat="46.00267" lon="6.93432">
        <ele>1637.2624511719</ele>
        <time>2010-06-27T09:02:30Z</time>
      </trkpt>
      <trkpt lat="46.00262" lon="6.93434">
        <ele>1634.859375</ele>
        <time>2010-06-27T09:02:34Z</time>
      </trkpt>
      <trkpt lat="46.00261" lon="6.93432">
        <ele>1633.8979492188</ele>
        <time>2010-06-27T09:02:35Z</time>
      </trkpt>
      <trkpt lat="46.00259" lon="6.93433">
        <ele>1633.4172363281</ele>
        <time>2010-06-27T09:02:37Z</time>
      </trkpt>
      <trkpt lat="46.00259" lon="6.93446">
        <ele>1628.1301269531</ele>
        <time>2010-06-27T09:02:43Z</time>
      </trkpt>
      <trkpt lat="46.00259" lon="6.9345">
        <ele>1627.1687011719</ele>
        <time>2010-06-27T09:02:45Z</time>
      </trkpt>
      <trkpt lat="46.00254" lon="6.93449">
        <ele>1625.2458496094</ele>
        <time>2010-06-27T09:02:49Z</time>
      </trkpt>
      <trkpt lat="46.00253" lon="6.93447">
        <ele>1624.7653808594</ele>
        <time>2010-06-27T09:02:50Z</time>
      </trkpt>
      <trkpt lat="46.00248" lon="6.93452">
        <ele>1622.3620605469</ele>
        <time>2010-06-27T09:02:55Z</time>
      </trkpt>
      <trkpt lat="46.00247" lon="6.93456">
        <ele>1621.4006347656</ele>
        <time>2010-06-27T09:02:57Z</time>
      </trkpt>
      <trkpt lat="46.00238" lon="6.93453">
        <ele>1618.5168457031</ele>
        <time>2010-06-27T09:03:03Z</time>
      </trkpt>
      <trkpt lat="46.00235" lon="6.93451">
        <ele>1619.4782714844</ele>
        <time>2010-06-27T09:03:05Z</time>
      </trkpt>
      <trkpt lat="46.00219" lon="6.93448">
        <ele>1621.4006347656</ele>
        <time>2010-06-27T09:03:12Z</time>
      </trkpt>
      <trkpt lat="46.00211" lon="6.93443">
        <ele>1618.9975585938</ele>
        <time>2010-06-27T09:03:16Z</time>
      </trkpt>
      <trkpt lat="46.00204" lon="6.93443">
        <ele>1616.1135253906</ele>
        <time>2010-06-27T09:03:21Z</time>
      </trkpt>
      <trkpt lat="46.002" lon="6.93445">
        <ele>1615.15234375</ele>
        <time>2010-06-27T09:03:25Z</time>
      </trkpt>
      <trkpt lat="46.00196" lon="6.93447">
        <ele>1613.2297363281</ele>
        <time>2010-06-27T09:03:29Z</time>
      </trkpt>
      <trkpt lat="46.00196" lon="6.93449">
        <ele>1611.3068847656</ele>
        <time>2010-06-27T09:03:34Z</time>
      </trkpt>
      <trkpt lat="46.00196" lon="6.93451">
        <ele>1606.5002441406</ele>
        <time>2010-06-27T09:03:39Z</time>
      </trkpt>
      <trkpt lat="46.00196" lon="6.93453">
        <ele>1603.6164550781</ele>
        <time>2010-06-27T09:03:44Z</time>
      </trkpt>
      <trkpt lat="46.00197" lon="6.93455">
        <ele>1603.1357421875</ele>
        <time>2010-06-27T09:03:45Z</time>
      </trkpt>
      <trkpt lat="46.00204" lon="6.93464">
        <ele>1598.8098144531</ele>
        <time>2010-06-27T09:03:50Z</time>
      </trkpt>
      <trkpt lat="46.00209" lon="6.93479">
        <ele>1594.4836425781</ele>
        <time>2010-06-27T09:03:55Z</time>
      </trkpt>
      <trkpt lat="46.0021" lon="6.93482">
        <ele>1593.0417480469</ele>
        <time>2010-06-27T09:03:56Z</time>
      </trkpt>
      <trkpt lat="46.00208" lon="6.93486">
        <ele>1591.119140625</ele>
        <time>2010-06-27T09:03:59Z</time>
      </trkpt>
      <trkpt lat="46.00201" lon="6.93484">
        <ele>1591.5998535156</ele>
        <time>2010-06-27T09:04:04Z</time>
      </trkpt>
      <trkpt lat="46.00201" lon="6.93485">
        <ele>1592.0805664062</ele>
        <time>2010-06-27T09:04:05Z</time>
      </trkpt>
      <trkpt lat="46.002" lon="6.93487">
        <ele>1591.119140625</ele>
        <time>2010-06-27T09:04:09Z</time>
      </trkpt>
      <trkpt lat="46.00198" lon="6.93488">
        <ele>1580.544921875</ele>
        <time>2010-06-27T09:04:15Z</time>
      </trkpt>
      <trkpt lat="46.00199" lon="6.93491">
        <ele>1580.544921875</ele>
        <time>2010-06-27T09:04:16Z</time>
      </trkpt>
      <trkpt lat="46.00199" lon="6.93501">
        <ele>1579.5832519531</ele>
        <time>2010-06-27T09:04:20Z</time>
      </trkpt>
      <trkpt lat="46.00203" lon="6.93509">
        <ele>1579.1025390625</ele>
        <time>2010-06-27T09:04:25Z</time>
      </trkpt>
      <trkpt lat="46.00204" lon="6.9351">
        <ele>1579.1025390625</ele>
        <time>2010-06-27T09:04:26Z</time>
      </trkpt>
      <trkpt lat="46.00203" lon="6.93512">
        <ele>1576.21875</ele>
        <time>2010-06-27T09:04:34Z</time>
      </trkpt>
      <trkpt lat="46.0021" lon="6.93522">
        <ele>1571.412109375</ele>
        <time>2010-06-27T09:04:39Z</time>
      </trkpt>
      <trkpt lat="46.00214" lon="6.93532">
        <ele>1568.5283203125</ele>
        <time>2010-06-27T09:04:43Z</time>
      </trkpt>
      <trkpt lat="46.00215" lon="6.93547">
        <ele>1564.6831054688</ele>
        <time>2010-06-27T09:04:49Z</time>
      </trkpt>
      <trkpt lat="46.00212" lon="6.93546">
        <ele>1564.2023925781</ele>
        <time>2010-06-27T09:04:52Z</time>
      </trkpt>
      <trkpt lat="46.00202" lon="6.9354">
        <ele>1564.2023925781</ele>
        <time>2010-06-27T09:04:57Z</time>
      </trkpt>
      <trkpt lat="46.00192" lon="6.93543">
        <ele>1564.2023925781</ele>
        <time>2010-06-27T09:05:01Z</time>
      </trkpt>
      <trkpt lat="46.00187" lon="6.93542">
        <ele>1563.2409667969</ele>
        <time>2010-06-27T09:05:04Z</time>
      </trkpt>
      <trkpt lat="46.00183" lon="6.93545">
        <ele>1562.2795410156</ele>
        <time>2010-06-27T09:05:07Z</time>
      </trkpt>
      <trkpt lat="46.00183" lon="6.93547">
        <ele>1562.2795410156</ele>
        <time>2010-06-27T09:05:08Z</time>
      </trkpt>
      <trkpt lat="46.0019" lon="6.93553">
        <ele>1563.7214355469</ele>
        <time>2010-06-27T09:05:14Z</time>
      </trkpt>
      <trkpt lat="46.00196" lon="6.93563">
        <ele>1560.8376464844</ele>
        <time>2010-06-27T09:05:18Z</time>
      </trkpt>
      <trkpt lat="46.00197" lon="6.93566">
        <ele>1560.8376464844</ele>
        <time>2010-06-27T09:05:19Z</time>
      </trkpt>
      <trkpt lat="46.00195" lon="6.93568">
        <ele>1560.3569335938</ele>
        <time>2010-06-27T09:05:21Z</time>
      </trkpt>
      <trkpt lat="46.00188" lon="6.93566">
        <ele>1557.9538574219</ele>
        <time>2010-06-27T09:05:25Z</time>
      </trkpt>
      <trkpt lat="46.00187" lon="6.93567">
        <ele>1556.9924316406</ele>
        <time>2010-06-27T09:05:27Z</time>
      </trkpt>
      <trkpt lat="46.00187" lon="6.93571">
        <ele>1553.6279296875</ele>
        <time>2010-06-27T09:05:32Z</time>
      </trkpt>
      <trkpt lat="46.00176" lon="6.9357">
        <ele>1550.7438964844</ele>
        <time>2010-06-27T09:05:38Z</time>
      </trkpt>
      <trkpt lat="46.00174" lon="6.93571">
        <ele>1550.2634277344</ele>
        <time>2010-06-27T09:05:40Z</time>
      </trkpt>
      <trkpt lat="46.00177" lon="6.93575">
        <ele>1549.3020019531</ele>
        <time>2010-06-27T09:05:43Z</time>
      </trkpt>
      <trkpt lat="46.00185" lon="6.93583">
        <ele>1546.41796875</ele>
        <time>2010-06-27T09:05:48Z</time>
      </trkpt>
      <trkpt lat="46.00183" lon="6.93587">
        <ele>1543.5339355469</ele>
        <time>2010-06-27T09:05:51Z</time>
      </trkpt>
      <trkpt lat="46.0018" lon="6.93586">
        <ele>1541.1306152344</ele>
        <time>2010-06-27T09:05:54Z</time>
      </trkpt>
      <trkpt lat="46.00184" lon="6.93592">
        <ele>1537.2854003906</ele>
        <time>2010-06-27T09:05:59Z</time>
      </trkpt>
      <trkpt lat="46.00185" lon="6.93594">
        <ele>1536.32421875</ele>
        <time>2010-06-27T09:06:00Z</time>
      </trkpt>
      <trkpt lat="46.00189" lon="6.93602">
        <ele>1533.9208984375</ele>
        <time>2010-06-27T09:06:04Z</time>
      </trkpt>
      <trkpt lat="46.00194" lon="6.9361">
        <ele>1534.4016113281</ele>
        <time>2010-06-27T09:06:08Z</time>
      </trkpt>
      <trkpt lat="46.00196" lon="6.93627">
        <ele>1531.5173339844</ele>
        <time>2010-06-27T09:06:13Z</time>
      </trkpt>
      <trkpt lat="46.00199" lon="6.93642">
        <ele>1529.5947265625</ele>
        <time>2010-06-27T09:06:18Z</time>
      </trkpt>
      <trkpt lat="46.00203" lon="6.93659">
        <ele>1526.7109375</ele>
        <time>2010-06-27T09:06:23Z</time>
      </trkpt>
      <trkpt lat="46.00213" lon="6.93679">
        <ele>1523.8269042969</ele>
        <time>2010-06-27T09:06:29Z</time>
      </trkpt>
      <trkpt lat="46.00221" lon="6.937">
        <ele>1517.5783691406</ele>
        <time>2010-06-27T09:06:35Z</time>
      </trkpt>
      <trkpt lat="46.00225" lon="6.93712">
        <ele>1514.2136230469</ele>
        <time>2010-06-27T09:06:39Z</time>
      </trkpt>
      <trkpt lat="46.00232" lon="6.93728">
        <ele>1509.8876953125</ele>
        <time>2010-06-27T09:06:44Z</time>
      </trkpt>
      <trkpt lat="46.00236" lon="6.93743">
        <ele>1507.00390625</ele>
        <time>2010-06-27T09:06:48Z</time>
      </trkpt>
      <trkpt lat="46.00239" lon="6.9376">
        <ele>1504.1201171875</ele>
        <time>2010-06-27T09:06:53Z</time>
      </trkpt>
      <trkpt lat="46.00242" lon="6.93781">
        <ele>1501.716796875</ele>
        <time>2010-06-27T09:06:59Z</time>
      </trkpt>
      <trkpt lat="46.00246" lon="6.93798">
        <ele>1499.7939453125</ele>
        <time>2010-06-27T09:07:03Z</time>
      </trkpt>
      <trkpt lat="46.00249" lon="6.93816">
        <ele>1497.8713378906</ele>
        <time>2010-06-27T09:07:08Z</time>
      </trkpt>
      <trkpt lat="46.0025" lon="6.93829">
        <ele>1495.9487304688</ele>
        <time>2010-06-27T09:07:12Z</time>
      </trkpt>
      <trkpt lat="46.00249" lon="6.93849">
        <ele>1493.5454101562</ele>
        <time>2010-06-27T09:07:17Z</time>
      </trkpt>
      <trkpt lat="46.00251" lon="6.93865">
        <ele>1494.5065917969</ele>
        <time>2010-06-27T09:07:21Z</time>
      </trkpt>
      <trkpt lat="46.00258" lon="6.93884">
        <ele>1497.8713378906</ele>
        <time>2010-06-27T09:07:28Z</time>
      </trkpt>
      <trkpt lat="46.00264" lon="6.93894">
        <ele>1500.7553710938</ele>
        <time>2010-06-27T09:07:32Z</time>
      </trkpt>
      <trkpt lat="46.00272" lon="6.93907">
        <ele>1500.2749023438</ele>
        <time>2010-06-27T09:07:37Z</time>
      </trkpt>
      <trkpt lat="46.00277" lon="6.93919">
        <ele>1500.7553710938</ele>
        <time>2010-06-27T09:07:41Z</time>
      </trkpt>
      <trkpt lat="46.00279" lon="6.93932">
        <ele>1502.6779785156</ele>
        <time>2010-06-27T09:07:45Z</time>
      </trkpt>
      <trkpt lat="46.00283" lon="6.93943">
        <ele>1501.716796875</ele>
        <time>2010-06-27T09:07:49Z</time>
      </trkpt>
      <trkpt lat="46.00285" lon="6.93958">
        <ele>1500.2749023438</ele>
        <time>2010-06-27T09:07:54Z</time>
      </trkpt>
      <trkpt lat="46.00286" lon="6.93974">
        <ele>1498.8325195312</ele>
        <time>2010-06-27T09:07:58Z</time>
      </trkpt>
      <trkpt lat="46.0029" lon="6.93985">
        <ele>1498.8325195312</ele>
        <time>2010-06-27T09:08:02Z</time>
      </trkpt>
      <trkpt lat="46.00293" lon="6.93999">
        <ele>1501.716796875</ele>
        <time>2010-06-27T09:08:08Z</time>
      </trkpt>
      <trkpt lat="46.00296" lon="6.94006">
        <ele>1500.7553710938</ele>
        <time>2010-06-27T09:08:12Z</time>
      </trkpt>
      <trkpt lat="46.00296" lon="6.9401">
        <ele>1499.7939453125</ele>
        <time>2010-06-27T09:08:14Z</time>
      </trkpt>
      <trkpt lat="46.00295" lon="6.94024">
        <ele>1499.7939453125</ele>
        <time>2010-06-27T09:08:18Z</time>
      </trkpt>
      <trkpt lat="46.00304" lon="6.94038">
        <ele>1496.9099121094</ele>
        <time>2010-06-27T09:08:23Z</time>
      </trkpt>
      <trkpt lat="46.00307" lon="6.94043">
        <ele>1494.5065917969</ele>
        <time>2010-06-27T09:08:26Z</time>
      </trkpt>
      <trkpt lat="46.00313" lon="6.94054">
        <ele>1492.5842285156</ele>
        <time>2010-06-27T09:08:34Z</time>
      </trkpt>
      <trkpt lat="46.00314" lon="6.94054">
        <ele>1493.5454101562</ele>
        <time>2010-06-27T09:08:35Z</time>
      </trkpt>
      <trkpt lat="46.00314" lon="6.94064">
        <ele>1493.0646972656</ele>
        <time>2010-06-27T09:08:41Z</time>
      </trkpt>
      <trkpt lat="46.00315" lon="6.94066">
        <ele>1492.5842285156</ele>
        <time>2010-06-27T09:08:42Z</time>
      </trkpt>
      <trkpt lat="46.00318" lon="6.94073">
        <ele>1492.5842285156</ele>
        <time>2010-06-27T09:08:46Z</time>
      </trkpt>
      <trkpt lat="46.0032" lon="6.94079">
        <ele>1495.9487304688</ele>
        <time>2010-06-27T09:08:49Z</time>
      </trkpt>
      <trkpt lat="46.00324" lon="6.94085">
        <ele>1495.9487304688</ele>
        <time>2010-06-27T09:08:53Z</time>
      </trkpt>
      <trkpt lat="46.00327" lon="6.94089">
        <ele>1495.4680175781</ele>
        <time>2010-06-27T09:08:56Z</time>
      </trkpt>
      <trkpt lat="46.00329" lon="6.94093">
        <ele>1495.4680175781</ele>
        <time>2010-06-27T09:08:59Z</time>
      </trkpt>
      <trkpt lat="46.00333" lon="6.94101">
        <ele>1494.0261230469</ele>
        <time>2010-06-27T09:09:04Z</time>
      </trkpt>
      <trkpt lat="46.00336" lon="6.94108">
        <ele>1494.5065917969</ele>
        <time>2010-06-27T09:09:07Z</time>
      </trkpt>
      <trkpt lat="46.00336" lon="6.9412">
        <ele>1494.9873046875</ele>
        <time>2010-06-27T09:09:11Z</time>
      </trkpt>
      <trkpt lat="46.00336" lon="6.94131">
        <ele>1497.8713378906</ele>
        <time>2010-06-27T09:09:17Z</time>
      </trkpt>
      <trkpt lat="46.00338" lon="6.94141">
        <ele>1500.2749023438</ele>
        <time>2010-06-27T09:09:21Z</time>
      </trkpt>
      <trkpt lat="46.00341" lon="6.94159">
        <ele>1499.3132324219</ele>
        <time>2010-06-27T09:09:27Z</time>
      </trkpt>
      <trkpt lat="46.00341" lon="6.94161">
        <ele>1500.2749023438</ele>
        <time>2010-06-27T09:09:28Z</time>
      </trkpt>
      <trkpt lat="46.00343" lon="6.94182">
        <ele>1497.8713378906</ele>
        <time>2010-06-27T09:09:35Z</time>
      </trkpt>
      <trkpt lat="46.00345" lon="6.94198">
        <ele>1495.4680175781</ele>
        <time>2010-06-27T09:09:40Z</time>
      </trkpt>
      <trkpt lat="46.00348" lon="6.94209">
        <ele>1494.0261230469</ele>
        <time>2010-06-27T09:09:45Z</time>
      </trkpt>
      <trkpt lat="46.00348" lon="6.94213">
        <ele>1493.5454101562</ele>
        <time>2010-06-27T09:09:46Z</time>
      </trkpt>
      <trkpt lat="46.00351" lon="6.94226">
        <ele>1492.5842285156</ele>
        <time>2010-06-27T09:09:51Z</time>
      </trkpt>
      <trkpt lat="46.00354" lon="6.94231">
        <ele>1490.6613769531</ele>
        <time>2010-06-27T09:09:53Z</time>
      </trkpt>
      <trkpt lat="46.00357" lon="6.94244">
        <ele>1491.1420898438</ele>
        <time>2010-06-27T09:09:58Z</time>
      </trkpt>
      <trkpt lat="46.00362" lon="6.94259">
        <ele>1492.5842285156</ele>
        <time>2010-06-27T09:10:02Z</time>
      </trkpt>
      <trkpt lat="46.00366" lon="6.94273">
        <ele>1492.5842285156</ele>
        <time>2010-06-27T09:10:06Z</time>
      </trkpt>
      <trkpt lat="46.00374" lon="6.9429">
        <ele>1490.6613769531</ele>
        <time>2010-06-27T09:10:12Z</time>
      </trkpt>
      <trkpt lat="46.0038" lon="6.94298">
        <ele>1490.1809082031</ele>
        <time>2010-06-27T09:10:16Z</time>
      </trkpt>
      <trkpt lat="46.00382" lon="6.94299">
        <ele>1490.1809082031</ele>
        <time>2010-06-27T09:10:17Z</time>
      </trkpt>
      <trkpt lat="46.00388" lon="6.94303">
        <ele>1490.1809082031</ele>
        <time>2010-06-27T09:10:21Z</time>
      </trkpt>
      <trkpt lat="46.00393" lon="6.94305">
        <ele>1489.2194824219</ele>
        <time>2010-06-27T09:10:24Z</time>
      </trkpt>
      <trkpt lat="46.00395" lon="6.94323">
        <ele>1489.7001953125</ele>
        <time>2010-06-27T09:10:29Z</time>
      </trkpt>
      <trkpt lat="46.00396" lon="6.94329">
        <ele>1489.2194824219</ele>
        <time>2010-06-27T09:10:31Z</time>
      </trkpt>
      <trkpt lat="46.00401" lon="6.94352">
        <ele>1488.7390136719</ele>
        <time>2010-06-27T09:10:37Z</time>
      </trkpt>
      <trkpt lat="46.00402" lon="6.94357">
        <ele>1489.2194824219</ele>
        <time>2010-06-27T09:10:39Z</time>
      </trkpt>
      <trkpt lat="46.00407" lon="6.94371">
        <ele>1488.2583007812</ele>
        <time>2010-06-27T09:10:44Z</time>
      </trkpt>
      <trkpt lat="46.00402" lon="6.94386">
        <ele>1486.3356933594</ele>
        <time>2010-06-27T09:10:48Z</time>
      </trkpt>
      <trkpt lat="46.004" lon="6.94394">
        <ele>1485.3742675781</ele>
        <time>2010-06-27T09:10:50Z</time>
      </trkpt>
      <trkpt lat="46.00396" lon="6.94405">
        <ele>1483.4514160156</ele>
        <time>2010-06-27T09:10:53Z</time>
      </trkpt>
      <trkpt lat="46.00391" lon="6.94422">
        <ele>1484.4130859375</ele>
        <time>2010-06-27T09:10:59Z</time>
      </trkpt>
      <trkpt lat="46.00386" lon="6.94428">
        <ele>1484.4130859375</ele>
        <time>2010-06-27T09:11:02Z</time>
      </trkpt>
      <trkpt lat="46.00387" lon="6.9443">
        <ele>1484.8937988281</ele>
        <time>2010-06-27T09:11:03Z</time>
      </trkpt>
      <trkpt lat="46.00391" lon="6.94444">
        <ele>1484.8937988281</ele>
        <time>2010-06-27T09:11:08Z</time>
      </trkpt>
      <trkpt lat="46.00395" lon="6.94454">
        <ele>1484.8937988281</ele>
        <time>2010-06-27T09:11:12Z</time>
      </trkpt>
      <trkpt lat="46.00398" lon="6.94458">
        <ele>1484.4130859375</ele>
        <time>2010-06-27T09:11:14Z</time>
      </trkpt>
      <trkpt lat="46.00399" lon="6.94468">
        <ele>1482.490234375</ele>
        <time>2010-06-27T09:11:17Z</time>
      </trkpt>
      <trkpt lat="46.00401" lon="6.94482">
        <ele>1478.1643066406</ele>
        <time>2010-06-27T09:11:21Z</time>
      </trkpt>
      <trkpt lat="46.004" lon="6.94505">
        <ele>1471.4350585938</ele>
        <time>2010-06-27T09:11:27Z</time>
      </trkpt>
      <trkpt lat="46.00394" lon="6.94521">
        <ele>1469.0319824219</ele>
        <time>2010-06-27T09:11:32Z</time>
      </trkpt>
      <trkpt lat="46.00392" lon="6.94526">
        <ele>1468.5512695312</ele>
        <time>2010-06-27T09:11:34Z</time>
      </trkpt>
      <trkpt lat="46.00388" lon="6.94542">
        <ele>1468.5512695312</ele>
        <time>2010-06-27T09:11:39Z</time>
      </trkpt>
      <trkpt lat="46.00387" lon="6.94542">
        <ele>1469.0319824219</ele>
        <time>2010-06-27T09:11:41Z</time>
      </trkpt>
      <trkpt lat="46.00381" lon="6.94556">
        <ele>1469.0319824219</ele>
        <time>2010-06-27T09:11:46Z</time>
      </trkpt>
      <trkpt lat="46.00381" lon="6.94564">
        <ele>1469.0319824219</ele>
        <time>2010-06-27T09:11:49Z</time>
      </trkpt>
      <trkpt lat="46.00388" lon="6.94578">
        <ele>1469.9931640625</ele>
        <time>2010-06-27T09:11:58Z</time>
      </trkpt>
      <trkpt lat="46.0039" lon="6.94584">
        <ele>1471.9157714844</ele>
        <time>2010-06-27T09:12:02Z</time>
      </trkpt>
      <trkpt lat="46.00396" lon="6.946">
        <ele>1476.7224121094</ele>
        <time>2010-06-27T09:12:11Z</time>
      </trkpt>
      <trkpt lat="46.00397" lon="6.94614">
        <ele>1478.1643066406</ele>
        <time>2010-06-27T09:12:19Z</time>
      </trkpt>
      <trkpt lat="46.00399" lon="6.94629">
        <ele>1479.6062011719</ele>
        <time>2010-06-27T09:12:27Z</time>
      </trkpt>
      <trkpt lat="46.00401" lon="6.94636">
        <ele>1480.0869140625</ele>
        <time>2010-06-27T09:12:31Z</time>
      </trkpt>
      <trkpt lat="46.004" lon="6.94648">
        <ele>1481.0483398438</ele>
        <time>2010-06-27T09:12:37Z</time>
      </trkpt>
      <trkpt lat="46.00394" lon="6.94658">
        <ele>1482.490234375</ele>
        <time>2010-06-27T09:12:45Z</time>
      </trkpt>
      <trkpt lat="46.00384" lon="6.94671">
        <ele>1483.9321289062</ele>
        <time>2010-06-27T09:12:55Z</time>
      </trkpt>
      <trkpt lat="46.00372" lon="6.94678">
        <ele>1484.4130859375</ele>
        <time>2010-06-27T09:13:05Z</time>
      </trkpt>
      <trkpt lat="46.00363" lon="6.94674">
        <ele>1483.9321289062</ele>
        <time>2010-06-27T09:13:10Z</time>
      </trkpt>
      <trkpt lat="46.00351" lon="6.9466">
        <ele>1481.5288085938</ele>
        <time>2010-06-27T09:13:15Z</time>
      </trkpt>
      <trkpt lat="46.00341" lon="6.94645">
        <ele>1480.5676269531</ele>
        <time>2010-06-27T09:13:20Z</time>
      </trkpt>
      <trkpt lat="46.00333" lon="6.94631">
        <ele>1480.0869140625</ele>
        <time>2010-06-27T09:13:25Z</time>
      </trkpt>
      <trkpt lat="46.0032" lon="6.94634">
        <ele>1478.6450195312</ele>
        <time>2010-06-27T09:13:30Z</time>
      </trkpt>
      <trkpt lat="46.00305" lon="6.94643">
        <ele>1478.1643066406</ele>
        <time>2010-06-27T09:13:36Z</time>
      </trkpt>
      <trkpt lat="46.00301" lon="6.94645">
        <ele>1478.6450195312</ele>
        <time>2010-06-27T09:13:39Z</time>
      </trkpt>
      <trkpt lat="46.00301" lon="6.94646">
        <ele>1479.1254882812</ele>
        <time>2010-06-27T09:13:41Z</time>
      </trkpt>
      <trkpt lat="46.00291" lon="6.94654">
        <ele>1480.0869140625</ele>
        <time>2010-06-27T09:13:46Z</time>
      </trkpt>
      <trkpt lat="46.00286" lon="6.94657">
        <ele>1480.5676269531</ele>
        <time>2010-06-27T09:13:48Z</time>
      </trkpt>
      <trkpt lat="46.00272" lon="6.94662">
        <ele>1484.4130859375</ele>
        <time>2010-06-27T09:13:55Z</time>
      </trkpt>
      <trkpt lat="46.00263" lon="6.94655">
        <ele>1485.3742675781</ele>
        <time>2010-06-27T09:14:00Z</time>
      </trkpt>
      <trkpt lat="46.00256" lon="6.9464">
        <ele>1482.0095214844</ele>
        <time>2010-06-27T09:14:05Z</time>
      </trkpt>
      <trkpt lat="46.00247" lon="6.9462">
        <ele>1477.68359375</ele>
        <time>2010-06-27T09:14:11Z</time>
      </trkpt>
      <trkpt lat="46.00239" lon="6.94604">
        <ele>1475.2802734375</ele>
        <time>2010-06-27T09:14:16Z</time>
      </trkpt>
      <trkpt lat="46.0023" lon="6.94592">
        <ele>1473.3579101562</ele>
        <time>2010-06-27T09:14:20Z</time>
      </trkpt>
      <trkpt lat="46.00221" lon="6.94595">
        <ele>1470.4738769531</ele>
        <time>2010-06-27T09:14:24Z</time>
      </trkpt>
      <trkpt lat="46.00214" lon="6.94603">
        <ele>1467.5895996094</ele>
        <time>2010-06-27T09:14:28Z</time>
      </trkpt>
      <trkpt lat="46.00212" lon="6.94607">
        <ele>1467.5895996094</ele>
        <time>2010-06-27T09:14:29Z</time>
      </trkpt>
      <trkpt lat="46.0021" lon="6.94613">
        <ele>1467.5895996094</ele>
        <time>2010-06-27T09:14:31Z</time>
      </trkpt>
      <trkpt lat="46.00196" lon="6.94631">
        <ele>1465.1865234375</ele>
        <time>2010-06-27T09:14:39Z</time>
      </trkpt>
      <trkpt lat="46.00193" lon="6.94631">
        <ele>1465.1865234375</ele>
        <time>2010-06-27T09:14:40Z</time>
      </trkpt>
      <trkpt lat="46.00187" lon="6.94643">
        <ele>1469.9931640625</ele>
        <time>2010-06-27T09:14:44Z</time>
      </trkpt>
      <trkpt lat="46.00181" lon="6.94655">
        <ele>1466.1477050781</ele>
        <time>2010-06-27T09:14:50Z</time>
      </trkpt>
      <trkpt lat="46.00178" lon="6.94669">
        <ele>1467.5895996094</ele>
        <time>2010-06-27T09:14:57Z</time>
      </trkpt>
      <trkpt lat="46.00174" lon="6.94689">
        <ele>1471.9157714844</ele>
        <time>2010-06-27T09:15:07Z</time>
      </trkpt>
      <trkpt lat="46.00172" lon="6.94693">
        <ele>1473.3579101562</ele>
        <time>2010-06-27T09:15:09Z</time>
      </trkpt>
      <trkpt lat="46.00167" lon="6.94706">
        <ele>1476.7224121094</ele>
        <time>2010-06-27T09:15:17Z</time>
      </trkpt>
      <trkpt lat="46.00162" lon="6.94715">
        <ele>1479.1254882812</ele>
        <time>2010-06-27T09:15:23Z</time>
      </trkpt>
      <trkpt lat="46.00153" lon="6.94726">
        <ele>1483.4514160156</ele>
        <time>2010-06-27T09:15:31Z</time>
      </trkpt>
      <trkpt lat="46.00143" lon="6.94735">
        <ele>1484.8937988281</ele>
        <time>2010-06-27T09:15:40Z</time>
      </trkpt>
      <trkpt lat="46.0014" lon="6.94745">
        <ele>1483.4514160156</ele>
        <time>2010-06-27T09:15:45Z</time>
      </trkpt>
      <trkpt lat="46.00136" lon="6.94751">
        <ele>1483.9321289062</ele>
        <time>2010-06-27T09:15:50Z</time>
      </trkpt>
      <trkpt lat="46.00129" lon="6.94762">
        <ele>1483.4514160156</ele>
        <time>2010-06-27T09:15:58Z</time>
      </trkpt>
      <trkpt lat="46.00122" lon="6.94773">
        <ele>1483.9321289062</ele>
        <time>2010-06-27T09:16:05Z</time>
      </trkpt>
      <trkpt lat="46.00116" lon="6.94783">
        <ele>1484.4130859375</ele>
        <time>2010-06-27T09:16:09Z</time>
      </trkpt>
      <trkpt lat="46.00108" lon="6.94797">
        <ele>1484.4130859375</ele>
        <time>2010-06-27T09:16:14Z</time>
      </trkpt>
      <trkpt lat="46.00098" lon="6.94811">
        <ele>1484.8937988281</ele>
        <time>2010-06-27T09:16:19Z</time>
      </trkpt>
      <trkpt lat="46.00092" lon="6.94823">
        <ele>1484.8937988281</ele>
        <time>2010-06-27T09:16:23Z</time>
      </trkpt>
      <trkpt lat="46.00086" lon="6.94838">
        <ele>1484.8937988281</ele>
        <time>2010-06-27T09:16:28Z</time>
      </trkpt>
      <trkpt lat="46.00076" lon="6.94862">
        <ele>1484.8937988281</ele>
        <time>2010-06-27T09:16:34Z</time>
      </trkpt>
      <trkpt lat="46.00071" lon="6.94882">
        <ele>1484.8937988281</ele>
        <time>2010-06-27T09:16:40Z</time>
      </trkpt>
      <trkpt lat="46.00063" lon="6.949">
        <ele>1483.4514160156</ele>
        <time>2010-06-27T09:16:45Z</time>
      </trkpt>
      <trkpt lat="46.00055" lon="6.94906">
        <ele>1482.490234375</ele>
        <time>2010-06-27T09:16:48Z</time>
      </trkpt>
      <trkpt lat="46.00039" lon="6.94908">
        <ele>1478.6450195312</ele>
        <time>2010-06-27T09:16:54Z</time>
      </trkpt>
      <trkpt lat="46.00029" lon="6.94912">
        <ele>1476.7224121094</ele>
        <time>2010-06-27T09:16:58Z</time>
      </trkpt>
      <trkpt lat="46.00023" lon="6.94928">
        <ele>1474.7998046875</ele>
        <time>2010-06-27T09:17:03Z</time>
      </trkpt>
      <trkpt lat="46.00019" lon="6.94935">
        <ele>1473.8383789062</ele>
        <time>2010-06-27T09:17:06Z</time>
      </trkpt>
      <trkpt lat="46.0001" lon="6.94929">
        <ele>1471.4350585938</ele>
        <time>2010-06-27T09:17:10Z</time>
      </trkpt>
      <trkpt lat="46.00011" lon="6.94914">
        <ele>1470.9545898438</ele>
        <time>2010-06-27T09:17:13Z</time>
      </trkpt>
      <trkpt lat="46.0001" lon="6.94906">
        <ele>1470.9545898438</ele>
        <time>2010-06-27T09:17:15Z</time>
      </trkpt>
      <trkpt lat="46.0001" lon="6.94879">
        <ele>1471.4350585938</ele>
        <time>2010-06-27T09:17:20Z</time>
      </trkpt>
      <trkpt lat="46.00011" lon="6.94866">
        <ele>1470.9545898438</ele>
        <time>2010-06-27T09:17:23Z</time>
      </trkpt>
      <trkpt lat="46.00013" lon="6.94855">
        <ele>1469.5126953125</ele>
        <time>2010-06-27T09:17:26Z</time>
      </trkpt>
      <trkpt lat="46.00016" lon="6.94837">
        <ele>1468.0705566406</ele>
        <time>2010-06-27T09:17:31Z</time>
      </trkpt>
      <trkpt lat="46.00017" lon="6.94832">
        <ele>1468.0705566406</ele>
        <time>2010-06-27T09:17:32Z</time>
      </trkpt>
      <trkpt lat="46.00013" lon="6.94813">
        <ele>1466.6284179688</ele>
        <time>2010-06-27T09:17:37Z</time>
      </trkpt>
      <trkpt lat="46.0001" lon="6.94793">
        <ele>1466.1477050781</ele>
        <time>2010-06-27T09:17:42Z</time>
      </trkpt>
      <trkpt lat="46.00011" lon="6.94775">
        <ele>1464.2250976562</ele>
        <time>2010-06-27T09:17:47Z</time>
      </trkpt>
      <trkpt lat="46.00013" lon="6.94763">
        <ele>1462.783203125</ele>
        <time>2010-06-27T09:17:50Z</time>
      </trkpt>
      <trkpt lat="46.00013" lon="6.94759">
        <ele>1462.3024902344</ele>
        <time>2010-06-27T09:17:51Z</time>
      </trkpt>
      <trkpt lat="46.00008" lon="6.94746">
        <ele>1460.8605957031</ele>
        <time>2010-06-27T09:17:55Z</time>
      </trkpt>
      <trkpt lat="46" lon="6.94726">
        <ele>1460.3798828125</ele>
        <time>2010-06-27T09:18:00Z</time>
      </trkpt>
      <trkpt lat="45.99992" lon="6.94708">
        <ele>1458.9379882812</ele>
        <time>2010-06-27T09:18:05Z</time>
      </trkpt>
      <trkpt lat="45.99986" lon="6.94694">
        <ele>1457.9768066406</ele>
        <time>2010-06-27T09:18:09Z</time>
      </trkpt>
      <trkpt lat="45.99983" lon="6.94686">
        <ele>1457.0153808594</ele>
        <time>2010-06-27T09:18:11Z</time>
      </trkpt>
      <trkpt lat="45.99984" lon="6.94668">
        <ele>1455.0927734375</ele>
        <time>2010-06-27T09:18:15Z</time>
      </trkpt>
      <trkpt lat="45.99977" lon="6.94646">
        <ele>1453.1701660156</ele>
        <time>2010-06-27T09:18:21Z</time>
      </trkpt>
      <trkpt lat="45.99968" lon="6.94632">
        <ele>1450.7666015625</ele>
        <time>2010-06-27T09:18:25Z</time>
      </trkpt>
      <trkpt lat="45.99962" lon="6.94619">
        <ele>1449.3247070312</ele>
        <time>2010-06-27T09:18:29Z</time>
      </trkpt>
      <trkpt lat="45.99958" lon="6.94612">
        <ele>1448.36328125</ele>
        <time>2010-06-27T09:18:31Z</time>
      </trkpt>
      <trkpt lat="45.99947" lon="6.94602">
        <ele>1445.9602050781</ele>
        <time>2010-06-27T09:18:35Z</time>
      </trkpt>
      <trkpt lat="45.99941" lon="6.94593">
        <ele>1444.0375976562</ele>
        <time>2010-06-27T09:18:38Z</time>
      </trkpt>
      <trkpt lat="45.99939" lon="6.94581">
        <ele>1443.076171875</ele>
        <time>2010-06-27T09:18:41Z</time>
      </trkpt>
      <trkpt lat="45.99934" lon="6.94559">
        <ele>1440.6728515625</ele>
        <time>2010-06-27T09:18:46Z</time>
      </trkpt>
      <trkpt lat="45.99931" lon="6.94543">
        <ele>1437.7890625</ele>
        <time>2010-06-27T09:18:50Z</time>
      </trkpt>
      <trkpt lat="45.9993" lon="6.9454">
        <ele>1437.3083496094</ele>
        <time>2010-06-27T09:18:51Z</time>
      </trkpt>
      <trkpt lat="45.99929" lon="6.94529">
        <ele>1435.3854980469</ele>
        <time>2010-06-27T09:18:56Z</time>
      </trkpt>
      <trkpt lat="45.99927" lon="6.94508">
        <ele>1434.9050292969</ele>
        <time>2010-06-27T09:19:01Z</time>
      </trkpt>
      <trkpt lat="45.99926" lon="6.94495">
        <ele>1434.4243164062</ele>
        <time>2010-06-27T09:19:04Z</time>
      </trkpt>
      <trkpt lat="45.99927" lon="6.94477">
        <ele>1432.9821777344</ele>
        <time>2010-06-27T09:19:09Z</time>
      </trkpt>
      <trkpt lat="45.99926" lon="6.94451">
        <ele>1430.5791015625</ele>
        <time>2010-06-27T09:19:15Z</time>
      </trkpt>
      <trkpt lat="45.99924" lon="6.94438">
        <ele>1430.5791015625</ele>
        <time>2010-06-27T09:19:19Z</time>
      </trkpt>
      <trkpt lat="45.9992" lon="6.9442">
        <ele>1429.6176757812</ele>
        <time>2010-06-27T09:19:24Z</time>
      </trkpt>
      <trkpt lat="45.99916" lon="6.94404">
        <ele>1429.1369628906</ele>
        <time>2010-06-27T09:19:28Z</time>
      </trkpt>
      <trkpt lat="45.99911" lon="6.94389">
        <ele>1427.6950683594</ele>
        <time>2010-06-27T09:19:33Z</time>
      </trkpt>
      <trkpt lat="45.99911" lon="6.94382">
        <ele>1427.2145996094</ele>
        <time>2010-06-27T09:19:36Z</time>
      </trkpt>
      <trkpt lat="45.99912" lon="6.94369">
        <ele>1425.7724609375</ele>
        <time>2010-06-27T09:19:41Z</time>
      </trkpt>
      <trkpt lat="45.99912" lon="6.94366">
        <ele>1425.2917480469</ele>
        <time>2010-06-27T09:19:42Z</time>
      </trkpt>
      <trkpt lat="45.99907" lon="6.94344">
        <ele>1424.8112792969</ele>
        <time>2010-06-27T09:19:48Z</time>
      </trkpt>
      <trkpt lat="45.999" lon="6.94331">
        <ele>1422.4079589844</ele>
        <time>2010-06-27T09:19:52Z</time>
      </trkpt>
      <trkpt lat="45.99888" lon="6.94325">
        <ele>1419.5239257812</ele>
        <time>2010-06-27T09:19:57Z</time>
      </trkpt>
      <trkpt lat="45.99884" lon="6.94321">
        <ele>1419.5239257812</ele>
        <time>2010-06-27T09:19:59Z</time>
      </trkpt>
      <trkpt lat="45.99881" lon="6.94312">
        <ele>1420.4853515625</ele>
        <time>2010-06-27T09:20:03Z</time>
      </trkpt>
      <trkpt lat="45.99876" lon="6.94293">
        <ele>1421.9272460938</ele>
        <time>2010-06-27T09:20:10Z</time>
      </trkpt>
      <trkpt lat="45.99875" lon="6.94278">
        <ele>1422.4079589844</ele>
        <time>2010-06-27T09:20:15Z</time>
      </trkpt>
      <trkpt lat="45.99874" lon="6.94275">
        <ele>1422.888671875</ele>
        <time>2010-06-27T09:20:16Z</time>
      </trkpt>
      <trkpt lat="45.99873" lon="6.94253">
        <ele>1423.3693847656</ele>
        <time>2010-06-27T09:20:22Z</time>
      </trkpt>
      <trkpt lat="45.9987" lon="6.94237">
        <ele>1424.3305664062</ele>
        <time>2010-06-27T09:20:26Z</time>
      </trkpt>
      <trkpt lat="45.99864" lon="6.94221">
        <ele>1423.8498535156</ele>
        <time>2010-06-27T09:20:30Z</time>
      </trkpt>
      <trkpt lat="45.99864" lon="6.94209">
        <ele>1422.888671875</ele>
        <time>2010-06-27T09:20:33Z</time>
      </trkpt>
      <trkpt lat="45.99866" lon="6.94187">
        <ele>1421.9272460938</ele>
        <time>2010-06-27T09:20:39Z</time>
      </trkpt>
      <trkpt lat="45.99862" lon="6.94168">
        <ele>1421.9272460938</ele>
        <time>2010-06-27T09:20:44Z</time>
      </trkpt>
      <trkpt lat="45.99855" lon="6.94153">
        <ele>1419.5239257812</ele>
        <time>2010-06-27T09:20:49Z</time>
      </trkpt>
      <trkpt lat="45.99848" lon="6.94147">
        <ele>1418.5625</ele>
        <time>2010-06-27T09:20:52Z</time>
      </trkpt>
      <trkpt lat="45.99838" lon="6.94131">
        <ele>1417.6010742188</ele>
        <time>2010-06-27T09:20:57Z</time>
      </trkpt>
      <trkpt lat="45.99832" lon="6.94117">
        <ele>1416.1591796875</ele>
        <time>2010-06-27T09:21:01Z</time>
      </trkpt>
      <trkpt lat="45.99827" lon="6.94108">
        <ele>1414.7172851562</ele>
        <time>2010-06-27T09:21:04Z</time>
      </trkpt>
      <trkpt lat="45.99821" lon="6.94096">
        <ele>1417.1206054688</ele>
        <time>2010-06-27T09:21:09Z</time>
      </trkpt>
      <trkpt lat="45.99816" lon="6.94082">
        <ele>1417.6010742188</ele>
        <time>2010-06-27T09:21:14Z</time>
      </trkpt>
      <trkpt lat="45.99812" lon="6.94062">
        <ele>1416.6398925781</ele>
        <time>2010-06-27T09:21:19Z</time>
      </trkpt>
      <trkpt lat="45.99809" lon="6.94048">
        <ele>1417.1206054688</ele>
        <time>2010-06-27T09:21:23Z</time>
      </trkpt>
      <trkpt lat="45.99805" lon="6.94028">
        <ele>1415.1979980469</ele>
        <time>2010-06-27T09:21:28Z</time>
      </trkpt>
      <trkpt lat="45.99804" lon="6.94025">
        <ele>1415.6787109375</ele>
        <time>2010-06-27T09:21:29Z</time>
      </trkpt>
      <trkpt lat="45.99799" lon="6.93998">
        <ele>1413.755859375</ele>
        <time>2010-06-27T09:21:36Z</time>
      </trkpt>
      <trkpt lat="45.99793" lon="6.93981">
        <ele>1408.46875</ele>
        <time>2010-06-27T09:21:41Z</time>
      </trkpt>
      <trkpt lat="45.99783" lon="6.93967">
        <ele>1405.5849609375</ele>
        <time>2010-06-27T09:21:46Z</time>
      </trkpt>
      <trkpt lat="45.9978" lon="6.93962">
        <ele>1403.662109375</ele>
        <time>2010-06-27T09:21:48Z</time>
      </trkpt>
      <trkpt lat="45.99774" lon="6.93943">
        <ele>1400.7780761719</ele>
        <time>2010-06-27T09:21:53Z</time>
      </trkpt>
      <trkpt lat="45.99767" lon="6.9393">
        <ele>1398.3747558594</ele>
        <time>2010-06-27T09:21:57Z</time>
      </trkpt>
      <trkpt lat="45.99762" lon="6.9392">
        <ele>1396.4523925781</ele>
        <time>2010-06-27T09:22:00Z</time>
      </trkpt>
      <trkpt lat="45.99754" lon="6.93907">
        <ele>1394.0490722656</ele>
        <time>2010-06-27T09:22:05Z</time>
      </trkpt>
      <trkpt lat="45.99746" lon="6.93897">
        <ele>1392.6071777344</ele>
        <time>2010-06-27T09:22:09Z</time>
      </trkpt>
      <trkpt lat="45.99734" lon="6.93888">
        <ele>1391.6457519531</ele>
        <time>2010-06-27T09:22:13Z</time>
      </trkpt>
      <trkpt lat="45.9973" lon="6.9388">
        <ele>1390.2038574219</ele>
        <time>2010-06-27T09:22:16Z</time>
      </trkpt>
      <trkpt lat="45.99724" lon="6.9387">
        <ele>1388.7619628906</ele>
        <time>2010-06-27T09:22:19Z</time>
      </trkpt>
      <trkpt lat="45.99716" lon="6.93857">
        <ele>1386.8388671875</ele>
        <time>2010-06-27T09:22:24Z</time>
      </trkpt>
      <trkpt lat="45.99708" lon="6.93846">
        <ele>1385.3969726562</ele>
        <time>2010-06-27T09:22:28Z</time>
      </trkpt>
      <trkpt lat="45.99697" lon="6.93832">
        <ele>1384.4357910156</ele>
        <time>2010-06-27T09:22:32Z</time>
      </trkpt>
      <trkpt lat="45.99688" lon="6.93821">
        <ele>1383.4743652344</ele>
        <time>2010-06-27T09:22:36Z</time>
      </trkpt>
      <trkpt lat="45.99679" lon="6.93802">
        <ele>1380.5905761719</ele>
        <time>2010-06-27T09:22:42Z</time>
      </trkpt>
      <trkpt lat="45.99669" lon="6.93787">
        <ele>1378.66796875</ele>
        <time>2010-06-27T09:22:47Z</time>
      </trkpt>
      <trkpt lat="45.99664" lon="6.93783">
        <ele>1377.7065429688</ele>
        <time>2010-06-27T09:22:49Z</time>
      </trkpt>
      <trkpt lat="45.9965" lon="6.93767">
        <ele>1376.2646484375</ele>
        <time>2010-06-27T09:22:56Z</time>
      </trkpt>
      <trkpt lat="45.99641" lon="6.93755">
        <ele>1376.2646484375</ele>
        <time>2010-06-27T09:23:01Z</time>
      </trkpt>
      <trkpt lat="45.99631" lon="6.93747">
        <ele>1376.7453613281</ele>
        <time>2010-06-27T09:23:06Z</time>
      </trkpt>
      <trkpt lat="45.99626" lon="6.93739">
        <ele>1376.7453613281</ele>
        <time>2010-06-27T09:23:09Z</time>
      </trkpt>
      <trkpt lat="45.99616" lon="6.93722">
        <ele>1377.7065429688</ele>
        <time>2010-06-27T09:23:15Z</time>
      </trkpt>
      <trkpt lat="45.99613" lon="6.93708">
        <ele>1379.6291503906</ele>
        <time>2010-06-27T09:23:19Z</time>
      </trkpt>
      <trkpt lat="45.99608" lon="6.93692">
        <ele>1376.7453613281</ele>
        <time>2010-06-27T09:23:24Z</time>
      </trkpt>
      <trkpt lat="45.996" lon="6.93674">
        <ele>1374.3420410156</ele>
        <time>2010-06-27T09:23:29Z</time>
      </trkpt>
      <trkpt lat="45.99592" lon="6.93665">
        <ele>1373.861328125</ele>
        <time>2010-06-27T09:23:32Z</time>
      </trkpt>
      <trkpt lat="45.99579" lon="6.93649">
        <ele>1372.4194335938</ele>
        <time>2010-06-27T09:23:38Z</time>
      </trkpt>
      <trkpt lat="45.99569" lon="6.93635">
        <ele>1370.4965820312</ele>
        <time>2010-06-27T09:23:43Z</time>
      </trkpt>
      <trkpt lat="45.99557" lon="6.93622">
        <ele>1370.0158691406</ele>
        <time>2010-06-27T09:23:48Z</time>
      </trkpt>
      <trkpt lat="45.99548" lon="6.93612">
        <ele>1369.5354003906</ele>
        <time>2010-06-27T09:23:52Z</time>
      </trkpt>
      <trkpt lat="45.99537" lon="6.93598">
        <ele>1369.0546875</ele>
        <time>2010-06-27T09:23:57Z</time>
      </trkpt>
      <trkpt lat="45.99526" lon="6.93581">
        <ele>1369.5354003906</ele>
        <time>2010-06-27T09:24:02Z</time>
      </trkpt>
      <trkpt lat="45.99516" lon="6.93568">
        <ele>1368.5739746094</ele>
        <time>2010-06-27T09:24:07Z</time>
      </trkpt>
      <trkpt lat="45.99506" lon="6.93554">
        <ele>1369.0546875</ele>
        <time>2010-06-27T09:24:12Z</time>
      </trkpt>
      <trkpt lat="45.99499" lon="6.93541">
        <ele>1369.5354003906</ele>
        <time>2010-06-27T09:24:16Z</time>
      </trkpt>
      <trkpt lat="45.99492" lon="6.93524">
        <ele>1369.0546875</ele>
        <time>2010-06-27T09:24:20Z</time>
      </trkpt>
      <trkpt lat="45.99492" lon="6.93511">
        <ele>1368.5739746094</ele>
        <time>2010-06-27T09:24:23Z</time>
      </trkpt>
      <trkpt lat="45.99498" lon="6.93503">
        <ele>1368.5739746094</ele>
        <time>2010-06-27T09:24:27Z</time>
      </trkpt>
      <trkpt lat="45.99504" lon="6.93496">
        <ele>1370.0158691406</ele>
        <time>2010-06-27T09:24:31Z</time>
      </trkpt>
      <trkpt lat="45.99515" lon="6.9349">
        <ele>1370.4965820312</ele>
        <time>2010-06-27T09:24:36Z</time>
      </trkpt>
      <trkpt lat="45.99517" lon="6.93488">
        <ele>1370.9772949219</ele>
        <time>2010-06-27T09:24:37Z</time>
      </trkpt>
      <trkpt lat="45.99532" lon="6.9348">
        <ele>1370.0158691406</ele>
        <time>2010-06-27T09:24:43Z</time>
      </trkpt>
      <trkpt lat="45.99546" lon="6.93476">
        <ele>1369.0546875</ele>
        <time>2010-06-27T09:24:49Z</time>
      </trkpt>
      <trkpt lat="45.99557" lon="6.93471">
        <ele>1367.6125488281</ele>
        <time>2010-06-27T09:24:54Z</time>
      </trkpt>
      <trkpt lat="45.99564" lon="6.93468">
        <ele>1366.6513671875</ele>
        <time>2010-06-27T09:24:57Z</time>
      </trkpt>
      <trkpt lat="45.99581" lon="6.93462">
        <ele>1365.2094726562</ele>
        <time>2010-06-27T09:25:04Z</time>
      </trkpt>
      <trkpt lat="45.99591" lon="6.93461">
        <ele>1364.248046875</ele>
        <time>2010-06-27T09:25:08Z</time>
      </trkpt>
      <trkpt lat="45.99599" lon="6.93462">
        <ele>1364.248046875</ele>
        <time>2010-06-27T09:25:11Z</time>
      </trkpt>
      <trkpt lat="45.99612" lon="6.93465">
        <ele>1364.248046875</ele>
        <time>2010-06-27T09:25:17Z</time>
      </trkpt>
      <trkpt lat="45.99625" lon="6.93466">
        <ele>1366.6513671875</ele>
        <time>2010-06-27T09:25:23Z</time>
      </trkpt>
      <trkpt lat="45.99637" lon="6.93464">
        <ele>1367.6125488281</ele>
        <time>2010-06-27T09:25:28Z</time>
      </trkpt>
      <trkpt lat="45.99647" lon="6.93458">
        <ele>1367.6125488281</ele>
        <time>2010-06-27T09:25:32Z</time>
      </trkpt>
      <trkpt lat="45.9966" lon="6.93447">
        <ele>1367.6125488281</ele>
        <time>2010-06-27T09:25:38Z</time>
      </trkpt>
      <trkpt lat="45.99665" lon="6.93444">
        <ele>1368.5739746094</ele>
        <time>2010-06-27T09:25:40Z</time>
      </trkpt>
      <trkpt lat="45.99677" lon="6.93431">
        <ele>1370.0158691406</ele>
        <time>2010-06-27T09:25:46Z</time>
      </trkpt>
      <trkpt lat="45.9968" lon="6.93428">
        <ele>1370.0158691406</ele>
        <time>2010-06-27T09:25:48Z</time>
      </trkpt>
      <trkpt lat="45.99689" lon="6.9342">
        <ele>1370.0158691406</ele>
        <time>2010-06-27T09:25:52Z</time>
      </trkpt>
      <trkpt lat="45.99697" lon="6.93411">
        <ele>1369.5354003906</ele>
        <time>2010-06-27T09:25:56Z</time>
      </trkpt>
      <trkpt lat="45.99699" lon="6.93409">
        <ele>1369.5354003906</ele>
        <time>2010-06-27T09:25:57Z</time>
      </trkpt>
      <trkpt lat="45.99711" lon="6.93395">
        <ele>1372.4194335938</ele>
        <time>2010-06-27T09:26:04Z</time>
      </trkpt>
      <trkpt lat="45.9972" lon="6.93389">
        <ele>1373.380859375</ele>
        <time>2010-06-27T09:26:09Z</time>
      </trkpt>
      <trkpt lat="45.99728" lon="6.93383">
        <ele>1373.380859375</ele>
        <time>2010-06-27T09:26:15Z</time>
      </trkpt>
      <trkpt lat="45.99733" lon="6.93381">
        <ele>1372.4194335938</ele>
        <time>2010-06-27T09:26:19Z</time>
      </trkpt>
      <trkpt lat="45.99743" lon="6.93376">
        <ele>1372.4194335938</ele>
        <time>2010-06-27T09:26:27Z</time>
      </trkpt>
      <trkpt lat="45.99753" lon="6.93366">
        <ele>1380.5905761719</ele>
        <time>2010-06-27T09:26:36Z</time>
      </trkpt>
      <trkpt lat="45.99755" lon="6.93357">
        <ele>1389.7231445312</ele>
        <time>2010-06-27T09:26:43Z</time>
      </trkpt>
      <trkpt lat="45.99756" lon="6.93355">
        <ele>1390.2038574219</ele>
        <time>2010-06-27T09:26:44Z</time>
      </trkpt>
      <trkpt lat="45.99757" lon="6.93349">
        <ele>1393.0876464844</ele>
        <time>2010-06-27T09:26:49Z</time>
      </trkpt>
      <trkpt lat="45.99756" lon="6.93348">
        <ele>1392.1264648438</ele>
        <time>2010-06-27T09:26:51Z</time>
      </trkpt>
      <trkpt lat="45.99755" lon="6.93345">
        <ele>1392.6071777344</ele>
        <time>2010-06-27T09:26:53Z</time>
      </trkpt>
      <trkpt lat="45.99754" lon="6.93342">
        <ele>1391.1650390625</ele>
        <time>2010-06-27T09:26:55Z</time>
      </trkpt>
      <trkpt lat="45.99748" lon="6.93331">
        <ele>1386.3583984375</ele>
        <time>2010-06-27T09:27:00Z</time>
      </trkpt>
      <trkpt lat="45.9974" lon="6.93316">
        <ele>1386.8388671875</ele>
        <time>2010-06-27T09:27:05Z</time>
      </trkpt>
      <trkpt lat="45.99739" lon="6.93314">
        <ele>1386.8388671875</ele>
        <time>2010-06-27T09:27:06Z</time>
      </trkpt>
      <trkpt lat="45.99735" lon="6.93299">
        <ele>1385.3969726562</ele>
        <time>2010-06-27T09:27:11Z</time>
      </trkpt>
      <trkpt lat="45.99732" lon="6.93292">
        <ele>1386.3583984375</ele>
        <time>2010-06-27T09:27:13Z</time>
      </trkpt>
      <trkpt lat="45.99729" lon="6.93277">
        <ele>1383.955078125</ele>
        <time>2010-06-27T09:27:18Z</time>
      </trkpt>
      <trkpt lat="45.99726" lon="6.93269">
        <ele>1384.9165039062</ele>
        <time>2010-06-27T09:27:21Z</time>
      </trkpt>
      <trkpt lat="45.99725" lon="6.93263">
        <ele>1385.8776855469</ele>
        <time>2010-06-27T09:27:25Z</time>
      </trkpt>
      <trkpt lat="45.99722" lon="6.93256">
        <ele>1386.3583984375</ele>
        <time>2010-06-27T09:27:29Z</time>
      </trkpt>
      <trkpt lat="45.99717" lon="6.93241">
        <ele>1387.8002929688</ele>
        <time>2010-06-27T09:27:38Z</time>
      </trkpt>
      <trkpt lat="45.99711" lon="6.93231">
        <ele>1390.2038574219</ele>
        <time>2010-06-27T09:27:46Z</time>
      </trkpt>
      <trkpt lat="45.9971" lon="6.9323">
        <ele>1390.6843261719</ele>
        <time>2010-06-27T09:27:47Z</time>
      </trkpt>
      <trkpt lat="45.99706" lon="6.93218">
        <ele>1391.1650390625</ele>
        <time>2010-06-27T09:27:54Z</time>
      </trkpt>
      <trkpt lat="45.99701" lon="6.93207">
        <ele>1392.1264648438</ele>
        <time>2010-06-27T09:28:01Z</time>
      </trkpt>
      <trkpt lat="45.99692" lon="6.93197">
        <ele>1392.6071777344</ele>
        <time>2010-06-27T09:28:07Z</time>
      </trkpt>
      <trkpt lat="45.99682" lon="6.93186">
        <ele>1392.1264648438</ele>
        <time>2010-06-27T09:28:12Z</time>
      </trkpt>
      <trkpt lat="45.99675" lon="6.93176">
        <ele>1393.568359375</ele>
        <time>2010-06-27T09:28:17Z</time>
      </trkpt>
      <trkpt lat="45.99674" lon="6.9317">
        <ele>1392.1264648438</ele>
        <time>2010-06-27T09:28:20Z</time>
      </trkpt>
      <trkpt lat="45.99671" lon="6.93161">
        <ele>1393.568359375</ele>
        <time>2010-06-27T09:28:25Z</time>
      </trkpt>
      <trkpt lat="45.99669" lon="6.93154">
        <ele>1394.0490722656</ele>
        <time>2010-06-27T09:28:28Z</time>
      </trkpt>
      <trkpt lat="45.99662" lon="6.93146">
        <ele>1397.8942871094</ele>
        <time>2010-06-27T09:28:35Z</time>
      </trkpt>
      <trkpt lat="45.99657" lon="6.93135">
        <ele>1401.2587890625</ele>
        <time>2010-06-27T09:28:41Z</time>
      </trkpt>
      <trkpt lat="45.99652" lon="6.93128">
        <ele>1401.7395019531</ele>
        <time>2010-06-27T09:28:47Z</time>
      </trkpt>
      <trkpt lat="45.99651" lon="6.93122">
        <ele>1400.2976074219</ele>
        <time>2010-06-27T09:28:50Z</time>
      </trkpt>
      <trkpt lat="45.9965" lon="6.93118">
        <ele>1400.7780761719</ele>
        <time>2010-06-27T09:28:52Z</time>
      </trkpt>
      <trkpt lat="45.99644" lon="6.93108">
        <ele>1404.1430664062</ele>
        <time>2010-06-27T09:28:59Z</time>
      </trkpt>
      <trkpt lat="45.99638" lon="6.93097">
        <ele>1407.0268554688</ele>
        <time>2010-06-27T09:29:05Z</time>
      </trkpt>
      <trkpt lat="45.99636" lon="6.93091">
        <ele>1407.5075683594</ele>
        <time>2010-06-27T09:29:09Z</time>
      </trkpt>
      <trkpt lat="45.99631" lon="6.93084">
        <ele>1407.0268554688</ele>
        <time>2010-06-27T09:29:14Z</time>
      </trkpt>
      <trkpt lat="45.99623" lon="6.93072">
        <ele>1410.8720703125</ele>
        <time>2010-06-27T09:29:21Z</time>
      </trkpt>
      <trkpt lat="45.99615" lon="6.93061">
        <ele>1415.1979980469</ele>
        <time>2010-06-27T09:29:29Z</time>
      </trkpt>
      <trkpt lat="45.99615" lon="6.93053">
        <ele>1416.1591796875</ele>
        <time>2010-06-27T09:29:32Z</time>
      </trkpt>
      <trkpt lat="45.99607" lon="6.93035">
        <ele>1415.6787109375</ele>
        <time>2010-06-27T09:29:39Z</time>
      </trkpt>
      <trkpt lat="45.99601" lon="6.93025">
        <ele>1421.4465332031</ele>
        <time>2010-06-27T09:29:44Z</time>
      </trkpt>
      <trkpt lat="45.99596" lon="6.93012">
        <ele>1422.888671875</ele>
        <time>2010-06-27T09:29:51Z</time>
      </trkpt>
      <trkpt lat="45.99594" lon="6.93009">
        <ele>1422.4079589844</ele>
        <time>2010-06-27T09:29:53Z</time>
      </trkpt>
      <trkpt lat="45.99593" lon="6.93004">
        <ele>1421.4465332031</ele>
        <time>2010-06-27T09:29:57Z</time>
      </trkpt>
      <trkpt lat="45.99594" lon="6.93">
        <ele>1416.6398925781</ele>
        <time>2010-06-27T09:30:03Z</time>
      </trkpt>
      <trkpt lat="45.99588" lon="6.92988">
        <ele>1416.1591796875</ele>
        <time>2010-06-27T09:30:10Z</time>
      </trkpt>
      <trkpt lat="45.99585" lon="6.92981">
        <ele>1414.7172851562</ele>
        <time>2010-06-27T09:30:15Z</time>
      </trkpt>
      <trkpt lat="45.99582" lon="6.92975">
        <ele>1413.755859375</ele>
        <time>2010-06-27T09:30:19Z</time>
      </trkpt>
      <trkpt lat="45.99577" lon="6.92963">
        <ele>1413.755859375</ele>
        <time>2010-06-27T09:30:25Z</time>
      </trkpt>
      <trkpt lat="45.99573" lon="6.92954">
        <ele>1411.3527832031</ele>
        <time>2010-06-27T09:30:30Z</time>
      </trkpt>
      <trkpt lat="45.99569" lon="6.92943">
        <ele>1409.4301757812</ele>
        <time>2010-06-27T09:30:36Z</time>
      </trkpt>
      <trkpt lat="45.99566" lon="6.92931">
        <ele>1408.9494628906</ele>
        <time>2010-06-27T09:30:42Z</time>
      </trkpt>
      <trkpt lat="45.99561" lon="6.92917">
        <ele>1407.0268554688</ele>
        <time>2010-06-27T09:30:49Z</time>
      </trkpt>
      <trkpt lat="45.99556" lon="6.92908">
        <ele>1405.1042480469</ele>
        <time>2010-06-27T09:30:55Z</time>
      </trkpt>
      <trkpt lat="45.99549" lon="6.92898">
        <ele>1405.5849609375</ele>
        <time>2010-06-27T09:31:00Z</time>
      </trkpt>
      <trkpt lat="45.9954" lon="6.92887">
        <ele>1410.3913574219</ele>
        <time>2010-06-27T09:31:05Z</time>
      </trkpt>
      <trkpt lat="45.99534" lon="6.92877">
        <ele>1410.8720703125</ele>
        <time>2010-06-27T09:31:09Z</time>
      </trkpt>
      <trkpt lat="45.99528" lon="6.92869">
        <ele>1411.3527832031</ele>
        <time>2010-06-27T09:31:13Z</time>
      </trkpt>
      <trkpt lat="45.99524" lon="6.92863">
        <ele>1413.755859375</ele>
        <time>2010-06-27T09:31:17Z</time>
      </trkpt>
      <trkpt lat="45.99523" lon="6.92858">
        <ele>1413.275390625</ele>
        <time>2010-06-27T09:31:19Z</time>
      </trkpt>
      <trkpt lat="45.99527" lon="6.92838">
        <ele>1410.3913574219</ele>
        <time>2010-06-27T09:31:24Z</time>
      </trkpt>
      <trkpt lat="45.99523" lon="6.92824">
        <ele>1407.98828125</ele>
        <time>2010-06-27T09:31:28Z</time>
      </trkpt>
      <trkpt lat="45.99516" lon="6.92812">
        <ele>1404.1430664062</ele>
        <time>2010-06-27T09:31:32Z</time>
      </trkpt>
      <trkpt lat="45.99512" lon="6.92808">
        <ele>1401.7395019531</ele>
        <time>2010-06-27T09:31:34Z</time>
      </trkpt>
      <trkpt lat="45.99506" lon="6.92802">
        <ele>1399.8168945312</ele>
        <time>2010-06-27T09:31:37Z</time>
      </trkpt>
      <trkpt lat="45.99506" lon="6.92781">
        <ele>1396.9328613281</ele>
        <time>2010-06-27T09:31:42Z</time>
      </trkpt>
      <trkpt lat="45.99509" lon="6.92778">
        <ele>1396.9328613281</ele>
        <time>2010-06-27T09:31:44Z</time>
      </trkpt>
      <trkpt lat="45.99512" lon="6.9277">
        <ele>1393.568359375</ele>
        <time>2010-06-27T09:31:52Z</time>
      </trkpt>
      <trkpt lat="45.99511" lon="6.92769">
        <ele>1397.8942871094</ele>
        <time>2010-06-27T09:32:03Z</time>
      </trkpt>
      <trkpt lat="45.99512" lon="6.9277">
        <ele>1399.3361816406</ele>
        <time>2010-06-27T09:32:30Z</time>
      </trkpt>
      <trkpt lat="45.99514" lon="6.92766">
        <ele>1398.85546875</ele>
        <time>2010-06-27T09:32:39Z</time>
      </trkpt>
      <trkpt lat="45.99515" lon="6.92765">
        <ele>1397.8942871094</ele>
        <time>2010-06-27T09:32:44Z</time>
      </trkpt>
      <trkpt lat="45.99514" lon="6.92768">
        <ele>1397.4135742188</ele>
        <time>2010-06-27T09:34:08Z</time>
      </trkpt>
      <trkpt lat="45.99514" lon="6.92767">
        <ele>1397.4135742188</ele>
        <time>2010-06-27T09:34:15Z</time>
      </trkpt>
      <trkpt lat="45.99514" lon="6.92765">
        <ele>1397.4135742188</ele>
        <time>2010-06-27T09:34:32Z</time>
      </trkpt>
      <trkpt lat="45.99514" lon="6.92767">
        <ele>1398.85546875</ele>
        <time>2010-06-27T09:34:43Z</time>
      </trkpt>
      <trkpt lat="45.99516" lon="6.92767">
        <ele>1397.4135742188</ele>
        <time>2010-06-27T09:35:16Z</time>
      </trkpt>
      <trkpt lat="45.99513" lon="6.92766">
        <ele>1397.4135742188</ele>
        <time>2010-06-27T09:35:23Z</time>
      </trkpt>
      <trkpt lat="45.99508" lon="6.9276">
        <ele>1397.4135742188</ele>
        <time>2010-06-27T09:35:29Z</time>
      </trkpt>
      <trkpt lat="45.99506" lon="6.92758">
        <ele>1397.4135742188</ele>
        <time>2010-06-27T09:35:31Z</time>
      </trkpt>
      <trkpt lat="45.99501" lon="6.92754">
        <ele>1397.8942871094</ele>
        <time>2010-06-27T09:35:36Z</time>
      </trkpt>
      <trkpt lat="45.99495" lon="6.92753">
        <ele>1397.4135742188</ele>
        <time>2010-06-27T09:35:40Z</time>
      </trkpt>
      <trkpt lat="45.99481" lon="6.92752">
        <ele>1395.4909667969</ele>
        <time>2010-06-27T09:35:45Z</time>
      </trkpt>
      <trkpt lat="45.99471" lon="6.92754">
        <ele>1395.0102539062</ele>
        <time>2010-06-27T09:35:49Z</time>
      </trkpt>
      <trkpt lat="45.99456" lon="6.9275">
        <ele>1393.0876464844</ele>
        <time>2010-06-27T09:35:54Z</time>
      </trkpt>
      <trkpt lat="45.99454" lon="6.92748">
        <ele>1392.1264648438</ele>
        <time>2010-06-27T09:35:55Z</time>
      </trkpt>
      <trkpt lat="45.99448" lon="6.92746">
        <ele>1392.1264648438</ele>
        <time>2010-06-27T09:35:57Z</time>
      </trkpt>
      <trkpt lat="45.99436" lon="6.92743">
        <ele>1392.1264648438</ele>
        <time>2010-06-27T09:36:02Z</time>
      </trkpt>
      <trkpt lat="45.99431" lon="6.92743">
        <ele>1392.1264648438</ele>
        <time>2010-06-27T09:36:04Z</time>
      </trkpt>
      <trkpt lat="45.99417" lon="6.92735">
        <ele>1392.6071777344</ele>
        <time>2010-06-27T09:36:09Z</time>
      </trkpt>
      <trkpt lat="45.99405" lon="6.92725">
        <ele>1393.0876464844</ele>
        <time>2010-06-27T09:36:14Z</time>
      </trkpt>
      <trkpt lat="45.994" lon="6.92721">
        <ele>1393.568359375</ele>
        <time>2010-06-27T09:36:16Z</time>
      </trkpt>
      <trkpt lat="45.99388" lon="6.92717">
        <ele>1395.4909667969</ele>
        <time>2010-06-27T09:36:20Z</time>
      </trkpt>
      <trkpt lat="45.99369" lon="6.92711">
        <ele>1394.0490722656</ele>
        <time>2010-06-27T09:36:27Z</time>
      </trkpt>
      <trkpt lat="45.99355" lon="6.92712">
        <ele>1393.568359375</ele>
        <time>2010-06-27T09:36:32Z</time>
      </trkpt>
      <trkpt lat="45.99342" lon="6.92716">
        <ele>1393.0876464844</ele>
        <time>2010-06-27T09:36:36Z</time>
      </trkpt>
      <trkpt lat="45.99329" lon="6.92718">
        <ele>1392.6071777344</ele>
        <time>2010-06-27T09:36:40Z</time>
      </trkpt>
      <trkpt lat="45.99318" lon="6.92715">
        <ele>1392.1264648438</ele>
        <time>2010-06-27T09:36:44Z</time>
      </trkpt>
      <trkpt lat="45.99303" lon="6.92711">
        <ele>1391.1650390625</ele>
        <time>2010-06-27T09:36:49Z</time>
      </trkpt>
      <trkpt lat="45.99296" lon="6.92711">
        <ele>1392.6071777344</ele>
        <time>2010-06-27T09:36:52Z</time>
      </trkpt>
      <trkpt lat="45.99285" lon="6.92704">
        <ele>1396.4523925781</ele>
        <time>2010-06-27T09:36:59Z</time>
      </trkpt>
      <trkpt lat="45.99279" lon="6.92701">
        <ele>1400.2976074219</ele>
        <time>2010-06-27T09:37:02Z</time>
      </trkpt>
      <trkpt lat="45.9927" lon="6.92696">
        <ele>1400.2976074219</ele>
        <time>2010-06-27T09:37:09Z</time>
      </trkpt>
      <trkpt lat="45.9926" lon="6.92691">
        <ele>1398.3747558594</ele>
        <time>2010-06-27T09:37:18Z</time>
      </trkpt>
      <trkpt lat="45.99259" lon="6.9269">
        <ele>1397.4135742188</ele>
        <time>2010-06-27T09:37:19Z</time>
      </trkpt>
      <trkpt lat="45.99253" lon="6.92682">
        <ele>1395.9716796875</ele>
        <time>2010-06-27T09:37:23Z</time>
      </trkpt>
      <trkpt lat="45.9925" lon="6.92678">
        <ele>1394.5295410156</ele>
        <time>2010-06-27T09:37:27Z</time>
      </trkpt>
      <trkpt lat="45.99246" lon="6.92678">
        <ele>1396.4523925781</ele>
        <time>2010-06-27T09:37:32Z</time>
      </trkpt>
      <trkpt lat="45.99243" lon="6.9268">
        <ele>1399.3361816406</ele>
        <time>2010-06-27T09:37:36Z</time>
      </trkpt>
      <trkpt lat="45.9924" lon="6.92683">
        <ele>1405.1042480469</ele>
        <time>2010-06-27T09:37:40Z</time>
      </trkpt>
      <trkpt lat="45.99236" lon="6.92683">
        <ele>1407.5075683594</ele>
        <time>2010-06-27T09:37:45Z</time>
      </trkpt>
      <trkpt lat="45.99233" lon="6.92681">
        <ele>1407.98828125</ele>
        <time>2010-06-27T09:37:49Z</time>
      </trkpt>
      <trkpt lat="45.9923" lon="6.92679">
        <ele>1407.5075683594</ele>
        <time>2010-06-27T09:37:53Z</time>
      </trkpt>
      <trkpt lat="45.99227" lon="6.92676">
        <ele>1405.1042480469</ele>
        <time>2010-06-27T09:37:57Z</time>
      </trkpt>
      <trkpt lat="45.99218" lon="6.92672">
        <ele>1403.662109375</ele>
        <time>2010-06-27T09:38:05Z</time>
      </trkpt>
      <trkpt lat="45.99215" lon="6.92669">
        <ele>1403.662109375</ele>
        <time>2010-06-27T09:38:08Z</time>
      </trkpt>
      <trkpt lat="45.99205" lon="6.92658">
        <ele>1406.5461425781</ele>
        <time>2010-06-27T09:38:17Z</time>
      </trkpt>
      <trkpt lat="45.99196" lon="6.92647">
        <ele>1406.0654296875</ele>
        <time>2010-06-27T09:38:23Z</time>
      </trkpt>
      <trkpt lat="45.99191" lon="6.92636">
        <ele>1403.662109375</ele>
        <time>2010-06-27T09:38:27Z</time>
      </trkpt>
      <trkpt lat="45.99188" lon="6.92622">
        <ele>1401.7395019531</ele>
        <time>2010-06-27T09:38:31Z</time>
      </trkpt>
      <trkpt lat="45.99187" lon="6.9262">
        <ele>1401.2587890625</ele>
        <time>2010-06-27T09:38:32Z</time>
      </trkpt>
      <trkpt lat="45.99176" lon="6.92627">
        <ele>1403.1813964844</ele>
        <time>2010-06-27T09:38:36Z</time>
      </trkpt>
      <trkpt lat="45.99169" lon="6.92638">
        <ele>1404.1430664062</ele>
        <time>2010-06-27T09:38:40Z</time>
      </trkpt>
      <trkpt lat="45.99165" lon="6.92637">
        <ele>1401.2587890625</ele>
        <time>2010-06-27T09:38:45Z</time>
      </trkpt>
      <trkpt lat="45.99156" lon="6.92632">
        <ele>1400.2976074219</ele>
        <time>2010-06-27T09:38:50Z</time>
      </trkpt>
      <trkpt lat="45.99145" lon="6.92622">
        <ele>1397.4135742188</ele>
        <time>2010-06-27T09:38:56Z</time>
      </trkpt>
      <trkpt lat="45.99142" lon="6.92619">
        <ele>1396.9328613281</ele>
        <time>2010-06-27T09:38:58Z</time>
      </trkpt>
      <trkpt lat="45.99132" lon="6.92612">
        <ele>1395.9716796875</ele>
        <time>2010-06-27T09:39:03Z</time>
      </trkpt>
      <trkpt lat="45.99129" lon="6.9261">
        <ele>1395.4909667969</ele>
        <time>2010-06-27T09:39:04Z</time>
      </trkpt>
      <trkpt lat="45.99119" lon="6.92601">
        <ele>1396.4523925781</ele>
        <time>2010-06-27T09:39:10Z</time>
      </trkpt>
      <trkpt lat="45.99112" lon="6.92594">
        <ele>1395.4909667969</ele>
        <time>2010-06-27T09:39:16Z</time>
      </trkpt>
      <trkpt lat="45.99104" lon="6.92592">
        <ele>1398.85546875</ele>
        <time>2010-06-27T09:39:22Z</time>
      </trkpt>
      <trkpt lat="45.99099" lon="6.92589">
        <ele>1402.2199707031</ele>
        <time>2010-06-27T09:39:26Z</time>
      </trkpt>
      <trkpt lat="45.99093" lon="6.92589">
        <ele>1403.1813964844</ele>
        <time>2010-06-27T09:39:30Z</time>
      </trkpt>
      <trkpt lat="45.99087" lon="6.92583">
        <ele>1407.0268554688</ele>
        <time>2010-06-27T09:39:36Z</time>
      </trkpt>
      <trkpt lat="45.99081" lon="6.92578">
        <ele>1410.3913574219</ele>
        <time>2010-06-27T09:39:42Z</time>
      </trkpt>
      <trkpt lat="45.9908" lon="6.92578">
        <ele>1410.8720703125</ele>
        <time>2010-06-27T09:39:43Z</time>
      </trkpt>
      <trkpt lat="45.99071" lon="6.92572">
        <ele>1412.3139648438</ele>
        <time>2010-06-27T09:39:49Z</time>
      </trkpt>
      <trkpt lat="45.99061" lon="6.92567">
        <ele>1414.2365722656</ele>
        <time>2010-06-27T09:39:56Z</time>
      </trkpt>
      <trkpt lat="45.99054" lon="6.9256">
        <ele>1414.7172851562</ele>
        <time>2010-06-27T09:40:00Z</time>
      </trkpt>
      <trkpt lat="45.99044" lon="6.92557">
        <ele>1416.1591796875</ele>
        <time>2010-06-27T09:40:05Z</time>
      </trkpt>
      <trkpt lat="45.99033" lon="6.92556">
        <ele>1417.6010742188</ele>
        <time>2010-06-27T09:40:10Z</time>
      </trkpt>
      <trkpt lat="45.99026" lon="6.92556">
        <ele>1418.0817871094</ele>
        <time>2010-06-27T09:40:13Z</time>
      </trkpt>
      <trkpt lat="45.99017" lon="6.92557">
        <ele>1417.6010742188</ele>
        <time>2010-06-27T09:40:17Z</time>
      </trkpt>
      <trkpt lat="45.99006" lon="6.92549">
        <ele>1415.6787109375</ele>
        <time>2010-06-27T09:40:22Z</time>
      </trkpt>
      <trkpt lat="45.99003" lon="6.92548">
        <ele>1414.7172851562</ele>
        <time>2010-06-27T09:40:23Z</time>
      </trkpt>
      <trkpt lat="45.98995" lon="6.92546">
        <ele>1415.6787109375</ele>
        <time>2010-06-27T09:40:27Z</time>
      </trkpt>
      <trkpt lat="45.98992" lon="6.92546">
        <ele>1418.0817871094</ele>
        <time>2010-06-27T09:40:30Z</time>
      </trkpt>
      <trkpt lat="45.9898" lon="6.92547">
        <ele>1418.0817871094</ele>
        <time>2010-06-27T09:40:36Z</time>
      </trkpt>
      <trkpt lat="45.98972" lon="6.92543">
        <ele>1419.5239257812</ele>
        <time>2010-06-27T09:40:42Z</time>
      </trkpt>
      <trkpt lat="45.98969" lon="6.92542">
        <ele>1420.4853515625</ele>
        <time>2010-06-27T09:40:44Z</time>
      </trkpt>
      <trkpt lat="45.98964" lon="6.92543">
        <ele>1419.5239257812</ele>
        <time>2010-06-27T09:40:48Z</time>
      </trkpt>
      <trkpt lat="45.98963" lon="6.92543">
        <ele>1419.0432128906</ele>
        <time>2010-06-27T09:40:49Z</time>
      </trkpt>
      <trkpt lat="45.98959" lon="6.9254">
        <ele>1418.0817871094</ele>
        <time>2010-06-27T09:40:53Z</time>
      </trkpt>
      <trkpt lat="45.98954" lon="6.92533">
        <ele>1420.0046386719</ele>
        <time>2010-06-27T09:40:58Z</time>
      </trkpt>
      <trkpt lat="45.98951" lon="6.92529">
        <ele>1418.0817871094</ele>
        <time>2010-06-27T09:41:02Z</time>
      </trkpt>
      <trkpt lat="45.98943" lon="6.92526">
        <ele>1417.1206054688</ele>
        <time>2010-06-27T09:41:08Z</time>
      </trkpt>
      <trkpt lat="45.98933" lon="6.92524">
        <ele>1415.1979980469</ele>
        <time>2010-06-27T09:41:12Z</time>
      </trkpt>
      <trkpt lat="45.98928" lon="6.92523">
        <ele>1414.7172851562</ele>
        <time>2010-06-27T09:41:14Z</time>
      </trkpt>
      <trkpt lat="45.98919" lon="6.92522">
        <ele>1413.275390625</ele>
        <time>2010-06-27T09:41:19Z</time>
      </trkpt>
      <trkpt lat="45.98909" lon="6.92519">
        <ele>1411.3527832031</ele>
        <time>2010-06-27T09:41:24Z</time>
      </trkpt>
      <trkpt lat="45.98903" lon="6.92519">
        <ele>1410.8720703125</ele>
        <time>2010-06-27T09:41:27Z</time>
      </trkpt>
      <trkpt lat="45.98892" lon="6.92517">
        <ele>1409.4301757812</ele>
        <time>2010-06-27T09:41:33Z</time>
      </trkpt>
      <trkpt lat="45.98887" lon="6.92516">
        <ele>1409.4301757812</ele>
        <time>2010-06-27T09:41:35Z</time>
      </trkpt>
      <trkpt lat="45.98877" lon="6.92514">
        <ele>1409.4301757812</ele>
        <time>2010-06-27T09:41:40Z</time>
      </trkpt>
      <trkpt lat="45.98864" lon="6.92517">
        <ele>1412.3139648438</ele>
        <time>2010-06-27T09:41:46Z</time>
      </trkpt>
      <trkpt lat="45.98862" lon="6.92518">
        <ele>1412.7946777344</ele>
        <time>2010-06-27T09:41:47Z</time>
      </trkpt>
      <trkpt lat="45.98857" lon="6.9252">
        <ele>1413.275390625</ele>
        <time>2010-06-27T09:41:49Z</time>
      </trkpt>
      <trkpt lat="45.98851" lon="6.92519">
        <ele>1414.7172851562</ele>
        <time>2010-06-27T09:41:54Z</time>
      </trkpt>
      <trkpt lat="45.98846" lon="6.92515">
        <ele>1416.1591796875</ele>
        <time>2010-06-27T09:41:59Z</time>
      </trkpt>
      <trkpt lat="45.98841" lon="6.9251">
        <ele>1418.5625</ele>
        <time>2010-06-27T09:42:04Z</time>
      </trkpt>
      <trkpt lat="45.98837" lon="6.92507">
        <ele>1424.8112792969</ele>
        <time>2010-06-27T09:42:08Z</time>
      </trkpt>
      <trkpt lat="45.98833" lon="6.92506">
        <ele>1427.6950683594</ele>
        <time>2010-06-27T09:42:11Z</time>
      </trkpt>
      <trkpt lat="45.98824" lon="6.92503">
        <ele>1432.0209960938</ele>
        <time>2010-06-27T09:42:18Z</time>
      </trkpt>
      <trkpt lat="45.98817" lon="6.92499">
        <ele>1431.0598144531</ele>
        <time>2010-06-27T09:42:25Z</time>
      </trkpt>
      <trkpt lat="45.98813" lon="6.92496">
        <ele>1429.1369628906</ele>
        <time>2010-06-27T09:42:30Z</time>
      </trkpt>
      <trkpt lat="45.98809" lon="6.92494">
        <ele>1430.5791015625</ele>
        <time>2010-06-27T09:42:34Z</time>
      </trkpt>
      <trkpt lat="45.98803" lon="6.92493">
        <ele>1432.0209960938</ele>
        <time>2010-06-27T09:42:38Z</time>
      </trkpt>
      <trkpt lat="45.988" lon="6.92494">
        <ele>1433.9436035156</ele>
        <time>2010-06-27T09:42:43Z</time>
      </trkpt>
      <trkpt lat="45.98798" lon="6.92494">
        <ele>1433.9436035156</ele>
        <time>2010-06-27T09:42:45Z</time>
      </trkpt>
      <trkpt lat="45.98795" lon="6.92489">
        <ele>1432.5017089844</ele>
        <time>2010-06-27T09:42:48Z</time>
      </trkpt>
      <trkpt lat="45.98788" lon="6.92486">
        <ele>1432.9821777344</ele>
        <time>2010-06-27T09:42:53Z</time>
      </trkpt>
      <trkpt lat="45.98781" lon="6.92481">
        <ele>1432.9821777344</ele>
        <time>2010-06-27T09:42:58Z</time>
      </trkpt>
      <trkpt lat="45.98779" lon="6.9248">
        <ele>1432.9821777344</ele>
        <time>2010-06-27T09:42:59Z</time>
      </trkpt>
      <trkpt lat="45.98767" lon="6.92472">
        <ele>1434.9050292969</ele>
        <time>2010-06-27T09:43:07Z</time>
      </trkpt>
      <trkpt lat="45.98757" lon="6.92467">
        <ele>1434.4243164062</ele>
        <time>2010-06-27T09:43:12Z</time>
      </trkpt>
      <trkpt lat="45.98749" lon="6.92461">
        <ele>1434.4243164062</ele>
        <time>2010-06-27T09:43:16Z</time>
      </trkpt>
      <trkpt lat="45.98742" lon="6.92456">
        <ele>1434.9050292969</ele>
        <time>2010-06-27T09:43:22Z</time>
      </trkpt>
      <trkpt lat="45.9873" lon="6.92447">
        <ele>1434.9050292969</ele>
        <time>2010-06-27T09:43:32Z</time>
      </trkpt>
      <trkpt lat="45.98727" lon="6.92442">
        <ele>1434.4243164062</ele>
        <time>2010-06-27T09:43:36Z</time>
      </trkpt>
      <trkpt lat="45.98719" lon="6.92438">
        <ele>1437.3083496094</ele>
        <time>2010-06-27T09:43:41Z</time>
      </trkpt>
      <trkpt lat="45.98709" lon="6.92434">
        <ele>1442.595703125</ele>
        <time>2010-06-27T09:43:49Z</time>
      </trkpt>
      <trkpt lat="45.98705" lon="6.92432">
        <ele>1445.4794921875</ele>
        <time>2010-06-27T09:43:53Z</time>
      </trkpt>
      <trkpt lat="45.98701" lon="6.9243">
        <ele>1446.9213867188</ele>
        <time>2010-06-27T09:43:58Z</time>
      </trkpt>
      <trkpt lat="45.98696" lon="6.92426">
        <ele>1446.9213867188</ele>
        <time>2010-06-27T09:44:04Z</time>
      </trkpt>
      <trkpt lat="45.98692" lon="6.92425">
        <ele>1449.8054199219</ele>
        <time>2010-06-27T09:44:08Z</time>
      </trkpt>
      <trkpt lat="45.9869" lon="6.92426">
        <ele>1451.2473144531</ele>
        <time>2010-06-27T09:44:09Z</time>
      </trkpt>
      <trkpt lat="45.9868" lon="6.92421">
        <ele>1448.36328125</ele>
        <time>2010-06-27T09:44:15Z</time>
      </trkpt>
      <trkpt lat="45.98676" lon="6.9242">
        <ele>1448.8439941406</ele>
        <time>2010-06-27T09:44:17Z</time>
      </trkpt>
      <trkpt lat="45.98669" lon="6.92414">
        <ele>1449.8054199219</ele>
        <time>2010-06-27T09:44:22Z</time>
      </trkpt>
      <trkpt lat="45.98659" lon="6.92404">
        <ele>1449.3247070312</ele>
        <time>2010-06-27T09:44:27Z</time>
      </trkpt>
      <trkpt lat="45.9865" lon="6.92397">
        <ele>1449.3247070312</ele>
        <time>2010-06-27T09:44:32Z</time>
      </trkpt>
      <trkpt lat="45.98642" lon="6.92394">
        <ele>1448.36328125</ele>
        <time>2010-06-27T09:44:36Z</time>
      </trkpt>
      <trkpt lat="45.98633" lon="6.92386">
        <ele>1445.4794921875</ele>
        <time>2010-06-27T09:44:40Z</time>
      </trkpt>
      <trkpt lat="45.98631" lon="6.92384">
        <ele>1446.4409179688</ele>
        <time>2010-06-27T09:44:41Z</time>
      </trkpt>
      <trkpt lat="45.98619" lon="6.92376">
        <ele>1446.9213867188</ele>
        <time>2010-06-27T09:44:47Z</time>
      </trkpt>
      <trkpt lat="45.98607" lon="6.92375">
        <ele>1446.4409179688</ele>
        <time>2010-06-27T09:44:52Z</time>
      </trkpt>
      <trkpt lat="45.98596" lon="6.92372">
        <ele>1448.36328125</ele>
        <time>2010-06-27T09:44:57Z</time>
      </trkpt>
      <trkpt lat="45.9859" lon="6.92366">
        <ele>1447.8828125</ele>
        <time>2010-06-27T09:45:00Z</time>
      </trkpt>
      <trkpt lat="45.98578" lon="6.92353">
        <ele>1447.8828125</ele>
        <time>2010-06-27T09:45:06Z</time>
      </trkpt>
      <trkpt lat="45.98568" lon="6.92342">
        <ele>1448.36328125</ele>
        <time>2010-06-27T09:45:11Z</time>
      </trkpt>
      <trkpt lat="45.98563" lon="6.92338">
        <ele>1450.2861328125</ele>
        <time>2010-06-27T09:45:15Z</time>
      </trkpt>
      <trkpt lat="45.98555" lon="6.92334">
        <ele>1451.2473144531</ele>
        <time>2010-06-27T09:45:22Z</time>
      </trkpt>
      <trkpt lat="45.9855" lon="6.92331">
        <ele>1457.0153808594</ele>
        <time>2010-06-27T09:45:27Z</time>
      </trkpt>
      <trkpt lat="45.98546" lon="6.92328">
        <ele>1462.3024902344</ele>
        <time>2010-06-27T09:45:31Z</time>
      </trkpt>
      <trkpt lat="45.98544" lon="6.92326">
        <ele>1462.3024902344</ele>
        <time>2010-06-27T09:45:36Z</time>
      </trkpt>
      <trkpt lat="45.9854" lon="6.92324">
        <ele>1465.1865234375</ele>
        <time>2010-06-27T09:45:39Z</time>
      </trkpt>
      <trkpt lat="45.98531" lon="6.92318">
        <ele>1475.7609863281</ele>
        <time>2010-06-27T09:45:46Z</time>
      </trkpt>
      <trkpt lat="45.98531" lon="6.92311">
        <ele>1471.4350585938</ele>
        <time>2010-06-27T09:45:50Z</time>
      </trkpt>
      <trkpt lat="45.9853" lon="6.92309">
        <ele>1469.9931640625</ele>
        <time>2010-06-27T09:45:52Z</time>
      </trkpt>
      <trkpt lat="45.98528" lon="6.92304">
        <ele>1466.1477050781</ele>
        <time>2010-06-27T09:45:57Z</time>
      </trkpt>
      <trkpt lat="45.98523" lon="6.92301">
        <ele>1464.7058105469</ele>
        <time>2010-06-27T09:46:03Z</time>
      </trkpt>
      <trkpt lat="45.9852" lon="6.92299">
        <ele>1462.783203125</ele>
        <time>2010-06-27T09:46:06Z</time>
      </trkpt>
      <trkpt lat="45.9851" lon="6.92293">
        <ele>1464.2250976562</ele>
        <time>2010-06-27T09:46:12Z</time>
      </trkpt>
      <trkpt lat="45.98508" lon="6.92293">
        <ele>1464.7058105469</ele>
        <time>2010-06-27T09:46:14Z</time>
      </trkpt>
      <trkpt lat="45.985" lon="6.92291">
        <ele>1461.8220214844</ele>
        <time>2010-06-27T09:46:18Z</time>
      </trkpt>
      <trkpt lat="45.9849" lon="6.92289">
        <ele>1459.8991699219</ele>
        <time>2010-06-27T09:46:23Z</time>
      </trkpt>
      <trkpt lat="45.98484" lon="6.92284">
        <ele>1458.9379882812</ele>
        <time>2010-06-27T09:46:26Z</time>
      </trkpt>
      <trkpt lat="45.98481" lon="6.92281">
        <ele>1455.0927734375</ele>
        <time>2010-06-27T09:46:28Z</time>
      </trkpt>
      <trkpt lat="45.98471" lon="6.92285">
        <ele>1464.2250976562</ele>
        <time>2010-06-27T09:46:33Z</time>
      </trkpt>
      <trkpt lat="45.9847" lon="6.92285">
        <ele>1466.6284179688</ele>
        <time>2010-06-27T09:46:34Z</time>
      </trkpt>
      <trkpt lat="45.98465" lon="6.9228">
        <ele>1476.7224121094</ele>
        <time>2010-06-27T09:46:41Z</time>
      </trkpt>
      <trkpt lat="45.9846" lon="6.92273">
        <ele>1478.1643066406</ele>
        <time>2010-06-27T09:46:50Z</time>
      </trkpt>
      <trkpt lat="45.98457" lon="6.92268">
        <ele>1480.5676269531</ele>
        <time>2010-06-27T09:46:55Z</time>
      </trkpt>
      <trkpt lat="45.9845" lon="6.92261">
        <ele>1482.970703125</ele>
        <time>2010-06-27T09:47:03Z</time>
      </trkpt>
      <trkpt lat="45.98444" lon="6.92257">
        <ele>1482.970703125</ele>
        <time>2010-06-27T09:47:09Z</time>
      </trkpt>
      <trkpt lat="45.98439" lon="6.92251">
        <ele>1483.9321289062</ele>
        <time>2010-06-27T09:47:15Z</time>
      </trkpt>
      <trkpt lat="45.9843" lon="6.92245">
        <ele>1483.9321289062</ele>
        <time>2010-06-27T09:47:20Z</time>
      </trkpt>
      <trkpt lat="45.98426" lon="6.92241">
        <ele>1483.9321289062</ele>
        <time>2010-06-27T09:47:22Z</time>
      </trkpt>
      <trkpt lat="45.98414" lon="6.9223">
        <ele>1482.0095214844</ele>
        <time>2010-06-27T09:47:28Z</time>
      </trkpt>
      <trkpt lat="45.98405" lon="6.92214">
        <ele>1482.970703125</ele>
        <time>2010-06-27T09:47:34Z</time>
      </trkpt>
      <trkpt lat="45.984" lon="6.92207">
        <ele>1483.9321289062</ele>
        <time>2010-06-27T09:47:37Z</time>
      </trkpt>
      <trkpt lat="45.98392" lon="6.92196">
        <ele>1482.970703125</ele>
        <time>2010-06-27T09:47:42Z</time>
      </trkpt>
      <trkpt lat="45.98391" lon="6.92193">
        <ele>1482.490234375</ele>
        <time>2010-06-27T09:47:43Z</time>
      </trkpt>
      <trkpt lat="45.98383" lon="6.92185">
        <ele>1483.9321289062</ele>
        <time>2010-06-27T09:47:47Z</time>
      </trkpt>
      <trkpt lat="45.98379" lon="6.9218">
        <ele>1487.7775878906</ele>
        <time>2010-06-27T09:47:49Z</time>
      </trkpt>
      <trkpt lat="45.98371" lon="6.9217">
        <ele>1488.2583007812</ele>
        <time>2010-06-27T09:47:54Z</time>
      </trkpt>
      <trkpt lat="45.98368" lon="6.92166">
        <ele>1487.296875</ele>
        <time>2010-06-27T09:47:58Z</time>
      </trkpt>
      <trkpt lat="45.98359" lon="6.92159">
        <ele>1495.9487304688</ele>
        <time>2010-06-27T09:48:05Z</time>
      </trkpt>
      <trkpt lat="45.98352" lon="6.92151">
        <ele>1498.3518066406</ele>
        <time>2010-06-27T09:48:11Z</time>
      </trkpt>
      <trkpt lat="45.98351" lon="6.9215">
        <ele>1498.8325195312</ele>
        <time>2010-06-27T09:48:12Z</time>
      </trkpt>
      <trkpt lat="45.98349" lon="6.92145">
        <ele>1498.3518066406</ele>
        <time>2010-06-27T09:48:14Z</time>
      </trkpt>
      <trkpt lat="45.98344" lon="6.92137">
        <ele>1499.3132324219</ele>
        <time>2010-06-27T09:48:21Z</time>
      </trkpt>
      <trkpt lat="45.98338" lon="6.92126">
        <ele>1501.2360839844</ele>
        <time>2010-06-27T09:48:28Z</time>
      </trkpt>
      <trkpt lat="45.98335" lon="6.92122">
        <ele>1500.2749023438</ele>
        <time>2010-06-27T09:48:33Z</time>
      </trkpt>
      <trkpt lat="45.9833" lon="6.92113">
        <ele>1495.9487304688</ele>
        <time>2010-06-27T09:48:38Z</time>
      </trkpt>
      <trkpt lat="45.98325" lon="6.92108">
        <ele>1496.4294433594</ele>
        <time>2010-06-27T09:48:43Z</time>
      </trkpt>
      <trkpt lat="45.98322" lon="6.92098">
        <ele>1493.5454101562</ele>
        <time>2010-06-27T09:48:50Z</time>
      </trkpt>
      <trkpt lat="45.98316" lon="6.92093">
        <ele>1494.5065917969</ele>
        <time>2010-06-27T09:48:56Z</time>
      </trkpt>
      <trkpt lat="45.98314" lon="6.92091">
        <ele>1495.9487304688</ele>
        <time>2010-06-27T09:48:59Z</time>
      </trkpt>
      <trkpt lat="45.98309" lon="6.92085">
        <ele>1495.4680175781</ele>
        <time>2010-06-27T09:49:03Z</time>
      </trkpt>
      <trkpt lat="45.98304" lon="6.92082">
        <ele>1497.390625</ele>
        <time>2010-06-27T09:49:07Z</time>
      </trkpt>
      <trkpt lat="45.98302" lon="6.92078">
        <ele>1496.9099121094</ele>
        <time>2010-06-27T09:49:11Z</time>
      </trkpt>
      <trkpt lat="45.98296" lon="6.92074">
        <ele>1492.5842285156</ele>
        <time>2010-06-27T09:49:18Z</time>
      </trkpt>
      <trkpt lat="45.98295" lon="6.92073">
        <ele>1491.6228027344</ele>
        <time>2010-06-27T09:49:19Z</time>
      </trkpt>
      <trkpt lat="45.98291" lon="6.92066">
        <ele>1492.5842285156</ele>
        <time>2010-06-27T09:49:24Z</time>
      </trkpt>
      <trkpt lat="45.98288" lon="6.92062">
        <ele>1494.0261230469</ele>
        <time>2010-06-27T09:49:27Z</time>
      </trkpt>
      <trkpt lat="45.98285" lon="6.92057">
        <ele>1496.9099121094</ele>
        <time>2010-06-27T09:49:31Z</time>
      </trkpt>
      <trkpt lat="45.98279" lon="6.92044">
        <ele>1496.9099121094</ele>
        <time>2010-06-27T09:49:38Z</time>
      </trkpt>
      <trkpt lat="45.98274" lon="6.92035">
        <ele>1501.716796875</ele>
        <time>2010-06-27T09:49:45Z</time>
      </trkpt>
      <trkpt lat="45.98271" lon="6.92031">
        <ele>1502.197265625</ele>
        <time>2010-06-27T09:49:48Z</time>
      </trkpt>
      <trkpt lat="45.98263" lon="6.92027">
        <ele>1503.6394042969</ele>
        <time>2010-06-27T09:49:54Z</time>
      </trkpt>
      <trkpt lat="45.98257" lon="6.92022">
        <ele>1505.0812988281</ele>
        <time>2010-06-27T09:49:59Z</time>
      </trkpt>
      <trkpt lat="45.98252" lon="6.92016">
        <ele>1503.1586914062</ele>
        <time>2010-06-27T09:50:04Z</time>
      </trkpt>
      <trkpt lat="45.98247" lon="6.92012">
        <ele>1505.5620117188</ele>
        <time>2010-06-27T09:50:09Z</time>
      </trkpt>
      <trkpt lat="45.98244" lon="6.92008">
        <ele>1504.1201171875</ele>
        <time>2010-06-27T09:50:13Z</time>
      </trkpt>
      <trkpt lat="45.9824" lon="6.92004">
        <ele>1507.9653320312</ele>
        <time>2010-06-27T09:50:17Z</time>
      </trkpt>
      <trkpt lat="45.98235" lon="6.91996">
        <ele>1505.5620117188</ele>
        <time>2010-06-27T09:50:22Z</time>
      </trkpt>
      <trkpt lat="45.98232" lon="6.91991">
        <ele>1506.5231933594</ele>
        <time>2010-06-27T09:50:26Z</time>
      </trkpt>
      <trkpt lat="45.98225" lon="6.91984">
        <ele>1506.5231933594</ele>
        <time>2010-06-27T09:50:33Z</time>
      </trkpt>
      <trkpt lat="45.98219" lon="6.91976">
        <ele>1505.0812988281</ele>
        <time>2010-06-27T09:50:39Z</time>
      </trkpt>
      <trkpt lat="45.98216" lon="6.91974">
        <ele>1503.6394042969</ele>
        <time>2010-06-27T09:50:45Z</time>
      </trkpt>
      <trkpt lat="45.98211" lon="6.91967">
        <ele>1501.716796875</ele>
        <time>2010-06-27T09:50:49Z</time>
      </trkpt>
      <trkpt lat="45.98209" lon="6.91964">
        <ele>1503.1586914062</ele>
        <time>2010-06-27T09:50:52Z</time>
      </trkpt>
      <trkpt lat="45.98203" lon="6.91958">
        <ele>1510.3684082031</ele>
        <time>2010-06-27T09:50:57Z</time>
      </trkpt>
      <trkpt lat="45.98193" lon="6.91951">
        <ele>1510.3684082031</ele>
        <time>2010-06-27T09:51:03Z</time>
      </trkpt>
      <trkpt lat="45.98189" lon="6.91947">
        <ele>1511.3298339844</ele>
        <time>2010-06-27T09:51:05Z</time>
      </trkpt>
      <trkpt lat="45.98182" lon="6.91942">
        <ele>1512.291015625</ele>
        <time>2010-06-27T09:51:09Z</time>
      </trkpt>
      <trkpt lat="45.98173" lon="6.91936">
        <ele>1514.6943359375</ele>
        <time>2010-06-27T09:51:14Z</time>
      </trkpt>
      <trkpt lat="45.98162" lon="6.91928">
        <ele>1514.6943359375</ele>
        <time>2010-06-27T09:51:19Z</time>
      </trkpt>
      <trkpt lat="45.98153" lon="6.91923">
        <ele>1514.6943359375</ele>
        <time>2010-06-27T09:51:23Z</time>
      </trkpt>
      <trkpt lat="45.98145" lon="6.91915">
        <ele>1515.1750488281</ele>
        <time>2010-06-27T09:51:27Z</time>
      </trkpt>
      <trkpt lat="45.9814" lon="6.91905">
        <ele>1515.1750488281</ele>
        <time>2010-06-27T09:51:31Z</time>
      </trkpt>
      <trkpt lat="45.9813" lon="6.91897">
        <ele>1519.0205078125</ele>
        <time>2010-06-27T09:51:38Z</time>
      </trkpt>
      <trkpt lat="45.98125" lon="6.91894">
        <ele>1520.4624023438</ele>
        <time>2010-06-27T09:51:42Z</time>
      </trkpt>
      <trkpt lat="45.98124" lon="6.91894">
        <ele>1520.4624023438</ele>
        <time>2010-06-27T09:51:43Z</time>
      </trkpt>
      <trkpt lat="45.9812" lon="6.9189">
        <ele>1516.6171875</ele>
        <time>2010-06-27T09:51:48Z</time>
      </trkpt>
      <trkpt lat="45.98117" lon="6.9188">
        <ele>1518.0590820312</ele>
        <time>2010-06-27T09:51:53Z</time>
      </trkpt>
      <trkpt lat="45.9812" lon="6.91872">
        <ele>1516.6171875</ele>
        <time>2010-06-27T09:51:58Z</time>
      </trkpt>
      <trkpt lat="45.98119" lon="6.91869">
        <ele>1516.6171875</ele>
        <time>2010-06-27T09:52:00Z</time>
      </trkpt>
      <trkpt lat="45.98118" lon="6.91862">
        <ele>1513.7329101562</ele>
        <time>2010-06-27T09:52:04Z</time>
      </trkpt>
      <trkpt lat="45.98112" lon="6.91857">
        <ele>1516.6171875</ele>
        <time>2010-06-27T09:52:08Z</time>
      </trkpt>
      <trkpt lat="45.98108" lon="6.91849">
        <ele>1515.1750488281</ele>
        <time>2010-06-27T09:52:12Z</time>
      </trkpt>
      <trkpt lat="45.98101" lon="6.91841">
        <ele>1511.3298339844</ele>
        <time>2010-06-27T09:52:17Z</time>
      </trkpt>
      <trkpt lat="45.98097" lon="6.91839">
        <ele>1510.3684082031</ele>
        <time>2010-06-27T09:52:19Z</time>
      </trkpt>
      <trkpt lat="45.98089" lon="6.91839">
        <ele>1504.6005859375</ele>
        <time>2010-06-27T09:52:23Z</time>
      </trkpt>
      <trkpt lat="45.98084" lon="6.91831">
        <ele>1501.2360839844</ele>
        <time>2010-06-27T09:52:28Z</time>
      </trkpt>
      <trkpt lat="45.98077" lon="6.91817">
        <ele>1499.3132324219</ele>
        <time>2010-06-27T09:52:34Z</time>
      </trkpt>
      <trkpt lat="45.98072" lon="6.91811">
        <ele>1502.197265625</ele>
        <time>2010-06-27T09:52:38Z</time>
      </trkpt>
      <trkpt lat="45.98068" lon="6.91807">
        <ele>1501.2360839844</ele>
        <time>2010-06-27T09:52:42Z</time>
      </trkpt>
      <trkpt lat="45.98065" lon="6.918">
        <ele>1502.6779785156</ele>
        <time>2010-06-27T09:52:49Z</time>
      </trkpt>
      <trkpt lat="45.98063" lon="6.91795">
        <ele>1503.6394042969</ele>
        <time>2010-06-27T09:52:54Z</time>
      </trkpt>
      <trkpt lat="45.98059" lon="6.91789">
        <ele>1501.716796875</ele>
        <time>2010-06-27T09:53:00Z</time>
      </trkpt>
      <trkpt lat="45.98057" lon="6.91782">
        <ele>1496.9099121094</ele>
        <time>2010-06-27T09:53:06Z</time>
      </trkpt>
      <trkpt lat="45.98054" lon="6.91775">
        <ele>1496.9099121094</ele>
        <time>2010-06-27T09:53:12Z</time>
      </trkpt>
      <trkpt lat="45.98048" lon="6.91768">
        <ele>1500.2749023438</ele>
        <time>2010-06-27T09:53:18Z</time>
      </trkpt>
      <trkpt lat="45.98044" lon="6.91767">
        <ele>1502.6779785156</ele>
        <time>2010-06-27T09:53:22Z</time>
      </trkpt>
      <trkpt lat="45.98042" lon="6.91763">
        <ele>1502.197265625</ele>
        <time>2010-06-27T09:53:25Z</time>
      </trkpt>
      <trkpt lat="45.98041" lon="6.91756">
        <ele>1499.7939453125</ele>
        <time>2010-06-27T09:53:29Z</time>
      </trkpt>
      <trkpt lat="45.98037" lon="6.91741">
        <ele>1501.716796875</ele>
        <time>2010-06-27T09:53:45Z</time>
      </trkpt>
      <trkpt lat="45.98032" lon="6.91737">
        <ele>1504.6005859375</ele>
        <time>2010-06-27T09:53:49Z</time>
      </trkpt>
      <trkpt lat="45.98029" lon="6.91731">
        <ele>1501.2360839844</ele>
        <time>2010-06-27T09:53:55Z</time>
      </trkpt>
      <trkpt lat="45.98026" lon="6.91728">
        <ele>1502.197265625</ele>
        <time>2010-06-27T09:53:59Z</time>
      </trkpt>
      <trkpt lat="45.98024" lon="6.91728">
        <ele>1502.6779785156</ele>
        <time>2010-06-27T09:54:00Z</time>
      </trkpt>
      <trkpt lat="45.98016" lon="6.91718">
        <ele>1498.8325195312</ele>
        <time>2010-06-27T09:54:04Z</time>
      </trkpt>
      <trkpt lat="45.98008" lon="6.91712">
        <ele>1493.0646972656</ele>
        <time>2010-06-27T09:54:09Z</time>
      </trkpt>
      <trkpt lat="45.98006" lon="6.91709">
        <ele>1492.5842285156</ele>
        <time>2010-06-27T09:54:10Z</time>
      </trkpt>
      <trkpt lat="45.98003" lon="6.91702">
        <ele>1493.0646972656</ele>
        <time>2010-06-27T09:54:12Z</time>
      </trkpt>
      <trkpt lat="45.97995" lon="6.91694">
        <ele>1492.5842285156</ele>
        <time>2010-06-27T09:54:17Z</time>
      </trkpt>
      <trkpt lat="45.97992" lon="6.91689">
        <ele>1493.0646972656</ele>
        <time>2010-06-27T09:54:23Z</time>
      </trkpt>
      <trkpt lat="45.97991" lon="6.91688">
        <ele>1493.0646972656</ele>
        <time>2010-06-27T09:54:24Z</time>
      </trkpt>
      <trkpt lat="45.97987" lon="6.91684">
        <ele>1492.103515625</ele>
        <time>2010-06-27T09:54:29Z</time>
      </trkpt>
      <trkpt lat="45.97984" lon="6.9168">
        <ele>1496.9099121094</ele>
        <time>2010-06-27T09:54:33Z</time>
      </trkpt>
      <trkpt lat="45.97979" lon="6.91675">
        <ele>1501.2360839844</ele>
        <time>2010-06-27T09:54:38Z</time>
      </trkpt>
      <trkpt lat="45.97975" lon="6.91671">
        <ele>1506.0424804688</ele>
        <time>2010-06-27T09:54:42Z</time>
      </trkpt>
      <trkpt lat="45.97968" lon="6.91667">
        <ele>1503.6394042969</ele>
        <time>2010-06-27T09:54:49Z</time>
      </trkpt>
      <trkpt lat="45.97962" lon="6.91661">
        <ele>1505.5620117188</ele>
        <time>2010-06-27T09:54:56Z</time>
      </trkpt>
      <trkpt lat="45.97957" lon="6.91654">
        <ele>1499.7939453125</ele>
        <time>2010-06-27T09:55:05Z</time>
      </trkpt>
      <trkpt lat="45.97953" lon="6.91649">
        <ele>1498.3518066406</ele>
        <time>2010-06-27T09:55:09Z</time>
      </trkpt>
      <trkpt lat="45.9795" lon="6.91647">
        <ele>1500.2749023438</ele>
        <time>2010-06-27T09:55:13Z</time>
      </trkpt>
      <trkpt lat="45.97947" lon="6.91641">
        <ele>1503.6394042969</ele>
        <time>2010-06-27T09:55:19Z</time>
      </trkpt>
      <trkpt lat="45.97945" lon="6.91635">
        <ele>1501.2360839844</ele>
        <time>2010-06-27T09:55:24Z</time>
      </trkpt>
      <trkpt lat="45.97941" lon="6.91625">
        <ele>1501.2360839844</ele>
        <time>2010-06-27T09:55:28Z</time>
      </trkpt>
      <trkpt lat="45.97938" lon="6.91619">
        <ele>1506.0424804688</ele>
        <time>2010-06-27T09:55:31Z</time>
      </trkpt>
      <trkpt lat="45.97937" lon="6.91613">
        <ele>1518.0590820312</ele>
        <time>2010-06-27T09:55:36Z</time>
      </trkpt>
      <trkpt lat="45.97935" lon="6.91609">
        <ele>1528.1528320312</ele>
        <time>2010-06-27T09:55:41Z</time>
      </trkpt>
      <trkpt lat="45.97933" lon="6.91604">
        <ele>1537.7661132812</ele>
        <time>2010-06-27T09:55:45Z</time>
      </trkpt>
      <trkpt lat="45.97932" lon="6.91603">
        <ele>1547.3791503906</ele>
        <time>2010-06-27T09:55:48Z</time>
      </trkpt>
      <trkpt lat="45.97921" lon="6.91604">
        <ele>1574.2961425781</ele>
        <time>2010-06-27T09:55:53Z</time>
      </trkpt>
      <trkpt lat="45.97917" lon="6.91604">
        <ele>1572.3735351562</ele>
        <time>2010-06-27T09:55:58Z</time>
      </trkpt>
      <trkpt lat="45.97913" lon="6.91607">
        <ele>1565.1638183594</ele>
        <time>2010-06-27T09:56:02Z</time>
      </trkpt>
      <trkpt lat="45.9791" lon="6.91602">
        <ele>1557.4731445312</ele>
        <time>2010-06-27T09:56:06Z</time>
      </trkpt>
      <trkpt lat="45.97908" lon="6.91597">
        <ele>1539.2080078125</ele>
        <time>2010-06-27T09:56:11Z</time>
      </trkpt>
      <trkpt lat="45.97904" lon="6.9159">
        <ele>1505.0812988281</ele>
        <time>2010-06-27T09:56:16Z</time>
      </trkpt>
      <trkpt lat="45.97902" lon="6.91592">
        <ele>1488.7390136719</ele>
        <time>2010-06-27T09:56:19Z</time>
      </trkpt>
      <trkpt lat="45.979" lon="6.91595">
        <ele>1477.203125</ele>
        <time>2010-06-27T09:56:22Z</time>
      </trkpt>
      <trkpt lat="45.97898" lon="6.91592">
        <ele>1474.3190917969</ele>
        <time>2010-06-27T09:56:24Z</time>
      </trkpt>
      <trkpt lat="45.97892" lon="6.91596">
        <ele>1470.9545898438</ele>
        <time>2010-06-27T09:56:28Z</time>
      </trkpt>
      <trkpt lat="45.97886" lon="6.91592">
        <ele>1467.5895996094</ele>
        <time>2010-06-27T09:56:31Z</time>
      </trkpt>
      <trkpt lat="45.97882" lon="6.91586">
        <ele>1463.7443847656</ele>
        <time>2010-06-27T09:56:34Z</time>
      </trkpt>
      <trkpt lat="45.97876" lon="6.91584">
        <ele>1463.2639160156</ele>
        <time>2010-06-27T09:56:38Z</time>
      </trkpt>
      <trkpt lat="45.97873" lon="6.91585">
        <ele>1463.7443847656</ele>
        <time>2010-06-27T09:56:40Z</time>
      </trkpt>
      <trkpt lat="45.97865" lon="6.91583">
        <ele>1463.7443847656</ele>
        <time>2010-06-27T09:56:45Z</time>
      </trkpt>
      <trkpt lat="45.97857" lon="6.91584">
        <ele>1461.8220214844</ele>
        <time>2010-06-27T09:56:50Z</time>
      </trkpt>
      <trkpt lat="45.97854" lon="6.91584">
        <ele>1460.3798828125</ele>
        <time>2010-06-27T09:56:52Z</time>
      </trkpt>
      <trkpt lat="45.9785" lon="6.91577">
        <ele>1457.9768066406</ele>
        <time>2010-06-27T09:56:56Z</time>
      </trkpt>
      <trkpt lat="45.9785" lon="6.9156">
        <ele>1466.1477050781</ele>
        <time>2010-06-27T09:57:02Z</time>
      </trkpt>
      <trkpt lat="45.9785" lon="6.91553">
        <ele>1465.6672363281</ele>
        <time>2010-06-27T09:57:05Z</time>
      </trkpt>
      <trkpt lat="45.97842" lon="6.91541">
        <ele>1462.783203125</ele>
        <time>2010-06-27T09:57:11Z</time>
      </trkpt>
      <trkpt lat="45.97841" lon="6.91539">
        <ele>1463.2639160156</ele>
        <time>2010-06-27T09:57:12Z</time>
      </trkpt>
      <trkpt lat="45.97834" lon="6.91532">
        <ele>1463.7443847656</ele>
        <time>2010-06-27T09:57:18Z</time>
      </trkpt>
      <trkpt lat="45.97829" lon="6.91531">
        <ele>1465.6672363281</ele>
        <time>2010-06-27T09:57:22Z</time>
      </trkpt>
      <trkpt lat="45.97828" lon="6.91528">
        <ele>1465.6672363281</ele>
        <time>2010-06-27T09:57:23Z</time>
      </trkpt>
      <trkpt lat="45.97819" lon="6.91521">
        <ele>1471.9157714844</ele>
        <time>2010-06-27T09:57:28Z</time>
      </trkpt>
      <trkpt lat="45.97816" lon="6.91515">
        <ele>1471.9157714844</ele>
        <time>2010-06-27T09:57:31Z</time>
      </trkpt>
      <trkpt lat="45.9781" lon="6.91507">
        <ele>1471.9157714844</ele>
        <time>2010-06-27T09:57:37Z</time>
      </trkpt>
      <trkpt lat="45.9781" lon="6.91503">
        <ele>1469.0319824219</ele>
        <time>2010-06-27T09:57:39Z</time>
      </trkpt>
      <trkpt lat="45.9781" lon="6.91499">
        <ele>1466.1477050781</ele>
        <time>2010-06-27T09:57:41Z</time>
      </trkpt>
      <trkpt lat="45.97808" lon="6.91489">
        <ele>1457.49609375</ele>
        <time>2010-06-27T09:57:47Z</time>
      </trkpt>
      <trkpt lat="45.97806" lon="6.91484">
        <ele>1458.4572753906</ele>
        <time>2010-06-27T09:57:50Z</time>
      </trkpt>
      <trkpt lat="45.97803" lon="6.91473">
        <ele>1457.49609375</ele>
        <time>2010-06-27T09:57:57Z</time>
      </trkpt>
      <trkpt lat="45.97802" lon="6.91468">
        <ele>1456.0539550781</ele>
        <time>2010-06-27T09:58:01Z</time>
      </trkpt>
      <trkpt lat="45.97799" lon="6.91459">
        <ele>1458.4572753906</ele>
        <time>2010-06-27T09:58:07Z</time>
      </trkpt>
      <trkpt lat="45.97796" lon="6.91453">
        <ele>1463.2639160156</ele>
        <time>2010-06-27T09:58:12Z</time>
      </trkpt>
      <trkpt lat="45.97793" lon="6.91446">
        <ele>1469.0319824219</ele>
        <time>2010-06-27T09:58:18Z</time>
      </trkpt>
      <trkpt lat="45.97791" lon="6.91436">
        <ele>1466.6284179688</ele>
        <time>2010-06-27T09:58:24Z</time>
      </trkpt>
      <trkpt lat="45.97786" lon="6.91427">
        <ele>1469.9931640625</ele>
        <time>2010-06-27T09:58:31Z</time>
      </trkpt>
      <trkpt lat="45.97784" lon="6.91416">
        <ele>1471.4350585938</ele>
        <time>2010-06-27T09:58:38Z</time>
      </trkpt>
      <trkpt lat="45.97781" lon="6.91408">
        <ele>1470.9545898438</ele>
        <time>2010-06-27T09:58:43Z</time>
      </trkpt>
      <trkpt lat="45.97776" lon="6.91398">
        <ele>1466.6284179688</ele>
        <time>2010-06-27T09:58:50Z</time>
      </trkpt>
      <trkpt lat="45.97771" lon="6.91387">
        <ele>1468.0705566406</ele>
        <time>2010-06-27T09:58:58Z</time>
      </trkpt>
      <trkpt lat="45.9777" lon="6.91384">
        <ele>1468.5512695312</ele>
        <time>2010-06-27T09:59:00Z</time>
      </trkpt>
      <trkpt lat="45.97763" lon="6.91376">
        <ele>1476.2416992188</ele>
        <time>2010-06-27T09:59:07Z</time>
      </trkpt>
      <trkpt lat="45.97759" lon="6.91364">
        <ele>1475.2802734375</ele>
        <time>2010-06-27T09:59:13Z</time>
      </trkpt>
      <trkpt lat="45.97755" lon="6.91354">
        <ele>1472.396484375</ele>
        <time>2010-06-27T09:59:19Z</time>
      </trkpt>
      <trkpt lat="45.97751" lon="6.91341">
        <ele>1468.5512695312</ele>
        <time>2010-06-27T09:59:27Z</time>
      </trkpt>
      <trkpt lat="45.97747" lon="6.9133">
        <ele>1466.6284179688</ele>
        <time>2010-06-27T09:59:33Z</time>
      </trkpt>
      <trkpt lat="45.97743" lon="6.91319">
        <ele>1468.5512695312</ele>
        <time>2010-06-27T09:59:40Z</time>
      </trkpt>
      <trkpt lat="45.97742" lon="6.91317">
        <ele>1469.5126953125</ele>
        <time>2010-06-27T09:59:41Z</time>
      </trkpt>
      <trkpt lat="45.97736" lon="6.9131">
        <ele>1472.396484375</ele>
        <time>2010-06-27T09:59:48Z</time>
      </trkpt>
      <trkpt lat="45.97728" lon="6.91303">
        <ele>1477.203125</ele>
        <time>2010-06-27T09:59:55Z</time>
      </trkpt>
      <trkpt lat="45.97721" lon="6.91295">
        <ele>1481.0483398438</ele>
        <time>2010-06-27T10:00:02Z</time>
      </trkpt>
      <trkpt lat="45.97718" lon="6.91285">
        <ele>1479.6062011719</ele>
        <time>2010-06-27T10:00:09Z</time>
      </trkpt>
      <trkpt lat="45.97717" lon="6.91284">
        <ele>1479.1254882812</ele>
        <time>2010-06-27T10:00:10Z</time>
      </trkpt>
      <trkpt lat="45.97712" lon="6.91275">
        <ele>1480.0869140625</ele>
        <time>2010-06-27T10:00:17Z</time>
      </trkpt>
      <trkpt lat="45.97707" lon="6.91266">
        <ele>1488.2583007812</ele>
        <time>2010-06-27T10:00:24Z</time>
      </trkpt>
      <trkpt lat="45.97702" lon="6.91261">
        <ele>1495.9487304688</ele>
        <time>2010-06-27T10:00:30Z</time>
      </trkpt>
      <trkpt lat="45.97699" lon="6.91252">
        <ele>1495.9487304688</ele>
        <time>2010-06-27T10:00:36Z</time>
      </trkpt>
      <trkpt lat="45.97697" lon="6.91248">
        <ele>1494.9873046875</ele>
        <time>2010-06-27T10:00:40Z</time>
      </trkpt>
      <trkpt lat="45.97695" lon="6.91243">
        <ele>1494.5065917969</ele>
        <time>2010-06-27T10:00:44Z</time>
      </trkpt>
      <trkpt lat="45.97691" lon="6.91235">
        <ele>1495.4680175781</ele>
        <time>2010-06-27T10:00:50Z</time>
      </trkpt>
      <trkpt lat="45.97685" lon="6.91231">
        <ele>1504.1201171875</ele>
        <time>2010-06-27T10:00:55Z</time>
      </trkpt>
      <trkpt lat="45.97683" lon="6.91224">
        <ele>1506.5231933594</ele>
        <time>2010-06-27T10:01:00Z</time>
      </trkpt>
      <trkpt lat="45.97681" lon="6.91219">
        <ele>1504.1201171875</ele>
        <time>2010-06-27T10:01:04Z</time>
      </trkpt>
      <trkpt lat="45.9768" lon="6.91213">
        <ele>1504.1201171875</ele>
        <time>2010-06-27T10:01:08Z</time>
      </trkpt>
      <trkpt lat="45.9768" lon="6.91208">
        <ele>1508.4458007812</ele>
        <time>2010-06-27T10:01:12Z</time>
      </trkpt>
      <trkpt lat="45.9768" lon="6.91201">
        <ele>1505.0812988281</ele>
        <time>2010-06-27T10:01:16Z</time>
      </trkpt>
      <trkpt lat="45.97676" lon="6.91192">
        <ele>1496.4294433594</ele>
        <time>2010-06-27T10:01:22Z</time>
      </trkpt>
      <trkpt lat="45.97674" lon="6.9119">
        <ele>1496.4294433594</ele>
        <time>2010-06-27T10:01:25Z</time>
      </trkpt>
      <trkpt lat="45.97668" lon="6.91181">
        <ele>1494.5065917969</ele>
        <time>2010-06-27T10:01:32Z</time>
      </trkpt>
      <trkpt lat="45.97666" lon="6.91179">
        <ele>1494.5065917969</ele>
        <time>2010-06-27T10:01:34Z</time>
      </trkpt>
      <trkpt lat="45.97664" lon="6.91174">
        <ele>1496.4294433594</ele>
        <time>2010-06-27T10:01:38Z</time>
      </trkpt>
      <trkpt lat="45.97662" lon="6.91167">
        <ele>1502.197265625</ele>
        <time>2010-06-27T10:01:43Z</time>
      </trkpt>
      <trkpt lat="45.97656" lon="6.91161">
        <ele>1509.4072265625</ele>
        <time>2010-06-27T10:01:47Z</time>
      </trkpt>
      <trkpt lat="45.97654" lon="6.91158">
        <ele>1508.4458007812</ele>
        <time>2010-06-27T10:01:49Z</time>
      </trkpt>
      <trkpt lat="45.97649" lon="6.91152">
        <ele>1512.291015625</ele>
        <time>2010-06-27T10:01:56Z</time>
      </trkpt>
      <trkpt lat="45.97646" lon="6.91149">
        <ele>1508.9265136719</ele>
        <time>2010-06-27T10:02:01Z</time>
      </trkpt>
      <trkpt lat="45.97638" lon="6.91158">
        <ele>1513.2524414062</ele>
        <time>2010-06-27T10:02:14Z</time>
      </trkpt>
      <trkpt lat="45.97634" lon="6.91157">
        <ele>1514.2136230469</ele>
        <time>2010-06-27T10:02:19Z</time>
      </trkpt>
      <trkpt lat="45.97631" lon="6.91153">
        <ele>1516.6171875</ele>
        <time>2010-06-27T10:02:25Z</time>
      </trkpt>
      <trkpt lat="45.97628" lon="6.91151">
        <ele>1517.0979003906</ele>
        <time>2010-06-27T10:02:29Z</time>
      </trkpt>
      <trkpt lat="45.97625" lon="6.91148">
        <ele>1517.0979003906</ele>
        <time>2010-06-27T10:02:35Z</time>
      </trkpt>
      <trkpt lat="45.97623" lon="6.91142">
        <ele>1515.1750488281</ele>
        <time>2010-06-27T10:02:44Z</time>
      </trkpt>
      <trkpt lat="45.9762" lon="6.91138">
        <ele>1515.1750488281</ele>
        <time>2010-06-27T10:02:52Z</time>
      </trkpt>
      <trkpt lat="45.97611" lon="6.91131">
        <ele>1522.3850097656</ele>
        <time>2010-06-27T10:03:09Z</time>
      </trkpt>
      <trkpt lat="45.9761" lon="6.91117">
        <ele>1523.3464355469</ele>
        <time>2010-06-27T10:03:15Z</time>
      </trkpt>
      <trkpt lat="45.97608" lon="6.91109">
        <ele>1533.4401855469</ele>
        <time>2010-06-27T10:03:19Z</time>
      </trkpt>
      <trkpt lat="45.97604" lon="6.91101">
        <ele>1541.1306152344</ele>
        <time>2010-06-27T10:03:24Z</time>
      </trkpt>
      <trkpt lat="45.976" lon="6.91099">
        <ele>1549.7827148438</ele>
        <time>2010-06-27T10:03:28Z</time>
      </trkpt>
      <trkpt lat="45.97599" lon="6.91087">
        <ele>1550.2634277344</ele>
        <time>2010-06-27T10:03:41Z</time>
      </trkpt>
      <trkpt lat="45.976" lon="6.9108">
        <ele>1541.611328125</ele>
        <time>2010-06-27T10:03:46Z</time>
      </trkpt>
      <trkpt lat="45.97599" lon="6.91071">
        <ele>1532.4790039062</ele>
        <time>2010-06-27T10:03:53Z</time>
      </trkpt>
      <trkpt lat="45.97596" lon="6.91066">
        <ele>1527.1916503906</ele>
        <time>2010-06-27T10:03:57Z</time>
      </trkpt>
      <trkpt lat="45.97593" lon="6.91064">
        <ele>1523.8269042969</ele>
        <time>2010-06-27T10:03:59Z</time>
      </trkpt>
      <trkpt lat="45.97586" lon="6.91055">
        <ele>1520.4624023438</ele>
        <time>2010-06-27T10:04:04Z</time>
      </trkpt>
      <trkpt lat="45.9758" lon="6.9105">
        <ele>1518.0590820312</ele>
        <time>2010-06-27T10:04:09Z</time>
      </trkpt>
      <trkpt lat="45.97578" lon="6.91047">
        <ele>1517.5783691406</ele>
        <time>2010-06-27T10:04:11Z</time>
      </trkpt>
      <trkpt lat="45.97567" lon="6.91037">
        <ele>1516.6171875</ele>
        <time>2010-06-27T10:04:17Z</time>
      </trkpt>
      <trkpt lat="45.97565" lon="6.91035">
        <ele>1516.1364746094</ele>
        <time>2010-06-27T10:04:18Z</time>
      </trkpt>
      <trkpt lat="45.97557" lon="6.91026">
        <ele>1518.5397949219</ele>
        <time>2010-06-27T10:04:24Z</time>
      </trkpt>
      <trkpt lat="45.97549" lon="6.91021">
        <ele>1523.3464355469</ele>
        <time>2010-06-27T10:04:30Z</time>
      </trkpt>
      <trkpt lat="45.97543" lon="6.91018">
        <ele>1527.6721191406</ele>
        <time>2010-06-27T10:04:34Z</time>
      </trkpt>
      <trkpt lat="45.97531" lon="6.91016">
        <ele>1528.1528320312</ele>
        <time>2010-06-27T10:04:40Z</time>
      </trkpt>
      <trkpt lat="45.97523" lon="6.91013">
        <ele>1529.1140136719</ele>
        <time>2010-06-27T10:04:47Z</time>
      </trkpt>
      <trkpt lat="45.97517" lon="6.91001">
        <ele>1529.1140136719</ele>
        <time>2010-06-27T10:04:53Z</time>
      </trkpt>
      <trkpt lat="45.97515" lon="6.90999">
        <ele>1529.5947265625</ele>
        <time>2010-06-27T10:04:54Z</time>
      </trkpt>
      <trkpt lat="45.97514" lon="6.90993">
        <ele>1530.5561523438</ele>
        <time>2010-06-27T10:04:57Z</time>
      </trkpt>
      <trkpt lat="45.97506" lon="6.90981">
        <ele>1531.0368652344</ele>
        <time>2010-06-27T10:05:03Z</time>
      </trkpt>
      <trkpt lat="45.97499" lon="6.90973">
        <ele>1536.32421875</ele>
        <time>2010-06-27T10:05:07Z</time>
      </trkpt>
      <trkpt lat="45.97487" lon="6.90968">
        <ele>1554.1086425781</ele>
        <time>2010-06-27T10:05:13Z</time>
      </trkpt>
      <trkpt lat="45.97486" lon="6.90965">
        <ele>1549.3020019531</ele>
        <time>2010-06-27T10:05:17Z</time>
      </trkpt>
      <trkpt lat="45.97484" lon="6.9096">
        <ele>1536.32421875</ele>
        <time>2010-06-27T10:05:22Z</time>
      </trkpt>
      <trkpt lat="45.97478" lon="6.90956">
        <ele>1529.1140136719</ele>
        <time>2010-06-27T10:05:26Z</time>
      </trkpt>
      <trkpt lat="45.97471" lon="6.90953">
        <ele>1522.8657226562</ele>
        <time>2010-06-27T10:05:31Z</time>
      </trkpt>
      <trkpt lat="45.97461" lon="6.90955">
        <ele>1517.0979003906</ele>
        <time>2010-06-27T10:05:36Z</time>
      </trkpt>
      <trkpt lat="45.97457" lon="6.90955">
        <ele>1518.0590820312</ele>
        <time>2010-06-27T10:05:38Z</time>
      </trkpt>
      <trkpt lat="45.97449" lon="6.90951">
        <ele>1517.0979003906</ele>
        <time>2010-06-27T10:05:42Z</time>
      </trkpt>
      <trkpt lat="45.9744" lon="6.90937">
        <ele>1521.4235839844</ele>
        <time>2010-06-27T10:05:49Z</time>
      </trkpt>
      <trkpt lat="45.97433" lon="6.90929">
        <ele>1530.0754394531</ele>
        <time>2010-06-27T10:05:54Z</time>
      </trkpt>
      <trkpt lat="45.97425" lon="6.90917">
        <ele>1526.2302246094</ele>
        <time>2010-06-27T10:05:59Z</time>
      </trkpt>
      <trkpt lat="45.97422" lon="6.9091">
        <ele>1524.3076171875</ele>
        <time>2010-06-27T10:06:02Z</time>
      </trkpt>
      <trkpt lat="45.97418" lon="6.90906">
        <ele>1521.904296875</ele>
        <time>2010-06-27T10:06:06Z</time>
      </trkpt>
      <trkpt lat="45.9741" lon="6.90907">
        <ele>1520.4624023438</ele>
        <time>2010-06-27T10:06:10Z</time>
      </trkpt>
      <trkpt lat="45.97407" lon="6.90907">
        <ele>1518.5397949219</ele>
        <time>2010-06-27T10:06:13Z</time>
      </trkpt>
      <trkpt lat="45.97402" lon="6.90906">
        <ele>1520.4624023438</ele>
        <time>2010-06-27T10:06:16Z</time>
      </trkpt>
      <trkpt lat="45.97395" lon="6.90897">
        <ele>1523.8269042969</ele>
        <time>2010-06-27T10:06:20Z</time>
      </trkpt>
      <trkpt lat="45.97387" lon="6.90885">
        <ele>1522.3850097656</ele>
        <time>2010-06-27T10:06:25Z</time>
      </trkpt>
      <trkpt lat="45.97382" lon="6.90877">
        <ele>1521.904296875</ele>
        <time>2010-06-27T10:06:30Z</time>
      </trkpt>
      <trkpt lat="45.97378" lon="6.9087">
        <ele>1520.9431152344</ele>
        <time>2010-06-27T10:06:40Z</time>
      </trkpt>
      <trkpt lat="45.97375" lon="6.90866">
        <ele>1517.5783691406</ele>
        <time>2010-06-27T10:06:44Z</time>
      </trkpt>
      <trkpt lat="45.97371" lon="6.90858">
        <ele>1512.291015625</ele>
        <time>2010-06-27T10:06:49Z</time>
      </trkpt>
      <trkpt lat="45.97369" lon="6.90854">
        <ele>1513.2524414062</ele>
        <time>2010-06-27T10:06:53Z</time>
      </trkpt>
      <trkpt lat="45.97366" lon="6.90851">
        <ele>1516.1364746094</ele>
        <time>2010-06-27T10:06:56Z</time>
      </trkpt>
      <trkpt lat="45.97363" lon="6.90848">
        <ele>1517.0979003906</ele>
        <time>2010-06-27T10:06:59Z</time>
      </trkpt>
      <trkpt lat="45.97359" lon="6.90839">
        <ele>1525.7495117188</ele>
        <time>2010-06-27T10:07:04Z</time>
      </trkpt>
      <trkpt lat="45.97355" lon="6.90829">
        <ele>1525.7495117188</ele>
        <time>2010-06-27T10:07:09Z</time>
      </trkpt>
      <trkpt lat="45.97352" lon="6.90828">
        <ele>1527.6721191406</ele>
        <time>2010-06-27T10:07:11Z</time>
      </trkpt>
      <trkpt lat="45.97342" lon="6.90812">
        <ele>1527.1916503906</ele>
        <time>2010-06-27T10:07:17Z</time>
      </trkpt>
      <trkpt lat="45.97338" lon="6.90808">
        <ele>1527.6721191406</ele>
        <time>2010-06-27T10:07:19Z</time>
      </trkpt>
      <trkpt lat="45.97327" lon="6.90798">
        <ele>1531.0368652344</ele>
        <time>2010-06-27T10:07:25Z</time>
      </trkpt>
      <trkpt lat="45.97315" lon="6.90794">
        <ele>1544.4951171875</ele>
        <time>2010-06-27T10:07:30Z</time>
      </trkpt>
      <trkpt lat="45.9731" lon="6.90789">
        <ele>1545.4565429688</ele>
        <time>2010-06-27T10:07:33Z</time>
      </trkpt>
      <trkpt lat="45.97305" lon="6.90785">
        <ele>1541.1306152344</ele>
        <time>2010-06-27T10:07:36Z</time>
      </trkpt>
      <trkpt lat="45.973" lon="6.90778">
        <ele>1532.9594726562</ele>
        <time>2010-06-27T10:07:42Z</time>
      </trkpt>
      <trkpt lat="45.97292" lon="6.90765">
        <ele>1539.2080078125</ele>
        <time>2010-06-27T10:07:51Z</time>
      </trkpt>
      <trkpt lat="45.97289" lon="6.90761">
        <ele>1539.6887207031</ele>
        <time>2010-06-27T10:07:56Z</time>
      </trkpt>
      <trkpt lat="45.97285" lon="6.90756">
        <ele>1539.2080078125</ele>
        <time>2010-06-27T10:08:00Z</time>
      </trkpt>
      <trkpt lat="45.97281" lon="6.9075">
        <ele>1539.2080078125</ele>
        <time>2010-06-27T10:08:05Z</time>
      </trkpt>
      <trkpt lat="45.97275" lon="6.90743">
        <ele>1531.5173339844</ele>
        <time>2010-06-27T10:08:13Z</time>
      </trkpt>
      <trkpt lat="45.97272" lon="6.90744">
        <ele>1530.0754394531</ele>
        <time>2010-06-27T10:08:16Z</time>
      </trkpt>
      <trkpt lat="45.97266" lon="6.90742">
        <ele>1527.1916503906</ele>
        <time>2010-06-27T10:08:20Z</time>
      </trkpt>
      <trkpt lat="45.97256" lon="6.90732">
        <ele>1525.7495117188</ele>
        <time>2010-06-27T10:08:26Z</time>
      </trkpt>
      <trkpt lat="45.97255" lon="6.90727">
        <ele>1523.8269042969</ele>
        <time>2010-06-27T10:08:28Z</time>
      </trkpt>
      <trkpt lat="45.97246" lon="6.90719">
        <ele>1526.7109375</ele>
        <time>2010-06-27T10:08:33Z</time>
      </trkpt>
      <trkpt lat="45.97236" lon="6.90717">
        <ele>1525.7495117188</ele>
        <time>2010-06-27T10:08:38Z</time>
      </trkpt>
      <trkpt lat="45.97224" lon="6.90708">
        <ele>1525.7495117188</ele>
        <time>2010-06-27T10:08:44Z</time>
      </trkpt>
      <trkpt lat="45.97219" lon="6.90702">
        <ele>1527.1916503906</ele>
        <time>2010-06-27T10:08:47Z</time>
      </trkpt>
      <trkpt lat="45.97215" lon="6.90695">
        <ele>1531.5173339844</ele>
        <time>2010-06-27T10:08:53Z</time>
      </trkpt>
      <trkpt lat="45.97216" lon="6.90665">
        <ele>1541.1306152344</ele>
        <time>2010-06-27T10:09:14Z</time>
      </trkpt>
      <trkpt lat="45.97215" lon="6.90661">
        <ele>1544.9758300781</ele>
        <time>2010-06-27T10:09:16Z</time>
      </trkpt>
      <trkpt lat="45.97207" lon="6.90657">
        <ele>1550.2634277344</ele>
        <time>2010-06-27T10:09:22Z</time>
      </trkpt>
      <trkpt lat="45.97202" lon="6.90651">
        <ele>1559.3957519531</ele>
        <time>2010-06-27T10:09:29Z</time>
      </trkpt>
      <trkpt lat="45.97194" lon="6.90644">
        <ele>1571.8928222656</ele>
        <time>2010-06-27T10:09:33Z</time>
      </trkpt>
      <trkpt lat="45.97185" lon="6.9064">
        <ele>1602.1743164062</ele>
        <time>2010-06-27T10:09:38Z</time>
      </trkpt>
      <trkpt lat="45.97183" lon="6.90637">
        <ele>1606.01953125</ele>
        <time>2010-06-27T10:09:42Z</time>
      </trkpt>
      <trkpt lat="45.97183" lon="6.90632">
        <ele>1594.4836425781</ele>
        <time>2010-06-27T10:09:49Z</time>
      </trkpt>
      <trkpt lat="45.97187" lon="6.9062">
        <ele>1548.3405761719</ele>
        <time>2010-06-27T10:10:03Z</time>
      </trkpt>
      <trkpt lat="45.97186" lon="6.90618">
        <ele>1542.0920410156</ele>
        <time>2010-06-27T10:10:07Z</time>
      </trkpt>
      <trkpt lat="45.97184" lon="6.90618">
        <ele>1538.2468261719</ele>
        <time>2010-06-27T10:10:15Z</time>
      </trkpt>
      <trkpt lat="45.97181" lon="6.90621">
        <ele>1537.7661132812</ele>
        <time>2010-06-27T10:10:21Z</time>
      </trkpt>
      <trkpt lat="45.97178" lon="6.90627">
        <ele>1537.7661132812</ele>
        <time>2010-06-27T10:10:28Z</time>
      </trkpt>
      <trkpt lat="45.97172" lon="6.90626">
        <ele>1536.32421875</ele>
        <time>2010-06-27T10:10:33Z</time>
      </trkpt>
      <trkpt lat="45.97165" lon="6.90624">
        <ele>1533.9208984375</ele>
        <time>2010-06-27T10:10:37Z</time>
      </trkpt>
      <trkpt lat="45.97159" lon="6.9063">
        <ele>1532.4790039062</ele>
        <time>2010-06-27T10:10:40Z</time>
      </trkpt>
      <trkpt lat="45.9715" lon="6.9063">
        <ele>1534.4016113281</ele>
        <time>2010-06-27T10:10:48Z</time>
      </trkpt>
      <trkpt lat="45.97147" lon="6.90626">
        <ele>1536.32421875</ele>
        <time>2010-06-27T10:10:53Z</time>
      </trkpt>
      <trkpt lat="45.97144" lon="6.90623">
        <ele>1537.7661132812</ele>
        <time>2010-06-27T10:10:57Z</time>
      </trkpt>
      <trkpt lat="45.9714" lon="6.90618">
        <ele>1537.7661132812</ele>
        <time>2010-06-27T10:11:03Z</time>
      </trkpt>
      <trkpt lat="45.97134" lon="6.90604">
        <ele>1543.0532226562</ele>
        <time>2010-06-27T10:11:18Z</time>
      </trkpt>
      <trkpt lat="45.97132" lon="6.90599">
        <ele>1542.5727539062</ele>
        <time>2010-06-27T10:11:22Z</time>
      </trkpt>
      <trkpt lat="45.97128" lon="6.90593">
        <ele>1542.0920410156</ele>
        <time>2010-06-27T10:11:27Z</time>
      </trkpt>
      <trkpt lat="45.97126" lon="6.9059">
        <ele>1543.5339355469</ele>
        <time>2010-06-27T10:11:32Z</time>
      </trkpt>
      <trkpt lat="45.97123" lon="6.90587">
        <ele>1540.1694335938</ele>
        <time>2010-06-27T10:11:38Z</time>
      </trkpt>
      <trkpt lat="45.97123" lon="6.90582">
        <ele>1540.1694335938</ele>
        <time>2010-06-27T10:11:42Z</time>
      </trkpt>
      <trkpt lat="45.97122" lon="6.90574">
        <ele>1541.1306152344</ele>
        <time>2010-06-27T10:11:48Z</time>
      </trkpt>
      <trkpt lat="45.97121" lon="6.90572">
        <ele>1541.611328125</ele>
        <time>2010-06-27T10:11:49Z</time>
      </trkpt>
      <trkpt lat="45.97117" lon="6.90566">
        <ele>1548.8212890625</ele>
        <time>2010-06-27T10:11:53Z</time>
      </trkpt>
      <trkpt lat="45.97109" lon="6.90558">
        <ele>1557.4731445312</ele>
        <time>2010-06-27T10:12:02Z</time>
      </trkpt>
      <trkpt lat="45.97108" lon="6.90554">
        <ele>1553.1472167969</ele>
        <time>2010-06-27T10:12:07Z</time>
      </trkpt>
      <trkpt lat="45.97103" lon="6.90547">
        <ele>1552.1857910156</ele>
        <time>2010-06-27T10:12:23Z</time>
      </trkpt>
      <trkpt lat="45.971" lon="6.90546">
        <ele>1553.6279296875</ele>
        <time>2010-06-27T10:12:27Z</time>
      </trkpt>
      <trkpt lat="45.97097" lon="6.90541">
        <ele>1553.1472167969</ele>
        <time>2010-06-27T10:12:31Z</time>
      </trkpt>
      <trkpt lat="45.97097" lon="6.90537">
        <ele>1550.2634277344</ele>
        <time>2010-06-27T10:12:33Z</time>
      </trkpt>
      <trkpt lat="45.97095" lon="6.90529">
        <ele>1542.0920410156</ele>
        <time>2010-06-27T10:12:38Z</time>
      </trkpt>
      <trkpt lat="45.97091" lon="6.90526">
        <ele>1544.0146484375</ele>
        <time>2010-06-27T10:12:44Z</time>
      </trkpt>
      <trkpt lat="45.97089" lon="6.90524">
        <ele>1547.8598632812</ele>
        <time>2010-06-27T10:12:48Z</time>
      </trkpt>
      <trkpt lat="45.97085" lon="6.9052">
        <ele>1549.7827148438</ele>
        <time>2010-06-27T10:12:53Z</time>
      </trkpt>
      <trkpt lat="45.97079" lon="6.90511">
        <ele>1550.7438964844</ele>
        <time>2010-06-27T10:13:01Z</time>
      </trkpt>
      <trkpt lat="45.97076" lon="6.90507">
        <ele>1553.1472167969</ele>
        <time>2010-06-27T10:13:05Z</time>
      </trkpt>
      <trkpt lat="45.97071" lon="6.90503">
        <ele>1558.9150390625</ele>
        <time>2010-06-27T10:13:09Z</time>
      </trkpt>
      <trkpt lat="45.97069" lon="6.90501">
        <ele>1564.2023925781</ele>
        <time>2010-06-27T10:13:12Z</time>
      </trkpt>
      <trkpt lat="45.97065" lon="6.90496">
        <ele>1572.8542480469</ele>
        <time>2010-06-27T10:13:17Z</time>
      </trkpt>
      <trkpt lat="45.97063" lon="6.90492">
        <ele>1576.21875</ele>
        <time>2010-06-27T10:13:19Z</time>
      </trkpt>
      <trkpt lat="45.97054" lon="6.90481">
        <ele>1576.21875</ele>
        <time>2010-06-27T10:13:26Z</time>
      </trkpt>
      <trkpt lat="45.97047" lon="6.90479">
        <ele>1574.7768554688</ele>
        <time>2010-06-27T10:13:31Z</time>
      </trkpt>
      <trkpt lat="45.97047" lon="6.90475">
        <ele>1572.8542480469</ele>
        <time>2010-06-27T10:13:36Z</time>
      </trkpt>
      <trkpt lat="45.97044" lon="6.90468">
        <ele>1573.8154296875</ele>
        <time>2010-06-27T10:13:45Z</time>
      </trkpt>
      <trkpt lat="45.97037" lon="6.90459">
        <ele>1567.5668945312</ele>
        <time>2010-06-27T10:13:51Z</time>
      </trkpt>
      <trkpt lat="45.9703" lon="6.90454">
        <ele>1563.7214355469</ele>
        <time>2010-06-27T10:13:55Z</time>
      </trkpt>
      <trkpt lat="45.97021" lon="6.90447">
        <ele>1560.8376464844</ele>
        <time>2010-06-27T10:14:00Z</time>
      </trkpt>
      <trkpt lat="45.97018" lon="6.90442">
        <ele>1561.318359375</ele>
        <time>2010-06-27T10:14:02Z</time>
      </trkpt>
      <trkpt lat="45.9701" lon="6.90427">
        <ele>1560.8376464844</ele>
        <time>2010-06-27T10:14:09Z</time>
      </trkpt>
      <trkpt lat="45.97006" lon="6.90424">
        <ele>1561.318359375</ele>
        <time>2010-06-27T10:14:12Z</time>
      </trkpt>
      <trkpt lat="45.97001" lon="6.90418">
        <ele>1563.7214355469</ele>
        <time>2010-06-27T10:14:17Z</time>
      </trkpt>
      <trkpt lat="45.96996" lon="6.9041">
        <ele>1563.7214355469</ele>
        <time>2010-06-27T10:14:23Z</time>
      </trkpt>
      <trkpt lat="45.96994" lon="6.90405">
        <ele>1565.1638183594</ele>
        <time>2010-06-27T10:14:27Z</time>
      </trkpt>
      <trkpt lat="45.96989" lon="6.90398">
        <ele>1574.2961425781</ele>
        <time>2010-06-27T10:14:32Z</time>
      </trkpt>
      <trkpt lat="45.96983" lon="6.9039">
        <ele>1584.3901367188</ele>
        <time>2010-06-27T10:14:37Z</time>
      </trkpt>
      <trkpt lat="45.96976" lon="6.90386">
        <ele>1580.0642089844</ele>
        <time>2010-06-27T10:14:44Z</time>
      </trkpt>
      <trkpt lat="45.96972" lon="6.90382">
        <ele>1574.7768554688</ele>
        <time>2010-06-27T10:14:50Z</time>
      </trkpt>
      <trkpt lat="45.9697" lon="6.90378">
        <ele>1572.3735351562</ele>
        <time>2010-06-27T10:14:54Z</time>
      </trkpt>
      <trkpt lat="45.96967" lon="6.90372">
        <ele>1568.5283203125</ele>
        <time>2010-06-27T10:14:58Z</time>
      </trkpt>
      <trkpt lat="45.96964" lon="6.90359">
        <ele>1563.2409667969</ele>
        <time>2010-06-27T10:15:04Z</time>
      </trkpt>
      <trkpt lat="45.96958" lon="6.90351">
        <ele>1564.6831054688</ele>
        <time>2010-06-27T10:15:11Z</time>
      </trkpt>
      <trkpt lat="45.9695" lon="6.90344">
        <ele>1570.931640625</ele>
        <time>2010-06-27T10:15:18Z</time>
      </trkpt>
      <trkpt lat="45.96947" lon="6.90338">
        <ele>1573.8154296875</ele>
        <time>2010-06-27T10:15:24Z</time>
      </trkpt>
      <trkpt lat="45.96944" lon="6.90335">
        <ele>1574.7768554688</ele>
        <time>2010-06-27T10:15:28Z</time>
      </trkpt>
      <trkpt lat="45.96939" lon="6.90329">
        <ele>1574.7768554688</ele>
        <time>2010-06-27T10:15:34Z</time>
      </trkpt>
      <trkpt lat="45.96936" lon="6.90325">
        <ele>1575.2573242188</ele>
        <time>2010-06-27T10:15:38Z</time>
      </trkpt>
      <trkpt lat="45.96929" lon="6.90318">
        <ele>1574.7768554688</ele>
        <time>2010-06-27T10:15:45Z</time>
      </trkpt>
      <trkpt lat="45.96923" lon="6.90312">
        <ele>1573.8154296875</ele>
        <time>2010-06-27T10:15:51Z</time>
      </trkpt>
      <trkpt lat="45.96918" lon="6.90307">
        <ele>1574.2961425781</ele>
        <time>2010-06-27T10:15:57Z</time>
      </trkpt>
      <trkpt lat="45.96913" lon="6.90298">
        <ele>1577.1801757812</ele>
        <time>2010-06-27T10:16:05Z</time>
      </trkpt>
      <trkpt lat="45.96912" lon="6.90297">
        <ele>1577.1801757812</ele>
        <time>2010-06-27T10:16:06Z</time>
      </trkpt>
      <trkpt lat="45.96907" lon="6.90293">
        <ele>1578.1413574219</ele>
        <time>2010-06-27T10:16:12Z</time>
      </trkpt>
      <trkpt lat="45.96903" lon="6.90288">
        <ele>1579.1025390625</ele>
        <time>2010-06-27T10:16:17Z</time>
      </trkpt>
      <trkpt lat="45.969" lon="6.90286">
        <ele>1577.6606445312</ele>
        <time>2010-06-27T10:16:20Z</time>
      </trkpt>
      <trkpt lat="45.96896" lon="6.90282">
        <ele>1579.1025390625</ele>
        <time>2010-06-27T10:16:24Z</time>
      </trkpt>
      <trkpt lat="45.96891" lon="6.90279">
        <ele>1580.544921875</ele>
        <time>2010-06-27T10:16:29Z</time>
      </trkpt>
      <trkpt lat="45.96884" lon="6.90275">
        <ele>1581.9868164062</ele>
        <time>2010-06-27T10:16:36Z</time>
      </trkpt>
      <trkpt lat="45.96881" lon="6.90271">
        <ele>1582.4675292969</ele>
        <time>2010-06-27T10:16:39Z</time>
      </trkpt>
      <trkpt lat="45.96878" lon="6.90267">
        <ele>1583.9094238281</ele>
        <time>2010-06-27T10:16:42Z</time>
      </trkpt>
      <trkpt lat="45.96873" lon="6.90263">
        <ele>1584.8708496094</ele>
        <time>2010-06-27T10:16:47Z</time>
      </trkpt>
      <trkpt lat="45.96864" lon="6.90256">
        <ele>1582.9479980469</ele>
        <time>2010-06-27T10:16:54Z</time>
      </trkpt>
      <trkpt lat="45.96859" lon="6.90248">
        <ele>1580.544921875</ele>
        <time>2010-06-27T10:16:58Z</time>
      </trkpt>
      <trkpt lat="45.96858" lon="6.90246">
        <ele>1580.0642089844</ele>
        <time>2010-06-27T10:16:59Z</time>
      </trkpt>
      <trkpt lat="45.96852" lon="6.90242">
        <ele>1580.0642089844</ele>
        <time>2010-06-27T10:17:03Z</time>
      </trkpt>
      <trkpt lat="45.96839" lon="6.90232">
        <ele>1581.5061035156</ele>
        <time>2010-06-27T10:17:09Z</time>
      </trkpt>
      <trkpt lat="45.9683" lon="6.90222">
        <ele>1581.0256347656</ele>
        <time>2010-06-27T10:17:15Z</time>
      </trkpt>
      <trkpt lat="45.96823" lon="6.90216">
        <ele>1583.4287109375</ele>
        <time>2010-06-27T10:17:20Z</time>
      </trkpt>
      <trkpt lat="45.9682" lon="6.90211">
        <ele>1584.8708496094</ele>
        <time>2010-06-27T10:17:24Z</time>
      </trkpt>
      <trkpt lat="45.96813" lon="6.90205">
        <ele>1590.6384277344</ele>
        <time>2010-06-27T10:17:30Z</time>
      </trkpt>
      <trkpt lat="45.96807" lon="6.90198">
        <ele>1589.6772460938</ele>
        <time>2010-06-27T10:17:33Z</time>
      </trkpt>
      <trkpt lat="45.96796" lon="6.90187">
        <ele>1590.1579589844</ele>
        <time>2010-06-27T10:17:39Z</time>
      </trkpt>
      <trkpt lat="45.96785" lon="6.90177">
        <ele>1591.119140625</ele>
        <time>2010-06-27T10:17:45Z</time>
      </trkpt>
      <trkpt lat="45.96784" lon="6.90174">
        <ele>1591.119140625</ele>
        <time>2010-06-27T10:17:46Z</time>
      </trkpt>
      <trkpt lat="45.96781" lon="6.90171">
        <ele>1591.119140625</ele>
        <time>2010-06-27T10:17:48Z</time>
      </trkpt>
      <trkpt lat="45.9677" lon="6.90164">
        <ele>1591.5998535156</ele>
        <time>2010-06-27T10:17:53Z</time>
      </trkpt>
      <trkpt lat="45.96767" lon="6.9016">
        <ele>1591.119140625</ele>
        <time>2010-06-27T10:17:55Z</time>
      </trkpt>
      <trkpt lat="45.96756" lon="6.90154">
        <ele>1589.1965332031</ele>
        <time>2010-06-27T10:18:00Z</time>
      </trkpt>
      <trkpt lat="45.96754" lon="6.90153">
        <ele>1588.2353515625</ele>
        <time>2010-06-27T10:18:01Z</time>
      </trkpt>
      <trkpt lat="45.96748" lon="6.90149">
        <ele>1583.4287109375</ele>
        <time>2010-06-27T10:18:05Z</time>
      </trkpt>
      <trkpt lat="45.96738" lon="6.90144">
        <ele>1579.5832519531</ele>
        <time>2010-06-27T10:18:10Z</time>
      </trkpt>
      <trkpt lat="45.96732" lon="6.90139">
        <ele>1577.1801757812</ele>
        <time>2010-06-27T10:18:14Z</time>
      </trkpt>
      <trkpt lat="45.96726" lon="6.90132">
        <ele>1576.21875</ele>
        <time>2010-06-27T10:18:19Z</time>
      </trkpt>
      <trkpt lat="45.9672" lon="6.90128">
        <ele>1575.7380371094</ele>
        <time>2010-06-27T10:18:25Z</time>
      </trkpt>
      <trkpt lat="45.96716" lon="6.90124">
        <ele>1578.1413574219</ele>
        <time>2010-06-27T10:18:29Z</time>
      </trkpt>
      <trkpt lat="45.96712" lon="6.90119">
        <ele>1576.21875</ele>
        <time>2010-06-27T10:18:34Z</time>
      </trkpt>
      <trkpt lat="45.96707" lon="6.90115">
        <ele>1578.6220703125</ele>
        <time>2010-06-27T10:18:39Z</time>
      </trkpt>
      <trkpt lat="45.96703" lon="6.90113">
        <ele>1579.1025390625</ele>
        <time>2010-06-27T10:18:43Z</time>
      </trkpt>
      <trkpt lat="45.96698" lon="6.9011">
        <ele>1580.0642089844</ele>
        <time>2010-06-27T10:18:48Z</time>
      </trkpt>
      <trkpt lat="45.96693" lon="6.90109">
        <ele>1582.4675292969</ele>
        <time>2010-06-27T10:18:52Z</time>
      </trkpt>
      <trkpt lat="45.96686" lon="6.90109">
        <ele>1582.4675292969</ele>
        <time>2010-06-27T10:18:57Z</time>
      </trkpt>
      <trkpt lat="45.96679" lon="6.90105">
        <ele>1583.9094238281</ele>
        <time>2010-06-27T10:19:00Z</time>
      </trkpt>
      <trkpt lat="45.96677" lon="6.90104">
        <ele>1584.8708496094</ele>
        <time>2010-06-27T10:19:01Z</time>
      </trkpt>
      <trkpt lat="45.96672" lon="6.90103">
        <ele>1587.2739257812</ele>
        <time>2010-06-27T10:19:04Z</time>
      </trkpt>
      <trkpt lat="45.96669" lon="6.901">
        <ele>1588.2353515625</ele>
        <time>2010-06-27T10:19:07Z</time>
      </trkpt>
      <trkpt lat="45.9666" lon="6.90099">
        <ele>1587.2739257812</ele>
        <time>2010-06-27T10:19:12Z</time>
      </trkpt>
      <trkpt lat="45.96659" lon="6.90097">
        <ele>1587.2739257812</ele>
        <time>2010-06-27T10:19:13Z</time>
      </trkpt>
      <trkpt lat="45.96648" lon="6.90087">
        <ele>1589.6772460938</ele>
        <time>2010-06-27T10:19:19Z</time>
      </trkpt>
      <trkpt lat="45.96642" lon="6.90084">
        <ele>1593.0417480469</ele>
        <time>2010-06-27T10:19:23Z</time>
      </trkpt>
      <trkpt lat="45.96636" lon="6.90079">
        <ele>1596.4067382812</ele>
        <time>2010-06-27T10:19:29Z</time>
      </trkpt>
      <trkpt lat="45.96634" lon="6.90076">
        <ele>1598.8098144531</ele>
        <time>2010-06-27T10:19:33Z</time>
      </trkpt>
      <trkpt lat="45.96635" lon="6.90048">
        <ele>1588.7160644531</ele>
        <time>2010-06-27T10:19:56Z</time>
      </trkpt>
      <trkpt lat="45.96632" lon="6.9004">
        <ele>1590.1579589844</ele>
        <time>2010-06-27T10:20:04Z</time>
      </trkpt>
      <trkpt lat="45.96629" lon="6.90032">
        <ele>1594.0031738281</ele>
        <time>2010-06-27T10:20:12Z</time>
      </trkpt>
      <trkpt lat="45.96638" lon="6.90031">
        <ele>1592.5612792969</ele>
        <time>2010-06-27T10:20:34Z</time>
      </trkpt>
      <trkpt lat="45.96635" lon="6.90024">
        <ele>1604.5776367188</ele>
        <time>2010-06-27T10:20:49Z</time>
      </trkpt>
      <trkpt lat="45.96633" lon="6.90022">
        <ele>1609.8647460938</ele>
        <time>2010-06-27T10:20:53Z</time>
      </trkpt>
      <trkpt lat="45.96632" lon="6.90019">
        <ele>1609.8647460938</ele>
        <time>2010-06-27T10:20:57Z</time>
      </trkpt>
      <trkpt lat="45.96632" lon="6.90014">
        <ele>1612.2683105469</ele>
        <time>2010-06-27T10:21:06Z</time>
      </trkpt>
      <trkpt lat="45.9663" lon="6.89998">
        <ele>1607.4616699219</ele>
        <time>2010-06-27T10:21:23Z</time>
      </trkpt>
      <trkpt lat="45.96629" lon="6.89992">
        <ele>1605.5390625</ele>
        <time>2010-06-27T10:21:28Z</time>
      </trkpt>
      <trkpt lat="45.96628" lon="6.89981">
        <ele>1603.6164550781</ele>
        <time>2010-06-27T10:21:36Z</time>
      </trkpt>
      <trkpt lat="45.96627" lon="6.89966">
        <ele>1604.5776367188</ele>
        <time>2010-06-27T10:21:50Z</time>
      </trkpt>
      <trkpt lat="45.96626" lon="6.8996">
        <ele>1607.4616699219</ele>
        <time>2010-06-27T10:21:54Z</time>
      </trkpt>
      <trkpt lat="45.96624" lon="6.89955">
        <ele>1609.8647460938</ele>
        <time>2010-06-27T10:21:59Z</time>
      </trkpt>
      <trkpt lat="45.96621" lon="6.89945">
        <ele>1609.3842773438</ele>
        <time>2010-06-27T10:22:07Z</time>
      </trkpt>
      <trkpt lat="45.96618" lon="6.89942">
        <ele>1607.4616699219</ele>
        <time>2010-06-27T10:22:10Z</time>
      </trkpt>
      <trkpt lat="45.96616" lon="6.89936">
        <ele>1606.9809570312</ele>
        <time>2010-06-27T10:22:17Z</time>
      </trkpt>
      <trkpt lat="45.96613" lon="6.89932">
        <ele>1609.8647460938</ele>
        <time>2010-06-27T10:22:24Z</time>
      </trkpt>
      <trkpt lat="45.96609" lon="6.89927">
        <ele>1612.2683105469</ele>
        <time>2010-06-27T10:22:31Z</time>
      </trkpt>
      <trkpt lat="45.96604" lon="6.89918">
        <ele>1619.4782714844</ele>
        <time>2010-06-27T10:22:39Z</time>
      </trkpt>
      <trkpt lat="45.96602" lon="6.8991">
        <ele>1619.4782714844</ele>
        <time>2010-06-27T10:22:46Z</time>
      </trkpt>
      <trkpt lat="45.96597" lon="6.89903">
        <ele>1622.3620605469</ele>
        <time>2010-06-27T10:22:53Z</time>
      </trkpt>
      <trkpt lat="45.96593" lon="6.89899">
        <ele>1626.2072753906</ele>
        <time>2010-06-27T10:22:58Z</time>
      </trkpt>
      <trkpt lat="45.96591" lon="6.89891">
        <ele>1625.7265625</ele>
        <time>2010-06-27T10:23:04Z</time>
      </trkpt>
      <trkpt lat="45.9659" lon="6.89886">
        <ele>1625.7265625</ele>
        <time>2010-06-27T10:23:08Z</time>
      </trkpt>
      <trkpt lat="45.96587" lon="6.89879">
        <ele>1627.1687011719</ele>
        <time>2010-06-27T10:23:14Z</time>
      </trkpt>
      <trkpt lat="45.96587" lon="6.89874">
        <ele>1627.1687011719</ele>
        <time>2010-06-27T10:23:19Z</time>
      </trkpt>
      <trkpt lat="45.96584" lon="6.89871">
        <ele>1630.052734375</ele>
        <time>2010-06-27T10:23:23Z</time>
      </trkpt>
      <trkpt lat="45.96582" lon="6.89868">
        <ele>1631.4946289062</ele>
        <time>2010-06-27T10:23:27Z</time>
      </trkpt>
      <trkpt lat="45.96578" lon="6.89865">
        <ele>1631.0141601562</ele>
        <time>2010-06-27T10:23:32Z</time>
      </trkpt>
      <trkpt lat="45.96576" lon="6.8986">
        <ele>1633.4172363281</ele>
        <time>2010-06-27T10:23:37Z</time>
      </trkpt>
      <trkpt lat="45.96575" lon="6.89857">
        <ele>1635.33984375</ele>
        <time>2010-06-27T10:23:41Z</time>
      </trkpt>
      <trkpt lat="45.96566" lon="6.89847">
        <ele>1641.5883789062</ele>
        <time>2010-06-27T10:23:54Z</time>
      </trkpt>
      <trkpt lat="45.96563" lon="6.89841">
        <ele>1643.9916992188</ele>
        <time>2010-06-27T10:24:01Z</time>
      </trkpt>
      <trkpt lat="45.96563" lon="6.89837">
        <ele>1644.953125</ele>
        <time>2010-06-27T10:24:06Z</time>
      </trkpt>
      <trkpt lat="45.96566" lon="6.89835">
        <ele>1646.3952636719</ele>
        <time>2010-06-27T10:24:09Z</time>
      </trkpt>
      <trkpt lat="45.96584" lon="6.89833">
        <ele>1651.2016601562</ele>
        <time>2010-06-27T10:24:37Z</time>
      </trkpt>
      <trkpt lat="45.96585" lon="6.89834">
        <ele>1659.3728027344</ele>
        <time>2010-06-27T10:24:50Z</time>
      </trkpt>
      <trkpt lat="45.96582" lon="6.89816">
        <ele>1662.7375488281</ele>
        <time>2010-06-27T10:25:09Z</time>
      </trkpt>
      <trkpt lat="45.96581" lon="6.89812">
        <ele>1662.7375488281</ele>
        <time>2010-06-27T10:25:13Z</time>
      </trkpt>
      <trkpt lat="45.96576" lon="6.89806">
        <ele>1662.7375488281</ele>
        <time>2010-06-27T10:25:19Z</time>
      </trkpt>
      <trkpt lat="45.96572" lon="6.89801">
        <ele>1658.4113769531</ele>
        <time>2010-06-27T10:25:25Z</time>
      </trkpt>
      <trkpt lat="45.96569" lon="6.89796">
        <ele>1655.5275878906</ele>
        <time>2010-06-27T10:25:31Z</time>
      </trkpt>
      <trkpt lat="45.96563" lon="6.89793">
        <ele>1655.5275878906</ele>
        <time>2010-06-27T10:25:37Z</time>
      </trkpt>
      <trkpt lat="45.96555" lon="6.89789">
        <ele>1662.2568359375</ele>
        <time>2010-06-27T10:25:47Z</time>
      </trkpt>
      <trkpt lat="45.96552" lon="6.89783">
        <ele>1666.1020507812</ele>
        <time>2010-06-27T10:25:53Z</time>
      </trkpt>
      <trkpt lat="45.96548" lon="6.89778">
        <ele>1665.1408691406</ele>
        <time>2010-06-27T10:25:58Z</time>
      </trkpt>
      <trkpt lat="45.96547" lon="6.89774">
        <ele>1666.5827636719</ele>
        <time>2010-06-27T10:26:02Z</time>
      </trkpt>
      <trkpt lat="45.96545" lon="6.89768">
        <ele>1665.6215820312</ele>
        <time>2010-06-27T10:26:08Z</time>
      </trkpt>
      <trkpt lat="45.96552" lon="6.89765">
        <ele>1663.6987304688</ele>
        <time>2010-06-27T10:26:20Z</time>
      </trkpt>
      <trkpt lat="45.96556" lon="6.89764">
        <ele>1663.6987304688</ele>
        <time>2010-06-27T10:26:25Z</time>
      </trkpt>
      <trkpt lat="45.96559" lon="6.89761">
        <ele>1665.6215820312</ele>
        <time>2010-06-27T10:26:32Z</time>
      </trkpt>
      <trkpt lat="45.96556" lon="6.89754">
        <ele>1668.9860839844</ele>
        <time>2010-06-27T10:26:40Z</time>
      </trkpt>
      <trkpt lat="45.96555" lon="6.89744">
        <ele>1667.0634765625</ele>
        <time>2010-06-27T10:26:49Z</time>
      </trkpt>
      <trkpt lat="45.96553" lon="6.89739">
        <ele>1667.5439453125</ele>
        <time>2010-06-27T10:26:56Z</time>
      </trkpt>
      <trkpt lat="45.96553" lon="6.89736">
        <ele>1668.9860839844</ele>
        <time>2010-06-27T10:27:02Z</time>
      </trkpt>
      <trkpt lat="45.96553" lon="6.8974">
        <ele>1673.3120117188</ele>
        <time>2010-06-27T10:27:08Z</time>
      </trkpt>
      <trkpt lat="45.96553" lon="6.89743">
        <ele>1675.234375</ele>
        <time>2010-06-27T10:27:10Z</time>
      </trkpt>
      <trkpt lat="45.96559" lon="6.89741">
        <ele>1673.7924804688</ele>
        <time>2010-06-27T10:27:14Z</time>
      </trkpt>
      <trkpt lat="45.96568" lon="6.89736">
        <ele>1672.3505859375</ele>
        <time>2010-06-27T10:27:19Z</time>
      </trkpt>
      <trkpt lat="45.96569" lon="6.89736">
        <ele>1672.3505859375</ele>
        <time>2010-06-27T10:27:20Z</time>
      </trkpt>
      <trkpt lat="45.96576" lon="6.89737">
        <ele>1669.947265625</ele>
        <time>2010-06-27T10:27:26Z</time>
      </trkpt>
      <trkpt lat="45.96584" lon="6.89737">
        <ele>1674.2731933594</ele>
        <time>2010-06-27T10:27:40Z</time>
      </trkpt>
      <trkpt lat="45.96589" lon="6.89738">
        <ele>1676.1960449219</ele>
        <time>2010-06-27T10:27:45Z</time>
      </trkpt>
      <trkpt lat="45.96593" lon="6.89739">
        <ele>1676.6767578125</ele>
        <time>2010-06-27T10:27:50Z</time>
      </trkpt>
      <trkpt lat="45.96599" lon="6.89733">
        <ele>1674.2731933594</ele>
        <time>2010-06-27T10:27:54Z</time>
      </trkpt>
      <trkpt lat="45.96609" lon="6.89735">
        <ele>1683.4057617188</ele>
        <time>2010-06-27T10:28:11Z</time>
      </trkpt>
      <trkpt lat="45.96612" lon="6.89736">
        <ele>1682.9250488281</ele>
        <time>2010-06-27T10:28:16Z</time>
      </trkpt>
      <trkpt lat="45.96611" lon="6.89729">
        <ele>1696.8642578125</ele>
        <time>2010-06-27T10:28:29Z</time>
      </trkpt>
      <trkpt lat="45.96611" lon="6.89737">
        <ele>1706.9580078125</ele>
        <time>2010-06-27T10:28:43Z</time>
      </trkpt>
      <trkpt lat="45.96615" lon="6.89735">
        <ele>1705.9965820312</ele>
        <time>2010-06-27T10:28:49Z</time>
      </trkpt>
      <trkpt lat="45.96623" lon="6.89739">
        <ele>1700.2290039062</ele>
        <time>2010-06-27T10:28:57Z</time>
      </trkpt>
      <trkpt lat="45.96623" lon="6.89734">
        <ele>1705.0354003906</ele>
        <time>2010-06-27T10:29:06Z</time>
      </trkpt>
      <trkpt lat="45.96621" lon="6.89729">
        <ele>1702.1513671875</ele>
        <time>2010-06-27T10:29:12Z</time>
      </trkpt>
      <trkpt lat="45.96623" lon="6.89724">
        <ele>1702.1513671875</ele>
        <time>2010-06-27T10:29:17Z</time>
      </trkpt>
      <trkpt lat="45.96626" lon="6.89716">
        <ele>1727.1459960938</ele>
        <time>2010-06-27T10:29:39Z</time>
      </trkpt>
      <trkpt lat="45.96626" lon="6.89709">
        <ele>1727.6264648438</ele>
        <time>2010-06-27T10:29:45Z</time>
      </trkpt>
      <trkpt lat="45.96628" lon="6.89693">
        <ele>1711.7648925781</ele>
        <time>2010-06-27T10:29:56Z</time>
      </trkpt>
      <trkpt lat="45.96628" lon="6.89691">
        <ele>1714.6486816406</ele>
        <time>2010-06-27T10:30:02Z</time>
      </trkpt>
      <trkpt lat="45.96617" lon="6.89684">
        <ele>1711.7648925781</ele>
        <time>2010-06-27T10:30:26Z</time>
      </trkpt>
      <trkpt lat="45.96617" lon="6.89681">
        <ele>1711.2841796875</ele>
        <time>2010-06-27T10:30:28Z</time>
      </trkpt>
      <trkpt lat="45.96616" lon="6.8967">
        <ele>1708.880859375</ele>
        <time>2010-06-27T10:30:34Z</time>
      </trkpt>
      <trkpt lat="45.96613" lon="6.89659">
        <ele>1706.4772949219</ele>
        <time>2010-06-27T10:30:40Z</time>
      </trkpt>
      <trkpt lat="45.96609" lon="6.89655">
        <ele>1710.3227539062</ele>
        <time>2010-06-27T10:30:44Z</time>
      </trkpt>
      <trkpt lat="45.96608" lon="6.89654">
        <ele>1711.7648925781</ele>
        <time>2010-06-27T10:30:45Z</time>
      </trkpt>
      <trkpt lat="45.966" lon="6.89644">
        <ele>1720.4165039062</ele>
        <time>2010-06-27T10:30:52Z</time>
      </trkpt>
      <trkpt lat="45.96595" lon="6.89639">
        <ele>1723.7810058594</ele>
        <time>2010-06-27T10:30:57Z</time>
      </trkpt>
      <trkpt lat="45.96592" lon="6.89626">
        <ele>1728.587890625</ele>
        <time>2010-06-27T10:31:03Z</time>
      </trkpt>
      <trkpt lat="45.96587" lon="6.89612">
        <ele>1724.2619628906</ele>
        <time>2010-06-27T10:31:12Z</time>
      </trkpt>
      <trkpt lat="45.96585" lon="6.89609">
        <ele>1723.3005371094</ele>
        <time>2010-06-27T10:31:14Z</time>
      </trkpt>
      <trkpt lat="45.96584" lon="6.89596">
        <ele>1719.9357910156</ele>
        <time>2010-06-27T10:31:22Z</time>
      </trkpt>
      <trkpt lat="45.96583" lon="6.89591">
        <ele>1718.4938964844</ele>
        <time>2010-06-27T10:31:26Z</time>
      </trkpt>
      <trkpt lat="45.96582" lon="6.89587">
        <ele>1718.0131835938</ele>
        <time>2010-06-27T10:31:29Z</time>
      </trkpt>
      <trkpt lat="45.96581" lon="6.89584">
        <ele>1718.0131835938</ele>
        <time>2010-06-27T10:31:31Z</time>
      </trkpt>
      <trkpt lat="45.96576" lon="6.89583">
        <ele>1719.4553222656</ele>
        <time>2010-06-27T10:31:35Z</time>
      </trkpt>
      <trkpt lat="45.96573" lon="6.89581">
        <ele>1719.9357910156</ele>
        <time>2010-06-27T10:31:39Z</time>
      </trkpt>
      <trkpt lat="45.96566" lon="6.89577">
        <ele>1721.3776855469</ele>
        <time>2010-06-27T10:31:46Z</time>
      </trkpt>
      <trkpt lat="45.96562" lon="6.89573">
        <ele>1722.3391113281</ele>
        <time>2010-06-27T10:31:50Z</time>
      </trkpt>
      <trkpt lat="45.96556" lon="6.89566">
        <ele>1723.3005371094</ele>
        <time>2010-06-27T10:31:57Z</time>
      </trkpt>
      <trkpt lat="45.96551" lon="6.89559">
        <ele>1723.3005371094</ele>
        <time>2010-06-27T10:32:03Z</time>
      </trkpt>
      <trkpt lat="45.96545" lon="6.89555">
        <ele>1724.2619628906</ele>
        <time>2010-06-27T10:32:09Z</time>
      </trkpt>
      <trkpt lat="45.96541" lon="6.89544">
        <ele>1725.2231445312</ele>
        <time>2010-06-27T10:32:17Z</time>
      </trkpt>
      <trkpt lat="45.96538" lon="6.89539">
        <ele>1728.1071777344</ele>
        <time>2010-06-27T10:32:24Z</time>
      </trkpt>
      <trkpt lat="45.96534" lon="6.89531">
        <ele>1730.5104980469</ele>
        <time>2010-06-27T10:32:32Z</time>
      </trkpt>
      <trkpt lat="45.96532" lon="6.89524">
        <ele>1731.4716796875</ele>
        <time>2010-06-27T10:32:39Z</time>
      </trkpt>
      <trkpt lat="45.96531" lon="6.89517">
        <ele>1732.4331054688</ele>
        <time>2010-06-27T10:32:45Z</time>
      </trkpt>
      <trkpt lat="45.96528" lon="6.8951">
        <ele>1732.9135742188</ele>
        <time>2010-06-27T10:32:51Z</time>
      </trkpt>
      <trkpt lat="45.96527" lon="6.89501">
        <ele>1732.4331054688</ele>
        <time>2010-06-27T10:32:59Z</time>
      </trkpt>
      <trkpt lat="45.96523" lon="6.89496">
        <ele>1733.3942871094</ele>
        <time>2010-06-27T10:33:05Z</time>
      </trkpt>
      <trkpt lat="45.96519" lon="6.89491">
        <ele>1735.3168945312</ele>
        <time>2010-06-27T10:33:11Z</time>
      </trkpt>
      <trkpt lat="45.96513" lon="6.89488">
        <ele>1737.2395019531</ele>
        <time>2010-06-27T10:33:17Z</time>
      </trkpt>
      <trkpt lat="45.96508" lon="6.89488">
        <ele>1738.2009277344</ele>
        <time>2010-06-27T10:33:23Z</time>
      </trkpt>
      <trkpt lat="45.96508" lon="6.89483">
        <ele>1737.7202148438</ele>
        <time>2010-06-27T10:33:29Z</time>
      </trkpt>
      <trkpt lat="45.96508" lon="6.8948">
        <ele>1737.7202148438</ele>
        <time>2010-06-27T10:33:32Z</time>
      </trkpt>
      <trkpt lat="45.96503" lon="6.89479">
        <ele>1738.681640625</ele>
        <time>2010-06-27T10:33:37Z</time>
      </trkpt>
      <trkpt lat="45.96499" lon="6.89473">
        <ele>1739.162109375</ele>
        <time>2010-06-27T10:33:44Z</time>
      </trkpt>
      <trkpt lat="45.96502" lon="6.89467">
        <ele>1741.0849609375</ele>
        <time>2010-06-27T10:33:50Z</time>
      </trkpt>
      <trkpt lat="45.96504" lon="6.89463">
        <ele>1741.5656738281</ele>
        <time>2010-06-27T10:33:56Z</time>
      </trkpt>
      <trkpt lat="45.96502" lon="6.89461">
        <ele>1744.9301757812</ele>
        <time>2010-06-27T10:34:01Z</time>
      </trkpt>
      <trkpt lat="45.96498" lon="6.89458">
        <ele>1746.3723144531</ele>
        <time>2010-06-27T10:34:06Z</time>
      </trkpt>
      <trkpt lat="45.96494" lon="6.89454">
        <ele>1746.8527832031</ele>
        <time>2010-06-27T10:34:13Z</time>
      </trkpt>
      <trkpt lat="45.96489" lon="6.89446">
        <ele>1748.775390625</ele>
        <time>2010-06-27T10:34:20Z</time>
      </trkpt>
      <trkpt lat="45.96488" lon="6.8944">
        <ele>1749.7368164062</ele>
        <time>2010-06-27T10:34:26Z</time>
      </trkpt>
      <trkpt lat="45.96486" lon="6.89436">
        <ele>1751.1787109375</ele>
        <time>2010-06-27T10:34:32Z</time>
      </trkpt>
      <trkpt lat="45.96484" lon="6.89433">
        <ele>1752.1398925781</ele>
        <time>2010-06-27T10:34:36Z</time>
      </trkpt>
      <trkpt lat="45.96483" lon="6.89426">
        <ele>1753.1013183594</ele>
        <time>2010-06-27T10:34:42Z</time>
      </trkpt>
      <trkpt lat="45.96481" lon="6.89422">
        <ele>1755.5046386719</ele>
        <time>2010-06-27T10:34:48Z</time>
      </trkpt>
      <trkpt lat="45.96479" lon="6.89418">
        <ele>1755.9851074219</ele>
        <time>2010-06-27T10:34:52Z</time>
      </trkpt>
      <trkpt lat="45.9648" lon="6.89414">
        <ele>1755.0239257812</ele>
        <time>2010-06-27T10:34:57Z</time>
      </trkpt>
      <trkpt lat="45.9648" lon="6.89409">
        <ele>1753.58203125</ele>
        <time>2010-06-27T10:35:01Z</time>
      </trkpt>
      <trkpt lat="45.96478" lon="6.89401">
        <ele>1754.5432128906</ele>
        <time>2010-06-27T10:35:08Z</time>
      </trkpt>
      <trkpt lat="45.96475" lon="6.89395">
        <ele>1755.9851074219</ele>
        <time>2010-06-27T10:35:12Z</time>
      </trkpt>
      <trkpt lat="45.96472" lon="6.8939">
        <ele>1756.4660644531</ele>
        <time>2010-06-27T10:35:18Z</time>
      </trkpt>
      <trkpt lat="45.96466" lon="6.89382">
        <ele>1759.3500976562</ele>
        <time>2010-06-27T10:35:26Z</time>
      </trkpt>
      <trkpt lat="45.96458" lon="6.89371">
        <ele>1761.7534179688</ele>
        <time>2010-06-27T10:35:34Z</time>
      </trkpt>
      <trkpt lat="45.96453" lon="6.89358">
        <ele>1764.1564941406</ele>
        <time>2010-06-27T10:35:43Z</time>
      </trkpt>
      <trkpt lat="45.96452" lon="6.89356">
        <ele>1764.1564941406</ele>
        <time>2010-06-27T10:35:44Z</time>
      </trkpt>
      <trkpt lat="45.96448" lon="6.89344">
        <ele>1765.1179199219</ele>
        <time>2010-06-27T10:35:51Z</time>
      </trkpt>
      <trkpt lat="45.96447" lon="6.89331">
        <ele>1767.5209960938</ele>
        <time>2010-06-27T10:35:59Z</time>
      </trkpt>
      <trkpt lat="45.96446" lon="6.89321">
        <ele>1769.4438476562</ele>
        <time>2010-06-27T10:36:07Z</time>
      </trkpt>
      <trkpt lat="45.96444" lon="6.89312">
        <ele>1772.3278808594</ele>
        <time>2010-06-27T10:36:14Z</time>
      </trkpt>
      <trkpt lat="45.96443" lon="6.89303">
        <ele>1773.7697753906</ele>
        <time>2010-06-27T10:36:21Z</time>
      </trkpt>
      <trkpt lat="45.9644" lon="6.89291">
        <ele>1775.2116699219</ele>
        <time>2010-06-27T10:36:30Z</time>
      </trkpt>
      <trkpt lat="45.96439" lon="6.89284">
        <ele>1776.1730957031</ele>
        <time>2010-06-27T10:36:37Z</time>
      </trkpt>
      <trkpt lat="45.96437" lon="6.89275">
        <ele>1778.095703125</ele>
        <time>2010-06-27T10:36:44Z</time>
      </trkpt>
      <trkpt lat="45.96436" lon="6.89267">
        <ele>1780.0183105469</ele>
        <time>2010-06-27T10:36:50Z</time>
      </trkpt>
      <trkpt lat="45.96434" lon="6.89257">
        <ele>1781.4602050781</ele>
        <time>2010-06-27T10:36:58Z</time>
      </trkpt>
      <trkpt lat="45.96433" lon="6.89244">
        <ele>1782.4216308594</ele>
        <time>2010-06-27T10:37:08Z</time>
      </trkpt>
      <trkpt lat="45.96432" lon="6.89232">
        <ele>1783.8635253906</ele>
        <time>2010-06-27T10:37:18Z</time>
      </trkpt>
      <trkpt lat="45.9643" lon="6.89223">
        <ele>1784.8249511719</ele>
        <time>2010-06-27T10:37:26Z</time>
      </trkpt>
      <trkpt lat="45.96428" lon="6.89213">
        <ele>1786.7473144531</ele>
        <time>2010-06-27T10:37:34Z</time>
      </trkpt>
      <trkpt lat="45.96426" lon="6.89203">
        <ele>1788.1896972656</ele>
        <time>2010-06-27T10:37:41Z</time>
      </trkpt>
      <trkpt lat="45.96424" lon="6.89194">
        <ele>1789.6315917969</ele>
        <time>2010-06-27T10:37:49Z</time>
      </trkpt>
      <trkpt lat="45.96422" lon="6.89183">
        <ele>1791.0734863281</ele>
        <time>2010-06-27T10:37:58Z</time>
      </trkpt>
      <trkpt lat="45.96419" lon="6.89173">
        <ele>1791.5541992188</ele>
        <time>2010-06-27T10:38:06Z</time>
      </trkpt>
      <trkpt lat="45.96416" lon="6.89159">
        <ele>1793.4768066406</ele>
        <time>2010-06-27T10:38:17Z</time>
      </trkpt>
      <trkpt lat="45.96413" lon="6.89146">
        <ele>1795.3994140625</ele>
        <time>2010-06-27T10:38:27Z</time>
      </trkpt>
      <trkpt lat="45.96412" lon="6.89135">
        <ele>1796.8413085938</ele>
        <time>2010-06-27T10:38:36Z</time>
      </trkpt>
      <trkpt lat="45.96408" lon="6.89122">
        <ele>1798.283203125</ele>
        <time>2010-06-27T10:38:46Z</time>
      </trkpt>
      <trkpt lat="45.96405" lon="6.89109">
        <ele>1799.7253417969</ele>
        <time>2010-06-27T10:38:57Z</time>
      </trkpt>
      <trkpt lat="45.96403" lon="6.89098">
        <ele>1801.6479492188</ele>
        <time>2010-06-27T10:39:06Z</time>
      </trkpt>
      <trkpt lat="45.96402" lon="6.89087">
        <ele>1803.08984375</ele>
        <time>2010-06-27T10:39:15Z</time>
      </trkpt>
      <trkpt lat="45.96401" lon="6.89072">
        <ele>1805.4934082031</ele>
        <time>2010-06-27T10:39:27Z</time>
      </trkpt>
      <trkpt lat="45.96401" lon="6.89065">
        <ele>1806.9353027344</ele>
        <time>2010-06-27T10:39:33Z</time>
      </trkpt>
      <trkpt lat="45.964" lon="6.89056">
        <ele>1809.3386230469</ele>
        <time>2010-06-27T10:39:40Z</time>
      </trkpt>
      <trkpt lat="45.96395" lon="6.89047">
        <ele>1810.2998046875</ele>
        <time>2010-06-27T10:39:48Z</time>
      </trkpt>
      <trkpt lat="45.96392" lon="6.89042">
        <ele>1812.703125</ele>
        <time>2010-06-27T10:39:53Z</time>
      </trkpt>
      <trkpt lat="45.96391" lon="6.89041">
        <ele>1812.703125</ele>
        <time>2010-06-27T10:39:54Z</time>
      </trkpt>
      <trkpt lat="45.96385" lon="6.89031">
        <ele>1813.6643066406</ele>
        <time>2010-06-27T10:40:03Z</time>
      </trkpt>
      <trkpt lat="45.96381" lon="6.89023">
        <ele>1815.5871582031</ele>
        <time>2010-06-27T10:40:10Z</time>
      </trkpt>
      <trkpt lat="45.96379" lon="6.89017">
        <ele>1816.5483398438</ele>
        <time>2010-06-27T10:40:16Z</time>
      </trkpt>
      <trkpt lat="45.96377" lon="6.89013">
        <ele>1817.990234375</ele>
        <time>2010-06-27T10:40:21Z</time>
      </trkpt>
      <trkpt lat="45.96375" lon="6.89008">
        <ele>1818.9516601562</ele>
        <time>2010-06-27T10:40:27Z</time>
      </trkpt>
      <trkpt lat="45.96371" lon="6.89">
        <ele>1819.4323730469</ele>
        <time>2010-06-27T10:40:35Z</time>
      </trkpt>
      <trkpt lat="45.96368" lon="6.88991">
        <ele>1820.8745117188</ele>
        <time>2010-06-27T10:40:44Z</time>
      </trkpt>
      <trkpt lat="45.96365" lon="6.88983">
        <ele>1822.7971191406</ele>
        <time>2010-06-27T10:40:51Z</time>
      </trkpt>
      <trkpt lat="45.96364" lon="6.88977">
        <ele>1824.7197265625</ele>
        <time>2010-06-27T10:40:57Z</time>
      </trkpt>
      <trkpt lat="45.96362" lon="6.88971">
        <ele>1827.123046875</ele>
        <time>2010-06-27T10:41:04Z</time>
      </trkpt>
      <trkpt lat="45.96359" lon="6.88967">
        <ele>1829.0454101562</ele>
        <time>2010-06-27T10:41:11Z</time>
      </trkpt>
      <trkpt lat="45.96357" lon="6.8896">
        <ele>1830.0068359375</ele>
        <time>2010-06-27T10:41:17Z</time>
      </trkpt>
      <trkpt lat="45.96357" lon="6.88954">
        <ele>1831.4487304688</ele>
        <time>2010-06-27T10:41:24Z</time>
      </trkpt>
      <trkpt lat="45.96355" lon="6.8895">
        <ele>1832.890625</ele>
        <time>2010-06-27T10:41:30Z</time>
      </trkpt>
      <trkpt lat="45.96352" lon="6.88941">
        <ele>1834.3327636719</ele>
        <time>2010-06-27T10:41:39Z</time>
      </trkpt>
      <trkpt lat="45.96348" lon="6.88933">
        <ele>1836.2556152344</ele>
        <time>2010-06-27T10:41:48Z</time>
      </trkpt>
      <trkpt lat="45.96344" lon="6.88925">
        <ele>1838.1782226562</ele>
        <time>2010-06-27T10:41:57Z</time>
      </trkpt>
      <trkpt lat="45.96342" lon="6.88916">
        <ele>1839.6201171875</ele>
        <time>2010-06-27T10:42:07Z</time>
      </trkpt>
      <trkpt lat="45.96339" lon="6.88908">
        <ele>1840.5812988281</ele>
        <time>2010-06-27T10:42:15Z</time>
      </trkpt>
      <trkpt lat="45.96337" lon="6.88898">
        <ele>1841.0620117188</ele>
        <time>2010-06-27T10:42:24Z</time>
      </trkpt>
      <trkpt lat="45.96334" lon="6.88887">
        <ele>1842.5041503906</ele>
        <time>2010-06-27T10:42:34Z</time>
      </trkpt>
      <trkpt lat="45.96329" lon="6.88878">
        <ele>1844.4265136719</ele>
        <time>2010-06-27T10:42:43Z</time>
      </trkpt>
      <trkpt lat="45.96325" lon="6.88871">
        <ele>1845.3879394531</ele>
        <time>2010-06-27T10:42:51Z</time>
      </trkpt>
      <trkpt lat="45.96321" lon="6.88863">
        <ele>1846.8298339844</ele>
        <time>2010-06-27T10:42:59Z</time>
      </trkpt>
      <trkpt lat="45.96315" lon="6.88852">
        <ele>1848.2717285156</ele>
        <time>2010-06-27T10:43:10Z</time>
      </trkpt>
      <trkpt lat="45.96312" lon="6.88844">
        <ele>1848.7524414062</ele>
        <time>2010-06-27T10:43:17Z</time>
      </trkpt>
      <trkpt lat="45.96309" lon="6.88836">
        <ele>1849.7138671875</ele>
        <time>2010-06-27T10:43:23Z</time>
      </trkpt>
      <trkpt lat="45.96305" lon="6.88828">
        <ele>1851.6364746094</ele>
        <time>2010-06-27T10:43:30Z</time>
      </trkpt>
      <trkpt lat="45.96301" lon="6.88819">
        <ele>1853.0786132812</ele>
        <time>2010-06-27T10:43:37Z</time>
      </trkpt>
      <trkpt lat="45.96296" lon="6.88809">
        <ele>1855.4819335938</ele>
        <time>2010-06-27T10:43:46Z</time>
      </trkpt>
      <trkpt lat="45.96293" lon="6.88805">
        <ele>1855.9624023438</ele>
        <time>2010-06-27T10:43:49Z</time>
      </trkpt>
      <trkpt lat="45.9629" lon="6.88798">
        <ele>1855.9624023438</ele>
        <time>2010-06-27T10:43:54Z</time>
      </trkpt>
      <trkpt lat="45.96281" lon="6.88784">
        <ele>1857.8852539062</ele>
        <time>2010-06-27T10:44:06Z</time>
      </trkpt>
      <trkpt lat="45.96274" lon="6.88778">
        <ele>1858.8464355469</ele>
        <time>2010-06-27T10:44:15Z</time>
      </trkpt>
      <trkpt lat="45.96267" lon="6.88777">
        <ele>1858.8464355469</ele>
        <time>2010-06-27T10:44:23Z</time>
      </trkpt>
      <trkpt lat="45.9626" lon="6.8878">
        <ele>1860.2883300781</ele>
        <time>2010-06-27T10:44:28Z</time>
      </trkpt>
      <trkpt lat="45.96253" lon="6.88784">
        <ele>1860.2883300781</ele>
        <time>2010-06-27T10:44:34Z</time>
      </trkpt>
      <trkpt lat="45.96248" lon="6.88786">
        <ele>1860.7690429688</ele>
        <time>2010-06-27T10:44:38Z</time>
      </trkpt>
      <trkpt lat="45.96243" lon="6.88787">
        <ele>1860.7690429688</ele>
        <time>2010-06-27T10:44:43Z</time>
      </trkpt>
      <trkpt lat="45.96236" lon="6.88785">
        <ele>1861.73046875</ele>
        <time>2010-06-27T10:44:48Z</time>
      </trkpt>
      <trkpt lat="45.9623" lon="6.88785">
        <ele>1862.6916503906</ele>
        <time>2010-06-27T10:44:52Z</time>
      </trkpt>
      <trkpt lat="45.96222" lon="6.8878">
        <ele>1863.6528320312</ele>
        <time>2010-06-27T10:44:59Z</time>
      </trkpt>
      <trkpt lat="45.96221" lon="6.88779">
        <ele>1863.6528320312</ele>
        <time>2010-06-27T10:45:00Z</time>
      </trkpt>
      <trkpt lat="45.96214" lon="6.88772">
        <ele>1865.5756835938</ele>
        <time>2010-06-27T10:45:08Z</time>
      </trkpt>
      <trkpt lat="45.96213" lon="6.88772">
        <ele>1865.5756835938</ele>
        <time>2010-06-27T10:45:09Z</time>
      </trkpt>
      <trkpt lat="45.96209" lon="6.88769">
        <ele>1865.5756835938</ele>
        <time>2010-06-27T10:45:13Z</time>
      </trkpt>
      <trkpt lat="45.96204" lon="6.88763">
        <ele>1866.5368652344</ele>
        <time>2010-06-27T10:45:19Z</time>
      </trkpt>
      <trkpt lat="45.96202" lon="6.8876">
        <ele>1867.017578125</ele>
        <time>2010-06-27T10:45:22Z</time>
      </trkpt>
      <trkpt lat="45.962" lon="6.88756">
        <ele>1868.4597167969</ele>
        <time>2010-06-27T10:45:26Z</time>
      </trkpt>
      <trkpt lat="45.96196" lon="6.88749">
        <ele>1869.4211425781</ele>
        <time>2010-06-27T10:45:32Z</time>
      </trkpt>
      <trkpt lat="45.96194" lon="6.88741">
        <ele>1869.9016113281</ele>
        <time>2010-06-27T10:45:38Z</time>
      </trkpt>
      <trkpt lat="45.96194" lon="6.8874">
        <ele>1870.3823242188</ele>
        <time>2010-06-27T10:45:39Z</time>
      </trkpt>
      <trkpt lat="45.96192" lon="6.88726">
        <ele>1873.2663574219</ele>
        <time>2010-06-27T10:45:49Z</time>
      </trkpt>
      <trkpt lat="45.96191" lon="6.88717">
        <ele>1874.7082519531</ele>
        <time>2010-06-27T10:45:56Z</time>
      </trkpt>
      <trkpt lat="45.96189" lon="6.88707">
        <ele>1875.6694335938</ele>
        <time>2010-06-27T10:46:04Z</time>
      </trkpt>
      <trkpt lat="45.96189" lon="6.88701">
        <ele>1875.6694335938</ele>
        <time>2010-06-27T10:46:09Z</time>
      </trkpt>
      <trkpt lat="45.96189" lon="6.88688">
        <ele>1876.630859375</ele>
        <time>2010-06-27T10:46:18Z</time>
      </trkpt>
      <trkpt lat="45.96189" lon="6.8868">
        <ele>1879.9953613281</ele>
        <time>2010-06-27T10:46:26Z</time>
      </trkpt>
      <trkpt lat="45.96189" lon="6.88671">
        <ele>1881.4372558594</ele>
        <time>2010-06-27T10:46:33Z</time>
      </trkpt>
      <trkpt lat="45.9619" lon="6.88659">
        <ele>1881.91796875</ele>
        <time>2010-06-27T10:46:43Z</time>
      </trkpt>
      <trkpt lat="45.96192" lon="6.8865">
        <ele>1882.3986816406</ele>
        <time>2010-06-27T10:46:51Z</time>
      </trkpt>
      <trkpt lat="45.96195" lon="6.8864">
        <ele>1882.8791503906</ele>
        <time>2010-06-27T10:47:00Z</time>
      </trkpt>
      <trkpt lat="45.96197" lon="6.88632">
        <ele>1883.8405761719</ele>
        <time>2010-06-27T10:47:08Z</time>
      </trkpt>
      <trkpt lat="45.96194" lon="6.88623">
        <ele>1883.8405761719</ele>
        <time>2010-06-27T10:47:17Z</time>
      </trkpt>
      <trkpt lat="45.9619" lon="6.88623">
        <ele>1884.8022460938</ele>
        <time>2010-06-27T10:47:23Z</time>
      </trkpt>
      <trkpt lat="45.96183" lon="6.88626">
        <ele>1885.7634277344</ele>
        <time>2010-06-27T10:47:31Z</time>
      </trkpt>
      <trkpt lat="45.96177" lon="6.88633">
        <ele>1887.2053222656</ele>
        <time>2010-06-27T10:47:40Z</time>
      </trkpt>
      <trkpt lat="45.96175" lon="6.88635">
        <ele>1888.1667480469</ele>
        <time>2010-06-27T10:47:42Z</time>
      </trkpt>
      <trkpt lat="45.96171" lon="6.88642">
        <ele>1889.6086425781</ele>
        <time>2010-06-27T10:47:47Z</time>
      </trkpt>
      <trkpt lat="45.96167" lon="6.88646">
        <ele>1890.0893554688</ele>
        <time>2010-06-27T10:47:52Z</time>
      </trkpt>
      <trkpt lat="45.96159" lon="6.88655">
        <ele>1892.4926757812</ele>
        <time>2010-06-27T10:48:02Z</time>
      </trkpt>
      <trkpt lat="45.96156" lon="6.8866">
        <ele>1893.4538574219</ele>
        <time>2010-06-27T10:48:08Z</time>
      </trkpt>
      <trkpt lat="45.96152" lon="6.88668">
        <ele>1893.9345703125</ele>
        <time>2010-06-27T10:48:15Z</time>
      </trkpt>
      <trkpt lat="45.96143" lon="6.88675">
        <ele>1895.3764648438</ele>
        <time>2010-06-27T10:48:24Z</time>
      </trkpt>
      <trkpt lat="45.96133" lon="6.88679">
        <ele>1896.818359375</ele>
        <time>2010-06-27T10:48:33Z</time>
      </trkpt>
      <trkpt lat="45.96124" lon="6.88684">
        <ele>1897.7797851562</ele>
        <time>2010-06-27T10:48:42Z</time>
      </trkpt>
      <trkpt lat="45.96116" lon="6.8869">
        <ele>1898.2602539062</ele>
        <time>2010-06-27T10:48:50Z</time>
      </trkpt>
      <trkpt lat="45.96113" lon="6.88693">
        <ele>1898.7409667969</ele>
        <time>2010-06-27T10:48:53Z</time>
      </trkpt>
      <trkpt lat="45.96108" lon="6.88699">
        <ele>1898.2602539062</ele>
        <time>2010-06-27T10:48:58Z</time>
      </trkpt>
      <trkpt lat="45.96099" lon="6.88708">
        <ele>1896.337890625</ele>
        <time>2010-06-27T10:49:05Z</time>
      </trkpt>
      <trkpt lat="45.96098" lon="6.88709">
        <ele>1896.337890625</ele>
        <time>2010-06-27T10:49:06Z</time>
      </trkpt>
      <trkpt lat="45.96091" lon="6.88718">
        <ele>1895.3764648438</ele>
        <time>2010-06-27T10:49:10Z</time>
      </trkpt>
      <trkpt lat="45.96087" lon="6.88726">
        <ele>1893.9345703125</ele>
        <time>2010-06-27T10:49:15Z</time>
      </trkpt>
      <trkpt lat="45.96085" lon="6.88727">
        <ele>1893.9345703125</ele>
        <time>2010-06-27T10:49:16Z</time>
      </trkpt>
      <trkpt lat="45.9608" lon="6.88732">
        <ele>1892.0119628906</ele>
        <time>2010-06-27T10:49:24Z</time>
      </trkpt>
      <trkpt lat="45.96074" lon="6.88736">
        <ele>1890.0893554688</ele>
        <time>2010-06-27T10:49:29Z</time>
      </trkpt>
      <trkpt lat="45.96059" lon="6.8874">
        <ele>1885.7634277344</ele>
        <time>2010-06-27T10:49:35Z</time>
      </trkpt>
      <trkpt lat="45.96045" lon="6.88744">
        <ele>1884.3215332031</ele>
        <time>2010-06-27T10:49:40Z</time>
      </trkpt>
      <trkpt lat="45.96033" lon="6.88754">
        <ele>1884.8022460938</ele>
        <time>2010-06-27T10:49:45Z</time>
      </trkpt>
      <trkpt lat="45.96025" lon="6.88759">
        <ele>1883.8405761719</ele>
        <time>2010-06-27T10:49:52Z</time>
      </trkpt>
      <trkpt lat="45.96022" lon="6.88762">
        <ele>1883.3598632812</ele>
        <time>2010-06-27T10:49:55Z</time>
      </trkpt>
      <trkpt lat="45.96016" lon="6.88761">
        <ele>1883.3598632812</ele>
        <time>2010-06-27T10:50:01Z</time>
      </trkpt>
      <trkpt lat="45.96011" lon="6.8876">
        <ele>1884.3215332031</ele>
        <time>2010-06-27T10:50:09Z</time>
      </trkpt>
      <trkpt lat="45.96006" lon="6.88758">
        <ele>1886.244140625</ele>
        <time>2010-06-27T10:50:16Z</time>
      </trkpt>
      <trkpt lat="45.96003" lon="6.88758">
        <ele>1888.6474609375</ele>
        <time>2010-06-27T10:50:22Z</time>
      </trkpt>
      <trkpt lat="45.96002" lon="6.88756">
        <ele>1889.6086425781</ele>
        <time>2010-06-27T10:50:25Z</time>
      </trkpt>
      <trkpt lat="45.95997" lon="6.88753">
        <ele>1890.0893554688</ele>
        <time>2010-06-27T10:50:31Z</time>
      </trkpt>
      <trkpt lat="45.95995" lon="6.88753">
        <ele>1889.1279296875</ele>
        <time>2010-06-27T10:50:40Z</time>
      </trkpt>
      <trkpt lat="45.95994" lon="6.88753">
        <ele>1888.1667480469</ele>
        <time>2010-06-27T10:50:50Z</time>
      </trkpt>
      <trkpt lat="45.95994" lon="6.88753">
        <ele>1887.2053222656</ele>
        <time>2010-06-27T10:50:59Z</time>
      </trkpt>
      <trkpt lat="45.95994" lon="6.88752">
        <ele>1887.2053222656</ele>
        <time>2010-06-27T10:51:10Z</time>
      </trkpt>
      <trkpt lat="45.95993" lon="6.88751">
        <ele>1886.724609375</ele>
        <time>2010-06-27T10:51:18Z</time>
      </trkpt>
      <trkpt lat="45.95992" lon="6.88751">
        <ele>1886.724609375</ele>
        <time>2010-06-27T10:51:23Z</time>
      </trkpt>
      <trkpt lat="45.95992" lon="6.8875">
        <ele>1887.2053222656</ele>
        <time>2010-06-27T10:51:28Z</time>
      </trkpt>
      <trkpt lat="45.95992" lon="6.8875">
        <ele>1886.724609375</ele>
        <time>2010-06-27T10:51:36Z</time>
      </trkpt>
      <trkpt lat="45.95992" lon="6.88749">
        <ele>1886.244140625</ele>
        <time>2010-06-27T10:51:46Z</time>
      </trkpt>
      <trkpt lat="45.95993" lon="6.88749">
        <ele>1886.244140625</ele>
        <time>2010-06-27T10:51:52Z</time>
      </trkpt>
      <trkpt lat="45.95994" lon="6.88752">
        <ele>1885.7634277344</ele>
        <time>2010-06-27T10:52:00Z</time>
      </trkpt>
      <trkpt lat="45.95995" lon="6.88753">
        <ele>1886.724609375</ele>
        <time>2010-06-27T10:52:09Z</time>
      </trkpt>
      <trkpt lat="45.95995" lon="6.88753">
        <ele>1887.6860351562</ele>
        <time>2010-06-27T10:52:15Z</time>
      </trkpt>
      <trkpt lat="45.95996" lon="6.88752">
        <ele>1887.6860351562</ele>
        <time>2010-06-27T10:52:30Z</time>
      </trkpt>
      <trkpt lat="45.95995" lon="6.88753">
        <ele>1887.6860351562</ele>
        <time>2010-06-27T10:52:37Z</time>
      </trkpt>
      <trkpt lat="45.95995" lon="6.88753">
        <ele>1886.724609375</ele>
        <time>2010-06-27T10:52:49Z</time>
      </trkpt>
      <trkpt lat="45.95993" lon="6.88752">
        <ele>1886.244140625</ele>
        <time>2010-06-27T10:52:53Z</time>
      </trkpt>
      <trkpt lat="45.95991" lon="6.8875">
        <ele>1886.724609375</ele>
        <time>2010-06-27T10:52:59Z</time>
      </trkpt>
      <trkpt lat="45.9599" lon="6.88748">
        <ele>1886.244140625</ele>
        <time>2010-06-27T10:53:05Z</time>
      </trkpt>
      <trkpt lat="45.9599" lon="6.88747">
        <ele>1887.6860351562</ele>
        <time>2010-06-27T10:53:10Z</time>
      </trkpt>
      <trkpt lat="45.9599" lon="6.88746">
        <ele>1886.724609375</ele>
        <time>2010-06-27T10:53:19Z</time>
      </trkpt>
      <trkpt lat="45.95986" lon="6.88739">
        <ele>1886.244140625</ele>
        <time>2010-06-27T10:53:26Z</time>
      </trkpt>
      <trkpt lat="45.95987" lon="6.88732">
        <ele>1886.244140625</ele>
        <time>2010-06-27T10:53:30Z</time>
      </trkpt>
      <trkpt lat="45.95992" lon="6.88721">
        <ele>1888.6474609375</ele>
        <time>2010-06-27T10:53:39Z</time>
      </trkpt>
      <trkpt lat="45.95994" lon="6.88711">
        <ele>1888.6474609375</ele>
        <time>2010-06-27T10:53:44Z</time>
      </trkpt>
      <trkpt lat="45.95993" lon="6.88693">
        <ele>1888.6474609375</ele>
        <time>2010-06-27T10:53:51Z</time>
      </trkpt>
      <trkpt lat="45.95994" lon="6.88679">
        <ele>1889.1279296875</ele>
        <time>2010-06-27T10:53:56Z</time>
      </trkpt>
      <trkpt lat="45.95995" lon="6.88677">
        <ele>1889.1279296875</ele>
        <time>2010-06-27T10:53:57Z</time>
      </trkpt>
      <trkpt lat="45.95998" lon="6.88663">
        <ele>1890.5698242188</ele>
        <time>2010-06-27T10:54:02Z</time>
      </trkpt>
      <trkpt lat="45.96" lon="6.88649">
        <ele>1890.0893554688</ele>
        <time>2010-06-27T10:54:06Z</time>
      </trkpt>
      <trkpt lat="45.95995" lon="6.88627">
        <ele>1891.0505371094</ele>
        <time>2010-06-27T10:54:12Z</time>
      </trkpt>
      <trkpt lat="45.9599" lon="6.88613">
        <ele>1890.0893554688</ele>
        <time>2010-06-27T10:54:16Z</time>
      </trkpt>
      <trkpt lat="45.95979" lon="6.88603">
        <ele>1888.6474609375</ele>
        <time>2010-06-27T10:54:21Z</time>
      </trkpt>
      <trkpt lat="45.95972" lon="6.88598">
        <ele>1885.2827148438</ele>
        <time>2010-06-27T10:54:25Z</time>
      </trkpt>
      <trkpt lat="45.95969" lon="6.88596">
        <ele>1884.3215332031</ele>
        <time>2010-06-27T10:54:30Z</time>
      </trkpt>
      <trkpt lat="45.95965" lon="6.88587">
        <ele>1882.8791503906</ele>
        <time>2010-06-27T10:54:35Z</time>
      </trkpt>
      <trkpt lat="45.95963" lon="6.88575">
        <ele>1882.3986816406</ele>
        <time>2010-06-27T10:54:40Z</time>
      </trkpt>
      <trkpt lat="45.95961" lon="6.8857">
        <ele>1882.3986816406</ele>
        <time>2010-06-27T10:54:42Z</time>
      </trkpt>
      <trkpt lat="45.95956" lon="6.88562">
        <ele>1881.4372558594</ele>
        <time>2010-06-27T10:54:45Z</time>
      </trkpt>
      <trkpt lat="45.95951" lon="6.88546">
        <ele>1879.9953613281</ele>
        <time>2010-06-27T10:54:52Z</time>
      </trkpt>
      <trkpt lat="45.95949" lon="6.88544">
        <ele>1879.5146484375</ele>
        <time>2010-06-27T10:54:54Z</time>
      </trkpt>
      <trkpt lat="45.95946" lon="6.8854">
        <ele>1879.5146484375</ele>
        <time>2010-06-27T10:54:59Z</time>
      </trkpt>
      <trkpt lat="45.95942" lon="6.88537">
        <ele>1880.4760742188</ele>
        <time>2010-06-27T10:55:05Z</time>
      </trkpt>
      <trkpt lat="45.9594" lon="6.8853">
        <ele>1881.4372558594</ele>
        <time>2010-06-27T10:55:12Z</time>
      </trkpt>
      <trkpt lat="45.95938" lon="6.88523">
        <ele>1882.3986816406</ele>
        <time>2010-06-27T10:55:18Z</time>
      </trkpt>
      <trkpt lat="45.95937" lon="6.88519">
        <ele>1881.91796875</ele>
        <time>2010-06-27T10:55:20Z</time>
      </trkpt>
      <trkpt lat="45.9593" lon="6.88511">
        <ele>1880.4760742188</ele>
        <time>2010-06-27T10:55:24Z</time>
      </trkpt>
      <trkpt lat="45.95918" lon="6.88499">
        <ele>1878.5534667969</ele>
        <time>2010-06-27T10:55:30Z</time>
      </trkpt>
      <trkpt lat="45.95914" lon="6.88495">
        <ele>1878.0727539062</ele>
        <time>2010-06-27T10:55:32Z</time>
      </trkpt>
      <trkpt lat="45.95911" lon="6.88489">
        <ele>1878.5534667969</ele>
        <time>2010-06-27T10:55:34Z</time>
      </trkpt>
      <trkpt lat="45.95903" lon="6.88475">
        <ele>1878.5534667969</ele>
        <time>2010-06-27T10:55:40Z</time>
      </trkpt>
      <trkpt lat="45.95901" lon="6.88472">
        <ele>1879.0339355469</ele>
        <time>2010-06-27T10:55:43Z</time>
      </trkpt>
      <trkpt lat="45.95899" lon="6.88468">
        <ele>1879.0339355469</ele>
        <time>2010-06-27T10:55:46Z</time>
      </trkpt>
      <trkpt lat="45.95895" lon="6.88457">
        <ele>1879.0339355469</ele>
        <time>2010-06-27T10:55:52Z</time>
      </trkpt>
      <trkpt lat="45.95894" lon="6.88455">
        <ele>1879.5146484375</ele>
        <time>2010-06-27T10:55:53Z</time>
      </trkpt>
      <trkpt lat="45.95893" lon="6.88444">
        <ele>1880.4760742188</ele>
        <time>2010-06-27T10:55:59Z</time>
      </trkpt>
      <trkpt lat="45.95893" lon="6.88438">
        <ele>1879.5146484375</ele>
        <time>2010-06-27T10:56:03Z</time>
      </trkpt>
      <trkpt lat="45.95894" lon="6.8843">
        <ele>1879.0339355469</ele>
        <time>2010-06-27T10:56:06Z</time>
      </trkpt>
      <trkpt lat="45.9589" lon="6.88412">
        <ele>1879.0339355469</ele>
        <time>2010-06-27T10:56:12Z</time>
      </trkpt>
      <trkpt lat="45.95888" lon="6.88407">
        <ele>1878.5534667969</ele>
        <time>2010-06-27T10:56:15Z</time>
      </trkpt>
      <trkpt lat="45.95885" lon="6.88394">
        <ele>1878.0727539062</ele>
        <time>2010-06-27T10:56:23Z</time>
      </trkpt>
      <trkpt lat="45.95884" lon="6.88385">
        <ele>1878.0727539062</ele>
        <time>2010-06-27T10:56:28Z</time>
      </trkpt>
      <trkpt lat="45.9589" lon="6.88377">
        <ele>1878.5534667969</ele>
        <time>2010-06-27T10:56:33Z</time>
      </trkpt>
      <trkpt lat="45.95889" lon="6.88371">
        <ele>1879.0339355469</ele>
        <time>2010-06-27T10:56:37Z</time>
      </trkpt>
      <trkpt lat="45.95887" lon="6.88364">
        <ele>1878.5534667969</ele>
        <time>2010-06-27T10:56:43Z</time>
      </trkpt>
      <trkpt lat="45.95883" lon="6.88354">
        <ele>1879.5146484375</ele>
        <time>2010-06-27T10:56:50Z</time>
      </trkpt>
      <trkpt lat="45.95877" lon="6.88345">
        <ele>1880.9567871094</ele>
        <time>2010-06-27T10:56:55Z</time>
      </trkpt>
      <trkpt lat="45.95876" lon="6.88342">
        <ele>1881.4372558594</ele>
        <time>2010-06-27T10:56:57Z</time>
      </trkpt>
      <trkpt lat="45.95873" lon="6.88332">
        <ele>1881.91796875</ele>
        <time>2010-06-27T10:57:03Z</time>
      </trkpt>
      <trkpt lat="45.95872" lon="6.8833">
        <ele>1881.91796875</ele>
        <time>2010-06-27T10:57:05Z</time>
      </trkpt>
      <trkpt lat="45.95871" lon="6.88315">
        <ele>1881.91796875</ele>
        <time>2010-06-27T10:57:12Z</time>
      </trkpt>
      <trkpt lat="45.95867" lon="6.88304">
        <ele>1882.3986816406</ele>
        <time>2010-06-27T10:57:17Z</time>
      </trkpt>
      <trkpt lat="45.95862" lon="6.88294">
        <ele>1883.3598632812</ele>
        <time>2010-06-27T10:57:23Z</time>
      </trkpt>
      <trkpt lat="45.95858" lon="6.88285">
        <ele>1883.3598632812</ele>
        <time>2010-06-27T10:57:28Z</time>
      </trkpt>
      <trkpt lat="45.95858" lon="6.88283">
        <ele>1883.3598632812</ele>
        <time>2010-06-27T10:57:29Z</time>
      </trkpt>
      <trkpt lat="45.95855" lon="6.88274">
        <ele>1882.8791503906</ele>
        <time>2010-06-27T10:57:33Z</time>
      </trkpt>
      <trkpt lat="45.95852" lon="6.8827">
        <ele>1882.3986816406</ele>
        <time>2010-06-27T10:57:36Z</time>
      </trkpt>
      <trkpt lat="45.9585" lon="6.88263">
        <ele>1879.9953613281</ele>
        <time>2010-06-27T10:57:41Z</time>
      </trkpt>
      <trkpt lat="45.9585" lon="6.88257">
        <ele>1877.1115722656</ele>
        <time>2010-06-27T10:57:45Z</time>
      </trkpt>
      <trkpt lat="45.95847" lon="6.88242">
        <ele>1876.630859375</ele>
        <time>2010-06-27T10:57:51Z</time>
      </trkpt>
      <trkpt lat="45.95845" lon="6.88236">
        <ele>1876.630859375</ele>
        <time>2010-06-27T10:57:53Z</time>
      </trkpt>
      <trkpt lat="45.95839" lon="6.88219">
        <ele>1876.1501464844</ele>
        <time>2010-06-27T10:58:00Z</time>
      </trkpt>
      <trkpt lat="45.95836" lon="6.88211">
        <ele>1875.1887207031</ele>
        <time>2010-06-27T10:58:03Z</time>
      </trkpt>
      <trkpt lat="45.95835" lon="6.88202">
        <ele>1875.1887207031</ele>
        <time>2010-06-27T10:58:07Z</time>
      </trkpt>
      <trkpt lat="45.95834" lon="6.88186">
        <ele>1877.1115722656</ele>
        <time>2010-06-27T10:58:13Z</time>
      </trkpt>
      <trkpt lat="45.95832" lon="6.8817">
        <ele>1876.1501464844</ele>
        <time>2010-06-27T10:58:18Z</time>
      </trkpt>
      <trkpt lat="45.95834" lon="6.88158">
        <ele>1875.1887207031</ele>
        <time>2010-06-27T10:58:22Z</time>
      </trkpt>
      <trkpt lat="45.95831" lon="6.88142">
        <ele>1876.630859375</ele>
        <time>2010-06-27T10:58:27Z</time>
      </trkpt>
      <trkpt lat="45.95829" lon="6.88129">
        <ele>1877.5920410156</ele>
        <time>2010-06-27T10:58:31Z</time>
      </trkpt>
      <trkpt lat="45.95829" lon="6.88124">
        <ele>1878.0727539062</ele>
        <time>2010-06-27T10:58:33Z</time>
      </trkpt>
      <trkpt lat="45.95832" lon="6.88109">
        <ele>1879.0339355469</ele>
        <time>2010-06-27T10:58:38Z</time>
      </trkpt>
      <trkpt lat="45.95832" lon="6.88099">
        <ele>1878.5534667969</ele>
        <time>2010-06-27T10:58:43Z</time>
      </trkpt>
      <trkpt lat="45.95833" lon="6.88097">
        <ele>1878.5534667969</ele>
        <time>2010-06-27T10:58:44Z</time>
      </trkpt>
      <trkpt lat="45.95834" lon="6.88095">
        <ele>1877.5920410156</ele>
        <time>2010-06-27T10:58:51Z</time>
      </trkpt>
      <trkpt lat="45.95834" lon="6.88091">
        <ele>1876.630859375</ele>
        <time>2010-06-27T10:58:56Z</time>
      </trkpt>
      <trkpt lat="45.95839" lon="6.8809">
        <ele>1864.1335449219</ele>
        <time>2010-06-27T10:59:05Z</time>
      </trkpt>
      <trkpt lat="45.95839" lon="6.88088">
        <ele>1861.2497558594</ele>
        <time>2010-06-27T10:59:10Z</time>
      </trkpt>
      <trkpt lat="45.95836" lon="6.88082">
        <ele>1869.4211425781</ele>
        <time>2010-06-27T10:59:18Z</time>
      </trkpt>
      <trkpt lat="45.95838" lon="6.8808">
        <ele>1866.5368652344</ele>
        <time>2010-06-27T10:59:22Z</time>
      </trkpt>
      <trkpt lat="45.95839" lon="6.88077">
        <ele>1867.017578125</ele>
        <time>2010-06-27T10:59:27Z</time>
      </trkpt>
      <trkpt lat="45.95834" lon="6.88078">
        <ele>1864.1335449219</ele>
        <time>2010-06-27T10:59:32Z</time>
      </trkpt>
      <trkpt lat="45.95834" lon="6.88074">
        <ele>1862.6916503906</ele>
        <time>2010-06-27T10:59:36Z</time>
      </trkpt>
      <trkpt lat="45.95835" lon="6.88073">
        <ele>1862.2109375</ele>
        <time>2010-06-27T10:59:37Z</time>
      </trkpt>
      <trkpt lat="45.95838" lon="6.88072">
        <ele>1863.1723632812</ele>
        <time>2010-06-27T10:59:39Z</time>
      </trkpt>
      <trkpt lat="45.95844" lon="6.8806">
        <ele>1863.1723632812</ele>
        <time>2010-06-27T10:59:44Z</time>
      </trkpt>
      <trkpt lat="45.95845" lon="6.88058">
        <ele>1863.1723632812</ele>
        <time>2010-06-27T10:59:45Z</time>
      </trkpt>
      <trkpt lat="45.95847" lon="6.88053">
        <ele>1866.0561523438</ele>
        <time>2010-06-27T10:59:49Z</time>
      </trkpt>
      <trkpt lat="45.95846" lon="6.88047">
        <ele>1867.9787597656</ele>
        <time>2010-06-27T10:59:54Z</time>
      </trkpt>
      <trkpt lat="45.95849" lon="6.88038">
        <ele>1870.8630371094</ele>
        <time>2010-06-27T11:00:02Z</time>
      </trkpt>
      <trkpt lat="45.95852" lon="6.88033">
        <ele>1871.82421875</ele>
        <time>2010-06-27T11:00:07Z</time>
      </trkpt>
      <trkpt lat="45.95857" lon="6.88034">
        <ele>1871.3435058594</ele>
        <time>2010-06-27T11:00:13Z</time>
      </trkpt>
      <trkpt lat="45.95862" lon="6.8803">
        <ele>1869.4211425781</ele>
        <time>2010-06-27T11:00:20Z</time>
      </trkpt>
      <trkpt lat="45.95867" lon="6.88027">
        <ele>1867.017578125</ele>
        <time>2010-06-27T11:00:25Z</time>
      </trkpt>
      <trkpt lat="45.95868" lon="6.88025">
        <ele>1867.498046875</ele>
        <time>2010-06-27T11:00:27Z</time>
      </trkpt>
      <trkpt lat="45.95871" lon="6.8802">
        <ele>1869.4211425781</ele>
        <time>2010-06-27T11:00:33Z</time>
      </trkpt>
      <trkpt lat="45.95872" lon="6.88014">
        <ele>1870.8630371094</ele>
        <time>2010-06-27T11:00:39Z</time>
      </trkpt>
      <trkpt lat="45.95875" lon="6.88008">
        <ele>1869.4211425781</ele>
        <time>2010-06-27T11:00:44Z</time>
      </trkpt>
      <trkpt lat="45.95877" lon="6.88003">
        <ele>1867.9787597656</ele>
        <time>2010-06-27T11:00:49Z</time>
      </trkpt>
      <trkpt lat="45.95877" lon="6.87992">
        <ele>1872.3049316406</ele>
        <time>2010-06-27T11:00:58Z</time>
      </trkpt>
      <trkpt lat="45.9588" lon="6.87987">
        <ele>1874.7082519531</ele>
        <time>2010-06-27T11:01:03Z</time>
      </trkpt>
      <trkpt lat="45.95884" lon="6.87982">
        <ele>1874.7082519531</ele>
        <time>2010-06-27T11:01:08Z</time>
      </trkpt>
      <trkpt lat="45.95891" lon="6.87977">
        <ele>1874.2275390625</ele>
        <time>2010-06-27T11:01:14Z</time>
      </trkpt>
      <trkpt lat="45.95898" lon="6.87973">
        <ele>1875.6694335938</ele>
        <time>2010-06-27T11:01:20Z</time>
      </trkpt>
      <trkpt lat="45.95902" lon="6.87968">
        <ele>1879.9953613281</ele>
        <time>2010-06-27T11:01:26Z</time>
      </trkpt>
      <trkpt lat="45.95903" lon="6.87963">
        <ele>1880.4760742188</ele>
        <time>2010-06-27T11:01:30Z</time>
      </trkpt>
      <trkpt lat="45.95905" lon="6.87955">
        <ele>1881.91796875</ele>
        <time>2010-06-27T11:01:36Z</time>
      </trkpt>
      <trkpt lat="45.95906" lon="6.87951">
        <ele>1882.3986816406</ele>
        <time>2010-06-27T11:01:39Z</time>
      </trkpt>
      <trkpt lat="45.95909" lon="6.87946">
        <ele>1883.8405761719</ele>
        <time>2010-06-27T11:01:43Z</time>
      </trkpt>
      <trkpt lat="45.95911" lon="6.87937">
        <ele>1883.8405761719</ele>
        <time>2010-06-27T11:01:48Z</time>
      </trkpt>
      <trkpt lat="45.95914" lon="6.87927">
        <ele>1884.3215332031</ele>
        <time>2010-06-27T11:01:54Z</time>
      </trkpt>
      <trkpt lat="45.95918" lon="6.87912">
        <ele>1886.724609375</ele>
        <time>2010-06-27T11:02:03Z</time>
      </trkpt>
      <trkpt lat="45.95919" lon="6.87897">
        <ele>1889.1279296875</ele>
        <time>2010-06-27T11:02:11Z</time>
      </trkpt>
      <trkpt lat="45.95918" lon="6.87893">
        <ele>1889.6086425781</ele>
        <time>2010-06-27T11:02:14Z</time>
      </trkpt>
      <trkpt lat="45.95919" lon="6.87888">
        <ele>1889.6086425781</ele>
        <time>2010-06-27T11:02:19Z</time>
      </trkpt>
      <trkpt lat="45.95919" lon="6.87874">
        <ele>1889.6086425781</ele>
        <time>2010-06-27T11:02:28Z</time>
      </trkpt>
      <trkpt lat="45.95919" lon="6.87862">
        <ele>1888.6474609375</ele>
        <time>2010-06-27T11:02:36Z</time>
      </trkpt>
      <trkpt lat="45.95919" lon="6.87859">
        <ele>1888.1667480469</ele>
        <time>2010-06-27T11:02:38Z</time>
      </trkpt>
      <trkpt lat="45.95921" lon="6.87849">
        <ele>1887.6860351562</ele>
        <time>2010-06-27T11:02:45Z</time>
      </trkpt>
      <trkpt lat="45.95922" lon="6.8784">
        <ele>1887.2053222656</ele>
        <time>2010-06-27T11:02:50Z</time>
      </trkpt>
      <trkpt lat="45.95921" lon="6.87827">
        <ele>1886.724609375</ele>
        <time>2010-06-27T11:02:55Z</time>
      </trkpt>
      <trkpt lat="45.9592" lon="6.87818">
        <ele>1885.7634277344</ele>
        <time>2010-06-27T11:02:58Z</time>
      </trkpt>
      <trkpt lat="45.95913" lon="6.87807">
        <ele>1884.8022460938</ele>
        <time>2010-06-27T11:03:03Z</time>
      </trkpt>
      <trkpt lat="45.95897" lon="6.87791">
        <ele>1884.3215332031</ele>
        <time>2010-06-27T11:03:12Z</time>
      </trkpt>
      <trkpt lat="45.95893" lon="6.87778">
        <ele>1884.3215332031</ele>
        <time>2010-06-27T11:03:16Z</time>
      </trkpt>
      <trkpt lat="45.95891" lon="6.87774">
        <ele>1883.8405761719</ele>
        <time>2010-06-27T11:03:20Z</time>
      </trkpt>
      <trkpt lat="45.9589" lon="6.87775">
        <ele>1883.3598632812</ele>
        <time>2010-06-27T11:03:30Z</time>
      </trkpt>
      <trkpt lat="45.95882" lon="6.8777">
        <ele>1883.3598632812</ele>
        <time>2010-06-27T11:03:34Z</time>
      </trkpt>
      <trkpt lat="45.95872" lon="6.87763">
        <ele>1884.3215332031</ele>
        <time>2010-06-27T11:03:39Z</time>
      </trkpt>
      <trkpt lat="45.95862" lon="6.87757">
        <ele>1885.7634277344</ele>
        <time>2010-06-27T11:03:43Z</time>
      </trkpt>
      <trkpt lat="45.95853" lon="6.87747">
        <ele>1886.724609375</ele>
        <time>2010-06-27T11:03:48Z</time>
      </trkpt>
      <trkpt lat="45.95848" lon="6.87742">
        <ele>1888.1667480469</ele>
        <time>2010-06-27T11:03:51Z</time>
      </trkpt>
      <trkpt lat="45.9584" lon="6.87733">
        <ele>1889.1279296875</ele>
        <time>2010-06-27T11:03:56Z</time>
      </trkpt>
      <trkpt lat="45.9584" lon="6.87722">
        <ele>1890.5698242188</ele>
        <time>2010-06-27T11:04:00Z</time>
      </trkpt>
      <trkpt lat="45.95844" lon="6.87711">
        <ele>1892.0119628906</ele>
        <time>2010-06-27T11:04:04Z</time>
      </trkpt>
      <trkpt lat="45.95852" lon="6.87694">
        <ele>1892.0119628906</ele>
        <time>2010-06-27T11:04:10Z</time>
      </trkpt>
      <trkpt lat="45.95857" lon="6.87676">
        <ele>1892.4926757812</ele>
        <time>2010-06-27T11:04:16Z</time>
      </trkpt>
      <trkpt lat="45.9586" lon="6.87667">
        <ele>1892.9731445312</ele>
        <time>2010-06-27T11:04:21Z</time>
      </trkpt>
      <trkpt lat="45.95862" lon="6.87655">
        <ele>1893.4538574219</ele>
        <time>2010-06-27T11:04:28Z</time>
      </trkpt>
      <trkpt lat="45.95866" lon="6.87644">
        <ele>1892.4926757812</ele>
        <time>2010-06-27T11:04:34Z</time>
      </trkpt>
      <trkpt lat="45.95869" lon="6.87635">
        <ele>1891.0505371094</ele>
        <time>2010-06-27T11:04:39Z</time>
      </trkpt>
      <trkpt lat="45.95874" lon="6.87624">
        <ele>1890.0893554688</ele>
        <time>2010-06-27T11:04:45Z</time>
      </trkpt>
      <trkpt lat="45.95876" lon="6.87611">
        <ele>1890.5698242188</ele>
        <time>2010-06-27T11:04:52Z</time>
      </trkpt>
      <trkpt lat="45.95874" lon="6.87602">
        <ele>1890.5698242188</ele>
        <time>2010-06-27T11:04:57Z</time>
      </trkpt>
      <trkpt lat="45.95875" lon="6.87593">
        <ele>1892.0119628906</ele>
        <time>2010-06-27T11:05:02Z</time>
      </trkpt>
      <trkpt lat="45.95873" lon="6.87583">
        <ele>1892.9731445312</ele>
        <time>2010-06-27T11:05:08Z</time>
      </trkpt>
      <trkpt lat="45.95871" lon="6.87579">
        <ele>1893.9345703125</ele>
        <time>2010-06-27T11:05:11Z</time>
      </trkpt>
      <trkpt lat="45.95871" lon="6.8757">
        <ele>1893.4538574219</ele>
        <time>2010-06-27T11:05:16Z</time>
      </trkpt>
      <trkpt lat="45.95868" lon="6.87563">
        <ele>1893.9345703125</ele>
        <time>2010-06-27T11:05:20Z</time>
      </trkpt>
      <trkpt lat="45.95866" lon="6.87547">
        <ele>1893.9345703125</ele>
        <time>2010-06-27T11:05:28Z</time>
      </trkpt>
      <trkpt lat="45.9586" lon="6.87532">
        <ele>1893.9345703125</ele>
        <time>2010-06-27T11:05:33Z</time>
      </trkpt>
      <trkpt lat="45.95852" lon="6.87521">
        <ele>1893.9345703125</ele>
        <time>2010-06-27T11:05:38Z</time>
      </trkpt>
      <trkpt lat="45.95847" lon="6.8751">
        <ele>1892.0119628906</ele>
        <time>2010-06-27T11:05:42Z</time>
      </trkpt>
      <trkpt lat="45.95846" lon="6.87505">
        <ele>1891.0505371094</ele>
        <time>2010-06-27T11:05:47Z</time>
      </trkpt>
      <trkpt lat="45.9584" lon="6.87496">
        <ele>1892.9731445312</ele>
        <time>2010-06-27T11:05:55Z</time>
      </trkpt>
      <trkpt lat="45.95839" lon="6.87495">
        <ele>1893.4538574219</ele>
        <time>2010-06-27T11:05:56Z</time>
      </trkpt>
      <trkpt lat="45.95832" lon="6.87492">
        <ele>1893.4538574219</ele>
        <time>2010-06-27T11:06:02Z</time>
      </trkpt>
      <trkpt lat="45.95829" lon="6.87492">
        <ele>1892.4926757812</ele>
        <time>2010-06-27T11:06:06Z</time>
      </trkpt>
      <trkpt lat="45.95825" lon="6.87493">
        <ele>1890.0893554688</ele>
        <time>2010-06-27T11:06:12Z</time>
      </trkpt>
      <trkpt lat="45.95819" lon="6.87491">
        <ele>1890.0893554688</ele>
        <time>2010-06-27T11:06:17Z</time>
      </trkpt>
      <trkpt lat="45.95816" lon="6.87491">
        <ele>1889.1279296875</ele>
        <time>2010-06-27T11:06:20Z</time>
      </trkpt>
      <trkpt lat="45.95808" lon="6.87491">
        <ele>1886.724609375</ele>
        <time>2010-06-27T11:06:26Z</time>
      </trkpt>
      <trkpt lat="45.95802" lon="6.87489">
        <ele>1886.244140625</ele>
        <time>2010-06-27T11:06:29Z</time>
      </trkpt>
      <trkpt lat="45.95792" lon="6.87483">
        <ele>1886.724609375</ele>
        <time>2010-06-27T11:06:34Z</time>
      </trkpt>
      <trkpt lat="45.95783" lon="6.87478">
        <ele>1886.244140625</ele>
        <time>2010-06-27T11:06:38Z</time>
      </trkpt>
      <trkpt lat="45.95778" lon="6.87474">
        <ele>1885.7634277344</ele>
        <time>2010-06-27T11:06:41Z</time>
      </trkpt>
      <trkpt lat="45.95774" lon="6.8747">
        <ele>1885.7634277344</ele>
        <time>2010-06-27T11:06:43Z</time>
      </trkpt>
      <trkpt lat="45.95767" lon="6.87458">
        <ele>1886.244140625</ele>
        <time>2010-06-27T11:06:48Z</time>
      </trkpt>
      <trkpt lat="45.95758" lon="6.87446">
        <ele>1887.6860351562</ele>
        <time>2010-06-27T11:06:54Z</time>
      </trkpt>
      <trkpt lat="45.95755" lon="6.87444">
        <ele>1887.6860351562</ele>
        <time>2010-06-27T11:06:56Z</time>
      </trkpt>
      <trkpt lat="45.9575" lon="6.87438">
        <ele>1888.1667480469</ele>
        <time>2010-06-27T11:07:00Z</time>
      </trkpt>
      <trkpt lat="45.95746" lon="6.87437">
        <ele>1888.1667480469</ele>
        <time>2010-06-27T11:07:04Z</time>
      </trkpt>
      <trkpt lat="45.9574" lon="6.87434">
        <ele>1888.6474609375</ele>
        <time>2010-06-27T11:07:10Z</time>
      </trkpt>
      <trkpt lat="45.95739" lon="6.87433">
        <ele>1888.6474609375</ele>
        <time>2010-06-27T11:07:11Z</time>
      </trkpt>
      <trkpt lat="45.95736" lon="6.87432">
        <ele>1888.6474609375</ele>
        <time>2010-06-27T11:07:14Z</time>
      </trkpt>
      <trkpt lat="45.95728" lon="6.87429">
        <ele>1890.0893554688</ele>
        <time>2010-06-27T11:07:20Z</time>
      </trkpt>
      <trkpt lat="45.95724" lon="6.87428">
        <ele>1890.0893554688</ele>
        <time>2010-06-27T11:07:23Z</time>
      </trkpt>
      <trkpt lat="45.95717" lon="6.87422">
        <ele>1892.4926757812</ele>
        <time>2010-06-27T11:07:29Z</time>
      </trkpt>
      <trkpt lat="45.95716" lon="6.87421">
        <ele>1892.4926757812</ele>
        <time>2010-06-27T11:07:30Z</time>
      </trkpt>
      <trkpt lat="45.95712" lon="6.87418">
        <ele>1893.4538574219</ele>
        <time>2010-06-27T11:07:34Z</time>
      </trkpt>
      <trkpt lat="45.95704" lon="6.87407">
        <ele>1892.4926757812</ele>
        <time>2010-06-27T11:07:42Z</time>
      </trkpt>
      <trkpt lat="45.957" lon="6.87403">
        <ele>1892.0119628906</ele>
        <time>2010-06-27T11:07:47Z</time>
      </trkpt>
      <trkpt lat="45.95697" lon="6.874">
        <ele>1892.9731445312</ele>
        <time>2010-06-27T11:07:49Z</time>
      </trkpt>
      <trkpt lat="45.95692" lon="6.87392">
        <ele>1892.9731445312</ele>
        <time>2010-06-27T11:07:53Z</time>
      </trkpt>
      <trkpt lat="45.95687" lon="6.87384">
        <ele>1892.4926757812</ele>
        <time>2010-06-27T11:07:59Z</time>
      </trkpt>
      <trkpt lat="45.95683" lon="6.87375">
        <ele>1892.0119628906</ele>
        <time>2010-06-27T11:08:04Z</time>
      </trkpt>
      <trkpt lat="45.95675" lon="6.87369">
        <ele>1889.6086425781</ele>
        <time>2010-06-27T11:08:09Z</time>
      </trkpt>
      <trkpt lat="45.95664" lon="6.87367">
        <ele>1889.1279296875</ele>
        <time>2010-06-27T11:08:14Z</time>
      </trkpt>
      <trkpt lat="45.95658" lon="6.87371">
        <ele>1888.1667480469</ele>
        <time>2010-06-27T11:08:19Z</time>
      </trkpt>
      <trkpt lat="45.95651" lon="6.87371">
        <ele>1886.244140625</ele>
        <time>2010-06-27T11:08:24Z</time>
      </trkpt>
      <trkpt lat="45.95641" lon="6.87376">
        <ele>1885.2827148438</ele>
        <time>2010-06-27T11:08:28Z</time>
      </trkpt>
      <trkpt lat="45.95627" lon="6.87374">
        <ele>1885.7634277344</ele>
        <time>2010-06-27T11:08:34Z</time>
      </trkpt>
      <trkpt lat="45.95618" lon="6.87371">
        <ele>1886.244140625</ele>
        <time>2010-06-27T11:08:38Z</time>
      </trkpt>
      <trkpt lat="45.95612" lon="6.87371">
        <ele>1886.724609375</ele>
        <time>2010-06-27T11:08:41Z</time>
      </trkpt>
      <trkpt lat="45.95609" lon="6.87371">
        <ele>1887.2053222656</ele>
        <time>2010-06-27T11:08:42Z</time>
      </trkpt>
      <trkpt lat="45.956" lon="6.8737">
        <ele>1887.6860351562</ele>
        <time>2010-06-27T11:08:46Z</time>
      </trkpt>
      <trkpt lat="45.95588" lon="6.87369">
        <ele>1891.0505371094</ele>
        <time>2010-06-27T11:08:51Z</time>
      </trkpt>
      <trkpt lat="45.95571" lon="6.87362">
        <ele>1891.0505371094</ele>
        <time>2010-06-27T11:08:58Z</time>
      </trkpt>
      <trkpt lat="45.95557" lon="6.87359">
        <ele>1891.53125</ele>
        <time>2010-06-27T11:09:03Z</time>
      </trkpt>
      <trkpt lat="45.95552" lon="6.87356">
        <ele>1892.0119628906</ele>
        <time>2010-06-27T11:09:05Z</time>
      </trkpt>
      <trkpt lat="45.95543" lon="6.87348">
        <ele>1891.53125</ele>
        <time>2010-06-27T11:09:10Z</time>
      </trkpt>
      <trkpt lat="45.95536" lon="6.87346">
        <ele>1890.5698242188</ele>
        <time>2010-06-27T11:09:14Z</time>
      </trkpt>
      <trkpt lat="45.95528" lon="6.87348">
        <ele>1890.0893554688</ele>
        <time>2010-06-27T11:09:18Z</time>
      </trkpt>
      <trkpt lat="45.95519" lon="6.87341">
        <ele>1888.6474609375</ele>
        <time>2010-06-27T11:09:23Z</time>
      </trkpt>
      <trkpt lat="45.95512" lon="6.87335">
        <ele>1887.2053222656</ele>
        <time>2010-06-27T11:09:27Z</time>
      </trkpt>
      <trkpt lat="45.95496" lon="6.87331">
        <ele>1882.3986816406</ele>
        <time>2010-06-27T11:09:34Z</time>
      </trkpt>
      <trkpt lat="45.95492" lon="6.87329">
        <ele>1881.91796875</ele>
        <time>2010-06-27T11:09:36Z</time>
      </trkpt>
      <trkpt lat="45.95481" lon="6.87332">
        <ele>1883.3598632812</ele>
        <time>2010-06-27T11:09:41Z</time>
      </trkpt>
      <trkpt lat="45.95471" lon="6.87332">
        <ele>1882.3986816406</ele>
        <time>2010-06-27T11:09:46Z</time>
      </trkpt>
      <trkpt lat="45.95468" lon="6.87333">
        <ele>1883.3598632812</ele>
        <time>2010-06-27T11:09:47Z</time>
      </trkpt>
      <trkpt lat="45.95461" lon="6.8733">
        <ele>1882.3986816406</ele>
        <time>2010-06-27T11:09:52Z</time>
      </trkpt>
      <trkpt lat="45.9546" lon="6.87325">
        <ele>1882.3986816406</ele>
        <time>2010-06-27T11:09:54Z</time>
      </trkpt>
      <trkpt lat="45.95455" lon="6.87313">
        <ele>1881.91796875</ele>
        <time>2010-06-27T11:09:59Z</time>
      </trkpt>
      <trkpt lat="45.95453" lon="6.87308">
        <ele>1881.4372558594</ele>
        <time>2010-06-27T11:10:02Z</time>
      </trkpt>
      <trkpt lat="45.95447" lon="6.873">
        <ele>1879.5146484375</ele>
        <time>2010-06-27T11:10:08Z</time>
      </trkpt>
      <trkpt lat="45.95442" lon="6.8729">
        <ele>1878.5534667969</ele>
        <time>2010-06-27T11:10:12Z</time>
      </trkpt>
      <trkpt lat="45.95436" lon="6.87281">
        <ele>1878.0727539062</ele>
        <time>2010-06-27T11:10:16Z</time>
      </trkpt>
      <trkpt lat="45.95434" lon="6.87279">
        <ele>1877.5920410156</ele>
        <time>2010-06-27T11:10:18Z</time>
      </trkpt>
      <trkpt lat="45.9543" lon="6.87273">
        <ele>1878.0727539062</ele>
        <time>2010-06-27T11:10:24Z</time>
      </trkpt>
      <trkpt lat="45.95428" lon="6.87268">
        <ele>1877.1115722656</ele>
        <time>2010-06-27T11:10:27Z</time>
      </trkpt>
      <trkpt lat="45.9542" lon="6.87257">
        <ele>1874.7082519531</ele>
        <time>2010-06-27T11:10:33Z</time>
      </trkpt>
      <trkpt lat="45.95418" lon="6.87253">
        <ele>1874.2275390625</ele>
        <time>2010-06-27T11:10:36Z</time>
      </trkpt>
      <trkpt lat="45.95418" lon="6.87242">
        <ele>1872.7856445312</ele>
        <time>2010-06-27T11:10:41Z</time>
      </trkpt>
      <trkpt lat="45.95412" lon="6.87237">
        <ele>1872.3049316406</ele>
        <time>2010-06-27T11:10:44Z</time>
      </trkpt>
      <trkpt lat="45.95408" lon="6.87228">
        <ele>1871.3435058594</ele>
        <time>2010-06-27T11:10:49Z</time>
      </trkpt>
      <trkpt lat="45.95409" lon="6.87224">
        <ele>1869.4211425781</ele>
        <time>2010-06-27T11:10:51Z</time>
      </trkpt>
      <trkpt lat="45.95403" lon="6.87206">
        <ele>1868.4597167969</ele>
        <time>2010-06-27T11:10:57Z</time>
      </trkpt>
      <trkpt lat="45.95396" lon="6.87194">
        <ele>1869.4211425781</ele>
        <time>2010-06-27T11:11:03Z</time>
      </trkpt>
      <trkpt lat="45.95387" lon="6.87191">
        <ele>1868.9404296875</ele>
        <time>2010-06-27T11:11:07Z</time>
      </trkpt>
      <trkpt lat="45.95375" lon="6.87193">
        <ele>1867.498046875</ele>
        <time>2010-06-27T11:11:13Z</time>
      </trkpt>
      <trkpt lat="45.9537" lon="6.87195">
        <ele>1867.017578125</ele>
        <time>2010-06-27T11:11:17Z</time>
      </trkpt>
      <trkpt lat="45.95363" lon="6.87193">
        <ele>1868.9404296875</ele>
        <time>2010-06-27T11:11:24Z</time>
      </trkpt>
      <trkpt lat="45.9536" lon="6.8719">
        <ele>1870.3823242188</ele>
        <time>2010-06-27T11:11:28Z</time>
      </trkpt>
      <trkpt lat="45.95356" lon="6.87186">
        <ele>1872.7856445312</ele>
        <time>2010-06-27T11:11:34Z</time>
      </trkpt>
      <trkpt lat="45.9535" lon="6.87183">
        <ele>1872.7856445312</ele>
        <time>2010-06-27T11:11:40Z</time>
      </trkpt>
      <trkpt lat="45.95349" lon="6.87182">
        <ele>1872.7856445312</ele>
        <time>2010-06-27T11:11:41Z</time>
      </trkpt>
      <trkpt lat="45.95338" lon="6.87186">
        <ele>1872.3049316406</ele>
        <time>2010-06-27T11:11:46Z</time>
      </trkpt>
      <trkpt lat="45.95331" lon="6.87193">
        <ele>1871.82421875</ele>
        <time>2010-06-27T11:11:50Z</time>
      </trkpt>
      <trkpt lat="45.95325" lon="6.87197">
        <ele>1871.3435058594</ele>
        <time>2010-06-27T11:11:53Z</time>
      </trkpt>
      <trkpt lat="45.95322" lon="6.87191">
        <ele>1870.3823242188</ele>
        <time>2010-06-27T11:11:57Z</time>
      </trkpt>
      <trkpt lat="45.95319" lon="6.87183">
        <ele>1869.4211425781</ele>
        <time>2010-06-27T11:12:02Z</time>
      </trkpt>
      <trkpt lat="45.95313" lon="6.8717">
        <ele>1869.9016113281</ele>
        <time>2010-06-27T11:12:07Z</time>
      </trkpt>
      <trkpt lat="45.95309" lon="6.87168">
        <ele>1868.9404296875</ele>
        <time>2010-06-27T11:12:11Z</time>
      </trkpt>
      <trkpt lat="45.95307" lon="6.87167">
        <ele>1868.9404296875</ele>
        <time>2010-06-27T11:12:14Z</time>
      </trkpt>
      <trkpt lat="45.95304" lon="6.87166">
        <ele>1870.3823242188</ele>
        <time>2010-06-27T11:12:16Z</time>
      </trkpt>
      <trkpt lat="45.95299" lon="6.87157">
        <ele>1875.1887207031</ele>
        <time>2010-06-27T11:12:23Z</time>
      </trkpt>
      <trkpt lat="45.95295" lon="6.8715">
        <ele>1876.1501464844</ele>
        <time>2010-06-27T11:12:28Z</time>
      </trkpt>
      <trkpt lat="45.95298" lon="6.87136">
        <ele>1875.1887207031</ele>
        <time>2010-06-27T11:12:34Z</time>
      </trkpt>
      <trkpt lat="45.95298" lon="6.87132">
        <ele>1876.630859375</ele>
        <time>2010-06-27T11:12:36Z</time>
      </trkpt>
      <trkpt lat="45.95295" lon="6.87118">
        <ele>1879.5146484375</ele>
        <time>2010-06-27T11:12:42Z</time>
      </trkpt>
      <trkpt lat="45.95285" lon="6.87107">
        <ele>1879.0339355469</ele>
        <time>2010-06-27T11:12:46Z</time>
      </trkpt>
      <trkpt lat="45.95279" lon="6.87107">
        <ele>1879.5146484375</ele>
        <time>2010-06-27T11:12:49Z</time>
      </trkpt>
      <trkpt lat="45.95275" lon="6.87106">
        <ele>1879.5146484375</ele>
        <time>2010-06-27T11:12:54Z</time>
      </trkpt>
      <trkpt lat="45.95269" lon="6.87091">
        <ele>1879.5146484375</ele>
        <time>2010-06-27T11:13:00Z</time>
      </trkpt>
      <trkpt lat="45.95262" lon="6.87083">
        <ele>1877.1115722656</ele>
        <time>2010-06-27T11:13:04Z</time>
      </trkpt>
      <trkpt lat="45.95252" lon="6.87083">
        <ele>1873.7468261719</ele>
        <time>2010-06-27T11:13:09Z</time>
      </trkpt>
      <trkpt lat="45.95246" lon="6.87088">
        <ele>1872.7856445312</ele>
        <time>2010-06-27T11:13:13Z</time>
      </trkpt>
      <trkpt lat="45.95245" lon="6.87089">
        <ele>1871.3435058594</ele>
        <time>2010-06-27T11:13:16Z</time>
      </trkpt>
      <trkpt lat="45.95237" lon="6.87086">
        <ele>1870.3823242188</ele>
        <time>2010-06-27T11:13:21Z</time>
      </trkpt>
      <trkpt lat="45.95232" lon="6.87091">
        <ele>1869.4211425781</ele>
        <time>2010-06-27T11:13:24Z</time>
      </trkpt>
      <trkpt lat="45.95224" lon="6.87095">
        <ele>1870.3823242188</ele>
        <time>2010-06-27T11:13:28Z</time>
      </trkpt>
      <trkpt lat="45.95221" lon="6.8709">
        <ele>1869.9016113281</ele>
        <time>2010-06-27T11:13:30Z</time>
      </trkpt>
      <trkpt lat="45.95215" lon="6.87083">
        <ele>1870.3823242188</ele>
        <time>2010-06-27T11:13:34Z</time>
      </trkpt>
      <trkpt lat="45.95206" lon="6.87081">
        <ele>1870.8630371094</ele>
        <time>2010-06-27T11:13:39Z</time>
      </trkpt>
      <trkpt lat="45.95199" lon="6.87087">
        <ele>1867.017578125</ele>
        <time>2010-06-27T11:13:45Z</time>
      </trkpt>
      <trkpt lat="45.95189" lon="6.8709">
        <ele>1867.9787597656</ele>
        <time>2010-06-27T11:13:49Z</time>
      </trkpt>
      <trkpt lat="45.95188" lon="6.8709">
        <ele>1867.9787597656</ele>
        <time>2010-06-27T11:13:50Z</time>
      </trkpt>
      <trkpt lat="45.95181" lon="6.8709">
        <ele>1867.017578125</ele>
        <time>2010-06-27T11:13:55Z</time>
      </trkpt>
      <trkpt lat="45.95177" lon="6.87091">
        <ele>1867.017578125</ele>
        <time>2010-06-27T11:13:57Z</time>
      </trkpt>
      <trkpt lat="45.95169" lon="6.87092">
        <ele>1867.017578125</ele>
        <time>2010-06-27T11:14:03Z</time>
      </trkpt>
      <trkpt lat="45.95166" lon="6.87087">
        <ele>1868.4597167969</ele>
        <time>2010-06-27T11:14:09Z</time>
      </trkpt>
      <trkpt lat="45.95159" lon="6.87081">
        <ele>1869.9016113281</ele>
        <time>2010-06-27T11:14:16Z</time>
      </trkpt>
      <trkpt lat="45.95156" lon="6.8708">
        <ele>1870.3823242188</ele>
        <time>2010-06-27T11:14:19Z</time>
      </trkpt>
      <trkpt lat="45.95151" lon="6.87082">
        <ele>1871.82421875</ele>
        <time>2010-06-27T11:14:26Z</time>
      </trkpt>
      <trkpt lat="45.95147" lon="6.87086">
        <ele>1872.3049316406</ele>
        <time>2010-06-27T11:14:32Z</time>
      </trkpt>
      <trkpt lat="45.95142" lon="6.87089">
        <ele>1872.3049316406</ele>
        <time>2010-06-27T11:14:37Z</time>
      </trkpt>
      <trkpt lat="45.95139" lon="6.87092">
        <ele>1871.3435058594</ele>
        <time>2010-06-27T11:14:41Z</time>
      </trkpt>
      <trkpt lat="45.95139" lon="6.87089">
        <ele>1870.8630371094</ele>
        <time>2010-06-27T11:14:45Z</time>
      </trkpt>
      <trkpt lat="45.95138" lon="6.87078">
        <ele>1867.9787597656</ele>
        <time>2010-06-27T11:14:53Z</time>
      </trkpt>
      <trkpt lat="45.95139" lon="6.87077">
        <ele>1867.498046875</ele>
        <time>2010-06-27T11:14:54Z</time>
      </trkpt>
      <trkpt lat="45.9514" lon="6.87071">
        <ele>1865.5756835938</ele>
        <time>2010-06-27T11:14:58Z</time>
      </trkpt>
      <trkpt lat="45.9514" lon="6.87064">
        <ele>1862.6916503906</ele>
        <time>2010-06-27T11:15:02Z</time>
      </trkpt>
      <trkpt lat="45.95142" lon="6.87055">
        <ele>1860.7690429688</ele>
        <time>2010-06-27T11:15:07Z</time>
      </trkpt>
      <trkpt lat="45.95142" lon="6.87048">
        <ele>1858.3657226562</ele>
        <time>2010-06-27T11:15:12Z</time>
      </trkpt>
      <trkpt lat="45.9514" lon="6.8705">
        <ele>1858.3657226562</ele>
        <time>2010-06-27T11:15:14Z</time>
      </trkpt>
      <trkpt lat="45.95134" lon="6.87065">
        <ele>1856.923828125</ele>
        <time>2010-06-27T11:15:20Z</time>
      </trkpt>
      <trkpt lat="45.95132" lon="6.87061">
        <ele>1856.4431152344</ele>
        <time>2010-06-27T11:15:24Z</time>
      </trkpt>
      <trkpt lat="45.95133" lon="6.87046">
        <ele>1856.4431152344</ele>
        <time>2010-06-27T11:15:29Z</time>
      </trkpt>
      <trkpt lat="45.95134" lon="6.87036">
        <ele>1855.0012207031</ele>
        <time>2010-06-27T11:15:33Z</time>
      </trkpt>
      <trkpt lat="45.95137" lon="6.87017">
        <ele>1849.7138671875</ele>
        <time>2010-06-27T11:15:41Z</time>
      </trkpt>
      <trkpt lat="45.95137" lon="6.87014">
        <ele>1849.2331542969</ele>
        <time>2010-06-27T11:15:42Z</time>
      </trkpt>
      <trkpt lat="45.95135" lon="6.86999">
        <ele>1848.2717285156</ele>
        <time>2010-06-27T11:15:49Z</time>
      </trkpt>
      <trkpt lat="45.95133" lon="6.8699">
        <ele>1847.7912597656</ele>
        <time>2010-06-27T11:15:53Z</time>
      </trkpt>
      <trkpt lat="45.95131" lon="6.86984">
        <ele>1847.310546875</ele>
        <time>2010-06-27T11:15:56Z</time>
      </trkpt>
      <trkpt lat="45.95128" lon="6.86993">
        <ele>1845.8686523438</ele>
        <time>2010-06-27T11:16:01Z</time>
      </trkpt>
      <trkpt lat="45.95128" lon="6.86996">
        <ele>1844.4265136719</ele>
        <time>2010-06-27T11:16:03Z</time>
      </trkpt>
      <trkpt lat="45.95127" lon="6.86998">
        <ele>1843.4653320312</ele>
        <time>2010-06-27T11:16:05Z</time>
      </trkpt>
      <trkpt lat="45.95124" lon="6.8699">
        <ele>1841.0620117188</ele>
        <time>2010-06-27T11:16:10Z</time>
      </trkpt>
      <trkpt lat="45.95122" lon="6.86983">
        <ele>1840.5812988281</ele>
        <time>2010-06-27T11:16:13Z</time>
      </trkpt>
      <trkpt lat="45.95121" lon="6.86972">
        <ele>1837.6975097656</ele>
        <time>2010-06-27T11:16:17Z</time>
      </trkpt>
      <trkpt lat="45.95121" lon="6.8696">
        <ele>1835.2939453125</ele>
        <time>2010-06-27T11:16:22Z</time>
      </trkpt>
      <trkpt lat="45.95123" lon="6.86947">
        <ele>1834.3327636719</ele>
        <time>2010-06-27T11:16:28Z</time>
      </trkpt>
      <trkpt lat="45.95123" lon="6.86944">
        <ele>1834.8134765625</ele>
        <time>2010-06-27T11:16:30Z</time>
      </trkpt>
      <trkpt lat="45.95118" lon="6.86942">
        <ele>1836.2556152344</ele>
        <time>2010-06-27T11:16:34Z</time>
      </trkpt>
      <trkpt lat="45.95111" lon="6.8694">
        <ele>1835.2939453125</ele>
        <time>2010-06-27T11:16:39Z</time>
      </trkpt>
      <trkpt lat="45.95107" lon="6.86939">
        <ele>1836.2556152344</ele>
        <time>2010-06-27T11:16:43Z</time>
      </trkpt>
      <trkpt lat="45.95104" lon="6.86932">
        <ele>1836.7360839844</ele>
        <time>2010-06-27T11:16:48Z</time>
      </trkpt>
      <trkpt lat="45.95096" lon="6.86933">
        <ele>1836.2556152344</ele>
        <time>2010-06-27T11:16:53Z</time>
      </trkpt>
      <trkpt lat="45.95094" lon="6.86934">
        <ele>1836.2556152344</ele>
        <time>2010-06-27T11:16:54Z</time>
      </trkpt>
      <trkpt lat="45.95083" lon="6.86932">
        <ele>1837.6975097656</ele>
        <time>2010-06-27T11:17:00Z</time>
      </trkpt>
      <trkpt lat="45.9508" lon="6.86933">
        <ele>1837.6975097656</ele>
        <time>2010-06-27T11:17:02Z</time>
      </trkpt>
      <trkpt lat="45.95077" lon="6.86932">
        <ele>1837.6975097656</ele>
        <time>2010-06-27T11:17:04Z</time>
      </trkpt>
      <trkpt lat="45.95067" lon="6.86936">
        <ele>1834.3327636719</ele>
        <time>2010-06-27T11:17:10Z</time>
      </trkpt>
      <trkpt lat="45.95059" lon="6.8694">
        <ele>1832.41015625</ele>
        <time>2010-06-27T11:17:14Z</time>
      </trkpt>
      <trkpt lat="45.95057" lon="6.8694">
        <ele>1832.890625</ele>
        <time>2010-06-27T11:17:15Z</time>
      </trkpt>
      <trkpt lat="45.95045" lon="6.86939">
        <ele>1830.9682617188</ele>
        <time>2010-06-27T11:17:20Z</time>
      </trkpt>
      <trkpt lat="45.95041" lon="6.86936">
        <ele>1830.0068359375</ele>
        <time>2010-06-27T11:17:22Z</time>
      </trkpt>
      <trkpt lat="45.95039" lon="6.8693">
        <ele>1829.0454101562</ele>
        <time>2010-06-27T11:17:24Z</time>
      </trkpt>
      <trkpt lat="45.95031" lon="6.86917">
        <ele>1827.123046875</ele>
        <time>2010-06-27T11:17:31Z</time>
      </trkpt>
      <trkpt lat="45.95029" lon="6.86913">
        <ele>1826.1616210938</ele>
        <time>2010-06-27T11:17:33Z</time>
      </trkpt>
      <trkpt lat="45.95026" lon="6.86909">
        <ele>1825.2001953125</ele>
        <time>2010-06-27T11:17:37Z</time>
      </trkpt>
      <trkpt lat="45.95023" lon="6.86906">
        <ele>1825.6809082031</ele>
        <time>2010-06-27T11:17:39Z</time>
      </trkpt>
      <trkpt lat="45.95019" lon="6.86894">
        <ele>1824.7197265625</ele>
        <time>2010-06-27T11:17:43Z</time>
      </trkpt>
      <trkpt lat="45.95013" lon="6.86886">
        <ele>1824.7197265625</ele>
        <time>2010-06-27T11:17:47Z</time>
      </trkpt>
      <trkpt lat="45.95005" lon="6.86879">
        <ele>1824.7197265625</ele>
        <time>2010-06-27T11:17:52Z</time>
      </trkpt>
      <trkpt lat="45.94996" lon="6.86872">
        <ele>1824.7197265625</ele>
        <time>2010-06-27T11:17:57Z</time>
      </trkpt>
      <trkpt lat="45.94987" lon="6.86867">
        <ele>1826.1616210938</ele>
        <time>2010-06-27T11:18:01Z</time>
      </trkpt>
      <trkpt lat="45.94977" lon="6.86862">
        <ele>1829.5261230469</ele>
        <time>2010-06-27T11:18:06Z</time>
      </trkpt>
      <trkpt lat="45.94975" lon="6.86859">
        <ele>1830.4875488281</ele>
        <time>2010-06-27T11:18:07Z</time>
      </trkpt>
      <trkpt lat="45.9497" lon="6.86853">
        <ele>1832.41015625</ele>
        <time>2010-06-27T11:18:13Z</time>
      </trkpt>
      <trkpt lat="45.94965" lon="6.86848">
        <ele>1833.3713378906</ele>
        <time>2010-06-27T11:18:20Z</time>
      </trkpt>
      <trkpt lat="45.94959" lon="6.86843">
        <ele>1832.890625</ele>
        <time>2010-06-27T11:18:28Z</time>
      </trkpt>
      <trkpt lat="45.94955" lon="6.86837">
        <ele>1833.3713378906</ele>
        <time>2010-06-27T11:18:34Z</time>
      </trkpt>
      <trkpt lat="45.94951" lon="6.86835">
        <ele>1833.3713378906</ele>
        <time>2010-06-27T11:18:38Z</time>
      </trkpt>
      <trkpt lat="45.94948" lon="6.86832">
        <ele>1833.8520507812</ele>
        <time>2010-06-27T11:18:42Z</time>
      </trkpt>
      <trkpt lat="45.94942" lon="6.86826">
        <ele>1834.8134765625</ele>
        <time>2010-06-27T11:18:50Z</time>
      </trkpt>
      <trkpt lat="45.94934" lon="6.86821">
        <ele>1836.2556152344</ele>
        <time>2010-06-27T11:18:57Z</time>
      </trkpt>
      <trkpt lat="45.94926" lon="6.8682">
        <ele>1836.7360839844</ele>
        <time>2010-06-27T11:19:04Z</time>
      </trkpt>
      <trkpt lat="45.9492" lon="6.86813">
        <ele>1838.6589355469</ele>
        <time>2010-06-27T11:19:12Z</time>
      </trkpt>
      <trkpt lat="45.94917" lon="6.86806">
        <ele>1840.1008300781</ele>
        <time>2010-06-27T11:19:18Z</time>
      </trkpt>
      <trkpt lat="45.94913" lon="6.86803">
        <ele>1841.5427246094</ele>
        <time>2010-06-27T11:19:22Z</time>
      </trkpt>
      <trkpt lat="45.94906" lon="6.86798">
        <ele>1842.0234375</ele>
        <time>2010-06-27T11:19:28Z</time>
      </trkpt>
      <trkpt lat="45.94903" lon="6.86798">
        <ele>1843.4653320312</ele>
        <time>2010-06-27T11:19:31Z</time>
      </trkpt>
      <trkpt lat="45.94898" lon="6.86797">
        <ele>1844.9072265625</ele>
        <time>2010-06-27T11:19:36Z</time>
      </trkpt>
      <trkpt lat="45.94895" lon="6.86791">
        <ele>1847.310546875</ele>
        <time>2010-06-27T11:19:42Z</time>
      </trkpt>
      <trkpt lat="45.9489" lon="6.86788">
        <ele>1849.2331542969</ele>
        <time>2010-06-27T11:19:48Z</time>
      </trkpt>
      <trkpt lat="45.94887" lon="6.86786">
        <ele>1849.2331542969</ele>
        <time>2010-06-27T11:19:51Z</time>
      </trkpt>
      <trkpt lat="45.94884" lon="6.86781">
        <ele>1848.2717285156</ele>
        <time>2010-06-27T11:19:55Z</time>
      </trkpt>
      <trkpt lat="45.94879" lon="6.86774">
        <ele>1847.7912597656</ele>
        <time>2010-06-27T11:20:02Z</time>
      </trkpt>
      <trkpt lat="45.94874" lon="6.86772">
        <ele>1848.7524414062</ele>
        <time>2010-06-27T11:20:06Z</time>
      </trkpt>
      <trkpt lat="45.94872" lon="6.8677">
        <ele>1849.7138671875</ele>
        <time>2010-06-27T11:20:09Z</time>
      </trkpt>
      <trkpt lat="45.94868" lon="6.8676">
        <ele>1853.0786132812</ele>
        <time>2010-06-27T11:20:18Z</time>
      </trkpt>
      <trkpt lat="45.94862" lon="6.86747">
        <ele>1854.0400390625</ele>
        <time>2010-06-27T11:20:28Z</time>
      </trkpt>
      <trkpt lat="45.94857" lon="6.86735">
        <ele>1854.0400390625</ele>
        <time>2010-06-27T11:20:37Z</time>
      </trkpt>
      <trkpt lat="45.94853" lon="6.86727">
        <ele>1855.0012207031</ele>
        <time>2010-06-27T11:20:44Z</time>
      </trkpt>
      <trkpt lat="45.94849" lon="6.86722">
        <ele>1856.4431152344</ele>
        <time>2010-06-27T11:20:48Z</time>
      </trkpt>
      <trkpt lat="45.94844" lon="6.86719">
        <ele>1858.8464355469</ele>
        <time>2010-06-27T11:20:53Z</time>
      </trkpt>
      <trkpt lat="45.94843" lon="6.86713">
        <ele>1858.3657226562</ele>
        <time>2010-06-27T11:20:57Z</time>
      </trkpt>
      <trkpt lat="45.94842" lon="6.86702">
        <ele>1857.8852539062</ele>
        <time>2010-06-27T11:21:05Z</time>
      </trkpt>
      <trkpt lat="45.9484" lon="6.86695">
        <ele>1857.8852539062</ele>
        <time>2010-06-27T11:21:10Z</time>
      </trkpt>
      <trkpt lat="45.94835" lon="6.86682">
        <ele>1859.8076171875</ele>
        <time>2010-06-27T11:21:19Z</time>
      </trkpt>
      <trkpt lat="45.94829" lon="6.86673">
        <ele>1861.2497558594</ele>
        <time>2010-06-27T11:21:26Z</time>
      </trkpt>
      <trkpt lat="45.94828" lon="6.86673">
        <ele>1861.2497558594</ele>
        <time>2010-06-27T11:21:27Z</time>
      </trkpt>
      <trkpt lat="45.94822" lon="6.86669">
        <ele>1861.2497558594</ele>
        <time>2010-06-27T11:21:32Z</time>
      </trkpt>
      <trkpt lat="45.94816" lon="6.86669">
        <ele>1861.73046875</ele>
        <time>2010-06-27T11:21:36Z</time>
      </trkpt>
      <trkpt lat="45.94808" lon="6.86667">
        <ele>1862.2109375</ele>
        <time>2010-06-27T11:21:43Z</time>
      </trkpt>
      <trkpt lat="45.94802" lon="6.86665">
        <ele>1862.2109375</ele>
        <time>2010-06-27T11:21:49Z</time>
      </trkpt>
      <trkpt lat="45.94798" lon="6.86663">
        <ele>1862.2109375</ele>
        <time>2010-06-27T11:21:53Z</time>
      </trkpt>
      <trkpt lat="45.94794" lon="6.86664">
        <ele>1863.6528320312</ele>
        <time>2010-06-27T11:21:58Z</time>
      </trkpt>
      <trkpt lat="45.94789" lon="6.86661">
        <ele>1862.2109375</ele>
        <time>2010-06-27T11:22:03Z</time>
      </trkpt>
      <trkpt lat="45.94788" lon="6.86655">
        <ele>1862.2109375</ele>
        <time>2010-06-27T11:22:07Z</time>
      </trkpt>
      <trkpt lat="45.94778" lon="6.86655">
        <ele>1865.0949707031</ele>
        <time>2010-06-27T11:22:12Z</time>
      </trkpt>
      <trkpt lat="45.94776" lon="6.86654">
        <ele>1866.0561523438</ele>
        <time>2010-06-27T11:22:13Z</time>
      </trkpt>
      <trkpt lat="45.94763" lon="6.86644">
        <ele>1867.498046875</ele>
        <time>2010-06-27T11:22:20Z</time>
      </trkpt>
      <trkpt lat="45.94762" lon="6.86644">
        <ele>1867.498046875</ele>
        <time>2010-06-27T11:22:21Z</time>
      </trkpt>
      <trkpt lat="45.94759" lon="6.86645">
        <ele>1867.017578125</ele>
        <time>2010-06-27T11:22:26Z</time>
      </trkpt>
      <trkpt lat="45.94757" lon="6.86646">
        <ele>1866.5368652344</ele>
        <time>2010-06-27T11:22:28Z</time>
      </trkpt>
      <trkpt lat="45.9475" lon="6.86641">
        <ele>1867.498046875</ele>
        <time>2010-06-27T11:22:34Z</time>
      </trkpt>
      <trkpt lat="45.94746" lon="6.86639">
        <ele>1869.9016113281</ele>
        <time>2010-06-27T11:22:38Z</time>
      </trkpt>
      <trkpt lat="45.9474" lon="6.86635">
        <ele>1871.3435058594</ele>
        <time>2010-06-27T11:22:42Z</time>
      </trkpt>
      <trkpt lat="45.94732" lon="6.86636">
        <ele>1872.3049316406</ele>
        <time>2010-06-27T11:22:48Z</time>
      </trkpt>
      <trkpt lat="45.94729" lon="6.86635">
        <ele>1870.3823242188</ele>
        <time>2010-06-27T11:22:54Z</time>
      </trkpt>
      <trkpt lat="45.94723" lon="6.86634">
        <ele>1869.4211425781</ele>
        <time>2010-06-27T11:22:59Z</time>
      </trkpt>
      <trkpt lat="45.94722" lon="6.86633">
        <ele>1868.4597167969</ele>
        <time>2010-06-27T11:23:01Z</time>
      </trkpt>
      <trkpt lat="45.94715" lon="6.86626">
        <ele>1867.498046875</ele>
        <time>2010-06-27T11:23:07Z</time>
      </trkpt>
      <trkpt lat="45.94714" lon="6.86624">
        <ele>1867.017578125</ele>
        <time>2010-06-27T11:23:08Z</time>
      </trkpt>
      <trkpt lat="45.9471" lon="6.8662">
        <ele>1867.498046875</ele>
        <time>2010-06-27T11:23:12Z</time>
      </trkpt>
      <trkpt lat="45.94707" lon="6.86617">
        <ele>1868.9404296875</ele>
        <time>2010-06-27T11:23:15Z</time>
      </trkpt>
      <trkpt lat="45.94702" lon="6.86612">
        <ele>1872.3049316406</ele>
        <time>2010-06-27T11:23:21Z</time>
      </trkpt>
      <trkpt lat="45.94698" lon="6.86607">
        <ele>1877.1115722656</ele>
        <time>2010-06-27T11:23:25Z</time>
      </trkpt>
      <trkpt lat="45.94695" lon="6.866">
        <ele>1880.4760742188</ele>
        <time>2010-06-27T11:23:29Z</time>
      </trkpt>
      <trkpt lat="45.94694" lon="6.86593">
        <ele>1882.8791503906</ele>
        <time>2010-06-27T11:23:33Z</time>
      </trkpt>
      <trkpt lat="45.94695" lon="6.86588">
        <ele>1879.5146484375</ele>
        <time>2010-06-27T11:23:36Z</time>
      </trkpt>
      <trkpt lat="45.94695" lon="6.86582">
        <ele>1875.6694335938</ele>
        <time>2010-06-27T11:23:40Z</time>
      </trkpt>
      <trkpt lat="45.9469" lon="6.86576">
        <ele>1875.1887207031</ele>
        <time>2010-06-27T11:23:44Z</time>
      </trkpt>
      <trkpt lat="45.94692" lon="6.86569">
        <ele>1872.7856445312</ele>
        <time>2010-06-27T11:23:47Z</time>
      </trkpt>
      <trkpt lat="45.94692" lon="6.86559">
        <ele>1876.1501464844</ele>
        <time>2010-06-27T11:23:50Z</time>
      </trkpt>
      <trkpt lat="45.9469" lon="6.86547">
        <ele>1878.5534667969</ele>
        <time>2010-06-27T11:23:54Z</time>
      </trkpt>
      <trkpt lat="45.94687" lon="6.8654">
        <ele>1887.2053222656</ele>
        <time>2010-06-27T11:23:57Z</time>
      </trkpt>
      <trkpt lat="45.94677" lon="6.86528">
        <ele>1897.7797851562</ele>
        <time>2010-06-27T11:24:06Z</time>
      </trkpt>
      <trkpt lat="45.94675" lon="6.86522">
        <ele>1895.8571777344</ele>
        <time>2010-06-27T11:24:10Z</time>
      </trkpt>
      <trkpt lat="45.94669" lon="6.86516">
        <ele>1892.4926757812</ele>
        <time>2010-06-27T11:24:19Z</time>
      </trkpt>
      <trkpt lat="45.94667" lon="6.86512">
        <ele>1889.1279296875</ele>
        <time>2010-06-27T11:24:24Z</time>
      </trkpt>
      <trkpt lat="45.94664" lon="6.86504">
        <ele>1884.8022460938</ele>
        <time>2010-06-27T11:24:30Z</time>
      </trkpt>
      <trkpt lat="45.94661" lon="6.86499">
        <ele>1883.3598632812</ele>
        <time>2010-06-27T11:24:35Z</time>
      </trkpt>
      <trkpt lat="45.94659" lon="6.86494">
        <ele>1881.4372558594</ele>
        <time>2010-06-27T11:24:39Z</time>
      </trkpt>
      <trkpt lat="45.94655" lon="6.86489">
        <ele>1885.2827148438</ele>
        <time>2010-06-27T11:24:43Z</time>
      </trkpt>
      <trkpt lat="45.94654" lon="6.86484">
        <ele>1886.724609375</ele>
        <time>2010-06-27T11:24:47Z</time>
      </trkpt>
      <trkpt lat="45.94648" lon="6.8648">
        <ele>1888.6474609375</ele>
        <time>2010-06-27T11:24:51Z</time>
      </trkpt>
      <trkpt lat="45.94643" lon="6.86469">
        <ele>1886.724609375</ele>
        <time>2010-06-27T11:24:56Z</time>
      </trkpt>
      <trkpt lat="45.94636" lon="6.86461">
        <ele>1884.8022460938</ele>
        <time>2010-06-27T11:25:02Z</time>
      </trkpt>
      <trkpt lat="45.94633" lon="6.86459">
        <ele>1885.7634277344</ele>
        <time>2010-06-27T11:25:06Z</time>
      </trkpt>
      <trkpt lat="45.94633" lon="6.86447">
        <ele>1877.5920410156</ele>
        <time>2010-06-27T11:25:11Z</time>
      </trkpt>
      <trkpt lat="45.94632" lon="6.86445">
        <ele>1878.5534667969</ele>
        <time>2010-06-27T11:25:12Z</time>
      </trkpt>
      <trkpt lat="45.94629" lon="6.86437">
        <ele>1882.3986816406</ele>
        <time>2010-06-27T11:25:18Z</time>
      </trkpt>
      <trkpt lat="45.94624" lon="6.86432">
        <ele>1882.3986816406</ele>
        <time>2010-06-27T11:25:23Z</time>
      </trkpt>
      <trkpt lat="45.94618" lon="6.86431">
        <ele>1882.8791503906</ele>
        <time>2010-06-27T11:25:28Z</time>
      </trkpt>
      <trkpt lat="45.94614" lon="6.86431">
        <ele>1882.3986816406</ele>
        <time>2010-06-27T11:25:32Z</time>
      </trkpt>
      <trkpt lat="45.94607" lon="6.86425">
        <ele>1882.3986816406</ele>
        <time>2010-06-27T11:25:39Z</time>
      </trkpt>
      <trkpt lat="45.94603" lon="6.86421">
        <ele>1884.3215332031</ele>
        <time>2010-06-27T11:25:45Z</time>
      </trkpt>
      <trkpt lat="45.946" lon="6.86417">
        <ele>1890.0893554688</ele>
        <time>2010-06-27T11:25:51Z</time>
      </trkpt>
      <trkpt lat="45.94601" lon="6.86414">
        <ele>1890.0893554688</ele>
        <time>2010-06-27T11:25:53Z</time>
      </trkpt>
      <trkpt lat="45.94602" lon="6.86409">
        <ele>1888.1667480469</ele>
        <time>2010-06-27T11:25:56Z</time>
      </trkpt>
      <trkpt lat="45.94605" lon="6.86402">
        <ele>1890.0893554688</ele>
        <time>2010-06-27T11:26:01Z</time>
      </trkpt>
      <trkpt lat="45.94607" lon="6.86396">
        <ele>1890.5698242188</ele>
        <time>2010-06-27T11:26:06Z</time>
      </trkpt>
      <trkpt lat="45.94611" lon="6.86389">
        <ele>1891.0505371094</ele>
        <time>2010-06-27T11:26:12Z</time>
      </trkpt>
      <trkpt lat="45.94617" lon="6.86377">
        <ele>1894.4150390625</ele>
        <time>2010-06-27T11:26:20Z</time>
      </trkpt>
      <trkpt lat="45.94617" lon="6.86376">
        <ele>1895.3764648438</ele>
        <time>2010-06-27T11:26:21Z</time>
      </trkpt>
      <trkpt lat="45.94621" lon="6.86365">
        <ele>1897.7797851562</ele>
        <time>2010-06-27T11:26:28Z</time>
      </trkpt>
      <trkpt lat="45.94624" lon="6.86352">
        <ele>1898.7409667969</ele>
        <time>2010-06-27T11:26:36Z</time>
      </trkpt>
      <trkpt lat="45.94624" lon="6.86347">
        <ele>1899.2216796875</ele>
        <time>2010-06-27T11:26:39Z</time>
      </trkpt>
      <trkpt lat="45.94623" lon="6.86334">
        <ele>1899.7023925781</ele>
        <time>2010-06-27T11:26:48Z</time>
      </trkpt>
      <trkpt lat="45.94623" lon="6.86323">
        <ele>1900.6638183594</ele>
        <time>2010-06-27T11:26:57Z</time>
      </trkpt>
      <trkpt lat="45.94622" lon="6.86315">
        <ele>1901.6252441406</ele>
        <time>2010-06-27T11:27:04Z</time>
      </trkpt>
      <trkpt lat="45.94621" lon="6.8631">
        <ele>1903.5478515625</ele>
        <time>2010-06-27T11:27:10Z</time>
      </trkpt>
      <trkpt lat="45.94622" lon="6.86302">
        <ele>1904.5090332031</ele>
        <time>2010-06-27T11:27:16Z</time>
      </trkpt>
      <trkpt lat="45.94625" lon="6.86294">
        <ele>1906.9123535156</ele>
        <time>2010-06-27T11:27:23Z</time>
      </trkpt>
      <trkpt lat="45.94626" lon="6.86291">
        <ele>1908.8349609375</ele>
        <time>2010-06-27T11:27:25Z</time>
      </trkpt>
      <trkpt lat="45.94628" lon="6.86284">
        <ele>1912.1994628906</ele>
        <time>2010-06-27T11:27:31Z</time>
      </trkpt>
      <trkpt lat="45.94631" lon="6.86279">
        <ele>1913.6413574219</ele>
        <time>2010-06-27T11:27:36Z</time>
      </trkpt>
      <trkpt lat="45.94637" lon="6.86274">
        <ele>1907.3930664062</ele>
        <time>2010-06-27T11:27:42Z</time>
      </trkpt>
      <trkpt lat="45.9464" lon="6.86272">
        <ele>1905.9509277344</ele>
        <time>2010-06-27T11:27:48Z</time>
      </trkpt>
      <trkpt lat="45.94643" lon="6.86269">
        <ele>1908.3542480469</ele>
        <time>2010-06-27T11:27:53Z</time>
      </trkpt>
      <trkpt lat="45.94646" lon="6.86262">
        <ele>1907.8737792969</ele>
        <time>2010-06-27T11:27:57Z</time>
      </trkpt>
      <trkpt lat="45.94648" lon="6.86254">
        <ele>1908.3542480469</ele>
        <time>2010-06-27T11:28:01Z</time>
      </trkpt>
      <trkpt lat="45.94648" lon="6.86238">
        <ele>1908.3542480469</ele>
        <time>2010-06-27T11:28:06Z</time>
      </trkpt>
      <trkpt lat="45.94647" lon="6.8622">
        <ele>1908.3542480469</ele>
        <time>2010-06-27T11:28:12Z</time>
      </trkpt>
      <trkpt lat="45.94646" lon="6.86206">
        <ele>1908.3542480469</ele>
        <time>2010-06-27T11:28:16Z</time>
      </trkpt>
      <trkpt lat="45.94645" lon="6.86183">
        <ele>1905.9509277344</ele>
        <time>2010-06-27T11:28:22Z</time>
      </trkpt>
      <trkpt lat="45.94645" lon="6.86165">
        <ele>1903.0671386719</ele>
        <time>2010-06-27T11:28:27Z</time>
      </trkpt>
      <trkpt lat="45.94644" lon="6.86149">
        <ele>1902.1057128906</ele>
        <time>2010-06-27T11:28:31Z</time>
      </trkpt>
      <trkpt lat="45.94643" lon="6.8613">
        <ele>1898.7409667969</ele>
        <time>2010-06-27T11:28:36Z</time>
      </trkpt>
      <trkpt lat="45.94643" lon="6.86111">
        <ele>1893.4538574219</ele>
        <time>2010-06-27T11:28:41Z</time>
      </trkpt>
      <trkpt lat="45.94643" lon="6.86108">
        <ele>1892.4926757812</ele>
        <time>2010-06-27T11:28:42Z</time>
      </trkpt>
      <trkpt lat="45.94638" lon="6.8609">
        <ele>1889.6086425781</ele>
        <time>2010-06-27T11:28:47Z</time>
      </trkpt>
      <trkpt lat="45.94638" lon="6.86086">
        <ele>1889.1279296875</ele>
        <time>2010-06-27T11:28:48Z</time>
      </trkpt>
      <trkpt lat="45.94637" lon="6.86063">
        <ele>1883.3598632812</ele>
        <time>2010-06-27T11:28:54Z</time>
      </trkpt>
      <trkpt lat="45.94637" lon="6.86049">
        <ele>1879.5146484375</ele>
        <time>2010-06-27T11:28:58Z</time>
      </trkpt>
      <trkpt lat="45.94636" lon="6.86034">
        <ele>1875.1887207031</ele>
        <time>2010-06-27T11:29:02Z</time>
      </trkpt>
      <trkpt lat="45.94637" lon="6.86027">
        <ele>1873.7468261719</ele>
        <time>2010-06-27T11:29:04Z</time>
      </trkpt>
      <trkpt lat="45.94635" lon="6.86008">
        <ele>1870.8630371094</ele>
        <time>2010-06-27T11:29:09Z</time>
      </trkpt>
      <trkpt lat="45.94631" lon="6.8599">
        <ele>1867.017578125</ele>
        <time>2010-06-27T11:29:14Z</time>
      </trkpt>
      <trkpt lat="45.94626" lon="6.85976">
        <ele>1866.5368652344</ele>
        <time>2010-06-27T11:29:18Z</time>
      </trkpt>
      <trkpt lat="45.94619" lon="6.8596">
        <ele>1864.6142578125</ele>
        <time>2010-06-27T11:29:23Z</time>
      </trkpt>
      <trkpt lat="45.94613" lon="6.85951">
        <ele>1863.6528320312</ele>
        <time>2010-06-27T11:29:27Z</time>
      </trkpt>
      <trkpt lat="45.94606" lon="6.85941">
        <ele>1863.6528320312</ele>
        <time>2010-06-27T11:29:32Z</time>
      </trkpt>
      <trkpt lat="45.94597" lon="6.85931">
        <ele>1863.6528320312</ele>
        <time>2010-06-27T11:29:36Z</time>
      </trkpt>
      <trkpt lat="45.94586" lon="6.8592">
        <ele>1864.6142578125</ele>
        <time>2010-06-27T11:29:41Z</time>
      </trkpt>
      <trkpt lat="45.94575" lon="6.85912">
        <ele>1865.0949707031</ele>
        <time>2010-06-27T11:29:46Z</time>
      </trkpt>
      <trkpt lat="45.94563" lon="6.85903">
        <ele>1866.0561523438</ele>
        <time>2010-06-27T11:29:51Z</time>
      </trkpt>
      <trkpt lat="45.94549" lon="6.85892">
        <ele>1866.0561523438</ele>
        <time>2010-06-27T11:29:57Z</time>
      </trkpt>
      <trkpt lat="45.9454" lon="6.85881">
        <ele>1864.6142578125</ele>
        <time>2010-06-27T11:30:02Z</time>
      </trkpt>
      <trkpt lat="45.94532" lon="6.85871">
        <ele>1863.1723632812</ele>
        <time>2010-06-27T11:30:06Z</time>
      </trkpt>
      <trkpt lat="45.9452" lon="6.85858">
        <ele>1860.7690429688</ele>
        <time>2010-06-27T11:30:12Z</time>
      </trkpt>
      <trkpt lat="45.94516" lon="6.85854">
        <ele>1860.2883300781</ele>
        <time>2010-06-27T11:30:14Z</time>
      </trkpt>
      <trkpt lat="45.94507" lon="6.85842">
        <ele>1858.3657226562</ele>
        <time>2010-06-27T11:30:20Z</time>
      </trkpt>
      <trkpt lat="45.94498" lon="6.8583">
        <ele>1855.9624023438</ele>
        <time>2010-06-27T11:30:25Z</time>
      </trkpt>
      <trkpt lat="45.9449" lon="6.85823">
        <ele>1854.5205078125</ele>
        <time>2010-06-27T11:30:29Z</time>
      </trkpt>
      <trkpt lat="45.94478" lon="6.85822">
        <ele>1853.0786132812</ele>
        <time>2010-06-27T11:30:33Z</time>
      </trkpt>
      <trkpt lat="45.94467" lon="6.85815">
        <ele>1851.6364746094</ele>
        <time>2010-06-27T11:30:38Z</time>
      </trkpt>
      <trkpt lat="45.9446" lon="6.85808">
        <ele>1851.6364746094</ele>
        <time>2010-06-27T11:30:45Z</time>
      </trkpt>
      <trkpt lat="45.94452" lon="6.858">
        <ele>1852.5979003906</ele>
        <time>2010-06-27T11:30:52Z</time>
      </trkpt>
      <trkpt lat="45.94443" lon="6.85796">
        <ele>1855.4819335938</ele>
        <time>2010-06-27T11:30:58Z</time>
      </trkpt>
      <trkpt lat="45.94435" lon="6.85791">
        <ele>1856.923828125</ele>
        <time>2010-06-27T11:31:04Z</time>
      </trkpt>
      <trkpt lat="45.94427" lon="6.85786">
        <ele>1857.4045410156</ele>
        <time>2010-06-27T11:31:10Z</time>
      </trkpt>
      <trkpt lat="45.94419" lon="6.85782">
        <ele>1859.3271484375</ele>
        <time>2010-06-27T11:31:15Z</time>
      </trkpt>
      <trkpt lat="45.94409" lon="6.85775">
        <ele>1862.6916503906</ele>
        <time>2010-06-27T11:31:23Z</time>
      </trkpt>
      <trkpt lat="45.94405" lon="6.85769">
        <ele>1863.6528320312</ele>
        <time>2010-06-27T11:31:27Z</time>
      </trkpt>
      <trkpt lat="45.94403" lon="6.85756">
        <ele>1863.1723632812</ele>
        <time>2010-06-27T11:31:33Z</time>
      </trkpt>
      <trkpt lat="45.94402" lon="6.85748">
        <ele>1863.1723632812</ele>
        <time>2010-06-27T11:31:37Z</time>
      </trkpt>
      <trkpt lat="45.94402" lon="6.85746">
        <ele>1863.1723632812</ele>
        <time>2010-06-27T11:31:38Z</time>
      </trkpt>
      <trkpt lat="45.94403" lon="6.85739">
        <ele>1863.1723632812</ele>
        <time>2010-06-27T11:31:42Z</time>
      </trkpt>
      <trkpt lat="45.94402" lon="6.8573">
        <ele>1865.0949707031</ele>
        <time>2010-06-27T11:31:48Z</time>
      </trkpt>
      <trkpt lat="45.94402" lon="6.85723">
        <ele>1866.5368652344</ele>
        <time>2010-06-27T11:31:52Z</time>
      </trkpt>
      <trkpt lat="45.94403" lon="6.85713">
        <ele>1866.5368652344</ele>
        <time>2010-06-27T11:31:58Z</time>
      </trkpt>
      <trkpt lat="45.94404" lon="6.85702">
        <ele>1863.6528320312</ele>
        <time>2010-06-27T11:32:07Z</time>
      </trkpt>
      <trkpt lat="45.94405" lon="6.85691">
        <ele>1864.1335449219</ele>
        <time>2010-06-27T11:32:16Z</time>
      </trkpt>
      <trkpt lat="45.94405" lon="6.85678">
        <ele>1864.6142578125</ele>
        <time>2010-06-27T11:32:25Z</time>
      </trkpt>
      <trkpt lat="45.94406" lon="6.85665">
        <ele>1866.5368652344</ele>
        <time>2010-06-27T11:32:35Z</time>
      </trkpt>
      <trkpt lat="45.94404" lon="6.85657">
        <ele>1867.017578125</ele>
        <time>2010-06-27T11:32:41Z</time>
      </trkpt>
      <trkpt lat="45.94402" lon="6.85648">
        <ele>1868.9404296875</ele>
        <time>2010-06-27T11:32:49Z</time>
      </trkpt>
      <trkpt lat="45.94398" lon="6.85642">
        <ele>1871.3435058594</ele>
        <time>2010-06-27T11:32:54Z</time>
      </trkpt>
      <trkpt lat="45.94392" lon="6.85635">
        <ele>1874.7082519531</ele>
        <time>2010-06-27T11:33:03Z</time>
      </trkpt>
      <trkpt lat="45.94384" lon="6.85629">
        <ele>1877.1115722656</ele>
        <time>2010-06-27T11:33:12Z</time>
      </trkpt>
      <trkpt lat="45.94375" lon="6.85625">
        <ele>1880.4760742188</ele>
        <time>2010-06-27T11:33:20Z</time>
      </trkpt>
      <trkpt lat="45.94373" lon="6.85624">
        <ele>1879.9953613281</ele>
        <time>2010-06-27T11:33:22Z</time>
      </trkpt>
      <trkpt lat="45.94366" lon="6.85621">
        <ele>1880.9567871094</ele>
        <time>2010-06-27T11:33:27Z</time>
      </trkpt>
      <trkpt lat="45.94359" lon="6.8562">
        <ele>1880.9567871094</ele>
        <time>2010-06-27T11:33:33Z</time>
      </trkpt>
      <trkpt lat="45.9435" lon="6.85621">
        <ele>1880.9567871094</ele>
        <time>2010-06-27T11:33:41Z</time>
      </trkpt>
      <trkpt lat="45.94348" lon="6.85622">
        <ele>1881.4372558594</ele>
        <time>2010-06-27T11:33:43Z</time>
      </trkpt>
      <trkpt lat="45.94342" lon="6.85625">
        <ele>1881.4372558594</ele>
        <time>2010-06-27T11:33:49Z</time>
      </trkpt>
      <trkpt lat="45.94337" lon="6.85629">
        <ele>1882.8791503906</ele>
        <time>2010-06-27T11:33:54Z</time>
      </trkpt>
      <trkpt lat="45.94329" lon="6.85631">
        <ele>1884.3215332031</ele>
        <time>2010-06-27T11:34:00Z</time>
      </trkpt>
      <trkpt lat="45.94318" lon="6.8564">
        <ele>1884.3215332031</ele>
        <time>2010-06-27T11:34:11Z</time>
      </trkpt>
      <trkpt lat="45.9431" lon="6.85649">
        <ele>1888.6474609375</ele>
        <time>2010-06-27T11:34:19Z</time>
      </trkpt>
      <trkpt lat="45.94309" lon="6.85651">
        <ele>1889.1279296875</ele>
        <time>2010-06-27T11:34:21Z</time>
      </trkpt>
      <trkpt lat="45.94302" lon="6.8566">
        <ele>1890.0893554688</ele>
        <time>2010-06-27T11:34:29Z</time>
      </trkpt>
      <trkpt lat="45.94298" lon="6.85666">
        <ele>1888.6474609375</ele>
        <time>2010-06-27T11:34:34Z</time>
      </trkpt>
      <trkpt lat="45.94291" lon="6.85673">
        <ele>1885.7634277344</ele>
        <time>2010-06-27T11:34:41Z</time>
      </trkpt>
      <trkpt lat="45.94285" lon="6.85679">
        <ele>1885.2827148438</ele>
        <time>2010-06-27T11:34:46Z</time>
      </trkpt>
      <trkpt lat="45.94274" lon="6.85684">
        <ele>1885.7634277344</ele>
        <time>2010-06-27T11:34:54Z</time>
      </trkpt>
      <trkpt lat="45.94263" lon="6.8569">
        <ele>1887.2053222656</ele>
        <time>2010-06-27T11:35:02Z</time>
      </trkpt>
      <trkpt lat="45.94257" lon="6.85694">
        <ele>1888.1667480469</ele>
        <time>2010-06-27T11:35:07Z</time>
      </trkpt>
      <trkpt lat="45.9425" lon="6.857">
        <ele>1890.0893554688</ele>
        <time>2010-06-27T11:35:13Z</time>
      </trkpt>
      <trkpt lat="45.94245" lon="6.85704">
        <ele>1890.0893554688</ele>
        <time>2010-06-27T11:35:18Z</time>
      </trkpt>
      <trkpt lat="45.94237" lon="6.8571">
        <ele>1892.9731445312</ele>
        <time>2010-06-27T11:35:25Z</time>
      </trkpt>
      <trkpt lat="45.94232" lon="6.85719">
        <ele>1898.2602539062</ele>
        <time>2010-06-27T11:35:31Z</time>
      </trkpt>
      <trkpt lat="45.94224" lon="6.85726">
        <ele>1899.7023925781</ele>
        <time>2010-06-27T11:35:37Z</time>
      </trkpt>
      <trkpt lat="45.94218" lon="6.85731">
        <ele>1900.1833496094</ele>
        <time>2010-06-27T11:35:43Z</time>
      </trkpt>
      <trkpt lat="45.94214" lon="6.85733">
        <ele>1899.2216796875</ele>
        <time>2010-06-27T11:35:47Z</time>
      </trkpt>
      <trkpt lat="45.94205" lon="6.85737">
        <ele>1896.818359375</ele>
        <time>2010-06-27T11:35:56Z</time>
      </trkpt>
      <trkpt lat="45.94196" lon="6.85738">
        <ele>1896.818359375</ele>
        <time>2010-06-27T11:36:03Z</time>
      </trkpt>
      <trkpt lat="45.94186" lon="6.85737">
        <ele>1896.818359375</ele>
        <time>2010-06-27T11:36:10Z</time>
      </trkpt>
      <trkpt lat="45.94179" lon="6.85735">
        <ele>1896.818359375</ele>
        <time>2010-06-27T11:36:16Z</time>
      </trkpt>
      <trkpt lat="45.94175" lon="6.85735">
        <ele>1897.7797851562</ele>
        <time>2010-06-27T11:36:20Z</time>
      </trkpt>
      <trkpt lat="45.94167" lon="6.85729">
        <ele>1899.7023925781</ele>
        <time>2010-06-27T11:36:27Z</time>
      </trkpt>
      <trkpt lat="45.9416" lon="6.85723">
        <ele>1901.14453125</ele>
        <time>2010-06-27T11:36:33Z</time>
      </trkpt>
      <trkpt lat="45.94152" lon="6.85717">
        <ele>1901.6252441406</ele>
        <time>2010-06-27T11:36:40Z</time>
      </trkpt>
      <trkpt lat="45.9415" lon="6.85712">
        <ele>1900.1833496094</ele>
        <time>2010-06-27T11:36:44Z</time>
      </trkpt>
      <trkpt lat="45.94145" lon="6.85707">
        <ele>1900.1833496094</ele>
        <time>2010-06-27T11:36:49Z</time>
      </trkpt>
      <trkpt lat="45.94141" lon="6.85703">
        <ele>1901.6252441406</ele>
        <time>2010-06-27T11:36:53Z</time>
      </trkpt>
      <trkpt lat="45.94133" lon="6.85697">
        <ele>1904.5090332031</ele>
        <time>2010-06-27T11:37:00Z</time>
      </trkpt>
      <trkpt lat="45.94127" lon="6.85693">
        <ele>1906.9123535156</ele>
        <time>2010-06-27T11:37:06Z</time>
      </trkpt>
      <trkpt lat="45.94125" lon="6.8569">
        <ele>1905.9509277344</ele>
        <time>2010-06-27T11:37:08Z</time>
      </trkpt>
      <trkpt lat="45.9412" lon="6.85684">
        <ele>1909.3156738281</ele>
        <time>2010-06-27T11:37:14Z</time>
      </trkpt>
      <trkpt lat="45.94114" lon="6.85678">
        <ele>1910.7575683594</ele>
        <time>2010-06-27T11:37:20Z</time>
      </trkpt>
      <trkpt lat="45.94109" lon="6.85677">
        <ele>1912.6801757812</ele>
        <time>2010-06-27T11:37:25Z</time>
      </trkpt>
      <trkpt lat="45.94101" lon="6.85672">
        <ele>1910.7575683594</ele>
        <time>2010-06-27T11:37:34Z</time>
      </trkpt>
      <trkpt lat="45.94093" lon="6.85663">
        <ele>1911.7189941406</ele>
        <time>2010-06-27T11:37:44Z</time>
      </trkpt>
      <trkpt lat="45.94086" lon="6.85653">
        <ele>1912.6801757812</ele>
        <time>2010-06-27T11:37:52Z</time>
      </trkpt>
      <trkpt lat="45.94077" lon="6.85643">
        <ele>1915.0834960938</ele>
        <time>2010-06-27T11:38:01Z</time>
      </trkpt>
      <trkpt lat="45.94069" lon="6.85638">
        <ele>1916.5256347656</ele>
        <time>2010-06-27T11:38:07Z</time>
      </trkpt>
      <trkpt lat="45.94057" lon="6.85637">
        <ele>1917.9675292969</ele>
        <time>2010-06-27T11:38:16Z</time>
      </trkpt>
      <trkpt lat="45.9405" lon="6.85639">
        <ele>1917.9675292969</ele>
        <time>2010-06-27T11:38:22Z</time>
      </trkpt>
      <trkpt lat="45.94049" lon="6.8564">
        <ele>1917.9675292969</ele>
        <time>2010-06-27T11:38:23Z</time>
      </trkpt>
      <trkpt lat="45.94042" lon="6.85649">
        <ele>1916.5256347656</ele>
        <time>2010-06-27T11:38:31Z</time>
      </trkpt>
      <trkpt lat="45.94036" lon="6.85656">
        <ele>1917.4868164062</ele>
        <time>2010-06-27T11:38:36Z</time>
      </trkpt>
      <trkpt lat="45.94033" lon="6.85659">
        <ele>1917.9675292969</ele>
        <time>2010-06-27T11:38:39Z</time>
      </trkpt>
      <trkpt lat="45.94023" lon="6.85667">
        <ele>1917.4868164062</ele>
        <time>2010-06-27T11:38:50Z</time>
      </trkpt>
      <trkpt lat="45.94013" lon="6.85671">
        <ele>1919.4096679688</ele>
        <time>2010-06-27T11:38:58Z</time>
      </trkpt>
      <trkpt lat="45.94005" lon="6.85675">
        <ele>1920.8515625</ele>
        <time>2010-06-27T11:39:05Z</time>
      </trkpt>
      <trkpt lat="45.93997" lon="6.85679">
        <ele>1923.2548828125</ele>
        <time>2010-06-27T11:39:13Z</time>
      </trkpt>
      <trkpt lat="45.9399" lon="6.8568">
        <ele>1922.2934570312</ele>
        <time>2010-06-27T11:39:20Z</time>
      </trkpt>
      <trkpt lat="45.93979" lon="6.85681">
        <ele>1926.138671875</ele>
        <time>2010-06-27T11:39:29Z</time>
      </trkpt>
      <trkpt lat="45.9397" lon="6.85681">
        <ele>1928.5419921875</ele>
        <time>2010-06-27T11:39:37Z</time>
      </trkpt>
      <trkpt lat="45.93962" lon="6.8568">
        <ele>1930.9453125</ele>
        <time>2010-06-27T11:39:45Z</time>
      </trkpt>
      <trkpt lat="45.93953" lon="6.85677">
        <ele>1933.8293457031</ele>
        <time>2010-06-27T11:39:55Z</time>
      </trkpt>
      <trkpt lat="45.93946" lon="6.85673">
        <ele>1934.7907714844</ele>
        <time>2010-06-27T11:40:03Z</time>
      </trkpt>
      <trkpt lat="45.9394" lon="6.85669">
        <ele>1935.751953125</ele>
        <time>2010-06-27T11:40:11Z</time>
      </trkpt>
      <trkpt lat="45.93933" lon="6.85663">
        <ele>1937.6745605469</ele>
        <time>2010-06-27T11:40:21Z</time>
      </trkpt>
      <trkpt lat="45.93927" lon="6.85659">
        <ele>1939.5971679688</ele>
        <time>2010-06-27T11:40:27Z</time>
      </trkpt>
      <trkpt lat="45.93918" lon="6.85652">
        <ele>1940.0778808594</ele>
        <time>2010-06-27T11:40:38Z</time>
      </trkpt>
      <trkpt lat="45.9391" lon="6.85649">
        <ele>1940.0778808594</ele>
        <time>2010-06-27T11:40:46Z</time>
      </trkpt>
      <trkpt lat="45.93903" lon="6.85648">
        <ele>1942.0004882812</ele>
        <time>2010-06-27T11:40:53Z</time>
      </trkpt>
      <trkpt lat="45.93896" lon="6.85646">
        <ele>1942.9616699219</ele>
        <time>2010-06-27T11:40:59Z</time>
      </trkpt>
      <trkpt lat="45.93886" lon="6.85644">
        <ele>1945.3649902344</ele>
        <time>2010-06-27T11:41:08Z</time>
      </trkpt>
      <trkpt lat="45.93879" lon="6.85641">
        <ele>1946.8068847656</ele>
        <time>2010-06-27T11:41:16Z</time>
      </trkpt>
      <trkpt lat="45.93871" lon="6.85636">
        <ele>1949.2104492188</ele>
        <time>2010-06-27T11:41:23Z</time>
      </trkpt>
      <trkpt lat="45.9387" lon="6.85636">
        <ele>1948.7297363281</ele>
        <time>2010-06-27T11:41:24Z</time>
      </trkpt>
      <trkpt lat="45.93864" lon="6.85626">
        <ele>1947.7683105469</ele>
        <time>2010-06-27T11:41:32Z</time>
      </trkpt>
      <trkpt lat="45.9386" lon="6.85616">
        <ele>1946.3264160156</ele>
        <time>2010-06-27T11:41:38Z</time>
      </trkpt>
      <trkpt lat="45.93854" lon="6.85608">
        <ele>1945.845703125</ele>
        <time>2010-06-27T11:41:45Z</time>
      </trkpt>
      <trkpt lat="45.93849" lon="6.856">
        <ele>1948.2490234375</ele>
        <time>2010-06-27T11:41:52Z</time>
      </trkpt>
      <trkpt lat="45.93848" lon="6.85593">
        <ele>1949.6911621094</ele>
        <time>2010-06-27T11:41:57Z</time>
      </trkpt>
      <trkpt lat="45.9385" lon="6.85585">
        <ele>1951.1330566406</ele>
        <time>2010-06-27T11:42:03Z</time>
      </trkpt>
      <trkpt lat="45.93855" lon="6.85579">
        <ele>1951.6137695312</ele>
        <time>2010-06-27T11:42:09Z</time>
      </trkpt>
      <trkpt lat="45.93859" lon="6.85573">
        <ele>1953.5363769531</ele>
        <time>2010-06-27T11:42:15Z</time>
      </trkpt>
      <trkpt lat="45.93863" lon="6.85566">
        <ele>1955.458984375</ele>
        <time>2010-06-27T11:42:22Z</time>
      </trkpt>
      <trkpt lat="45.93868" lon="6.85559">
        <ele>1956.9008789062</ele>
        <time>2010-06-27T11:42:29Z</time>
      </trkpt>
      <trkpt lat="45.93873" lon="6.85552">
        <ele>1958.3427734375</ele>
        <time>2010-06-27T11:42:37Z</time>
      </trkpt>
      <trkpt lat="45.93878" lon="6.85544">
        <ele>1960.74609375</ele>
        <time>2010-06-27T11:42:45Z</time>
      </trkpt>
      <trkpt lat="45.93885" lon="6.85537">
        <ele>1963.6298828125</ele>
        <time>2010-06-27T11:42:54Z</time>
      </trkpt>
      <trkpt lat="45.93891" lon="6.85531">
        <ele>1964.5915527344</ele>
        <time>2010-06-27T11:43:01Z</time>
      </trkpt>
      <trkpt lat="45.93893" lon="6.85529">
        <ele>1964.5915527344</ele>
        <time>2010-06-27T11:43:04Z</time>
      </trkpt>
      <trkpt lat="45.93898" lon="6.85525">
        <ele>1965.5529785156</ele>
        <time>2010-06-27T11:43:10Z</time>
      </trkpt>
      <trkpt lat="45.93906" lon="6.8552">
        <ele>1966.0334472656</ele>
        <time>2010-06-27T11:43:17Z</time>
      </trkpt>
      <trkpt lat="45.93917" lon="6.85513">
        <ele>1966.9948730469</ele>
        <time>2010-06-27T11:43:26Z</time>
      </trkpt>
      <trkpt lat="45.93924" lon="6.85505">
        <ele>1966.9948730469</ele>
        <time>2010-06-27T11:43:33Z</time>
      </trkpt>
      <trkpt lat="45.93928" lon="6.855">
        <ele>1966.5141601562</ele>
        <time>2010-06-27T11:43:37Z</time>
      </trkpt>
      <trkpt lat="45.93931" lon="6.85493">
        <ele>1966.9948730469</ele>
        <time>2010-06-27T11:43:42Z</time>
      </trkpt>
      <trkpt lat="45.93936" lon="6.85479">
        <ele>1968.9174804688</ele>
        <time>2010-06-27T11:43:51Z</time>
      </trkpt>
      <trkpt lat="45.93939" lon="6.85468">
        <ele>1969.8786621094</ele>
        <time>2010-06-27T11:43:58Z</time>
      </trkpt>
      <trkpt lat="45.93941" lon="6.85453">
        <ele>1970.8400878906</ele>
        <time>2010-06-27T11:44:06Z</time>
      </trkpt>
      <trkpt lat="45.93943" lon="6.85439">
        <ele>1970.8400878906</ele>
        <time>2010-06-27T11:44:14Z</time>
      </trkpt>
      <trkpt lat="45.93943" lon="6.85428">
        <ele>1972.7626953125</ele>
        <time>2010-06-27T11:44:21Z</time>
      </trkpt>
      <trkpt lat="45.93943" lon="6.85427">
        <ele>1973.2434082031</ele>
        <time>2010-06-27T11:44:22Z</time>
      </trkpt>
      <trkpt lat="45.9394" lon="6.85419">
        <ele>1974.6853027344</ele>
        <time>2010-06-27T11:44:27Z</time>
      </trkpt>
      <trkpt lat="45.93933" lon="6.8541">
        <ele>1978.0498046875</ele>
        <time>2010-06-27T11:44:36Z</time>
      </trkpt>
      <trkpt lat="45.93928" lon="6.85405">
        <ele>1980.9340820312</ele>
        <time>2010-06-27T11:44:43Z</time>
      </trkpt>
      <trkpt lat="45.93921" lon="6.85398">
        <ele>1981.8952636719</ele>
        <time>2010-06-27T11:44:54Z</time>
      </trkpt>
      <trkpt lat="45.93916" lon="6.85395">
        <ele>1983.8178710938</ele>
        <time>2010-06-27T11:45:01Z</time>
      </trkpt>
      <trkpt lat="45.93909" lon="6.85387">
        <ele>1986.7016601562</ele>
        <time>2010-06-27T11:45:12Z</time>
      </trkpt>
      <trkpt lat="45.93906" lon="6.85383">
        <ele>1987.1823730469</ele>
        <time>2010-06-27T11:45:19Z</time>
      </trkpt>
      <trkpt lat="45.93904" lon="6.8538">
        <ele>1987.1823730469</ele>
        <time>2010-06-27T11:45:24Z</time>
      </trkpt>
      <trkpt lat="45.93898" lon="6.85377">
        <ele>1990.06640625</ele>
        <time>2010-06-27T11:45:31Z</time>
      </trkpt>
      <trkpt lat="45.93895" lon="6.85374">
        <ele>1989.5856933594</ele>
        <time>2010-06-27T11:45:35Z</time>
      </trkpt>
      <trkpt lat="45.93886" lon="6.85371">
        <ele>1991.0275878906</ele>
        <time>2010-06-27T11:45:45Z</time>
      </trkpt>
      <trkpt lat="45.93879" lon="6.85371">
        <ele>1992.4697265625</ele>
        <time>2010-06-27T11:45:52Z</time>
      </trkpt>
      <trkpt lat="45.93867" lon="6.85375">
        <ele>1992.4697265625</ele>
        <time>2010-06-27T11:46:02Z</time>
      </trkpt>
      <trkpt lat="45.93864" lon="6.85376">
        <ele>1992.4697265625</ele>
        <time>2010-06-27T11:46:05Z</time>
      </trkpt>
      <trkpt lat="45.93858" lon="6.85377">
        <ele>1993.9116210938</ele>
        <time>2010-06-27T11:46:12Z</time>
      </trkpt>
      <trkpt lat="45.93849" lon="6.85377">
        <ele>1995.8342285156</ele>
        <time>2010-06-27T11:46:21Z</time>
      </trkpt>
      <trkpt lat="45.93842" lon="6.85377">
        <ele>1998.2375488281</ele>
        <time>2010-06-27T11:46:28Z</time>
      </trkpt>
      <trkpt lat="45.93835" lon="6.85377">
        <ele>2000.6408691406</ele>
        <time>2010-06-27T11:46:36Z</time>
      </trkpt>
      <trkpt lat="45.93832" lon="6.85376">
        <ele>2001.6022949219</ele>
        <time>2010-06-27T11:46:41Z</time>
      </trkpt>
      <trkpt lat="45.93829" lon="6.85375">
        <ele>2003.0441894531</ele>
        <time>2010-06-27T11:46:46Z</time>
      </trkpt>
      <trkpt lat="45.93823" lon="6.85371">
        <ele>2004.966796875</ele>
        <time>2010-06-27T11:46:54Z</time>
      </trkpt>
      <trkpt lat="45.93817" lon="6.85369">
        <ele>2006.4086914062</ele>
        <time>2010-06-27T11:47:02Z</time>
      </trkpt>
      <trkpt lat="45.93813" lon="6.85368">
        <ele>2007.8508300781</ele>
        <time>2010-06-27T11:47:08Z</time>
      </trkpt>
      <trkpt lat="45.93807" lon="6.85368">
        <ele>2008.3312988281</ele>
        <time>2010-06-27T11:47:17Z</time>
      </trkpt>
      <trkpt lat="45.93804" lon="6.85366">
        <ele>2008.3312988281</ele>
        <time>2010-06-27T11:47:22Z</time>
      </trkpt>
      <trkpt lat="45.93798" lon="6.85368">
        <ele>2010.25390625</ele>
        <time>2010-06-27T11:47:29Z</time>
      </trkpt>
      <trkpt lat="45.93792" lon="6.85372">
        <ele>2010.25390625</ele>
        <time>2010-06-27T11:47:36Z</time>
      </trkpt>
      <trkpt lat="45.93787" lon="6.85374">
        <ele>2009.7731933594</ele>
        <time>2010-06-27T11:47:41Z</time>
      </trkpt>
      <trkpt lat="45.93777" lon="6.85379">
        <ele>2010.7346191406</ele>
        <time>2010-06-27T11:47:47Z</time>
      </trkpt>
      <trkpt lat="45.93774" lon="6.85383">
        <ele>2010.7346191406</ele>
        <time>2010-06-27T11:47:49Z</time>
      </trkpt>
      <trkpt lat="45.93764" lon="6.85394">
        <ele>2012.1767578125</ele>
        <time>2010-06-27T11:47:54Z</time>
      </trkpt>
      <trkpt lat="45.93761" lon="6.85402">
        <ele>2011.6960449219</ele>
        <time>2010-06-27T11:47:57Z</time>
      </trkpt>
      <trkpt lat="45.93754" lon="6.85412">
        <ele>2013.1381835938</ele>
        <time>2010-06-27T11:48:02Z</time>
      </trkpt>
      <trkpt lat="45.93752" lon="6.85415">
        <ele>2013.6186523438</ele>
        <time>2010-06-27T11:48:03Z</time>
      </trkpt>
      <trkpt lat="45.9375" lon="6.85419">
        <ele>2014.0993652344</ele>
        <time>2010-06-27T11:48:05Z</time>
      </trkpt>
    </trkseg>
  </trk>
</gpx>